<?xml version='1.0' encoding='UTF-8'?><gpx version="1.1" creator="JPX - https://github.com/jenetics/jpx" xmlns="http://www.topografix.com/GPX/1/1"><trk><trkseg><trkpt lat="43.9804978" lon="12.6840727"><ele>6.0</ele><time>2026-04-18T08:28:19.666Z</time></trkpt><trkpt lat="43.9804108" lon="12.6841948"><ele>6.0</ele><time>2026-04-18T08:28:20.668Z</time></trkpt><trkpt lat="43.9803288" lon="12.6843177"><ele>6.0</ele><time>2026-04-18T08:28:21.668Z</time></trkpt><trkpt lat="43.9802408" lon="12.6844421"><ele>6.0</ele><time>2026-04-18T08:28:22.667Z</time></trkpt><trkpt lat="43.9800587" lon="12.684694"><ele>6.25</ele><time>2026-04-18T08:28:24.667Z</time></trkpt><trkpt lat="43.9799707" lon="12.6848231"><ele>6.5</ele><time>2026-04-18T08:28:25.667Z</time></trkpt><trkpt lat="43.9798826" lon="12.6849526"><ele>6.75</ele><time>2026-04-18T08:28:26.667Z</time></trkpt><trkpt lat="43.9797938" lon="12.685086"><ele>7.0</ele><time>2026-04-18T08:28:27.668Z</time></trkpt><trkpt lat="43.9797015" lon="12.6852192"><ele>6.75</ele><time>2026-04-18T08:28:28.666Z</time></trkpt><trkpt lat="43.9796065" lon="12.6853577"><ele>6.5</ele><time>2026-04-18T08:28:29.666Z</time></trkpt><trkpt lat="43.9795113" lon="12.6854971"><ele>6.25</ele><time>2026-04-18T08:28:30.664Z</time></trkpt><trkpt lat="43.9794182" lon="12.6856312"><ele>6.0</ele><time>2026-04-18T08:28:31.665Z</time></trkpt><trkpt lat="43.9793329" lon="12.6857588"><ele>6.0</ele><time>2026-04-18T08:28:32.667Z</time></trkpt><trkpt lat="43.9792524" lon="12.6858828"><ele>6.0</ele><time>2026-04-18T08:28:33.667Z</time></trkpt><trkpt lat="43.9791944" lon="12.6859935"><ele>6.0</ele><time>2026-04-18T08:28:34.666Z</time></trkpt><trkpt lat="43.9791492" lon="12.6860883"><ele>6.0</ele><time>2026-04-18T08:28:35.667Z</time></trkpt><trkpt lat="43.9791051" lon="12.6861592"><ele>6.0</ele><time>2026-04-18T08:28:36.667Z</time></trkpt><trkpt lat="43.9789978" lon="12.6862732"><ele>5.75</ele><time>2026-04-18T08:28:38.668Z</time></trkpt><trkpt lat="43.9789226" lon="12.6863542"><ele>5.5</ele><time>2026-04-18T08:28:39.667Z</time></trkpt><trkpt lat="43.9788466" lon="12.6864907"><ele>5.25</ele><time>2026-04-18T08:28:40.666Z</time></trkpt><trkpt lat="43.9787694" lon="12.6866508"><ele>5.0</ele><time>2026-04-18T08:28:41.667Z</time></trkpt><trkpt lat="43.978678" lon="12.6868132"><ele>4.666666666666667</ele><time>2026-04-18T08:28:42.667Z</time></trkpt><trkpt lat="43.9785669" lon="12.6869792"><ele>4.333333333333333</ele><time>2026-04-18T08:28:43.667Z</time></trkpt><trkpt lat="43.9784433" lon="12.6871828"><ele>4.0</ele><time>2026-04-18T08:28:44.666Z</time></trkpt><trkpt lat="43.9783152" lon="12.6874119"><ele>4.0</ele><time>2026-04-18T08:28:45.666Z</time></trkpt><trkpt lat="43.9781928" lon="12.6876433"><ele>4.0</ele><time>2026-04-18T08:28:46.666Z</time></trkpt><trkpt lat="43.9780699" lon="12.6878729"><ele>4.0</ele><time>2026-04-18T08:28:47.666Z</time></trkpt><trkpt lat="43.9779563" lon="12.688103"><ele>3.6666666666666665</ele><time>2026-04-18T08:28:48.667Z</time></trkpt><trkpt lat="43.977849" lon="12.6883229"><ele>3.333333333333333</ele><time>2026-04-18T08:28:49.666Z</time></trkpt><trkpt lat="43.9777433" lon="12.6885287"><ele>3.0</ele><time>2026-04-18T08:28:50.667Z</time></trkpt><trkpt lat="43.9776426" lon="12.6887315"><ele>3.0</ele><time>2026-04-18T08:28:51.666Z</time></trkpt><trkpt lat="43.977547" lon="12.6889299"><ele>3.0</ele><time>2026-04-18T08:28:52.667Z</time></trkpt><trkpt lat="43.9774549" lon="12.6891238"><ele>3.0</ele><time>2026-04-18T08:28:53.666Z</time></trkpt><trkpt lat="43.9773563" lon="12.6893151"><ele>3.333333333333333</ele><time>2026-04-18T08:28:54.667Z</time></trkpt><trkpt lat="43.9772595" lon="12.689506"><ele>3.6666666666666665</ele><time>2026-04-18T08:28:55.666Z</time></trkpt><trkpt lat="43.9771653" lon="12.6896947"><ele>4.0</ele><time>2026-04-18T08:28:56.667Z</time></trkpt><trkpt lat="43.9770718" lon="12.6898798"><ele>4.0</ele><time>2026-04-18T08:28:57.667Z</time></trkpt><trkpt lat="43.9769804" lon="12.6900613"><ele>4.0</ele><time>2026-04-18T08:28:58.665Z</time></trkpt><trkpt lat="43.9768918" lon="12.6902408"><ele>4.0</ele><time>2026-04-18T08:28:59.665Z</time></trkpt><trkpt lat="43.9768023" lon="12.6904141"><ele>4.0</ele><time>2026-04-18T08:29:00.667Z</time></trkpt><trkpt lat="43.9767151" lon="12.6905869"><ele>4.0</ele><time>2026-04-18T08:29:01.666Z</time></trkpt><trkpt lat="43.9766273" lon="12.6907598"><ele>4.0</ele><time>2026-04-18T08:29:02.666Z</time></trkpt><trkpt lat="43.9765403" lon="12.6909302"><ele>4.25</ele><time>2026-04-18T08:29:03.667Z</time></trkpt><trkpt lat="43.9764533" lon="12.6910935"><ele>4.5</ele><time>2026-04-18T08:29:04.665Z</time></trkpt><trkpt lat="43.9763667" lon="12.6912509"><ele>4.75</ele><time>2026-04-18T08:29:05.665Z</time></trkpt><trkpt lat="43.9762865" lon="12.6914076"><ele>5.0</ele><time>2026-04-18T08:29:06.667Z</time></trkpt><trkpt lat="43.9762034" lon="12.691557"><ele>5.0</ele><time>2026-04-18T08:29:07.666Z</time></trkpt><trkpt lat="43.9761196" lon="12.6917066"><ele>5.0</ele><time>2026-04-18T08:29:08.667Z</time></trkpt><trkpt lat="43.976044" lon="12.6918625"><ele>5.0</ele><time>2026-04-18T08:29:09.668Z</time></trkpt><trkpt lat="43.9759707" lon="12.6920185"><ele>5.0</ele><time>2026-04-18T08:29:10.666Z</time></trkpt><trkpt lat="43.9758994" lon="12.6921694"><ele>4.75</ele><time>2026-04-18T08:29:11.667Z</time></trkpt><trkpt lat="43.9758272" lon="12.6923124"><ele>4.5</ele><time>2026-04-18T08:29:12.666Z</time></trkpt><trkpt lat="43.975758" lon="12.6924534"><ele>4.25</ele><time>2026-04-18T08:29:13.666Z</time></trkpt><trkpt lat="43.9756884" lon="12.6925904"><ele>4.0</ele><time>2026-04-18T08:29:14.667Z</time></trkpt><trkpt lat="43.9756218" lon="12.6927307"><ele>3.5</ele><time>2026-04-18T08:29:15.67Z</time></trkpt><trkpt lat="43.9755552" lon="12.6928716"><ele>3.0</ele><time>2026-04-18T08:29:16.665Z</time></trkpt><trkpt lat="43.9754829" lon="12.6930144"><ele>2.5</ele><time>2026-04-18T08:29:17.667Z</time></trkpt><trkpt lat="43.975407" lon="12.6931576"><ele>2.0</ele><time>2026-04-18T08:29:18.666Z</time></trkpt><trkpt lat="43.9753299" lon="12.6933019"><ele>2.0</ele><time>2026-04-18T08:29:19.666Z</time></trkpt><trkpt lat="43.9752521" lon="12.6934449"><ele>2.0</ele><time>2026-04-18T08:29:20.666Z</time></trkpt><trkpt lat="43.9751784" lon="12.6935804"><ele>2.0</ele><time>2026-04-18T08:29:21.667Z</time></trkpt><trkpt lat="43.9751114" lon="12.6937019"><ele>2.0</ele><time>2026-04-18T08:29:22.669Z</time></trkpt><trkpt lat="43.9750511" lon="12.6938132"><ele>2.1666666666666665</ele><time>2026-04-18T08:29:23.67Z</time></trkpt><trkpt lat="43.9749988" lon="12.6939139"><ele>2.333333333333333</ele><time>2026-04-18T08:29:24.668Z</time></trkpt><trkpt lat="43.9749529" lon="12.6940039"><ele>2.5</ele><time>2026-04-18T08:29:25.668Z</time></trkpt><trkpt lat="43.9749137" lon="12.694079"><ele>2.6666666666666665</ele><time>2026-04-18T08:29:26.667Z</time></trkpt><trkpt lat="43.9748482" lon="12.6941937"><ele>2.8333333333333335</ele><time>2026-04-18T08:29:28.666Z</time></trkpt><trkpt lat="43.9748037" lon="12.6942779"><ele>3.0</ele><time>2026-04-18T08:29:30.666Z</time></trkpt><trkpt lat="43.9747617" lon="12.6943571"><ele>3.0</ele><time>2026-04-18T08:29:34.666Z</time></trkpt><trkpt lat="43.974716" lon="12.6944347"><ele>3.0</ele><time>2026-04-18T08:29:52.664Z</time></trkpt><trkpt lat="43.9746641" lon="12.6945252"><ele>3.0</ele><time>2026-04-18T08:29:53.665Z</time></trkpt><trkpt lat="43.9746046" lon="12.69463"><ele>3.0</ele><time>2026-04-18T08:29:54.663Z</time></trkpt><trkpt lat="43.9745328" lon="12.694769"><ele>3.0</ele><time>2026-04-18T08:29:55.665Z</time></trkpt><trkpt lat="43.9744568" lon="12.6949219"><ele>3.0</ele><time>2026-04-18T08:29:56.665Z</time></trkpt><trkpt lat="43.9743749" lon="12.695084"><ele>3.0</ele><time>2026-04-18T08:29:57.665Z</time></trkpt><trkpt lat="43.9742851" lon="12.6952597"><ele>3.0</ele><time>2026-04-18T08:29:58.665Z</time></trkpt><trkpt lat="43.9741898" lon="12.6954428"><ele>3.0</ele><time>2026-04-18T08:29:59.665Z</time></trkpt><trkpt lat="43.9740911" lon="12.6956286"><ele>3.0</ele><time>2026-04-18T08:30:00.665Z</time></trkpt><trkpt lat="43.9739905" lon="12.6958232"><ele>3.0</ele><time>2026-04-18T08:30:01.665Z</time></trkpt><trkpt lat="43.9738871" lon="12.6960225"><ele>3.333333333333333</ele><time>2026-04-18T08:30:02.665Z</time></trkpt><trkpt lat="43.973783" lon="12.6962235"><ele>3.6666666666666665</ele><time>2026-04-18T08:30:03.664Z</time></trkpt><trkpt lat="43.9736761" lon="12.6964258"><ele>4.0</ele><time>2026-04-18T08:30:04.664Z</time></trkpt><trkpt lat="43.9735665" lon="12.69663"><ele>4.0</ele><time>2026-04-18T08:30:05.665Z</time></trkpt><trkpt lat="43.9734579" lon="12.6968384"><ele>4.0</ele><time>2026-04-18T08:30:06.665Z</time></trkpt><trkpt lat="43.973351" lon="12.6970526"><ele>4.0</ele><time>2026-04-18T08:30:07.665Z</time></trkpt><trkpt lat="43.9732458" lon="12.6972682"><ele>3.6666666666666665</ele><time>2026-04-18T08:30:08.665Z</time></trkpt><trkpt lat="43.9731393" lon="12.6974851"><ele>3.333333333333333</ele><time>2026-04-18T08:30:09.665Z</time></trkpt><trkpt lat="43.9730314" lon="12.6977023"><ele>3.0</ele><time>2026-04-18T08:30:10.665Z</time></trkpt><trkpt lat="43.9729233" lon="12.6979209"><ele>2.3333333333333335</ele><time>2026-04-18T08:30:11.665Z</time></trkpt><trkpt lat="43.9728174" lon="12.6981455"><ele>1.6666666666666665</ele><time>2026-04-18T08:30:12.665Z</time></trkpt><trkpt lat="43.972711" lon="12.6983694"><ele>1.0</ele><time>2026-04-18T08:30:13.665Z</time></trkpt><trkpt lat="43.9726041" lon="12.6985907"><ele>0.3333333333333333</ele><time>2026-04-18T08:30:14.665Z</time></trkpt><trkpt lat="43.9724945" lon="12.6988102"><ele>-0.3333333333333333</ele><time>2026-04-18T08:30:15.668Z</time></trkpt><trkpt lat="43.972385" lon="12.6990275"><ele>-1.0</ele><time>2026-04-18T08:30:16.664Z</time></trkpt><trkpt lat="43.9722763" lon="12.6992519"><ele>-0.6666666666666666</ele><time>2026-04-18T08:30:17.665Z</time></trkpt><trkpt lat="43.9721716" lon="12.6994767"><ele>-0.3333333333333333</ele><time>2026-04-18T08:30:18.663Z</time></trkpt><trkpt lat="43.9720655" lon="12.699705"><ele>0.0</ele><time>2026-04-18T08:30:19.664Z</time></trkpt><trkpt lat="43.9719634" lon="12.6999245"><ele>0.0</ele><time>2026-04-18T08:30:20.665Z</time></trkpt><trkpt lat="43.9718665" lon="12.7001242"><ele>0.0</ele><time>2026-04-18T08:30:21.664Z</time></trkpt><trkpt lat="43.9717743" lon="12.7003094"><ele>0.0</ele><time>2026-04-18T08:30:22.664Z</time></trkpt><trkpt lat="43.9716837" lon="12.7004865"><ele>0.0</ele><time>2026-04-18T08:30:23.665Z</time></trkpt><trkpt lat="43.9716021" lon="12.7006566"><ele>0.0</ele><time>2026-04-18T08:30:24.665Z</time></trkpt><trkpt lat="43.971526" lon="12.7008187"><ele>0.0</ele><time>2026-04-18T08:30:25.664Z</time></trkpt><trkpt lat="43.9714564" lon="12.7009725"><ele>0.0</ele><time>2026-04-18T08:30:26.671Z</time></trkpt><trkpt lat="43.9713874" lon="12.7011229"><ele>-0.2</ele><time>2026-04-18T08:30:27.667Z</time></trkpt><trkpt lat="43.9713234" lon="12.7012688"><ele>-0.4</ele><time>2026-04-18T08:30:28.665Z</time></trkpt><trkpt lat="43.9712607" lon="12.7014033"><ele>-0.6000000000000001</ele><time>2026-04-18T08:30:29.665Z</time></trkpt><trkpt lat="43.9711994" lon="12.7015278"><ele>-0.8</ele><time>2026-04-18T08:30:30.666Z</time></trkpt><trkpt lat="43.971134" lon="12.701634"><ele>-1.0</ele><time>2026-04-18T08:30:31.666Z</time></trkpt><trkpt lat="43.9710552" lon="12.7017155"><ele>-0.9999999999999999</ele><time>2026-04-18T08:30:32.667Z</time></trkpt><trkpt lat="43.9709706" lon="12.7017733"><ele>-1.0</ele><time>2026-04-18T08:30:33.666Z</time></trkpt><trkpt lat="43.9708986" lon="12.7018403"><ele>-1.0</ele><time>2026-04-18T08:30:34.665Z</time></trkpt><trkpt lat="43.9708496" lon="12.7019296"><ele>-1.0</ele><time>2026-04-18T08:30:35.666Z</time></trkpt><trkpt lat="43.9708341" lon="12.7020446"><ele>-0.9999999999999999</ele><time>2026-04-18T08:30:36.666Z</time></trkpt><trkpt lat="43.9708358" lon="12.7021863"><ele>-1.0</ele><time>2026-04-18T08:30:37.667Z</time></trkpt><trkpt lat="43.9708188" lon="12.7023484"><ele>-0.5</ele><time>2026-04-18T08:30:38.677Z</time></trkpt><trkpt lat="43.9707688" lon="12.7025121"><ele>0.0</ele><time>2026-04-18T08:30:39.666Z</time></trkpt><trkpt lat="43.970703" lon="12.7026742"><ele>0.5</ele><time>2026-04-18T08:30:40.666Z</time></trkpt><trkpt lat="43.9706294" lon="12.7028376"><ele>1.0</ele><time>2026-04-18T08:30:41.666Z</time></trkpt><trkpt lat="43.9705563" lon="12.7030084"><ele>1.25</ele><time>2026-04-18T08:30:42.666Z</time></trkpt><trkpt lat="43.9704867" lon="12.7031792"><ele>1.5</ele><time>2026-04-18T08:30:43.666Z</time></trkpt><trkpt lat="43.9704228" lon="12.7033416"><ele>1.75</ele><time>2026-04-18T08:30:44.665Z</time></trkpt><trkpt lat="43.9703626" lon="12.7034897"><ele>2.0</ele><time>2026-04-18T08:30:45.665Z</time></trkpt><trkpt lat="43.9703076" lon="12.7036273"><ele>2.25</ele><time>2026-04-18T08:30:46.665Z</time></trkpt><trkpt lat="43.9702527" lon="12.7037658"><ele>2.5</ele><time>2026-04-18T08:30:47.665Z</time></trkpt><trkpt lat="43.9701948" lon="12.7039058"><ele>2.75</ele><time>2026-04-18T08:30:48.672Z</time></trkpt><trkpt lat="43.9701357" lon="12.7040497"><ele>3.0</ele><time>2026-04-18T08:30:49.664Z</time></trkpt><trkpt lat="43.9700732" lon="12.7041944"><ele>3.0</ele><time>2026-04-18T08:30:50.672Z</time></trkpt><trkpt lat="43.9700092" lon="12.704342"><ele>3.0</ele><time>2026-04-18T08:30:51.665Z</time></trkpt><trkpt lat="43.9699468" lon="12.7044912"><ele>3.0</ele><time>2026-04-18T08:30:52.664Z</time></trkpt><trkpt lat="43.9698837" lon="12.7046412"><ele>3.0</ele><time>2026-04-18T08:30:53.667Z</time></trkpt><trkpt lat="43.9698228" lon="12.7047876"><ele>3.0</ele><time>2026-04-18T08:30:54.667Z</time></trkpt><trkpt lat="43.9697622" lon="12.7049346"><ele>3.0</ele><time>2026-04-18T08:30:55.666Z</time></trkpt><trkpt lat="43.9697026" lon="12.7050803"><ele>3.0</ele><time>2026-04-18T08:30:56.667Z</time></trkpt><trkpt lat="43.9696493" lon="12.7052275"><ele>3.0</ele><time>2026-04-18T08:30:57.672Z</time></trkpt><trkpt lat="43.9695951" lon="12.7053735"><ele>3.5</ele><time>2026-04-18T08:30:58.666Z</time></trkpt><trkpt lat="43.9695372" lon="12.7055207"><ele>4.0</ele><time>2026-04-18T08:30:59.671Z</time></trkpt><trkpt lat="43.9694778" lon="12.7056676"><ele>4.5</ele><time>2026-04-18T08:31:00.666Z</time></trkpt><trkpt lat="43.9694147" lon="12.7058171"><ele>5.0</ele><time>2026-04-18T08:31:01.666Z</time></trkpt><trkpt lat="43.9693505" lon="12.7059672"><ele>4.5</ele><time>2026-04-18T08:31:02.666Z</time></trkpt><trkpt lat="43.9692847" lon="12.7061175"><ele>4.0</ele><time>2026-04-18T08:31:03.666Z</time></trkpt><trkpt lat="43.9692166" lon="12.7062693"><ele>3.5</ele><time>2026-04-18T08:31:04.665Z</time></trkpt><trkpt lat="43.9691495" lon="12.7064216"><ele>3.0</ele><time>2026-04-18T08:31:05.668Z</time></trkpt><trkpt lat="43.9690831" lon="12.7065766"><ele>2.75</ele><time>2026-04-18T08:31:06.667Z</time></trkpt><trkpt lat="43.9690083" lon="12.7067302"><ele>2.5</ele><time>2026-04-18T08:31:07.666Z</time></trkpt><trkpt lat="43.9689343" lon="12.7068793"><ele>2.25</ele><time>2026-04-18T08:31:08.666Z</time></trkpt><trkpt lat="43.9688573" lon="12.7070266"><ele>2.0</ele><time>2026-04-18T08:31:09.666Z</time></trkpt><trkpt lat="43.9687737" lon="12.7071785"><ele>2.0</ele><time>2026-04-18T08:31:10.665Z</time></trkpt><trkpt lat="43.9686878" lon="12.7073415"><ele>2.0</ele><time>2026-04-18T08:31:11.666Z</time></trkpt><trkpt lat="43.9685993" lon="12.7075025"><ele>2.0</ele><time>2026-04-18T08:31:12.668Z</time></trkpt><trkpt lat="43.9685068" lon="12.7076577"><ele>2.0</ele><time>2026-04-18T08:31:13.666Z</time></trkpt><trkpt lat="43.9684118" lon="12.7078087"><ele>2.25</ele><time>2026-04-18T08:31:14.665Z</time></trkpt><trkpt lat="43.9683177" lon="12.7079581"><ele>2.5</ele><time>2026-04-18T08:31:15.664Z</time></trkpt><trkpt lat="43.968223" lon="12.7081064"><ele>2.75</ele><time>2026-04-18T08:31:16.664Z</time></trkpt><trkpt lat="43.9681236" lon="12.7082523"><ele>3.0</ele><time>2026-04-18T08:31:17.665Z</time></trkpt><trkpt lat="43.9680215" lon="12.708391"><ele>3.0</ele><time>2026-04-18T08:31:18.664Z</time></trkpt><trkpt lat="43.967916" lon="12.7085253"><ele>3.0</ele><time>2026-04-18T08:31:19.664Z</time></trkpt><trkpt lat="43.9678088" lon="12.7086587"><ele>3.0</ele><time>2026-04-18T08:31:20.665Z</time></trkpt><trkpt lat="43.9677045" lon="12.7087929"><ele>3.0</ele><time>2026-04-18T08:31:21.664Z</time></trkpt><trkpt lat="43.9675997" lon="12.7089332"><ele>3.0</ele><time>2026-04-18T08:31:22.664Z</time></trkpt><trkpt lat="43.9674918" lon="12.7090706"><ele>3.0</ele><time>2026-04-18T08:31:23.664Z</time></trkpt><trkpt lat="43.9673801" lon="12.7092054"><ele>3.0</ele><time>2026-04-18T08:31:24.664Z</time></trkpt><trkpt lat="43.9672641" lon="12.7093372"><ele>3.0</ele><time>2026-04-18T08:31:25.665Z</time></trkpt><trkpt lat="43.9671432" lon="12.7094629"><ele>3.0</ele><time>2026-04-18T08:31:26.665Z</time></trkpt><trkpt lat="43.9670198" lon="12.7095864"><ele>3.0</ele><time>2026-04-18T08:31:27.665Z</time></trkpt><trkpt lat="43.9668963" lon="12.7097095"><ele>3.0</ele><time>2026-04-18T08:31:28.664Z</time></trkpt><trkpt lat="43.9667709" lon="12.7098265"><ele>4.5</ele><time>2026-04-18T08:31:29.665Z</time></trkpt><trkpt lat="43.9666428" lon="12.7099355"><ele>6.0</ele><time>2026-04-18T08:31:30.666Z</time></trkpt><trkpt lat="43.9665153" lon="12.7100349"><ele>7.5</ele><time>2026-04-18T08:31:31.665Z</time></trkpt><trkpt lat="43.9663938" lon="12.7101285"><ele>9.0</ele><time>2026-04-18T08:31:32.665Z</time></trkpt><trkpt lat="43.9662764" lon="12.7102252"><ele>8.75</ele><time>2026-04-18T08:31:33.667Z</time></trkpt><trkpt lat="43.9661575" lon="12.7103242"><ele>8.5</ele><time>2026-04-18T08:31:34.664Z</time></trkpt><trkpt lat="43.9660392" lon="12.7104224"><ele>8.25</ele><time>2026-04-18T08:31:35.665Z</time></trkpt><trkpt lat="43.9659213" lon="12.710516"><ele>8.0</ele><time>2026-04-18T08:31:36.664Z</time></trkpt><trkpt lat="43.9658028" lon="12.7106098"><ele>8.75</ele><time>2026-04-18T08:31:37.665Z</time></trkpt><trkpt lat="43.9656837" lon="12.7106995"><ele>9.5</ele><time>2026-04-18T08:31:38.666Z</time></trkpt><trkpt lat="43.9655663" lon="12.7107894"><ele>10.25</ele><time>2026-04-18T08:31:39.666Z</time></trkpt><trkpt lat="43.9654417" lon="12.710875"><ele>11.0</ele><time>2026-04-18T08:31:40.667Z</time></trkpt><trkpt lat="43.9653233" lon="12.71096"><ele>11.0</ele><time>2026-04-18T08:31:41.667Z</time></trkpt><trkpt lat="43.9651983" lon="12.711045"><ele>11.0</ele><time>2026-04-18T08:31:42.667Z</time></trkpt><trkpt lat="43.9650683" lon="12.7111333"><ele>11.0</ele><time>2026-04-18T08:31:43.666Z</time></trkpt><trkpt lat="43.96493" lon="12.7112217"><ele>11.0</ele><time>2026-04-18T08:31:44.666Z</time></trkpt><trkpt lat="43.9647883" lon="12.711315"><ele>9.666666666666666</ele><time>2026-04-18T08:31:45.664Z</time></trkpt><trkpt lat="43.96464" lon="12.711405"><ele>8.333333333333334</ele><time>2026-04-18T08:31:46.664Z</time></trkpt><trkpt lat="43.9644917" lon="12.7115017"><ele>7.0</ele><time>2026-04-18T08:31:47.664Z</time></trkpt><trkpt lat="43.9643367" lon="12.7116017"><ele>6.666666666666667</ele><time>2026-04-18T08:31:48.664Z</time></trkpt><trkpt lat="43.96418" lon="12.711705"><ele>6.333333333333334</ele><time>2026-04-18T08:31:49.664Z</time></trkpt><trkpt lat="43.964025" lon="12.711815"><ele>6.0</ele><time>2026-04-18T08:31:50.665Z</time></trkpt><trkpt lat="43.96387" lon="12.7119167"><ele>6.0</ele><time>2026-04-18T08:31:51.665Z</time></trkpt><trkpt lat="43.96371" lon="12.71202"><ele>6.0</ele><time>2026-04-18T08:31:52.664Z</time></trkpt><trkpt lat="43.9635417" lon="12.7121233"><ele>6.0</ele><time>2026-04-18T08:31:53.664Z</time></trkpt><trkpt lat="43.9633733" lon="12.7122317"><ele>7.666666666666666</ele><time>2026-04-18T08:31:54.666Z</time></trkpt><trkpt lat="43.9632033" lon="12.71234"><ele>9.333333333333332</ele><time>2026-04-18T08:31:55.665Z</time></trkpt><trkpt lat="43.9630333" lon="12.7124533"><ele>11.0</ele><time>2026-04-18T08:31:56.664Z</time></trkpt><trkpt lat="43.9628633" lon="12.7125683"><ele>11.0</ele><time>2026-04-18T08:31:57.665Z</time></trkpt><trkpt lat="43.9626967" lon="12.7126817"><ele>11.0</ele><time>2026-04-18T08:31:58.664Z</time></trkpt><trkpt lat="43.9625283" lon="12.712795"><ele>11.0</ele><time>2026-04-18T08:31:59.665Z</time></trkpt><trkpt lat="43.96236" lon="12.71291"><ele>12.0</ele><time>2026-04-18T08:32:00.665Z</time></trkpt><trkpt lat="43.9621933" lon="12.713025"><ele>13.0</ele><time>2026-04-18T08:32:01.665Z</time></trkpt><trkpt lat="43.962025" lon="12.7131333"><ele>14.0</ele><time>2026-04-18T08:32:02.665Z</time></trkpt><trkpt lat="43.9618583" lon="12.7132483"><ele>14.333333333333334</ele><time>2026-04-18T08:32:03.665Z</time></trkpt><trkpt lat="43.9616933" lon="12.7133767"><ele>14.666666666666668</ele><time>2026-04-18T08:32:04.664Z</time></trkpt><trkpt lat="43.9615233" lon="12.7135017"><ele>15.0</ele><time>2026-04-18T08:32:05.665Z</time></trkpt><trkpt lat="43.9613533" lon="12.71363"><ele>15.333333333333332</ele><time>2026-04-18T08:32:06.664Z</time></trkpt><trkpt lat="43.9611833" lon="12.7137633"><ele>15.666666666666666</ele><time>2026-04-18T08:32:07.664Z</time></trkpt><trkpt lat="43.9610133" lon="12.7139067"><ele>16.0</ele><time>2026-04-18T08:32:08.664Z</time></trkpt><trkpt lat="43.960845" lon="12.71406"><ele>16.333333333333332</ele><time>2026-04-18T08:32:09.665Z</time></trkpt><trkpt lat="43.9606783" lon="12.714225"><ele>16.666666666666668</ele><time>2026-04-18T08:32:10.664Z</time></trkpt><trkpt lat="43.96052" lon="12.7144"><ele>17.0</ele><time>2026-04-18T08:32:11.665Z</time></trkpt><trkpt lat="43.9603683" lon="12.7145833"><ele>17.333333333333336</ele><time>2026-04-18T08:32:12.665Z</time></trkpt><trkpt lat="43.960215" lon="12.71478"><ele>17.666666666666668</ele><time>2026-04-18T08:32:13.666Z</time></trkpt><trkpt lat="43.9600717" lon="12.71498"><ele>18.0</ele><time>2026-04-18T08:32:14.667Z</time></trkpt><trkpt lat="43.9599267" lon="12.71518"><ele>19.0</ele><time>2026-04-18T08:32:15.665Z</time></trkpt><trkpt lat="43.9597883" lon="12.715385"><ele>20.0</ele><time>2026-04-18T08:32:16.664Z</time></trkpt><trkpt lat="43.959665" lon="12.715605"><ele>21.0</ele><time>2026-04-18T08:32:17.664Z</time></trkpt><trkpt lat="43.9595483" lon="12.71583"><ele>21.0</ele><time>2026-04-18T08:32:18.664Z</time></trkpt><trkpt lat="43.9594367" lon="12.71606"><ele>21.0</ele><time>2026-04-18T08:32:19.664Z</time></trkpt><trkpt lat="43.9593333" lon="12.7162967"><ele>21.0</ele><time>2026-04-18T08:32:20.664Z</time></trkpt><trkpt lat="43.9592367" lon="12.7165367"><ele>21.0</ele><time>2026-04-18T08:32:21.665Z</time></trkpt><trkpt lat="43.959145" lon="12.71678"><ele>21.0</ele><time>2026-04-18T08:32:22.664Z</time></trkpt><trkpt lat="43.9590583" lon="12.7170267"><ele>21.0</ele><time>2026-04-18T08:32:23.664Z</time></trkpt><trkpt lat="43.958975" lon="12.717275"><ele>20.0</ele><time>2026-04-18T08:32:24.664Z</time></trkpt><trkpt lat="43.958905" lon="12.7175283"><ele>19.0</ele><time>2026-04-18T08:32:25.664Z</time></trkpt><trkpt lat="43.9588367" lon="12.7177783"><ele>18.0</ele><time>2026-04-18T08:32:26.665Z</time></trkpt><trkpt lat="43.9587683" lon="12.7180233"><ele>17.0</ele><time>2026-04-18T08:32:27.664Z</time></trkpt><trkpt lat="43.958715" lon="12.7182617"><ele>16.0</ele><time>2026-04-18T08:32:28.664Z</time></trkpt><trkpt lat="43.9586617" lon="12.71849"><ele>15.0</ele><time>2026-04-18T08:32:29.664Z</time></trkpt><trkpt lat="43.9586167" lon="12.7187067"><ele>14.5</ele><time>2026-04-18T08:32:30.664Z</time></trkpt><trkpt lat="43.958575" lon="12.7189083"><ele>14.0</ele><time>2026-04-18T08:32:31.665Z</time></trkpt><trkpt lat="43.9585383" lon="12.7190967"><ele>13.5</ele><time>2026-04-18T08:32:32.665Z</time></trkpt><trkpt lat="43.9585083" lon="12.7192733"><ele>13.0</ele><time>2026-04-18T08:32:33.665Z</time></trkpt><trkpt lat="43.9584867" lon="12.7194267"><ele>12.999999999999998</ele><time>2026-04-18T08:32:34.664Z</time></trkpt><trkpt lat="43.9584717" lon="12.71956"><ele>13.0</ele><time>2026-04-18T08:32:35.665Z</time></trkpt><trkpt lat="43.9584533" lon="12.7196633"><ele>13.0</ele><time>2026-04-18T08:32:36.665Z</time></trkpt><trkpt lat="43.9584383" lon="12.7197983"><ele>13.0</ele><time>2026-04-18T08:32:38.666Z</time></trkpt><trkpt lat="43.9584283" lon="12.71991"><ele>12.999999999999998</ele><time>2026-04-18T08:32:41.665Z</time></trkpt><trkpt lat="43.9583733" lon="12.7200117"><ele>13.0</ele><time>2026-04-18T08:32:43.664Z</time></trkpt><trkpt lat="43.958295" lon="12.7201083"><ele>13.833333333333332</ele><time>2026-04-18T08:32:45.664Z</time></trkpt><trkpt lat="43.958255" lon="12.7201783"><ele>14.666666666666666</ele><time>2026-04-18T08:32:46.664Z</time></trkpt><trkpt lat="43.958235" lon="12.720275"><ele>15.5</ele><time>2026-04-18T08:32:47.663Z</time></trkpt><trkpt lat="43.95824" lon="12.7203883"><ele>16.333333333333332</ele><time>2026-04-18T08:32:48.664Z</time></trkpt><trkpt lat="43.9582717" lon="12.72052"><ele>17.166666666666668</ele><time>2026-04-18T08:32:49.664Z</time></trkpt><trkpt lat="43.95831" lon="12.7206667"><ele>18.0</ele><time>2026-04-18T08:32:50.664Z</time></trkpt><trkpt lat="43.9582967" lon="12.72085"><ele>17.666666666666668</ele><time>2026-04-18T08:32:51.664Z</time></trkpt><trkpt lat="43.9582583" lon="12.7210917"><ele>17.333333333333336</ele><time>2026-04-18T08:32:52.663Z</time></trkpt><trkpt lat="43.958215" lon="12.721375"><ele>17.0</ele><time>2026-04-18T08:32:53.663Z</time></trkpt><trkpt lat="43.9581617" lon="12.7216783"><ele>15.0</ele><time>2026-04-18T08:32:54.665Z</time></trkpt><trkpt lat="43.95811" lon="12.7220033"><ele>13.0</ele><time>2026-04-18T08:32:55.663Z</time></trkpt><trkpt lat="43.9580567" lon="12.7223317"><ele>13.0</ele><time>2026-04-18T08:32:56.663Z</time></trkpt><trkpt lat="43.95799" lon="12.7226517"><ele>13.0</ele><time>2026-04-18T08:32:57.664Z</time></trkpt><trkpt lat="43.957915" lon="12.7229817"><ele>12.0</ele><time>2026-04-18T08:32:58.665Z</time></trkpt><trkpt lat="43.95783" lon="12.723325"><ele>11.0</ele><time>2026-04-18T08:32:59.664Z</time></trkpt><trkpt lat="43.9577483" lon="12.7236583"><ele>10.0</ele><time>2026-04-18T08:33:00.664Z</time></trkpt><trkpt lat="43.9576683" lon="12.7239833"><ele>9.0</ele><time>2026-04-18T08:33:01.665Z</time></trkpt><trkpt lat="43.9575867" lon="12.7243033"><ele>10.5</ele><time>2026-04-18T08:33:02.665Z</time></trkpt><trkpt lat="43.9574983" lon="12.7246083"><ele>12.0</ele><time>2026-04-18T08:33:03.664Z</time></trkpt><trkpt lat="43.9574017" lon="12.7248983"><ele>12.0</ele><time>2026-04-18T08:33:04.664Z</time></trkpt><trkpt lat="43.9572967" lon="12.7251733"><ele>12.0</ele><time>2026-04-18T08:33:05.664Z</time></trkpt><trkpt lat="43.957185" lon="12.7254383"><ele>12.0</ele><time>2026-04-18T08:33:06.666Z</time></trkpt><trkpt lat="43.9570683" lon="12.7256983"><ele>11.666666666666666</ele><time>2026-04-18T08:33:07.666Z</time></trkpt><trkpt lat="43.9569533" lon="12.725955"><ele>11.333333333333332</ele><time>2026-04-18T08:33:08.664Z</time></trkpt><trkpt lat="43.956835" lon="12.7262083"><ele>11.0</ele><time>2026-04-18T08:33:09.664Z</time></trkpt><trkpt lat="43.956715" lon="12.7264583"><ele>12.0</ele><time>2026-04-18T08:33:10.664Z</time></trkpt><trkpt lat="43.9565933" lon="12.7267033"><ele>13.0</ele><time>2026-04-18T08:33:11.663Z</time></trkpt><trkpt lat="43.9564667" lon="12.7269467"><ele>14.0</ele><time>2026-04-18T08:33:12.665Z</time></trkpt><trkpt lat="43.9563283" lon="12.7271817"><ele>14.0</ele><time>2026-04-18T08:33:13.664Z</time></trkpt><trkpt lat="43.9561867" lon="12.72741"><ele>14.0</ele><time>2026-04-18T08:33:14.664Z</time></trkpt><trkpt lat="43.9560433" lon="12.7276283"><ele>14.0</ele><time>2026-04-18T08:33:15.664Z</time></trkpt><trkpt lat="43.9558983" lon="12.727845"><ele>15.0</ele><time>2026-04-18T08:33:16.663Z</time></trkpt><trkpt lat="43.955755" lon="12.7280483"><ele>16.0</ele><time>2026-04-18T08:33:17.663Z</time></trkpt><trkpt lat="43.9556167" lon="12.728245"><ele>17.0</ele><time>2026-04-18T08:33:18.663Z</time></trkpt><trkpt lat="43.9554983" lon="12.7284117"><ele>17.0</ele><time>2026-04-18T08:33:19.663Z</time></trkpt><trkpt lat="43.9553917" lon="12.7285517"><ele>17.0</ele><time>2026-04-18T08:33:20.663Z</time></trkpt><trkpt lat="43.9553" lon="12.7286617"><ele>17.0</ele><time>2026-04-18T08:33:21.663Z</time></trkpt><trkpt lat="43.9552233" lon="12.7287483"><ele>17.0</ele><time>2026-04-18T08:33:22.663Z</time></trkpt><trkpt lat="43.95515" lon="12.7288183"><ele>17.0</ele><time>2026-04-18T08:33:23.663Z</time></trkpt><trkpt lat="43.955075" lon="12.7288717"><ele>17.0</ele><time>2026-04-18T08:33:24.663Z</time></trkpt><trkpt lat="43.9549933" lon="12.7288983"><ele>17.0</ele><time>2026-04-18T08:33:25.662Z</time></trkpt><trkpt lat="43.9548967" lon="12.72889"><ele>17.0</ele><time>2026-04-18T08:33:26.665Z</time></trkpt><trkpt lat="43.954785" lon="12.7288783"><ele>17.0</ele><time>2026-04-18T08:33:27.664Z</time></trkpt><trkpt lat="43.9546733" lon="12.728845"><ele>16.75</ele><time>2026-04-18T08:33:28.662Z</time></trkpt><trkpt lat="43.9545767" lon="12.7287817"><ele>16.5</ele><time>2026-04-18T08:33:29.663Z</time></trkpt><trkpt lat="43.95448" lon="12.7286883"><ele>16.25</ele><time>2026-04-18T08:33:30.663Z</time></trkpt><trkpt lat="43.9543783" lon="12.7285883"><ele>16.0</ele><time>2026-04-18T08:33:31.664Z</time></trkpt><trkpt lat="43.9542717" lon="12.72851"><ele>15.75</ele><time>2026-04-18T08:33:32.664Z</time></trkpt><trkpt lat="43.954165" lon="12.728445"><ele>15.5</ele><time>2026-04-18T08:33:33.664Z</time></trkpt><trkpt lat="43.9540533" lon="12.7284067"><ele>15.25</ele><time>2026-04-18T08:33:34.664Z</time></trkpt><trkpt lat="43.953935" lon="12.7284"><ele>15.0</ele><time>2026-04-18T08:33:35.664Z</time></trkpt><trkpt lat="43.9538167" lon="12.728425"><ele>15.0</ele><time>2026-04-18T08:33:36.665Z</time></trkpt><trkpt lat="43.953695" lon="12.7284817"><ele>15.0</ele><time>2026-04-18T08:33:37.664Z</time></trkpt><trkpt lat="43.95358" lon="12.7285633"><ele>15.0</ele><time>2026-04-18T08:33:38.665Z</time></trkpt><trkpt lat="43.9534783" lon="12.7286733"><ele>15.0</ele><time>2026-04-18T08:33:39.664Z</time></trkpt><trkpt lat="43.9533783" lon="12.7288033"><ele>15.25</ele><time>2026-04-18T08:33:40.663Z</time></trkpt><trkpt lat="43.9532733" lon="12.728925"><ele>15.5</ele><time>2026-04-18T08:33:41.664Z</time></trkpt><trkpt lat="43.9531633" lon="12.7290367"><ele>15.75</ele><time>2026-04-18T08:33:42.662Z</time></trkpt><trkpt lat="43.9530517" lon="12.7291317"><ele>16.0</ele><time>2026-04-18T08:33:43.667Z</time></trkpt><trkpt lat="43.9529533" lon="12.72922"><ele>16.0</ele><time>2026-04-18T08:33:44.664Z</time></trkpt><trkpt lat="43.95286" lon="12.72931"><ele>16.0</ele><time>2026-04-18T08:33:45.663Z</time></trkpt><trkpt lat="43.9527717" lon="12.729415"><ele>16.0</ele><time>2026-04-18T08:33:46.663Z</time></trkpt><trkpt lat="43.9526983" lon="12.7295583"><ele>16.0</ele><time>2026-04-18T08:33:47.665Z</time></trkpt><trkpt lat="43.952635" lon="12.7297167"><ele>16.0</ele><time>2026-04-18T08:33:48.664Z</time></trkpt><trkpt lat="43.9525983" lon="12.7298933"><ele>16.0</ele><time>2026-04-18T08:33:49.663Z</time></trkpt><trkpt lat="43.9525867" lon="12.7300867"><ele>16.0</ele><time>2026-04-18T08:33:50.663Z</time></trkpt><trkpt lat="43.9525817" lon="12.7302767"><ele>16.0</ele><time>2026-04-18T08:33:51.663Z</time></trkpt><trkpt lat="43.9525783" lon="12.7304767"><ele>16.0</ele><time>2026-04-18T08:33:52.662Z</time></trkpt><trkpt lat="43.9525667" lon="12.7306817"><ele>16.0</ele><time>2026-04-18T08:33:53.663Z</time></trkpt><trkpt lat="43.952535" lon="12.7308717"><ele>16.0</ele><time>2026-04-18T08:33:54.663Z</time></trkpt><trkpt lat="43.9524894" lon="12.7310456"><ele>16.0</ele><time>2026-04-18T08:33:55.663Z</time></trkpt><trkpt lat="43.9524242" lon="12.7312081"><ele>15.25</ele><time>2026-04-18T08:33:56.664Z</time></trkpt><trkpt lat="43.9523361" lon="12.7313516"><ele>14.5</ele><time>2026-04-18T08:33:57.664Z</time></trkpt><trkpt lat="43.9522261" lon="12.731475"><ele>13.75</ele><time>2026-04-18T08:33:58.664Z</time></trkpt><trkpt lat="43.9520925" lon="12.7315708"><ele>13.0</ele><time>2026-04-18T08:33:59.664Z</time></trkpt><trkpt lat="43.9519501" lon="12.7316379"><ele>13.0</ele><time>2026-04-18T08:34:00.663Z</time></trkpt><trkpt lat="43.9518028" lon="12.7316725"><ele>13.0</ele><time>2026-04-18T08:34:01.663Z</time></trkpt><trkpt lat="43.9516518" lon="12.7316716"><ele>13.0</ele><time>2026-04-18T08:34:02.664Z</time></trkpt><trkpt lat="43.9515012" lon="12.7316314"><ele>13.5</ele><time>2026-04-18T08:34:03.663Z</time></trkpt><trkpt lat="43.9513629" lon="12.7315749"><ele>14.0</ele><time>2026-04-18T08:34:04.662Z</time></trkpt><trkpt lat="43.9512311" lon="12.7315156"><ele>14.5</ele><time>2026-04-18T08:34:05.664Z</time></trkpt><trkpt lat="43.9511032" lon="12.73146"><ele>15.0</ele><time>2026-04-18T08:34:06.664Z</time></trkpt><trkpt lat="43.9509786" lon="12.7314122"><ele>14.75</ele><time>2026-04-18T08:34:07.663Z</time></trkpt><trkpt lat="43.9508613" lon="12.7313664"><ele>14.5</ele><time>2026-04-18T08:34:08.664Z</time></trkpt><trkpt lat="43.9507403" lon="12.7313237"><ele>14.25</ele><time>2026-04-18T08:34:09.664Z</time></trkpt><trkpt lat="43.950611" lon="12.7312924"><ele>14.0</ele><time>2026-04-18T08:34:10.663Z</time></trkpt><trkpt lat="43.9504768" lon="12.7312744"><ele>14.0</ele><time>2026-04-18T08:34:11.663Z</time></trkpt><trkpt lat="43.9503399" lon="12.7313001"><ele>14.0</ele><time>2026-04-18T08:34:12.664Z</time></trkpt><trkpt lat="43.950205" lon="12.7313524"><ele>14.0</ele><time>2026-04-18T08:34:13.663Z</time></trkpt><trkpt lat="43.9500766" lon="12.7314246"><ele>14.0</ele><time>2026-04-18T08:34:14.663Z</time></trkpt><trkpt lat="43.9499604" lon="12.7315097"><ele>14.25</ele><time>2026-04-18T08:34:15.662Z</time></trkpt><trkpt lat="43.9498566" lon="12.7316017"><ele>14.5</ele><time>2026-04-18T08:34:16.663Z</time></trkpt><trkpt lat="43.9497556" lon="12.7316856"><ele>14.75</ele><time>2026-04-18T08:34:17.663Z</time></trkpt><trkpt lat="43.949655" lon="12.7317644"><ele>15.0</ele><time>2026-04-18T08:34:18.663Z</time></trkpt><trkpt lat="43.949561" lon="12.7318416"><ele>15.0</ele><time>2026-04-18T08:34:19.663Z</time></trkpt><trkpt lat="43.9494718" lon="12.7319136"><ele>15.0</ele><time>2026-04-18T08:34:20.663Z</time></trkpt><trkpt lat="43.9493869" lon="12.7319789"><ele>15.0</ele><time>2026-04-18T08:34:21.662Z</time></trkpt><trkpt lat="43.9493038" lon="12.7320394"><ele>15.0</ele><time>2026-04-18T08:34:22.663Z</time></trkpt><trkpt lat="43.9492252" lon="12.7320884"><ele>15.0</ele><time>2026-04-18T08:34:23.663Z</time></trkpt><trkpt lat="43.9491463" lon="12.7321193"><ele>15.2</ele><time>2026-04-18T08:34:24.663Z</time></trkpt><trkpt lat="43.9490649" lon="12.7321169"><ele>15.4</ele><time>2026-04-18T08:34:25.664Z</time></trkpt><trkpt lat="43.9489822" lon="12.7320904"><ele>15.600000000000001</ele><time>2026-04-18T08:34:26.664Z</time></trkpt><trkpt lat="43.9489042" lon="12.7320187"><ele>15.8</ele><time>2026-04-18T08:34:27.666Z</time></trkpt><trkpt lat="43.9488449" lon="12.7318998"><ele>16.0</ele><time>2026-04-18T08:34:28.665Z</time></trkpt><trkpt lat="43.9487976" lon="12.731749"><ele>16.333333333333332</ele><time>2026-04-18T08:34:29.665Z</time></trkpt><trkpt lat="43.9487467" lon="12.7315714"><ele>16.666666666666668</ele><time>2026-04-18T08:34:30.664Z</time></trkpt><trkpt lat="43.9486823" lon="12.7313609"><ele>17.0</ele><time>2026-04-18T08:34:31.664Z</time></trkpt><trkpt lat="43.9486005" lon="12.7311119"><ele>17.333333333333336</ele><time>2026-04-18T08:34:32.665Z</time></trkpt><trkpt lat="43.948523" lon="12.7308413"><ele>17.666666666666668</ele><time>2026-04-18T08:34:33.664Z</time></trkpt><trkpt lat="43.9484561" lon="12.7305802"><ele>18.0</ele><time>2026-04-18T08:34:34.665Z</time></trkpt><trkpt lat="43.9483953" lon="12.7303399"><ele>17.666666666666668</ele><time>2026-04-18T08:34:35.664Z</time></trkpt><trkpt lat="43.9483376" lon="12.7301205"><ele>17.333333333333336</ele><time>2026-04-18T08:34:36.665Z</time></trkpt><trkpt lat="43.9482835" lon="12.7299113"><ele>17.0</ele><time>2026-04-18T08:34:37.665Z</time></trkpt><trkpt lat="43.9482337" lon="12.7297037"><ele>17.0</ele><time>2026-04-18T08:34:38.665Z</time></trkpt><trkpt lat="43.9481878" lon="12.729503"><ele>17.0</ele><time>2026-04-18T08:34:39.665Z</time></trkpt><trkpt lat="43.9481453" lon="12.7293143"><ele>17.0</ele><time>2026-04-18T08:34:40.665Z</time></trkpt><trkpt lat="43.9481063" lon="12.7291381"><ele>17.0</ele><time>2026-04-18T08:34:41.665Z</time></trkpt><trkpt lat="43.9480715" lon="12.7289813"><ele>17.0</ele><time>2026-04-18T08:34:42.663Z</time></trkpt><trkpt lat="43.9480412" lon="12.7288348"><ele>17.0</ele><time>2026-04-18T08:34:43.663Z</time></trkpt><trkpt lat="43.9480136" lon="12.7287064"><ele>17.0</ele><time>2026-04-18T08:34:44.663Z</time></trkpt><trkpt lat="43.9479904" lon="12.7285983"><ele>17.0</ele><time>2026-04-18T08:34:45.664Z</time></trkpt><trkpt lat="43.9479745" lon="12.7285073"><ele>17.0</ele><time>2026-04-18T08:34:46.662Z</time></trkpt><trkpt lat="43.9479435" lon="12.7283865"><ele>17.0</ele><time>2026-04-18T08:34:48.664Z</time></trkpt><trkpt lat="43.9478452" lon="12.7282951"><ele>17.0</ele><time>2026-04-18T08:34:50.664Z</time></trkpt><trkpt lat="43.9477416" lon="12.728281"><ele>17.0</ele><time>2026-04-18T08:34:51.664Z</time></trkpt><trkpt lat="43.9476162" lon="12.72828"><ele>17.0</ele><time>2026-04-18T08:34:52.664Z</time></trkpt><trkpt lat="43.9474656" lon="12.7282838"><ele>17.0</ele><time>2026-04-18T08:34:53.664Z</time></trkpt><trkpt lat="43.9473096" lon="12.7282748"><ele>17.25</ele><time>2026-04-18T08:34:54.665Z</time></trkpt><trkpt lat="43.9471674" lon="12.7282443"><ele>17.5</ele><time>2026-04-18T08:34:55.664Z</time></trkpt><trkpt lat="43.9470384" lon="12.7281803"><ele>17.75</ele><time>2026-04-18T08:34:56.665Z</time></trkpt><trkpt lat="43.9469253" lon="12.7280742"><ele>18.0</ele><time>2026-04-18T08:34:57.664Z</time></trkpt><trkpt lat="43.9468176" lon="12.7279288"><ele>18.333333333333332</ele><time>2026-04-18T08:34:58.664Z</time></trkpt><trkpt lat="43.946702" lon="12.7277375"><ele>18.666666666666664</ele><time>2026-04-18T08:34:59.663Z</time></trkpt><trkpt lat="43.9465745" lon="12.7275391"><ele>19.0</ele><time>2026-04-18T08:35:00.665Z</time></trkpt><trkpt lat="43.9464477" lon="12.7273454"><ele>19.0</ele><time>2026-04-18T08:35:01.664Z</time></trkpt><trkpt lat="43.9463266" lon="12.7271509"><ele>19.0</ele><time>2026-04-18T08:35:02.664Z</time></trkpt><trkpt lat="43.9462106" lon="12.7269564"><ele>19.0</ele><time>2026-04-18T08:35:03.663Z</time></trkpt><trkpt lat="43.9460927" lon="12.7267715"><ele>19.0</ele><time>2026-04-18T08:35:04.663Z</time></trkpt><trkpt lat="43.9459719" lon="12.7265929"><ele>19.0</ele><time>2026-04-18T08:35:05.663Z</time></trkpt><trkpt lat="43.9458529" lon="12.7264173"><ele>19.0</ele><time>2026-04-18T08:35:06.663Z</time></trkpt><trkpt lat="43.945736" lon="12.7262412"><ele>19.666666666666664</ele><time>2026-04-18T08:35:07.662Z</time></trkpt><trkpt lat="43.945623" lon="12.7260623"><ele>20.333333333333332</ele><time>2026-04-18T08:35:08.663Z</time></trkpt><trkpt lat="43.9455085" lon="12.7258779"><ele>21.0</ele><time>2026-04-18T08:35:09.662Z</time></trkpt><trkpt lat="43.9453896" lon="12.725693"><ele>21.333333333333332</ele><time>2026-04-18T08:35:10.663Z</time></trkpt><trkpt lat="43.9452689" lon="12.7255076"><ele>21.666666666666664</ele><time>2026-04-18T08:35:11.663Z</time></trkpt><trkpt lat="43.9451517" lon="12.7253218"><ele>22.0</ele><time>2026-04-18T08:35:12.663Z</time></trkpt><trkpt lat="43.9450379" lon="12.7251333"><ele>22.0</ele><time>2026-04-18T08:35:13.664Z</time></trkpt><trkpt lat="43.9449275" lon="12.7249434"><ele>22.0</ele><time>2026-04-18T08:35:14.664Z</time></trkpt><trkpt lat="43.9448166" lon="12.7247509"><ele>22.0</ele><time>2026-04-18T08:35:15.664Z</time></trkpt><trkpt lat="43.9447064" lon="12.7245579"><ele>22.666666666666664</ele><time>2026-04-18T08:35:16.662Z</time></trkpt><trkpt lat="43.9445962" lon="12.7243721"><ele>23.333333333333332</ele><time>2026-04-18T08:35:17.663Z</time></trkpt><trkpt lat="43.9444836" lon="12.7241893"><ele>24.0</ele><time>2026-04-18T08:35:18.663Z</time></trkpt><trkpt lat="43.9443729" lon="12.7240087"><ele>24.0</ele><time>2026-04-18T08:35:19.664Z</time></trkpt><trkpt lat="43.9442693" lon="12.7238172"><ele>24.0</ele><time>2026-04-18T08:35:20.664Z</time></trkpt><trkpt lat="43.9441693" lon="12.7236209"><ele>24.0</ele><time>2026-04-18T08:35:21.663Z</time></trkpt><trkpt lat="43.9440667" lon="12.7234281"><ele>25.0</ele><time>2026-04-18T08:35:22.662Z</time></trkpt><trkpt lat="43.9439576" lon="12.7232453"><ele>26.0</ele><time>2026-04-18T08:35:23.663Z</time></trkpt><trkpt lat="43.9438528" lon="12.7230658"><ele>27.0</ele><time>2026-04-18T08:35:24.663Z</time></trkpt><trkpt lat="43.9437509" lon="12.7228975"><ele>27.0</ele><time>2026-04-18T08:35:25.663Z</time></trkpt><trkpt lat="43.9436532" lon="12.7227317"><ele>27.0</ele><time>2026-04-18T08:35:26.664Z</time></trkpt><trkpt lat="43.9435561" lon="12.7225674"><ele>27.0</ele><time>2026-04-18T08:35:27.662Z</time></trkpt><trkpt lat="43.9434583" lon="12.722409"><ele>26.25</ele><time>2026-04-18T08:35:28.668Z</time></trkpt><trkpt lat="43.9433594" lon="12.7222494"><ele>25.5</ele><time>2026-04-18T08:35:29.664Z</time></trkpt><trkpt lat="43.9432653" lon="12.7220924"><ele>24.75</ele><time>2026-04-18T08:35:30.663Z</time></trkpt><trkpt lat="43.9431784" lon="12.7219413"><ele>24.0</ele><time>2026-04-18T08:35:31.663Z</time></trkpt><trkpt lat="43.9430924" lon="12.7217971"><ele>24.0</ele><time>2026-04-18T08:35:32.663Z</time></trkpt><trkpt lat="43.9430152" lon="12.7216663"><ele>24.0</ele><time>2026-04-18T08:35:33.663Z</time></trkpt><trkpt lat="43.9429397" lon="12.7215453"><ele>24.0</ele><time>2026-04-18T08:35:34.662Z</time></trkpt><trkpt lat="43.9428667" lon="12.7214292"><ele>24.0</ele><time>2026-04-18T08:35:35.664Z</time></trkpt><trkpt lat="43.9427949" lon="12.7213123"><ele>24.0</ele><time>2026-04-18T08:35:36.665Z</time></trkpt><trkpt lat="43.942727" lon="12.7212041"><ele>24.0</ele><time>2026-04-18T08:35:37.663Z</time></trkpt><trkpt lat="43.942666" lon="12.7210956"><ele>24.0</ele><time>2026-04-18T08:35:38.663Z</time></trkpt><trkpt lat="43.942608" lon="12.7209913"><ele>24.0</ele><time>2026-04-18T08:35:39.662Z</time></trkpt><trkpt lat="43.9425633" lon="12.7208862"><ele>24.0</ele><time>2026-04-18T08:35:40.663Z</time></trkpt><trkpt lat="43.9425284" lon="12.7207912"><ele>24.0</ele><time>2026-04-18T08:35:41.663Z</time></trkpt><trkpt lat="43.9425086" lon="12.7207079"><ele>24.0</ele><time>2026-04-18T08:35:42.664Z</time></trkpt><trkpt lat="43.9424858" lon="12.7205627"><ele>24.0</ele><time>2026-04-18T08:35:44.663Z</time></trkpt><trkpt lat="43.9424189" lon="12.7204855"><ele>24.0</ele><time>2026-04-18T08:35:46.662Z</time></trkpt><trkpt lat="43.9423264" lon="12.7205827"><ele>24.0</ele><time>2026-04-18T08:35:48.663Z</time></trkpt><trkpt lat="43.9422834" lon="12.7206745"><ele>24.0</ele><time>2026-04-18T08:35:49.664Z</time></trkpt><trkpt lat="43.9422394" lon="12.7207743"><ele>24.0</ele><time>2026-04-18T08:35:50.664Z</time></trkpt><trkpt lat="43.9421924" lon="12.7208765"><ele>24.0</ele><time>2026-04-18T08:35:51.662Z</time></trkpt><trkpt lat="43.9421412" lon="12.7209875"><ele>24.0</ele><time>2026-04-18T08:35:52.662Z</time></trkpt><trkpt lat="43.9420906" lon="12.721104"><ele>24.0</ele><time>2026-04-18T08:35:53.663Z</time></trkpt><trkpt lat="43.9420381" lon="12.721223"><ele>23.4</ele><time>2026-04-18T08:35:54.662Z</time></trkpt><trkpt lat="43.9419844" lon="12.7213422"><ele>22.799999999999997</ele><time>2026-04-18T08:35:55.662Z</time></trkpt><trkpt lat="43.9419313" lon="12.721456"><ele>22.200000000000003</ele><time>2026-04-18T08:35:56.662Z</time></trkpt><trkpt lat="43.941881" lon="12.7215665"><ele>21.6</ele><time>2026-04-18T08:35:57.662Z</time></trkpt><trkpt lat="43.9418308" lon="12.7216727"><ele>21.0</ele><time>2026-04-18T08:35:58.661Z</time></trkpt><trkpt lat="43.9417802" lon="12.7217818"><ele>21.0</ele><time>2026-04-18T08:35:59.662Z</time></trkpt><trkpt lat="43.9417274" lon="12.7218944"><ele>21.0</ele><time>2026-04-18T08:36:00.662Z</time></trkpt><trkpt lat="43.9416727" lon="12.72201"><ele>21.0</ele><time>2026-04-18T08:36:01.662Z</time></trkpt><trkpt lat="43.9416201" lon="12.7221252"><ele>21.0</ele><time>2026-04-18T08:36:02.661Z</time></trkpt><trkpt lat="43.9415672" lon="12.7222348"><ele>21.0</ele><time>2026-04-18T08:36:03.661Z</time></trkpt><trkpt lat="43.9415122" lon="12.7223391"><ele>21.333333333333332</ele><time>2026-04-18T08:36:04.662Z</time></trkpt><trkpt lat="43.9414602" lon="12.7224427"><ele>21.666666666666668</ele><time>2026-04-18T08:36:05.661Z</time></trkpt><trkpt lat="43.9414082" lon="12.7225385"><ele>22.0</ele><time>2026-04-18T08:36:06.663Z</time></trkpt><trkpt lat="43.9413579" lon="12.7226221"><ele>22.333333333333336</ele><time>2026-04-18T08:36:07.661Z</time></trkpt><trkpt lat="43.9413079" lon="12.7226973"><ele>22.666666666666668</ele><time>2026-04-18T08:36:08.662Z</time></trkpt><trkpt lat="43.9412602" lon="12.7227598"><ele>23.0</ele><time>2026-04-18T08:36:09.661Z</time></trkpt><trkpt lat="43.9411595" lon="12.7228626"><ele>23.0</ele><time>2026-04-18T08:36:11.662Z</time></trkpt><trkpt lat="43.9411008" lon="12.722917"><ele>23.0</ele><time>2026-04-18T08:36:12.661Z</time></trkpt><trkpt lat="43.941038" lon="12.7229723"><ele>23.0</ele><time>2026-04-18T08:36:13.663Z</time></trkpt><trkpt lat="43.9409633" lon="12.7230228"><ele>23.0</ele><time>2026-04-18T08:36:14.67Z</time></trkpt><trkpt lat="43.9408861" lon="12.7230737"><ele>23.0</ele><time>2026-04-18T08:36:15.662Z</time></trkpt><trkpt lat="43.9408128" lon="12.7231312"><ele>23.0</ele><time>2026-04-18T08:36:16.661Z</time></trkpt><trkpt lat="43.94074" lon="12.7231986"><ele>22.666666666666668</ele><time>2026-04-18T08:36:17.662Z</time></trkpt><trkpt lat="43.9406881" lon="12.7232717"><ele>22.333333333333336</ele><time>2026-04-18T08:36:18.662Z</time></trkpt><trkpt lat="43.9406493" lon="12.7233498"><ele>22.0</ele><time>2026-04-18T08:36:19.663Z</time></trkpt><trkpt lat="43.9405744" lon="12.7234608"><ele>21.666666666666668</ele><time>2026-04-18T08:36:21.665Z</time></trkpt><trkpt lat="43.9404896" lon="12.7234566"><ele>21.333333333333332</ele><time>2026-04-18T08:36:23.664Z</time></trkpt><trkpt lat="43.9404234" lon="12.723392"><ele>21.0</ele><time>2026-04-18T08:36:24.663Z</time></trkpt><trkpt lat="43.9403426" lon="12.7232929"><ele>21.0</ele><time>2026-04-18T08:36:25.661Z</time></trkpt><trkpt lat="43.9402355" lon="12.7231558"><ele>21.0</ele><time>2026-04-18T08:36:26.662Z</time></trkpt><trkpt lat="43.9401084" lon="12.7229914"><ele>21.0</ele><time>2026-04-18T08:36:27.661Z</time></trkpt><trkpt lat="43.9399649" lon="12.7228087"><ele>23.0</ele><time>2026-04-18T08:36:28.662Z</time></trkpt><trkpt lat="43.9397931" lon="12.7225904"><ele>25.0</ele><time>2026-04-18T08:36:29.662Z</time></trkpt><trkpt lat="43.9396237" lon="12.722378"><ele>25.0</ele><time>2026-04-18T08:36:30.661Z</time></trkpt><trkpt lat="43.9394727" lon="12.7221882"><ele>25.0</ele><time>2026-04-18T08:36:31.661Z</time></trkpt><trkpt lat="43.9393377" lon="12.722016"><ele>25.0</ele><time>2026-04-18T08:36:32.662Z</time></trkpt><trkpt lat="43.9392108" lon="12.7218624"><ele>24.75</ele><time>2026-04-18T08:36:33.661Z</time></trkpt><trkpt lat="43.9390932" lon="12.7217259"><ele>24.5</ele><time>2026-04-18T08:36:34.661Z</time></trkpt><trkpt lat="43.9389837" lon="12.7215922"><ele>24.25</ele><time>2026-04-18T08:36:35.661Z</time></trkpt><trkpt lat="43.9388835" lon="12.7214629"><ele>24.0</ele><time>2026-04-18T08:36:36.662Z</time></trkpt><trkpt lat="43.9387912" lon="12.7213347"><ele>24.0</ele><time>2026-04-18T08:36:37.663Z</time></trkpt><trkpt lat="43.9387071" lon="12.7211988"><ele>24.0</ele><time>2026-04-18T08:36:38.662Z</time></trkpt><trkpt lat="43.9386256" lon="12.7210573"><ele>24.0</ele><time>2026-04-18T08:36:39.662Z</time></trkpt><trkpt lat="43.9385353" lon="12.720908"><ele>24.0</ele><time>2026-04-18T08:36:40.661Z</time></trkpt><trkpt lat="43.9384521" lon="12.7207551"><ele>24.25</ele><time>2026-04-18T08:36:41.661Z</time></trkpt><trkpt lat="43.9383787" lon="12.720614"><ele>24.5</ele><time>2026-04-18T08:36:42.661Z</time></trkpt><trkpt lat="43.9383113" lon="12.7204727"><ele>24.75</ele><time>2026-04-18T08:36:43.661Z</time></trkpt><trkpt lat="43.9382438" lon="12.7203289"><ele>25.0</ele><time>2026-04-18T08:36:44.662Z</time></trkpt><trkpt lat="43.938154" lon="12.7201642"><ele>25.0</ele><time>2026-04-18T08:36:45.662Z</time></trkpt><trkpt lat="43.9380426" lon="12.7199916"><ele>25.0</ele><time>2026-04-18T08:36:46.661Z</time></trkpt><trkpt lat="43.9379176" lon="12.7198307"><ele>25.0</ele><time>2026-04-18T08:36:47.663Z</time></trkpt><trkpt lat="43.9377919" lon="12.7196848"><ele>25.0</ele><time>2026-04-18T08:36:48.662Z</time></trkpt><trkpt lat="43.9376716" lon="12.7195442"><ele>25.0</ele><time>2026-04-18T08:36:49.662Z</time></trkpt><trkpt lat="43.9375574" lon="12.7194152"><ele>25.0</ele><time>2026-04-18T08:36:50.662Z</time></trkpt><trkpt lat="43.9374499" lon="12.7193008"><ele>25.0</ele><time>2026-04-18T08:36:51.663Z</time></trkpt><trkpt lat="43.9373516" lon="12.7191869"><ele>25.75</ele><time>2026-04-18T08:36:52.66Z</time></trkpt><trkpt lat="43.9372554" lon="12.7190806"><ele>26.5</ele><time>2026-04-18T08:36:53.663Z</time></trkpt><trkpt lat="43.9371582" lon="12.7189819"><ele>27.25</ele><time>2026-04-18T08:36:54.662Z</time></trkpt><trkpt lat="43.9370592" lon="12.7188797"><ele>28.0</ele><time>2026-04-18T08:36:55.661Z</time></trkpt><trkpt lat="43.9369619" lon="12.7187659"><ele>28.0</ele><time>2026-04-18T08:36:56.664Z</time></trkpt><trkpt lat="43.936869" lon="12.718652"><ele>28.0</ele><time>2026-04-18T08:36:57.662Z</time></trkpt><trkpt lat="43.9367744" lon="12.7185367"><ele>28.0</ele><time>2026-04-18T08:36:58.661Z</time></trkpt><trkpt lat="43.9366737" lon="12.7184275"><ele>28.0</ele><time>2026-04-18T08:36:59.662Z</time></trkpt><trkpt lat="43.9365607" lon="12.7183453"><ele>28.25</ele><time>2026-04-18T08:37:00.662Z</time></trkpt><trkpt lat="43.9364437" lon="12.7182791"><ele>28.5</ele><time>2026-04-18T08:37:01.662Z</time></trkpt><trkpt lat="43.9363398" lon="12.7181955"><ele>28.75</ele><time>2026-04-18T08:37:02.664Z</time></trkpt><trkpt lat="43.9362511" lon="12.718095"><ele>29.0</ele><time>2026-04-18T08:37:03.664Z</time></trkpt><trkpt lat="43.9361783" lon="12.7179896"><ele>29.0</ele><time>2026-04-18T08:37:04.663Z</time></trkpt><trkpt lat="43.93611" lon="12.7178893"><ele>29.0</ele><time>2026-04-18T08:37:05.661Z</time></trkpt><trkpt lat="43.936041" lon="12.7177913"><ele>29.0</ele><time>2026-04-18T08:37:06.662Z</time></trkpt><trkpt lat="43.9359613" lon="12.7176928"><ele>29.0</ele><time>2026-04-18T08:37:07.661Z</time></trkpt><trkpt lat="43.9358613" lon="12.717594"><ele>29.0</ele><time>2026-04-18T08:37:08.662Z</time></trkpt><trkpt lat="43.9357292" lon="12.7174942"><ele>29.0</ele><time>2026-04-18T08:37:09.661Z</time></trkpt><trkpt lat="43.9355999" lon="12.7174111"><ele>29.0</ele><time>2026-04-18T08:37:10.663Z</time></trkpt><trkpt lat="43.9354838" lon="12.7173391"><ele>29.0</ele><time>2026-04-18T08:37:11.661Z</time></trkpt><trkpt lat="43.9353821" lon="12.7172805"><ele>29.0</ele><time>2026-04-18T08:37:12.661Z</time></trkpt><trkpt lat="43.9352951" lon="12.7172261"><ele>28.999999999999996</ele><time>2026-04-18T08:37:13.661Z</time></trkpt><trkpt lat="43.9352221" lon="12.7171786"><ele>29.0</ele><time>2026-04-18T08:37:14.662Z</time></trkpt><trkpt lat="43.9351547" lon="12.7171337"><ele>29.0</ele><time>2026-04-18T08:37:15.661Z</time></trkpt><trkpt lat="43.9350955" lon="12.7170916"><ele>29.0</ele><time>2026-04-18T08:37:16.661Z</time></trkpt><trkpt lat="43.9350143" lon="12.7170168"><ele>28.999999999999996</ele><time>2026-04-18T08:37:18.662Z</time></trkpt><trkpt lat="43.934925" lon="12.71702"><ele>29.0</ele><time>2026-04-18T08:37:27.663Z</time></trkpt><trkpt lat="43.9348283" lon="12.7171367"><ele>29.2</ele><time>2026-04-18T08:37:29.66Z</time></trkpt><trkpt lat="43.9347717" lon="12.7172233"><ele>29.4</ele><time>2026-04-18T08:37:30.661Z</time></trkpt><trkpt lat="43.9347083" lon="12.7173183"><ele>29.6</ele><time>2026-04-18T08:37:31.661Z</time></trkpt><trkpt lat="43.9346383" lon="12.7174233"><ele>29.8</ele><time>2026-04-18T08:37:32.662Z</time></trkpt><trkpt lat="43.9345633" lon="12.7175383"><ele>30.0</ele><time>2026-04-18T08:37:33.661Z</time></trkpt><trkpt lat="43.934485" lon="12.71766"><ele>29.8</ele><time>2026-04-18T08:37:34.661Z</time></trkpt><trkpt lat="43.93441" lon="12.7177817"><ele>29.6</ele><time>2026-04-18T08:37:35.661Z</time></trkpt><trkpt lat="43.9343383" lon="12.7178983"><ele>29.4</ele><time>2026-04-18T08:37:36.662Z</time></trkpt><trkpt lat="43.93427" lon="12.7180067"><ele>29.2</ele><time>2026-04-18T08:37:37.662Z</time></trkpt><trkpt lat="43.934205" lon="12.7181083"><ele>29.0</ele><time>2026-04-18T08:37:38.661Z</time></trkpt><trkpt lat="43.9341433" lon="12.7182067"><ele>28.999999999999996</ele><time>2026-04-18T08:37:39.661Z</time></trkpt><trkpt lat="43.9340833" lon="12.7183"><ele>29.0</ele><time>2026-04-18T08:37:40.661Z</time></trkpt><trkpt lat="43.9340267" lon="12.7183883"><ele>29.0</ele><time>2026-04-18T08:37:41.662Z</time></trkpt><trkpt lat="43.9339717" lon="12.7184717"><ele>29.0</ele><time>2026-04-18T08:37:42.662Z</time></trkpt><trkpt lat="43.9339217" lon="12.71856"><ele>28.999999999999996</ele><time>2026-04-18T08:37:43.662Z</time></trkpt><trkpt lat="43.9338767" lon="12.7186433"><ele>29.0</ele><time>2026-04-18T08:37:44.661Z</time></trkpt><trkpt lat="43.9338283" lon="12.7187133"><ele>28.833333333333332</ele><time>2026-04-18T08:37:45.661Z</time></trkpt><trkpt lat="43.93378" lon="12.71878"><ele>28.666666666666664</ele><time>2026-04-18T08:37:46.661Z</time></trkpt><trkpt lat="43.933735" lon="12.718845"><ele>28.5</ele><time>2026-04-18T08:37:47.661Z</time></trkpt><trkpt lat="43.9336533" lon="12.718965"><ele>28.333333333333336</ele><time>2026-04-18T08:37:49.662Z</time></trkpt><trkpt lat="43.9335917" lon="12.7190667"><ele>28.166666666666668</ele><time>2026-04-18T08:37:51.662Z</time></trkpt><trkpt lat="43.93354" lon="12.7191483"><ele>28.0</ele><time>2026-04-18T08:37:53.661Z</time></trkpt><trkpt lat="43.9334917" lon="12.71923"><ele>28.0</ele><time>2026-04-18T08:37:56.663Z</time></trkpt><trkpt lat="43.9334115" lon="12.719395"><ele>28.0</ele><time>2026-04-18T08:38:13.744Z</time></trkpt><trkpt lat="43.9333475" lon="12.7194928"><ele>28.0</ele><time>2026-04-18T08:38:14.661Z</time></trkpt><trkpt lat="43.9332438" lon="12.7196157"><ele>28.0</ele><time>2026-04-18T08:38:15.661Z</time></trkpt><trkpt lat="43.9331445" lon="12.7197116"><ele>28.0</ele><time>2026-04-18T08:38:16.661Z</time></trkpt><trkpt lat="43.9330431" lon="12.7197961"><ele>28.0</ele><time>2026-04-18T08:38:17.661Z</time></trkpt><trkpt lat="43.9329409" lon="12.7198878"><ele>28.0</ele><time>2026-04-18T08:38:18.661Z</time></trkpt><trkpt lat="43.9328331" lon="12.7199857"><ele>28.0</ele><time>2026-04-18T08:38:19.661Z</time></trkpt><trkpt lat="43.9327043" lon="12.7200762"><ele>28.0</ele><time>2026-04-18T08:38:20.663Z</time></trkpt><trkpt lat="43.9325623" lon="12.7201592"><ele>28.0</ele><time>2026-04-18T08:38:21.661Z</time></trkpt><trkpt lat="43.93242" lon="12.7202314"><ele>28.0</ele><time>2026-04-18T08:38:22.661Z</time></trkpt><trkpt lat="43.9322747" lon="12.7202887"><ele>27.333333333333336</ele><time>2026-04-18T08:38:23.662Z</time></trkpt><trkpt lat="43.9321177" lon="12.7203305"><ele>26.666666666666664</ele><time>2026-04-18T08:38:24.661Z</time></trkpt><trkpt lat="43.9319572" lon="12.7203654"><ele>26.0</ele><time>2026-04-18T08:38:25.661Z</time></trkpt><trkpt lat="43.9317956" lon="12.7204015"><ele>25.666666666666664</ele><time>2026-04-18T08:38:26.661Z</time></trkpt><trkpt lat="43.931637" lon="12.7204396"><ele>25.333333333333336</ele><time>2026-04-18T08:38:27.661Z</time></trkpt><trkpt lat="43.9314784" lon="12.7204815"><ele>25.0</ele><time>2026-04-18T08:38:28.661Z</time></trkpt><trkpt lat="43.9313207" lon="12.7205257"><ele>25.0</ele><time>2026-04-18T08:38:29.661Z</time></trkpt><trkpt lat="43.9311582" lon="12.7205719"><ele>25.0</ele><time>2026-04-18T08:38:30.662Z</time></trkpt><trkpt lat="43.930996" lon="12.7206162"><ele>25.0</ele><time>2026-04-18T08:38:31.661Z</time></trkpt><trkpt lat="43.9308375" lon="12.7206611"><ele>26.0</ele><time>2026-04-18T08:38:32.663Z</time></trkpt><trkpt lat="43.9306779" lon="12.720704"><ele>27.0</ele><time>2026-04-18T08:38:33.661Z</time></trkpt><trkpt lat="43.9305167" lon="12.7207454"><ele>28.0</ele><time>2026-04-18T08:38:34.661Z</time></trkpt><trkpt lat="43.9303564" lon="12.7207843"><ele>28.0</ele><time>2026-04-18T08:38:35.662Z</time></trkpt><trkpt lat="43.9301939" lon="12.7208185"><ele>28.0</ele><time>2026-04-18T08:38:36.661Z</time></trkpt><trkpt lat="43.9300319" lon="12.7208496"><ele>28.0</ele><time>2026-04-18T08:38:37.661Z</time></trkpt><trkpt lat="43.9298688" lon="12.7208823"><ele>28.333333333333336</ele><time>2026-04-18T08:38:38.663Z</time></trkpt><trkpt lat="43.9297102" lon="12.7209166"><ele>28.666666666666664</ele><time>2026-04-18T08:38:39.661Z</time></trkpt><trkpt lat="43.9295575" lon="12.7209442"><ele>29.0</ele><time>2026-04-18T08:38:40.661Z</time></trkpt><trkpt lat="43.9294188" lon="12.7209689"><ele>29.0</ele><time>2026-04-18T08:38:41.661Z</time></trkpt><trkpt lat="43.9292928" lon="12.7209939"><ele>29.0</ele><time>2026-04-18T08:38:42.662Z</time></trkpt><trkpt lat="43.929172" lon="12.7210216"><ele>29.0</ele><time>2026-04-18T08:38:43.661Z</time></trkpt><trkpt lat="43.9290596" lon="12.7210444"><ele>29.0</ele><time>2026-04-18T08:38:44.662Z</time></trkpt><trkpt lat="43.9289528" lon="12.7210643"><ele>29.4</ele><time>2026-04-18T08:38:45.661Z</time></trkpt><trkpt lat="43.9288478" lon="12.7210803"><ele>29.799999999999997</ele><time>2026-04-18T08:38:46.661Z</time></trkpt><trkpt lat="43.9287492" lon="12.7211031"><ele>30.200000000000003</ele><time>2026-04-18T08:38:47.661Z</time></trkpt><trkpt lat="43.9286581" lon="12.7211323"><ele>30.6</ele><time>2026-04-18T08:38:48.662Z</time></trkpt><trkpt lat="43.9285727" lon="12.7211553"><ele>31.0</ele><time>2026-04-18T08:38:49.66Z</time></trkpt><trkpt lat="43.9284821" lon="12.7211737"><ele>30.833333333333336</ele><time>2026-04-18T08:38:50.661Z</time></trkpt><trkpt lat="43.9283914" lon="12.7212017"><ele>30.666666666666668</ele><time>2026-04-18T08:38:51.661Z</time></trkpt><trkpt lat="43.9283098" lon="12.7212344"><ele>30.5</ele><time>2026-04-18T08:38:52.66Z</time></trkpt><trkpt lat="43.9282395" lon="12.7212596"><ele>30.333333333333336</ele><time>2026-04-18T08:38:53.661Z</time></trkpt><trkpt lat="43.9281333" lon="12.7212929"><ele>30.166666666666668</ele><time>2026-04-18T08:38:55.66Z</time></trkpt><trkpt lat="43.9280704" lon="12.7213136"><ele>30.0</ele><time>2026-04-18T08:38:57.66Z</time></trkpt><trkpt lat="43.927867" lon="12.7214486"><ele>30.0</ele><time>2026-04-18T08:40:42.659Z</time></trkpt><trkpt lat="43.9277165" lon="12.7215311"><ele>30.0</ele><time>2026-04-18T08:40:43.66Z</time></trkpt><trkpt lat="43.9275951" lon="12.7216042"><ele>30.0</ele><time>2026-04-18T08:40:44.66Z</time></trkpt><trkpt lat="43.9274932" lon="12.7216618"><ele>30.0</ele><time>2026-04-18T08:40:45.659Z</time></trkpt><trkpt lat="43.9274034" lon="12.7217138"><ele>30.0</ele><time>2026-04-18T08:40:46.659Z</time></trkpt><trkpt lat="43.9273121" lon="12.721764"><ele>30.0</ele><time>2026-04-18T08:40:47.66Z</time></trkpt><trkpt lat="43.9272113" lon="12.7218064"><ele>30.0</ele><time>2026-04-18T08:40:48.66Z</time></trkpt><trkpt lat="43.9271026" lon="12.7218541"><ele>30.0</ele><time>2026-04-18T08:40:49.66Z</time></trkpt><trkpt lat="43.9269742" lon="12.7219221"><ele>30.0</ele><time>2026-04-18T08:40:50.659Z</time></trkpt><trkpt lat="43.9268309" lon="12.7220021"><ele>30.0</ele><time>2026-04-18T08:40:51.66Z</time></trkpt><trkpt lat="43.9266791" lon="12.7220852"><ele>30.0</ele><time>2026-04-18T08:40:52.66Z</time></trkpt><trkpt lat="43.9265216" lon="12.7221723"><ele>29.333333333333336</ele><time>2026-04-18T08:40:53.66Z</time></trkpt><trkpt lat="43.926363" lon="12.7222585"><ele>28.666666666666668</ele><time>2026-04-18T08:40:54.661Z</time></trkpt><trkpt lat="43.9262021" lon="12.7223453"><ele>28.0</ele><time>2026-04-18T08:40:55.66Z</time></trkpt><trkpt lat="43.9260411" lon="12.7224321"><ele>28.0</ele><time>2026-04-18T08:40:56.661Z</time></trkpt><trkpt lat="43.9258782" lon="12.7225201"><ele>28.0</ele><time>2026-04-18T08:40:57.66Z</time></trkpt><trkpt lat="43.9257147" lon="12.7226058"><ele>28.0</ele><time>2026-04-18T08:40:58.66Z</time></trkpt><trkpt lat="43.9255476" lon="12.7226886"><ele>28.333333333333336</ele><time>2026-04-18T08:40:59.659Z</time></trkpt><trkpt lat="43.9253821" lon="12.722773"><ele>28.666666666666664</ele><time>2026-04-18T08:41:00.66Z</time></trkpt><trkpt lat="43.9252182" lon="12.7228602"><ele>29.0</ele><time>2026-04-18T08:41:01.659Z</time></trkpt><trkpt lat="43.9250555" lon="12.7229456"><ele>29.0</ele><time>2026-04-18T08:41:02.66Z</time></trkpt><trkpt lat="43.9248924" lon="12.723029"><ele>29.0</ele><time>2026-04-18T08:41:03.661Z</time></trkpt><trkpt lat="43.9247367" lon="12.7231088"><ele>29.0</ele><time>2026-04-18T08:41:04.66Z</time></trkpt><trkpt lat="43.9245823" lon="12.7231841"><ele>29.0</ele><time>2026-04-18T08:41:05.66Z</time></trkpt><trkpt lat="43.9244306" lon="12.7232603"><ele>29.0</ele><time>2026-04-18T08:41:06.659Z</time></trkpt><trkpt lat="43.924278" lon="12.7233356"><ele>29.0</ele><time>2026-04-18T08:41:07.66Z</time></trkpt><trkpt lat="43.9241275" lon="12.7234092"><ele>30.0</ele><time>2026-04-18T08:41:08.66Z</time></trkpt><trkpt lat="43.9239777" lon="12.7234794"><ele>31.0</ele><time>2026-04-18T08:41:09.659Z</time></trkpt><trkpt lat="43.9238295" lon="12.7235491"><ele>32.0</ele><time>2026-04-18T08:41:10.659Z</time></trkpt><trkpt lat="43.9236828" lon="12.7236186"><ele>32.0</ele><time>2026-04-18T08:41:11.659Z</time></trkpt><trkpt lat="43.9235337" lon="12.7236874"><ele>32.0</ele><time>2026-04-18T08:41:12.66Z</time></trkpt><trkpt lat="43.9233867" lon="12.7237584"><ele>32.0</ele><time>2026-04-18T08:41:13.66Z</time></trkpt><trkpt lat="43.9232401" lon="12.7238276"><ele>32.33333333333333</ele><time>2026-04-18T08:41:14.66Z</time></trkpt><trkpt lat="43.923088" lon="12.7238962"><ele>32.666666666666664</ele><time>2026-04-18T08:41:15.66Z</time></trkpt><trkpt lat="43.9229304" lon="12.723965"><ele>33.0</ele><time>2026-04-18T08:41:16.659Z</time></trkpt><trkpt lat="43.9227644" lon="12.7240377"><ele>33.0</ele><time>2026-04-18T08:41:17.66Z</time></trkpt><trkpt lat="43.9225889" lon="12.7241128"><ele>33.0</ele><time>2026-04-18T08:41:18.66Z</time></trkpt><trkpt lat="43.9224123" lon="12.7241925"><ele>33.0</ele><time>2026-04-18T08:41:19.66Z</time></trkpt><trkpt lat="43.922235" lon="12.7242737"><ele>33.666666666666664</ele><time>2026-04-18T08:41:20.66Z</time></trkpt><trkpt lat="43.9220534" lon="12.7243594"><ele>34.33333333333333</ele><time>2026-04-18T08:41:21.661Z</time></trkpt><trkpt lat="43.92187" lon="12.7244479"><ele>35.0</ele><time>2026-04-18T08:41:22.66Z</time></trkpt><trkpt lat="43.9216882" lon="12.7245515"><ele>33.33333333333333</ele><time>2026-04-18T08:41:23.659Z</time></trkpt><trkpt lat="43.9215135" lon="12.724666"><ele>31.666666666666664</ele><time>2026-04-18T08:41:24.66Z</time></trkpt><trkpt lat="43.9213484" lon="12.7247953"><ele>30.0</ele><time>2026-04-18T08:41:25.661Z</time></trkpt><trkpt lat="43.9211806" lon="12.7249267"><ele>30.0</ele><time>2026-04-18T08:41:26.66Z</time></trkpt><trkpt lat="43.921015" lon="12.7250606"><ele>30.0</ele><time>2026-04-18T08:41:27.66Z</time></trkpt><trkpt lat="43.9208469" lon="12.7251989"><ele>30.0</ele><time>2026-04-18T08:41:28.661Z</time></trkpt><trkpt lat="43.920682" lon="12.7253345"><ele>30.333333333333336</ele><time>2026-04-18T08:41:29.662Z</time></trkpt><trkpt lat="43.9205145" lon="12.7254692"><ele>30.666666666666668</ele><time>2026-04-18T08:41:30.661Z</time></trkpt><trkpt lat="43.920345" lon="12.7256054"><ele>31.0</ele><time>2026-04-18T08:41:31.66Z</time></trkpt><trkpt lat="43.9201759" lon="12.7257386"><ele>31.0</ele><time>2026-04-18T08:41:32.66Z</time></trkpt><trkpt lat="43.9200061" lon="12.7258754"><ele>31.0</ele><time>2026-04-18T08:41:33.66Z</time></trkpt><trkpt lat="43.9198323" lon="12.7260185"><ele>31.0</ele><time>2026-04-18T08:41:34.66Z</time></trkpt><trkpt lat="43.9196573" lon="12.7261634"><ele>30.666666666666668</ele><time>2026-04-18T08:41:35.66Z</time></trkpt><trkpt lat="43.9194822" lon="12.7263072"><ele>30.333333333333336</ele><time>2026-04-18T08:41:36.661Z</time></trkpt><trkpt lat="43.9193043" lon="12.7264511"><ele>30.0</ele><time>2026-04-18T08:41:37.659Z</time></trkpt><trkpt lat="43.9191228" lon="12.7265941"><ele>30.0</ele><time>2026-04-18T08:41:38.66Z</time></trkpt><trkpt lat="43.9189461" lon="12.7267347"><ele>30.0</ele><time>2026-04-18T08:41:39.659Z</time></trkpt><trkpt lat="43.9187761" lon="12.7268719"><ele>30.0</ele><time>2026-04-18T08:41:40.66Z</time></trkpt><trkpt lat="43.9186088" lon="12.7270053"><ele>30.666666666666664</ele><time>2026-04-18T08:41:41.659Z</time></trkpt><trkpt lat="43.9184574" lon="12.7271264"><ele>31.333333333333332</ele><time>2026-04-18T08:41:42.66Z</time></trkpt><trkpt lat="43.9183069" lon="12.7272432"><ele>32.0</ele><time>2026-04-18T08:41:43.66Z</time></trkpt><trkpt lat="43.9181577" lon="12.7273646"><ele>32.0</ele><time>2026-04-18T08:41:44.66Z</time></trkpt><trkpt lat="43.9180128" lon="12.727489"><ele>32.0</ele><time>2026-04-18T08:41:45.659Z</time></trkpt><trkpt lat="43.9178678" lon="12.7276146"><ele>32.0</ele><time>2026-04-18T08:41:46.658Z</time></trkpt><trkpt lat="43.9177217" lon="12.7277385"><ele>31.666666666666664</ele><time>2026-04-18T08:41:47.66Z</time></trkpt><trkpt lat="43.9175693" lon="12.7278562"><ele>31.333333333333336</ele><time>2026-04-18T08:41:48.66Z</time></trkpt><trkpt lat="43.9174184" lon="12.7279737"><ele>31.0</ele><time>2026-04-18T08:41:49.659Z</time></trkpt><trkpt lat="43.9172713" lon="12.7281009"><ele>31.0</ele><time>2026-04-18T08:41:50.66Z</time></trkpt><trkpt lat="43.9171324" lon="12.728246"><ele>31.0</ele><time>2026-04-18T08:41:51.66Z</time></trkpt><trkpt lat="43.9170026" lon="12.72841"><ele>31.0</ele><time>2026-04-18T08:41:52.66Z</time></trkpt><trkpt lat="43.9168894" lon="12.7286021"><ele>30.0</ele><time>2026-04-18T08:41:53.662Z</time></trkpt><trkpt lat="43.9167857" lon="12.7288106"><ele>29.0</ele><time>2026-04-18T08:41:54.66Z</time></trkpt><trkpt lat="43.9166918" lon="12.7290343"><ele>28.0</ele><time>2026-04-18T08:41:55.659Z</time></trkpt><trkpt lat="43.9166046" lon="12.7292659"><ele>28.333333333333336</ele><time>2026-04-18T08:41:56.66Z</time></trkpt><trkpt lat="43.9165144" lon="12.729495"><ele>28.666666666666664</ele><time>2026-04-18T08:41:57.659Z</time></trkpt><trkpt lat="43.9164221" lon="12.729724"><ele>29.0</ele><time>2026-04-18T08:41:58.66Z</time></trkpt><trkpt lat="43.9163301" lon="12.7299512"><ele>29.0</ele><time>2026-04-18T08:41:59.66Z</time></trkpt><trkpt lat="43.9162387" lon="12.730175"><ele>29.0</ele><time>2026-04-18T08:42:00.66Z</time></trkpt><trkpt lat="43.9161532" lon="12.7303882"><ele>29.0</ele><time>2026-04-18T08:42:01.66Z</time></trkpt><trkpt lat="43.9160729" lon="12.7305825"><ele>29.75</ele><time>2026-04-18T08:42:02.66Z</time></trkpt><trkpt lat="43.9160008" lon="12.7307628"><ele>30.5</ele><time>2026-04-18T08:42:03.66Z</time></trkpt><trkpt lat="43.9159356" lon="12.730934"><ele>31.25</ele><time>2026-04-18T08:42:04.66Z</time></trkpt><trkpt lat="43.9158683" lon="12.7310999"><ele>32.0</ele><time>2026-04-18T08:42:05.66Z</time></trkpt><trkpt lat="43.9157928" lon="12.7312604"><ele>32.75</ele><time>2026-04-18T08:42:06.66Z</time></trkpt><trkpt lat="43.915706" lon="12.7314101"><ele>33.5</ele><time>2026-04-18T08:42:07.66Z</time></trkpt><trkpt lat="43.9156121" lon="12.7315457"><ele>34.25</ele><time>2026-04-18T08:42:08.66Z</time></trkpt><trkpt lat="43.9155103" lon="12.7316678"><ele>35.0</ele><time>2026-04-18T08:42:09.66Z</time></trkpt><trkpt lat="43.9154006" lon="12.7317775"><ele>35.0</ele><time>2026-04-18T08:42:10.66Z</time></trkpt><trkpt lat="43.9152871" lon="12.7318657"><ele>35.0</ele><time>2026-04-18T08:42:11.66Z</time></trkpt><trkpt lat="43.9151709" lon="12.7319395"><ele>35.0</ele><time>2026-04-18T08:42:12.66Z</time></trkpt><trkpt lat="43.9150607" lon="12.7319882"><ele>35.0</ele><time>2026-04-18T08:42:13.659Z</time></trkpt><trkpt lat="43.9149535" lon="12.7320254"><ele>35.0</ele><time>2026-04-18T08:42:14.661Z</time></trkpt><trkpt lat="43.9148605" lon="12.7320558"><ele>35.0</ele><time>2026-04-18T08:42:15.661Z</time></trkpt><trkpt lat="43.9147729" lon="12.7320807"><ele>35.0</ele><time>2026-04-18T08:42:16.657Z</time></trkpt><trkpt lat="43.9146893" lon="12.732093"><ele>35.0</ele><time>2026-04-18T08:42:17.659Z</time></trkpt><trkpt lat="43.9146209" lon="12.7320869"><ele>35.0</ele><time>2026-04-18T08:42:18.659Z</time></trkpt><trkpt lat="43.9145556" lon="12.7320839"><ele>35.0</ele><time>2026-04-18T08:42:19.658Z</time></trkpt><trkpt lat="43.9144887" lon="12.7321049"><ele>35.0</ele><time>2026-04-18T08:42:20.659Z</time></trkpt><trkpt lat="43.9144159" lon="12.7321481"><ele>35.0</ele><time>2026-04-18T08:42:21.658Z</time></trkpt><trkpt lat="43.9143273" lon="12.7322046"><ele>35.0</ele><time>2026-04-18T08:42:22.658Z</time></trkpt><trkpt lat="43.9142289" lon="12.7322523"><ele>35.0</ele><time>2026-04-18T08:42:23.659Z</time></trkpt><trkpt lat="43.9141182" lon="12.732298"><ele>35.0</ele><time>2026-04-18T08:42:24.66Z</time></trkpt><trkpt lat="43.9139975" lon="12.7323474"><ele>35.0</ele><time>2026-04-18T08:42:25.659Z</time></trkpt><trkpt lat="43.9138663" lon="12.7324025"><ele>35.0</ele><time>2026-04-18T08:42:26.659Z</time></trkpt><trkpt lat="43.9137067" lon="12.7324683"><ele>35.0</ele><time>2026-04-18T08:42:27.658Z</time></trkpt><trkpt lat="43.9135317" lon="12.7325383"><ele>35.33333333333333</ele><time>2026-04-18T08:42:28.659Z</time></trkpt><trkpt lat="43.9133383" lon="12.7326083"><ele>35.666666666666664</ele><time>2026-04-18T08:42:29.658Z</time></trkpt><trkpt lat="43.9131467" lon="12.7326783"><ele>36.0</ele><time>2026-04-18T08:42:30.658Z</time></trkpt><trkpt lat="43.9129433" lon="12.7327633"><ele>38.5</ele><time>2026-04-18T08:42:31.659Z</time></trkpt><trkpt lat="43.9127067" lon="12.73285"><ele>41.0</ele><time>2026-04-18T08:42:32.659Z</time></trkpt><trkpt lat="43.9124367" lon="12.7329433"><ele>42.0</ele><time>2026-04-18T08:42:33.658Z</time></trkpt><trkpt lat="43.9121417" lon="12.7330567"><ele>43.0</ele><time>2026-04-18T08:42:34.659Z</time></trkpt><trkpt lat="43.91185" lon="12.733165"><ele>44.5</ele><time>2026-04-18T08:42:35.658Z</time></trkpt><trkpt lat="43.9115733" lon="12.73325"><ele>46.0</ele><time>2026-04-18T08:42:36.658Z</time></trkpt><trkpt lat="43.9113017" lon="12.733295"><ele>46.0</ele><time>2026-04-18T08:42:37.658Z</time></trkpt><trkpt lat="43.9110217" lon="12.7333067"><ele>46.0</ele><time>2026-04-18T08:42:38.657Z</time></trkpt><trkpt lat="43.91074" lon="12.7332883"><ele>44.5</ele><time>2026-04-18T08:42:39.658Z</time></trkpt><trkpt lat="43.9104767" lon="12.73326"><ele>43.0</ele><time>2026-04-18T08:42:40.658Z</time></trkpt><trkpt lat="43.9102367" lon="12.73323"><ele>43.333333333333336</ele><time>2026-04-18T08:42:41.658Z</time></trkpt><trkpt lat="43.9100083" lon="12.7332"><ele>43.666666666666664</ele><time>2026-04-18T08:42:42.658Z</time></trkpt><trkpt lat="43.909795" lon="12.7331733"><ele>44.0</ele><time>2026-04-18T08:42:43.659Z</time></trkpt><trkpt lat="43.9095917" lon="12.7331433"><ele>44.0</ele><time>2026-04-18T08:42:44.658Z</time></trkpt><trkpt lat="43.9093967" lon="12.73311"><ele>44.0</ele><time>2026-04-18T08:42:45.659Z</time></trkpt><trkpt lat="43.9092133" lon="12.733075"><ele>44.0</ele><time>2026-04-18T08:42:46.659Z</time></trkpt><trkpt lat="43.9090417" lon="12.733055"><ele>44.0</ele><time>2026-04-18T08:42:47.658Z</time></trkpt><trkpt lat="43.9088783" lon="12.733055"><ele>44.0</ele><time>2026-04-18T08:42:48.658Z</time></trkpt><trkpt lat="43.9087167" lon="12.7330883"><ele>44.0</ele><time>2026-04-18T08:42:49.659Z</time></trkpt><trkpt lat="43.9085517" lon="12.733155"><ele>41.666666666666664</ele><time>2026-04-18T08:42:50.658Z</time></trkpt><trkpt lat="43.90839" lon="12.733245"><ele>39.333333333333336</ele><time>2026-04-18T08:42:51.658Z</time></trkpt><trkpt lat="43.9082233" lon="12.7333667"><ele>37.0</ele><time>2026-04-18T08:42:52.658Z</time></trkpt><trkpt lat="43.9080483" lon="12.7335083"><ele>37.0</ele><time>2026-04-18T08:42:53.659Z</time></trkpt><trkpt lat="43.9078717" lon="12.73366"><ele>37.0</ele><time>2026-04-18T08:42:54.658Z</time></trkpt><trkpt lat="43.9076883" lon="12.7338133"><ele>37.0</ele><time>2026-04-18T08:42:55.658Z</time></trkpt><trkpt lat="43.9075033" lon="12.7339633"><ele>36.333333333333336</ele><time>2026-04-18T08:42:56.658Z</time></trkpt><trkpt lat="43.907315" lon="12.73411"><ele>35.666666666666664</ele><time>2026-04-18T08:42:57.659Z</time></trkpt><trkpt lat="43.9071333" lon="12.73425"><ele>35.0</ele><time>2026-04-18T08:42:58.66Z</time></trkpt><trkpt lat="43.9069583" lon="12.73439"><ele>35.0</ele><time>2026-04-18T08:42:59.658Z</time></trkpt><trkpt lat="43.9067933" lon="12.7345333"><ele>35.0</ele><time>2026-04-18T08:43:00.659Z</time></trkpt><trkpt lat="43.9066333" lon="12.734665"><ele>35.0</ele><time>2026-04-18T08:43:01.658Z</time></trkpt><trkpt lat="43.9064733" lon="12.734795"><ele>36.666666666666664</ele><time>2026-04-18T08:43:02.659Z</time></trkpt><trkpt lat="43.9063183" lon="12.7349217"><ele>38.333333333333336</ele><time>2026-04-18T08:43:03.658Z</time></trkpt><trkpt lat="43.9061683" lon="12.7350417"><ele>40.0</ele><time>2026-04-18T08:43:04.658Z</time></trkpt><trkpt lat="43.9060333" lon="12.7351467"><ele>40.25</ele><time>2026-04-18T08:43:05.658Z</time></trkpt><trkpt lat="43.9059167" lon="12.735245"><ele>40.5</ele><time>2026-04-18T08:43:06.66Z</time></trkpt><trkpt lat="43.905805" lon="12.7353417"><ele>40.75</ele><time>2026-04-18T08:43:07.658Z</time></trkpt><trkpt lat="43.9057017" lon="12.7354283"><ele>41.0</ele><time>2026-04-18T08:43:08.659Z</time></trkpt><trkpt lat="43.9056067" lon="12.7355067"><ele>42.166666666666664</ele><time>2026-04-18T08:43:09.658Z</time></trkpt><trkpt lat="43.90552" lon="12.73557"><ele>43.33333333333333</ele><time>2026-04-18T08:43:10.659Z</time></trkpt><trkpt lat="43.9054483" lon="12.7356233"><ele>44.5</ele><time>2026-04-18T08:43:11.658Z</time></trkpt><trkpt lat="43.9053833" lon="12.735635"><ele>45.666666666666664</ele><time>2026-04-18T08:43:12.659Z</time></trkpt><trkpt lat="43.9053183" lon="12.735615"><ele>46.833333333333336</ele><time>2026-04-18T08:43:13.658Z</time></trkpt><trkpt lat="43.905265" lon="12.73555"><ele>48.0</ele><time>2026-04-18T08:43:14.66Z</time></trkpt><trkpt lat="43.905225" lon="12.7354533"><ele>48.0</ele><time>2026-04-18T08:43:15.658Z</time></trkpt><trkpt lat="43.9052033" lon="12.7353383"><ele>48.0</ele><time>2026-04-18T08:43:16.659Z</time></trkpt><trkpt lat="43.9052033" lon="12.7352033"><ele>48.0</ele><time>2026-04-18T08:43:17.663Z</time></trkpt><trkpt lat="43.9052317" lon="12.7350433"><ele>48.0</ele><time>2026-04-18T08:43:18.659Z</time></trkpt><trkpt lat="43.905255" lon="12.73489"><ele>48.0</ele><time>2026-04-18T08:43:19.66Z</time></trkpt><trkpt lat="43.90527" lon="12.7347467"><ele>47.599999999999994</ele><time>2026-04-18T08:43:20.658Z</time></trkpt><trkpt lat="43.9052767" lon="12.734615"><ele>47.199999999999996</ele><time>2026-04-18T08:43:21.658Z</time></trkpt><trkpt lat="43.9052583" lon="12.7345017"><ele>46.8</ele><time>2026-04-18T08:43:22.658Z</time></trkpt><trkpt lat="43.9052033" lon="12.7344033"><ele>46.4</ele><time>2026-04-18T08:43:23.668Z</time></trkpt><trkpt lat="43.9051117" lon="12.73433"><ele>46.0</ele><time>2026-04-18T08:43:24.658Z</time></trkpt><trkpt lat="43.905" lon="12.73427"><ele>46.0</ele><time>2026-04-18T08:43:25.658Z</time></trkpt><trkpt lat="43.9048733" lon="12.734215"><ele>46.0</ele><time>2026-04-18T08:43:26.659Z</time></trkpt><trkpt lat="43.904735" lon="12.73416"><ele>46.0</ele><time>2026-04-18T08:43:27.658Z</time></trkpt><trkpt lat="43.9045967" lon="12.73412"><ele>46.0</ele><time>2026-04-18T08:43:28.658Z</time></trkpt><trkpt lat="43.904465" lon="12.7340983"><ele>46.0</ele><time>2026-04-18T08:43:29.658Z</time></trkpt><trkpt lat="43.90434" lon="12.734075"><ele>46.0</ele><time>2026-04-18T08:43:30.658Z</time></trkpt><trkpt lat="43.9042267" lon="12.734055"><ele>46.0</ele><time>2026-04-18T08:43:31.658Z</time></trkpt><trkpt lat="43.9041133" lon="12.7340467"><ele>46.0</ele><time>2026-04-18T08:43:32.658Z</time></trkpt><trkpt lat="43.9040083" lon="12.73405"><ele>45.599999999999994</ele><time>2026-04-18T08:43:33.659Z</time></trkpt><trkpt lat="43.9039" lon="12.734075"><ele>45.2</ele><time>2026-04-18T08:43:34.659Z</time></trkpt><trkpt lat="43.903805" lon="12.7341317"><ele>44.8</ele><time>2026-04-18T08:43:35.659Z</time></trkpt><trkpt lat="43.90371" lon="12.7341917"><ele>44.400000000000006</ele><time>2026-04-18T08:43:36.658Z</time></trkpt><trkpt lat="43.90361" lon="12.734255"><ele>44.0</ele><time>2026-04-18T08:43:37.658Z</time></trkpt><trkpt lat="43.9035133" lon="12.734325"><ele>44.0</ele><time>2026-04-18T08:43:38.66Z</time></trkpt><trkpt lat="43.9034117" lon="12.7344"><ele>44.0</ele><time>2026-04-18T08:43:39.658Z</time></trkpt><trkpt lat="43.9033133" lon="12.7344717"><ele>44.0</ele><time>2026-04-18T08:43:40.658Z</time></trkpt><trkpt lat="43.9031933" lon="12.73452"><ele>44.0</ele><time>2026-04-18T08:43:41.659Z</time></trkpt><trkpt lat="43.9030767" lon="12.7345533"><ele>44.0</ele><time>2026-04-18T08:43:42.659Z</time></trkpt><trkpt lat="43.902965" lon="12.7345633"><ele>44.0</ele><time>2026-04-18T08:43:43.658Z</time></trkpt><trkpt lat="43.9028533" lon="12.7345667"><ele>44.0</ele><time>2026-04-18T08:43:44.659Z</time></trkpt><trkpt lat="43.902745" lon="12.7345717"><ele>44.0</ele><time>2026-04-18T08:43:45.658Z</time></trkpt><trkpt lat="43.9026333" lon="12.7345867"><ele>44.0</ele><time>2026-04-18T08:43:46.658Z</time></trkpt><trkpt lat="43.90252" lon="12.7346117"><ele>43.800000000000004</ele><time>2026-04-18T08:43:47.658Z</time></trkpt><trkpt lat="43.9024117" lon="12.73464"><ele>43.6</ele><time>2026-04-18T08:43:48.658Z</time></trkpt><trkpt lat="43.9023083" lon="12.734675"><ele>43.4</ele><time>2026-04-18T08:43:49.658Z</time></trkpt><trkpt lat="43.9022" lon="12.7347083"><ele>43.2</ele><time>2026-04-18T08:43:50.658Z</time></trkpt><trkpt lat="43.9020933" lon="12.7347467"><ele>43.0</ele><time>2026-04-18T08:43:51.658Z</time></trkpt><trkpt lat="43.9019933" lon="12.7347783"><ele>43.0</ele><time>2026-04-18T08:43:52.659Z</time></trkpt><trkpt lat="43.9019067" lon="12.7348033"><ele>43.0</ele><time>2026-04-18T08:43:53.658Z</time></trkpt><trkpt lat="43.9018217" lon="12.7348233"><ele>43.0</ele><time>2026-04-18T08:43:54.659Z</time></trkpt><trkpt lat="43.90173" lon="12.7348417"><ele>43.0</ele><time>2026-04-18T08:43:55.658Z</time></trkpt><trkpt lat="43.9016517" lon="12.734865"><ele>43.0</ele><time>2026-04-18T08:43:56.659Z</time></trkpt><trkpt lat="43.9015767" lon="12.7348833"><ele>43.0</ele><time>2026-04-18T08:43:57.659Z</time></trkpt><trkpt lat="43.9015" lon="12.7349033"><ele>43.2</ele><time>2026-04-18T08:43:58.659Z</time></trkpt><trkpt lat="43.90143" lon="12.7349267"><ele>43.4</ele><time>2026-04-18T08:43:59.658Z</time></trkpt><trkpt lat="43.9013167" lon="12.7349367"><ele>43.6</ele><time>2026-04-18T08:44:01.658Z</time></trkpt><trkpt lat="43.9012183" lon="12.7349367"><ele>43.800000000000004</ele><time>2026-04-18T08:44:03.659Z</time></trkpt><trkpt lat="43.901155" lon="12.7349217"><ele>44.0</ele><time>2026-04-18T08:44:05.658Z</time></trkpt><trkpt lat="43.901045" lon="12.734945"><ele>44.0</ele><time>2026-04-18T08:44:08.658Z</time></trkpt><trkpt lat="43.9009283" lon="12.7349433"><ele>44.0</ele><time>2026-04-18T08:44:10.658Z</time></trkpt><trkpt lat="43.9008633" lon="12.7349217"><ele>44.0</ele><time>2026-04-18T08:44:11.658Z</time></trkpt><trkpt lat="43.9007867" lon="12.7349067"><ele>44.0</ele><time>2026-04-18T08:44:12.658Z</time></trkpt><trkpt lat="43.9007067" lon="12.7348967"><ele>44.0</ele><time>2026-04-18T08:44:13.659Z</time></trkpt><trkpt lat="43.900615" lon="12.7348933"><ele>44.0</ele><time>2026-04-18T08:44:14.659Z</time></trkpt><trkpt lat="43.9005167" lon="12.7348967"><ele>43.800000000000004</ele><time>2026-04-18T08:44:15.658Z</time></trkpt><trkpt lat="43.9004167" lon="12.7349083"><ele>43.6</ele><time>2026-04-18T08:44:16.659Z</time></trkpt><trkpt lat="43.90031" lon="12.7349233"><ele>43.4</ele><time>2026-04-18T08:44:17.66Z</time></trkpt><trkpt lat="43.9002" lon="12.7349483"><ele>43.2</ele><time>2026-04-18T08:44:18.659Z</time></trkpt><trkpt lat="43.9000883" lon="12.7349733"><ele>43.0</ele><time>2026-04-18T08:44:19.66Z</time></trkpt><trkpt lat="43.8999833" lon="12.7349883"><ele>43.0</ele><time>2026-04-18T08:44:20.659Z</time></trkpt><trkpt lat="43.8998833" lon="12.7350067"><ele>43.0</ele><time>2026-04-18T08:44:21.659Z</time></trkpt><trkpt lat="43.8997817" lon="12.7350317"><ele>43.0</ele><time>2026-04-18T08:44:22.658Z</time></trkpt><trkpt lat="43.8996833" lon="12.7350667"><ele>43.0</ele><time>2026-04-18T08:44:23.659Z</time></trkpt><trkpt lat="43.89959" lon="12.735105"><ele>43.0</ele><time>2026-04-18T08:44:24.658Z</time></trkpt><trkpt lat="43.899505" lon="12.73516"><ele>43.4</ele><time>2026-04-18T08:44:25.658Z</time></trkpt><trkpt lat="43.8994317" lon="12.735245"><ele>43.8</ele><time>2026-04-18T08:44:26.659Z</time></trkpt><trkpt lat="43.89935" lon="12.7353383"><ele>44.2</ele><time>2026-04-18T08:44:27.658Z</time></trkpt><trkpt lat="43.8992733" lon="12.73543"><ele>44.6</ele><time>2026-04-18T08:44:28.658Z</time></trkpt><trkpt lat="43.899195" lon="12.7355117"><ele>45.0</ele><time>2026-04-18T08:44:29.658Z</time></trkpt><trkpt lat="43.8991217" lon="12.735585"><ele>45.166666666666664</ele><time>2026-04-18T08:44:30.66Z</time></trkpt><trkpt lat="43.8990517" lon="12.735655"><ele>45.333333333333336</ele><time>2026-04-18T08:44:31.659Z</time></trkpt><trkpt lat="43.8989867" lon="12.7357217"><ele>45.5</ele><time>2026-04-18T08:44:32.659Z</time></trkpt><trkpt lat="43.8989233" lon="12.7357667"><ele>45.66666666666667</ele><time>2026-04-18T08:44:33.658Z</time></trkpt><trkpt lat="43.8988083" lon="12.73583"><ele>45.833333333333336</ele><time>2026-04-18T08:44:35.658Z</time></trkpt><trkpt lat="43.8987367" lon="12.7358417"><ele>46.0</ele><time>2026-04-18T08:44:36.659Z</time></trkpt><trkpt lat="43.898655" lon="12.7358517"><ele>46.0</ele><time>2026-04-18T08:44:37.658Z</time></trkpt><trkpt lat="43.8985683" lon="12.735855"><ele>46.0</ele><time>2026-04-18T08:44:38.659Z</time></trkpt><trkpt lat="43.89847" lon="12.7358633"><ele>46.0</ele><time>2026-04-18T08:44:39.658Z</time></trkpt><trkpt lat="43.8983683" lon="12.73587"><ele>46.0</ele><time>2026-04-18T08:44:40.659Z</time></trkpt><trkpt lat="43.89827" lon="12.7358783"><ele>46.0</ele><time>2026-04-18T08:44:41.658Z</time></trkpt><trkpt lat="43.898175" lon="12.735915"><ele>46.0</ele><time>2026-04-18T08:44:42.659Z</time></trkpt><trkpt lat="43.8980781" lon="12.7359221"><ele>46.0</ele><time>2026-04-18T08:44:43.658Z</time></trkpt><trkpt lat="43.8979786" lon="12.73593"><ele>46.0</ele><time>2026-04-18T08:44:44.659Z</time></trkpt><trkpt lat="43.8978719" lon="12.7359346"><ele>46.0</ele><time>2026-04-18T08:44:45.657Z</time></trkpt><trkpt lat="43.8977567" lon="12.7359366"><ele>46.0</ele><time>2026-04-18T08:44:46.658Z</time></trkpt><trkpt lat="43.8976424" lon="12.7359364"><ele>45.5</ele><time>2026-04-18T08:44:47.658Z</time></trkpt><trkpt lat="43.8975314" lon="12.7359357"><ele>45.0</ele><time>2026-04-18T08:44:48.659Z</time></trkpt><trkpt lat="43.8974123" lon="12.7359438"><ele>44.5</ele><time>2026-04-18T08:44:49.658Z</time></trkpt><trkpt lat="43.8972898" lon="12.7359611"><ele>44.0</ele><time>2026-04-18T08:44:50.657Z</time></trkpt><trkpt lat="43.8971717" lon="12.7359947"><ele>44.0</ele><time>2026-04-18T08:44:51.658Z</time></trkpt><trkpt lat="43.8970583" lon="12.7360411"><ele>44.0</ele><time>2026-04-18T08:44:52.659Z</time></trkpt><trkpt lat="43.8969465" lon="12.7360903"><ele>44.0</ele><time>2026-04-18T08:44:53.658Z</time></trkpt><trkpt lat="43.896835" lon="12.7361427"><ele>44.0</ele><time>2026-04-18T08:44:54.658Z</time></trkpt><trkpt lat="43.8967275" lon="12.7362094"><ele>45.5</ele><time>2026-04-18T08:44:55.658Z</time></trkpt><trkpt lat="43.8966212" lon="12.7362872"><ele>47.0</ele><time>2026-04-18T08:44:56.659Z</time></trkpt><trkpt lat="43.8965167" lon="12.736379"><ele>48.5</ele><time>2026-04-18T08:44:57.658Z</time></trkpt><trkpt lat="43.8964205" lon="12.7364754"><ele>50.0</ele><time>2026-04-18T08:44:58.659Z</time></trkpt><trkpt lat="43.8963332" lon="12.736569"><ele>50.0</ele><time>2026-04-18T08:44:59.658Z</time></trkpt><trkpt lat="43.8962529" lon="12.7366532"><ele>50.0</ele><time>2026-04-18T08:45:00.66Z</time></trkpt><trkpt lat="43.8961703" lon="12.7367364"><ele>50.0</ele><time>2026-04-18T08:45:01.658Z</time></trkpt><trkpt lat="43.8960896" lon="12.7368202"><ele>50.0</ele><time>2026-04-18T08:45:02.659Z</time></trkpt><trkpt lat="43.8960054" lon="12.736905"><ele>50.0</ele><time>2026-04-18T08:45:03.659Z</time></trkpt><trkpt lat="43.8959191" lon="12.736986"><ele>50.2</ele><time>2026-04-18T08:45:04.658Z</time></trkpt><trkpt lat="43.895835" lon="12.7370668"><ele>50.4</ele><time>2026-04-18T08:45:05.658Z</time></trkpt><trkpt lat="43.8957529" lon="12.7371391"><ele>50.599999999999994</ele><time>2026-04-18T08:45:06.658Z</time></trkpt><trkpt lat="43.8956701" lon="12.7372147"><ele>50.8</ele><time>2026-04-18T08:45:07.659Z</time></trkpt><trkpt lat="43.895585" lon="12.7372877"><ele>51.0</ele><time>2026-04-18T08:45:08.658Z</time></trkpt><trkpt lat="43.8955153" lon="12.7373688"><ele>51.0</ele><time>2026-04-18T08:45:09.659Z</time></trkpt><trkpt lat="43.8954513" lon="12.7374568"><ele>51.0</ele><time>2026-04-18T08:45:10.658Z</time></trkpt><trkpt lat="43.8953947" lon="12.7375558"><ele>51.0</ele><time>2026-04-18T08:45:11.658Z</time></trkpt><trkpt lat="43.8953444" lon="12.7376684"><ele>51.0</ele><time>2026-04-18T08:45:12.658Z</time></trkpt><trkpt lat="43.8952953" lon="12.7377786"><ele>51.0</ele><time>2026-04-18T08:45:13.658Z</time></trkpt><trkpt lat="43.8952512" lon="12.7378852"><ele>50.833333333333336</ele><time>2026-04-18T08:45:14.658Z</time></trkpt><trkpt lat="43.8952057" lon="12.7379859"><ele>50.66666666666667</ele><time>2026-04-18T08:45:15.658Z</time></trkpt><trkpt lat="43.8951526" lon="12.7380708"><ele>50.5</ele><time>2026-04-18T08:45:16.658Z</time></trkpt><trkpt lat="43.8950911" lon="12.7381548"><ele>50.333333333333336</ele><time>2026-04-18T08:45:17.659Z</time></trkpt><trkpt lat="43.8950202" lon="12.7382419"><ele>50.16666666666667</ele><time>2026-04-18T08:45:18.658Z</time></trkpt><trkpt lat="43.8949407" lon="12.7383265"><ele>50.0</ele><time>2026-04-18T08:45:19.659Z</time></trkpt><trkpt lat="43.8948525" lon="12.7383988"><ele>50.0</ele><time>2026-04-18T08:45:20.658Z</time></trkpt><trkpt lat="43.8947606" lon="12.7384672"><ele>50.0</ele><time>2026-04-18T08:45:21.658Z</time></trkpt><trkpt lat="43.8946703" lon="12.7385381"><ele>50.0</ele><time>2026-04-18T08:45:22.658Z</time></trkpt><trkpt lat="43.894584" lon="12.7386163"><ele>50.0</ele><time>2026-04-18T08:45:23.658Z</time></trkpt><trkpt lat="43.8945002" lon="12.7386942"><ele>50.0</ele><time>2026-04-18T08:45:24.659Z</time></trkpt><trkpt lat="43.8944192" lon="12.7387695"><ele>50.0</ele><time>2026-04-18T08:45:25.657Z</time></trkpt><trkpt lat="43.8943349" lon="12.7388344"><ele>50.0</ele><time>2026-04-18T08:45:26.658Z</time></trkpt><trkpt lat="43.8942484" lon="12.7388882"><ele>50.0</ele><time>2026-04-18T08:45:27.658Z</time></trkpt><trkpt lat="43.8941549" lon="12.7389046"><ele>50.0</ele><time>2026-04-18T08:45:28.659Z</time></trkpt><trkpt lat="43.8940598" lon="12.7388751"><ele>50.0</ele><time>2026-04-18T08:45:29.658Z</time></trkpt><trkpt lat="43.8939722" lon="12.7388044"><ele>50.0</ele><time>2026-04-18T08:45:30.659Z</time></trkpt><trkpt lat="43.8938871" lon="12.738709"><ele>50.0</ele><time>2026-04-18T08:45:31.658Z</time></trkpt><trkpt lat="43.8938085" lon="12.7385873"><ele>50.0</ele><time>2026-04-18T08:45:32.659Z</time></trkpt><trkpt lat="43.8937239" lon="12.7384764"><ele>50.0</ele><time>2026-04-18T08:45:33.658Z</time></trkpt><trkpt lat="43.8936341" lon="12.738384"><ele>50.0</ele><time>2026-04-18T08:45:34.658Z</time></trkpt><trkpt lat="43.8935454" lon="12.7382991"><ele>50.0</ele><time>2026-04-18T08:45:35.658Z</time></trkpt><trkpt lat="43.8934597" lon="12.7382195"><ele>50.0</ele><time>2026-04-18T08:45:36.657Z</time></trkpt><trkpt lat="43.8933802" lon="12.7381518"><ele>50.0</ele><time>2026-04-18T08:45:37.658Z</time></trkpt><trkpt lat="43.8933056" lon="12.7380986"><ele>50.0</ele><time>2026-04-18T08:45:38.659Z</time></trkpt><trkpt lat="43.8932354" lon="12.7380517"><ele>50.333333333333336</ele><time>2026-04-18T08:45:39.658Z</time></trkpt><trkpt lat="43.8931697" lon="12.7380131"><ele>50.66666666666667</ele><time>2026-04-18T08:45:40.658Z</time></trkpt><trkpt lat="43.8931019" lon="12.7379862"><ele>51.0</ele><time>2026-04-18T08:45:41.659Z</time></trkpt><trkpt lat="43.8930256" lon="12.737979"><ele>51.33333333333333</ele><time>2026-04-18T08:45:42.659Z</time></trkpt><trkpt lat="43.8929433" lon="12.7379737"><ele>51.666666666666664</ele><time>2026-04-18T08:45:43.658Z</time></trkpt><trkpt lat="43.8928557" lon="12.737962"><ele>52.0</ele><time>2026-04-18T08:45:44.658Z</time></trkpt><trkpt lat="43.892761" lon="12.7379563"><ele>52.0</ele><time>2026-04-18T08:45:45.662Z</time></trkpt><trkpt lat="43.8926643" lon="12.7379583"><ele>52.0</ele><time>2026-04-18T08:45:46.66Z</time></trkpt><trkpt lat="43.8925676" lon="12.7379646"><ele>52.0</ele><time>2026-04-18T08:45:47.657Z</time></trkpt><trkpt lat="43.8924759" lon="12.7379671"><ele>52.0</ele><time>2026-04-18T08:45:48.657Z</time></trkpt><trkpt lat="43.8923866" lon="12.7379623"><ele>52.0</ele><time>2026-04-18T08:45:49.658Z</time></trkpt><trkpt lat="43.8922954" lon="12.7379555"><ele>52.99999999999999</ele><time>2026-04-18T08:45:50.657Z</time></trkpt><trkpt lat="43.8922043" lon="12.7379487"><ele>54.0</ele><time>2026-04-18T08:45:51.658Z</time></trkpt><trkpt lat="43.892121" lon="12.7379451"><ele>55.0</ele><time>2026-04-18T08:45:52.657Z</time></trkpt><trkpt lat="43.8920421" lon="12.7379405"><ele>56.0</ele><time>2026-04-18T08:45:53.658Z</time></trkpt><trkpt lat="43.8919699" lon="12.7379414"><ele>56.99999999999999</ele><time>2026-04-18T08:45:54.657Z</time></trkpt><trkpt lat="43.8919005" lon="12.7379411"><ele>58.0</ele><time>2026-04-18T08:45:55.656Z</time></trkpt><trkpt lat="43.8918284" lon="12.7379371"><ele>58.166666666666664</ele><time>2026-04-18T08:45:56.657Z</time></trkpt><trkpt lat="43.8917526" lon="12.7379283"><ele>58.33333333333333</ele><time>2026-04-18T08:45:57.657Z</time></trkpt><trkpt lat="43.8916715" lon="12.7379259"><ele>58.5</ele><time>2026-04-18T08:45:58.657Z</time></trkpt><trkpt lat="43.8915863" lon="12.7379229"><ele>58.66666666666667</ele><time>2026-04-18T08:45:59.657Z</time></trkpt><trkpt lat="43.8914978" lon="12.7379143"><ele>58.833333333333336</ele><time>2026-04-18T08:46:00.657Z</time></trkpt><trkpt lat="43.8914048" lon="12.7379033"><ele>59.0</ele><time>2026-04-18T08:46:01.657Z</time></trkpt><trkpt lat="43.8913123" lon="12.7378934"><ele>59.00000000000001</ele><time>2026-04-18T08:46:02.658Z</time></trkpt><trkpt lat="43.8912255" lon="12.7378897"><ele>59.0</ele><time>2026-04-18T08:46:03.657Z</time></trkpt><trkpt lat="43.8911477" lon="12.7378857"><ele>59.0</ele><time>2026-04-18T08:46:04.657Z</time></trkpt><trkpt lat="43.8910744" lon="12.7378851"><ele>59.0</ele><time>2026-04-18T08:46:05.657Z</time></trkpt><trkpt lat="43.8910069" lon="12.7378837"><ele>59.00000000000001</ele><time>2026-04-18T08:46:06.657Z</time></trkpt><trkpt lat="43.8908874" lon="12.7378792"><ele>59.0</ele><time>2026-04-18T08:46:08.658Z</time></trkpt><trkpt lat="43.8907684" lon="12.7378755"><ele>58.800000000000004</ele><time>2026-04-18T08:46:10.657Z</time></trkpt><trkpt lat="43.8907048" lon="12.7378749"><ele>58.60000000000001</ele><time>2026-04-18T08:46:11.657Z</time></trkpt><trkpt lat="43.8905876" lon="12.7378735"><ele>58.4</ele><time>2026-04-18T08:46:13.657Z</time></trkpt><trkpt lat="43.8904843" lon="12.7378979"><ele>58.2</ele><time>2026-04-18T08:46:15.657Z</time></trkpt><trkpt lat="43.8903602" lon="12.7379619"><ele>58.0</ele><time>2026-04-18T08:46:17.657Z</time></trkpt><trkpt lat="43.8902835" lon="12.7379852"><ele>58.0</ele><time>2026-04-18T08:46:18.66Z</time></trkpt><trkpt lat="43.8901935" lon="12.7380168"><ele>58.0</ele><time>2026-04-18T08:46:19.657Z</time></trkpt><trkpt lat="43.8900925" lon="12.7380629"><ele>58.0</ele><time>2026-04-18T08:46:20.658Z</time></trkpt><trkpt lat="43.8899896" lon="12.738114"><ele>58.0</ele><time>2026-04-18T08:46:21.657Z</time></trkpt><trkpt lat="43.889887" lon="12.7381719"><ele>58.0</ele><time>2026-04-18T08:46:22.658Z</time></trkpt><trkpt lat="43.8897807" lon="12.7382262"><ele>57.25</ele><time>2026-04-18T08:46:23.657Z</time></trkpt><trkpt lat="43.889666" lon="12.7382707"><ele>56.5</ele><time>2026-04-18T08:46:24.657Z</time></trkpt><trkpt lat="43.8895547" lon="12.7383118"><ele>55.75</ele><time>2026-04-18T08:46:25.657Z</time></trkpt><trkpt lat="43.8894478" lon="12.7383569"><ele>55.0</ele><time>2026-04-18T08:46:26.658Z</time></trkpt><trkpt lat="43.8893426" lon="12.7384076"><ele>54.5</ele><time>2026-04-18T08:46:27.657Z</time></trkpt><trkpt lat="43.889239" lon="12.7384626"><ele>54.0</ele><time>2026-04-18T08:46:28.656Z</time></trkpt><trkpt lat="43.8891369" lon="12.7385242"><ele>53.5</ele><time>2026-04-18T08:46:29.657Z</time></trkpt><trkpt lat="43.8890339" lon="12.7385905"><ele>53.0</ele><time>2026-04-18T08:46:30.657Z</time></trkpt><trkpt lat="43.8889298" lon="12.7386565"><ele>54.599999999999994</ele><time>2026-04-18T08:46:31.658Z</time></trkpt><trkpt lat="43.8888346" lon="12.7387233"><ele>56.199999999999996</ele><time>2026-04-18T08:46:32.658Z</time></trkpt><trkpt lat="43.8887474" lon="12.7387949"><ele>57.8</ele><time>2026-04-18T08:46:33.657Z</time></trkpt><trkpt lat="43.8886742" lon="12.7388731"><ele>59.4</ele><time>2026-04-18T08:46:34.657Z</time></trkpt><trkpt lat="43.8886144" lon="12.7389567"><ele>61.0</ele><time>2026-04-18T08:46:35.657Z</time></trkpt><trkpt lat="43.8885577" lon="12.739045"><ele>61.0</ele><time>2026-04-18T08:46:36.657Z</time></trkpt><trkpt lat="43.8884964" lon="12.7391385"><ele>60.99999999999999</ele><time>2026-04-18T08:46:37.657Z</time></trkpt><trkpt lat="43.8884283" lon="12.7392379"><ele>60.99999999999999</ele><time>2026-04-18T08:46:38.656Z</time></trkpt><trkpt lat="43.8883608" lon="12.7393382"><ele>61.0</ele><time>2026-04-18T08:46:39.656Z</time></trkpt><trkpt lat="43.8882983" lon="12.739445"><ele>61.0</ele><time>2026-04-18T08:46:40.657Z</time></trkpt><trkpt lat="43.8882451" lon="12.7395452"><ele>60.99999999999999</ele><time>2026-04-18T08:46:41.657Z</time></trkpt><trkpt lat="43.8882047" lon="12.7396415"><ele>61.0</ele><time>2026-04-18T08:46:42.657Z</time></trkpt><trkpt lat="43.8881638" lon="12.7397296"><ele>61.0</ele><time>2026-04-18T08:46:43.658Z</time></trkpt><trkpt lat="43.8881171" lon="12.7398147"><ele>61.0</ele><time>2026-04-18T08:46:44.657Z</time></trkpt><trkpt lat="43.8880689" lon="12.7398999"><ele>60.99999999999999</ele><time>2026-04-18T08:46:45.657Z</time></trkpt><trkpt lat="43.8880222" lon="12.7399919"><ele>61.0</ele><time>2026-04-18T08:46:46.657Z</time></trkpt><trkpt lat="43.8879783" lon="12.7400872"><ele>60.99999999999999</ele><time>2026-04-18T08:46:47.657Z</time></trkpt><trkpt lat="43.8879309" lon="12.740185"><ele>61.0</ele><time>2026-04-18T08:46:48.658Z</time></trkpt><trkpt lat="43.8878823" lon="12.7402794"><ele>61.0</ele><time>2026-04-18T08:46:49.657Z</time></trkpt><trkpt lat="43.8878368" lon="12.7403756"><ele>61.0</ele><time>2026-04-18T08:46:50.657Z</time></trkpt><trkpt lat="43.887795" lon="12.7404779"><ele>60.99999999999999</ele><time>2026-04-18T08:46:51.657Z</time></trkpt><trkpt lat="43.8877554" lon="12.7405886"><ele>61.0</ele><time>2026-04-18T08:46:52.657Z</time></trkpt><trkpt lat="43.8877167" lon="12.7407059"><ele>62.4</ele><time>2026-04-18T08:46:53.657Z</time></trkpt><trkpt lat="43.8876852" lon="12.7408325"><ele>63.8</ele><time>2026-04-18T08:46:54.658Z</time></trkpt><trkpt lat="43.8876571" lon="12.7409621"><ele>65.19999999999999</ele><time>2026-04-18T08:46:55.657Z</time></trkpt><trkpt lat="43.8876325" lon="12.7410999"><ele>66.6</ele><time>2026-04-18T08:46:56.658Z</time></trkpt><trkpt lat="43.8876123" lon="12.7412363"><ele>68.0</ele><time>2026-04-18T08:46:57.656Z</time></trkpt><trkpt lat="43.8876032" lon="12.7413723"><ele>68.0</ele><time>2026-04-18T08:46:58.657Z</time></trkpt><trkpt lat="43.8876005" lon="12.7415094"><ele>68.0</ele><time>2026-04-18T08:46:59.657Z</time></trkpt><trkpt lat="43.8876128" lon="12.7416441"><ele>68.0</ele><time>2026-04-18T08:47:00.657Z</time></trkpt><trkpt lat="43.8876329" lon="12.7417758"><ele>68.0</ele><time>2026-04-18T08:47:01.656Z</time></trkpt><trkpt lat="43.8876562" lon="12.7419173"><ele>68.0</ele><time>2026-04-18T08:47:02.657Z</time></trkpt><trkpt lat="43.8876801" lon="12.7420581"><ele>68.0</ele><time>2026-04-18T08:47:03.657Z</time></trkpt><trkpt lat="43.8877077" lon="12.7421986"><ele>68.0</ele><time>2026-04-18T08:47:04.657Z</time></trkpt><trkpt lat="43.8877336" lon="12.7423366"><ele>68.0</ele><time>2026-04-18T08:47:05.656Z</time></trkpt><trkpt lat="43.8877573" lon="12.7424839"><ele>68.0</ele><time>2026-04-18T08:47:06.656Z</time></trkpt><trkpt lat="43.8877767" lon="12.7426222"><ele>68.0</ele><time>2026-04-18T08:47:07.657Z</time></trkpt><trkpt lat="43.8877884" lon="12.7427618"><ele>68.0</ele><time>2026-04-18T08:47:08.657Z</time></trkpt><trkpt lat="43.8877965" lon="12.7428779"><ele>68.0</ele><time>2026-04-18T08:47:09.657Z</time></trkpt><trkpt lat="43.8878013" lon="12.7429805"><ele>68.0</ele><time>2026-04-18T08:47:10.656Z</time></trkpt><trkpt lat="43.8878002" lon="12.7430718"><ele>68.0</ele><time>2026-04-18T08:47:11.658Z</time></trkpt><trkpt lat="43.887782" lon="12.7432358"><ele>68.0</ele><time>2026-04-18T08:47:13.658Z</time></trkpt><trkpt lat="43.8877628" lon="12.7433229"><ele>68.0</ele><time>2026-04-18T08:47:14.656Z</time></trkpt><trkpt lat="43.887742" lon="12.743413"><ele>68.0</ele><time>2026-04-18T08:47:15.657Z</time></trkpt><trkpt lat="43.8877225" lon="12.7435084"><ele>68.0</ele><time>2026-04-18T08:47:16.656Z</time></trkpt><trkpt lat="43.8877017" lon="12.7436109"><ele>68.0</ele><time>2026-04-18T08:47:17.658Z</time></trkpt><trkpt lat="43.8876908" lon="12.7437175"><ele>68.0</ele><time>2026-04-18T08:47:18.657Z</time></trkpt><trkpt lat="43.8876793" lon="12.7438258"><ele>68.0</ele><time>2026-04-18T08:47:19.658Z</time></trkpt><trkpt lat="43.8876696" lon="12.7439293"><ele>68.0</ele><time>2026-04-18T08:47:20.657Z</time></trkpt><trkpt lat="43.8876626" lon="12.7440365"><ele>68.16666666666667</ele><time>2026-04-18T08:47:21.659Z</time></trkpt><trkpt lat="43.8876525" lon="12.744139"><ele>68.33333333333334</ele><time>2026-04-18T08:47:22.657Z</time></trkpt><trkpt lat="43.8876451" lon="12.7442362"><ele>68.5</ele><time>2026-04-18T08:47:23.658Z</time></trkpt><trkpt lat="43.8876334" lon="12.744324"><ele>68.66666666666667</ele><time>2026-04-18T08:47:24.657Z</time></trkpt><trkpt lat="43.8876345" lon="12.7444952"><ele>68.83333333333333</ele><time>2026-04-18T08:47:26.658Z</time></trkpt><trkpt lat="43.8876461" lon="12.7445852"><ele>69.0</ele><time>2026-04-18T08:47:27.657Z</time></trkpt><trkpt lat="43.8876685" lon="12.7446798"><ele>69.0</ele><time>2026-04-18T08:47:28.657Z</time></trkpt><trkpt lat="43.8877013" lon="12.7447819"><ele>69.0</ele><time>2026-04-18T08:47:29.656Z</time></trkpt><trkpt lat="43.887742" lon="12.7448867"><ele>69.0</ele><time>2026-04-18T08:47:30.657Z</time></trkpt><trkpt lat="43.8877943" lon="12.7449903"><ele>69.0</ele><time>2026-04-18T08:47:31.657Z</time></trkpt><trkpt lat="43.8878515" lon="12.7450896"><ele>69.0</ele><time>2026-04-18T08:47:32.657Z</time></trkpt><trkpt lat="43.8879089" lon="12.7451863"><ele>69.0</ele><time>2026-04-18T08:47:33.657Z</time></trkpt><trkpt lat="43.8879701" lon="12.7452729"><ele>68.5</ele><time>2026-04-18T08:47:34.657Z</time></trkpt><trkpt lat="43.8880332" lon="12.7453625"><ele>68.0</ele><time>2026-04-18T08:47:35.657Z</time></trkpt><trkpt lat="43.888096" lon="12.7454525"><ele>67.5</ele><time>2026-04-18T08:47:36.657Z</time></trkpt><trkpt lat="43.8881479" lon="12.7455332"><ele>67.0</ele><time>2026-04-18T08:47:37.657Z</time></trkpt><trkpt lat="43.8882047" lon="12.7455998"><ele>66.5</ele><time>2026-04-18T08:47:38.657Z</time></trkpt><trkpt lat="43.8882627" lon="12.7456652"><ele>66.0</ele><time>2026-04-18T08:47:39.656Z</time></trkpt><trkpt lat="43.8883211" lon="12.7457368"><ele>66.0</ele><time>2026-04-18T08:47:40.657Z</time></trkpt><trkpt lat="43.88838" lon="12.7458198"><ele>66.0</ele><time>2026-04-18T08:47:41.657Z</time></trkpt><trkpt lat="43.8884366" lon="12.7459128"><ele>66.0</ele><time>2026-04-18T08:47:42.657Z</time></trkpt><trkpt lat="43.8884848" lon="12.7460128"><ele>66.0</ele><time>2026-04-18T08:47:43.657Z</time></trkpt><trkpt lat="43.8885182" lon="12.746118"><ele>66.0</ele><time>2026-04-18T08:47:44.658Z</time></trkpt><trkpt lat="43.88855" lon="12.746225"><ele>66.0</ele><time>2026-04-18T08:47:45.657Z</time></trkpt><trkpt lat="43.8885866" lon="12.74633"><ele>66.16666666666667</ele><time>2026-04-18T08:47:46.657Z</time></trkpt><trkpt lat="43.8886274" lon="12.7464281"><ele>66.33333333333333</ele><time>2026-04-18T08:47:47.658Z</time></trkpt><trkpt lat="43.8886685" lon="12.7465218"><ele>66.5</ele><time>2026-04-18T08:47:48.658Z</time></trkpt><trkpt lat="43.8887128" lon="12.7466161"><ele>66.66666666666666</ele><time>2026-04-18T08:47:49.658Z</time></trkpt><trkpt lat="43.8887596" lon="12.7467104"><ele>66.83333333333333</ele><time>2026-04-18T08:47:50.659Z</time></trkpt><trkpt lat="43.8888136" lon="12.7467997"><ele>67.0</ele><time>2026-04-18T08:47:51.658Z</time></trkpt><trkpt lat="43.8888731" lon="12.7468883"><ele>67.0</ele><time>2026-04-18T08:47:52.658Z</time></trkpt><trkpt lat="43.8889355" lon="12.7469783"><ele>67.0</ele><time>2026-04-18T08:47:53.659Z</time></trkpt><trkpt lat="43.8889981" lon="12.7470737"><ele>67.0</ele><time>2026-04-18T08:47:54.656Z</time></trkpt><trkpt lat="43.8890567" lon="12.7471712"><ele>67.0</ele><time>2026-04-18T08:47:55.657Z</time></trkpt><trkpt lat="43.8891106" lon="12.7472646"><ele>67.0</ele><time>2026-04-18T08:47:56.657Z</time></trkpt><trkpt lat="43.8891548" lon="12.7473465"><ele>67.0</ele><time>2026-04-18T08:47:57.657Z</time></trkpt><trkpt lat="43.8891915" lon="12.7474242"><ele>67.8</ele><time>2026-04-18T08:47:58.656Z</time></trkpt><trkpt lat="43.8892616" lon="12.7475588"><ele>68.6</ele><time>2026-04-18T08:48:00.657Z</time></trkpt><trkpt lat="43.8893167" lon="12.7476689"><ele>69.39999999999999</ele><time>2026-04-18T08:48:02.657Z</time></trkpt><trkpt lat="43.8893522" lon="12.7477468"><ele>70.2</ele><time>2026-04-18T08:48:04.657Z</time></trkpt><trkpt lat="43.889409" lon="12.7478668"><ele>71.0</ele><time>2026-04-18T08:49:31.661Z</time></trkpt><trkpt lat="43.8894462" lon="12.7479442"><ele>71.0</ele><time>2026-04-18T08:49:32.671Z</time></trkpt><trkpt lat="43.8895208" lon="12.7480836"><ele>71.0</ele><time>2026-04-18T08:49:34.656Z</time></trkpt><trkpt lat="43.8895579" lon="12.7481565"><ele>71.0</ele><time>2026-04-18T08:49:35.663Z</time></trkpt><trkpt lat="43.8896046" lon="12.7482236"><ele>71.0</ele><time>2026-04-18T08:49:36.657Z</time></trkpt><trkpt lat="43.8896564" lon="12.7482873"><ele>71.0</ele><time>2026-04-18T08:49:37.666Z</time></trkpt><trkpt lat="43.8897079" lon="12.7483551"><ele>71.0</ele><time>2026-04-18T08:49:38.656Z</time></trkpt><trkpt lat="43.8897601" lon="12.7484259"><ele>71.0</ele><time>2026-04-18T08:49:39.662Z</time></trkpt><trkpt lat="43.8898132" lon="12.7484926"><ele>71.0</ele><time>2026-04-18T08:49:40.657Z</time></trkpt><trkpt lat="43.8898696" lon="12.7485469"><ele>71.0</ele><time>2026-04-18T08:49:41.655Z</time></trkpt><trkpt lat="43.8899262" lon="12.7486019"><ele>71.0</ele><time>2026-04-18T08:49:42.655Z</time></trkpt><trkpt lat="43.8899818" lon="12.748653"><ele>71.0</ele><time>2026-04-18T08:49:43.656Z</time></trkpt><trkpt lat="43.8900336" lon="12.7487035"><ele>71.0</ele><time>2026-04-18T08:49:44.656Z</time></trkpt><trkpt lat="43.8901309" lon="12.7488082"><ele>71.2</ele><time>2026-04-18T08:49:46.656Z</time></trkpt><trkpt lat="43.8902026" lon="12.7489132"><ele>71.39999999999999</ele><time>2026-04-18T08:49:48.656Z</time></trkpt><trkpt lat="43.8902539" lon="12.7490309"><ele>71.6</ele><time>2026-04-18T08:49:50.657Z</time></trkpt><trkpt lat="43.8902989" lon="12.749167"><ele>71.8</ele><time>2026-04-18T08:49:52.66Z</time></trkpt><trkpt lat="43.8903439" lon="12.7493156"><ele>72.0</ele><time>2026-04-18T08:49:54.658Z</time></trkpt><trkpt lat="43.8903919" lon="12.7494589"><ele>72.0</ele><time>2026-04-18T08:49:56.656Z</time></trkpt><trkpt lat="43.8904495" lon="12.7496097"><ele>72.0</ele><time>2026-04-18T08:49:58.656Z</time></trkpt><trkpt lat="43.8905188" lon="12.7497615"><ele>72.0</ele><time>2026-04-18T08:50:00.659Z</time></trkpt><trkpt lat="43.8905594" lon="12.7498379"><ele>72.0</ele><time>2026-04-18T08:50:01.655Z</time></trkpt><trkpt lat="43.8906028" lon="12.7499119"><ele>72.0</ele><time>2026-04-18T08:50:02.656Z</time></trkpt><trkpt lat="43.8906502" lon="12.7499837"><ele>72.0</ele><time>2026-04-18T08:50:03.656Z</time></trkpt><trkpt lat="43.8906973" lon="12.750054"><ele>72.0</ele><time>2026-04-18T08:50:04.656Z</time></trkpt><trkpt lat="43.8907403" lon="12.7501265"><ele>72.0</ele><time>2026-04-18T08:50:05.655Z</time></trkpt><trkpt lat="43.8908165" lon="12.7502748"><ele>72.0</ele><time>2026-04-18T08:50:07.655Z</time></trkpt><trkpt lat="43.8908457" lon="12.7503534"><ele>72.0</ele><time>2026-04-18T08:50:08.655Z</time></trkpt><trkpt lat="43.8909088" lon="12.7505042"><ele>72.00000000000001</ele><time>2026-04-18T08:50:10.655Z</time></trkpt><trkpt lat="43.8909493" lon="12.7505761"><ele>72.0</ele><time>2026-04-18T08:50:11.655Z</time></trkpt><trkpt lat="43.8909925" lon="12.7506477"><ele>72.0</ele><time>2026-04-18T08:50:12.657Z</time></trkpt><trkpt lat="43.8910335" lon="12.7507206"><ele>72.0</ele><time>2026-04-18T08:50:13.655Z</time></trkpt><trkpt lat="43.891085" lon="12.7508006"><ele>72.0</ele><time>2026-04-18T08:50:14.655Z</time></trkpt><trkpt lat="43.8911411" lon="12.7508822"><ele>72.00000000000001</ele><time>2026-04-18T08:50:15.656Z</time></trkpt><trkpt lat="43.89121" lon="12.7509639"><ele>72.0</ele><time>2026-04-18T08:50:16.656Z</time></trkpt><trkpt lat="43.8912835" lon="12.7510443"><ele>72.0</ele><time>2026-04-18T08:50:17.656Z</time></trkpt><trkpt lat="43.8913595" lon="12.7511196"><ele>72.0</ele><time>2026-04-18T08:50:18.655Z</time></trkpt><trkpt lat="43.8914342" lon="12.7511912"><ele>72.0</ele><time>2026-04-18T08:50:19.655Z</time></trkpt><trkpt lat="43.8915257" lon="12.7512593"><ele>72.0</ele><time>2026-04-18T08:50:20.656Z</time></trkpt><trkpt lat="43.8916342" lon="12.7513177"><ele>72.0</ele><time>2026-04-18T08:50:21.656Z</time></trkpt><trkpt lat="43.8917504" lon="12.7513706"><ele>72.8</ele><time>2026-04-18T08:50:22.655Z</time></trkpt><trkpt lat="43.8918703" lon="12.7514055"><ele>73.6</ele><time>2026-04-18T08:50:23.655Z</time></trkpt><trkpt lat="43.8919886" lon="12.7514363"><ele>74.39999999999999</ele><time>2026-04-18T08:50:24.655Z</time></trkpt><trkpt lat="43.8920953" lon="12.7514684"><ele>75.2</ele><time>2026-04-18T08:50:25.655Z</time></trkpt><trkpt lat="43.8921892" lon="12.7514906"><ele>76.0</ele><time>2026-04-18T08:50:26.656Z</time></trkpt><trkpt lat="43.892286" lon="12.7515139"><ele>76.0</ele><time>2026-04-18T08:50:27.656Z</time></trkpt><trkpt lat="43.8923806" lon="12.7515565"><ele>76.0</ele><time>2026-04-18T08:50:28.656Z</time></trkpt><trkpt lat="43.8924671" lon="12.7516219"><ele>76.0</ele><time>2026-04-18T08:50:29.657Z</time></trkpt><trkpt lat="43.8925356" lon="12.7516904"><ele>76.0</ele><time>2026-04-18T08:50:30.655Z</time></trkpt><trkpt lat="43.8925805" lon="12.7517732"><ele>76.0</ele><time>2026-04-18T08:50:31.655Z</time></trkpt><trkpt lat="43.8926056" lon="12.7518779"><ele>76.0</ele><time>2026-04-18T08:50:32.656Z</time></trkpt><trkpt lat="43.8926201" lon="12.75201"><ele>77.4</ele><time>2026-04-18T08:50:33.655Z</time></trkpt><trkpt lat="43.8926366" lon="12.7521559"><ele>78.8</ele><time>2026-04-18T08:50:34.655Z</time></trkpt><trkpt lat="43.8926526" lon="12.752306"><ele>80.2</ele><time>2026-04-18T08:50:35.655Z</time></trkpt><trkpt lat="43.8926728" lon="12.7524538"><ele>81.60000000000001</ele><time>2026-04-18T08:50:36.655Z</time></trkpt><trkpt lat="43.8926953" lon="12.7526057"><ele>83.0</ele><time>2026-04-18T08:50:37.661Z</time></trkpt><trkpt lat="43.892717" lon="12.752757"><ele>83.0</ele><time>2026-04-18T08:50:38.655Z</time></trkpt><trkpt lat="43.8927336" lon="12.7529043"><ele>83.0</ele><time>2026-04-18T08:50:39.655Z</time></trkpt><trkpt lat="43.8927471" lon="12.7530516"><ele>83.0</ele><time>2026-04-18T08:50:40.655Z</time></trkpt><trkpt lat="43.8927438" lon="12.7532048"><ele>83.0</ele><time>2026-04-18T08:50:41.655Z</time></trkpt><trkpt lat="43.8927226" lon="12.7533538"><ele>83.0</ele><time>2026-04-18T08:50:42.657Z</time></trkpt><trkpt lat="43.8926921" lon="12.753499"><ele>83.80000000000001</ele><time>2026-04-18T08:50:43.655Z</time></trkpt><trkpt lat="43.892654" lon="12.7536349"><ele>84.6</ele><time>2026-04-18T08:50:44.655Z</time></trkpt><trkpt lat="43.8926126" lon="12.7537611"><ele>85.4</ele><time>2026-04-18T08:50:45.655Z</time></trkpt><trkpt lat="43.8925567" lon="12.7538714"><ele>86.19999999999999</ele><time>2026-04-18T08:50:46.668Z</time></trkpt><trkpt lat="43.8924925" lon="12.7539757"><ele>87.0</ele><time>2026-04-18T08:50:47.655Z</time></trkpt><trkpt lat="43.8924271" lon="12.754097"><ele>87.0</ele><time>2026-04-18T08:50:48.655Z</time></trkpt><trkpt lat="43.892364" lon="12.7542302"><ele>87.0</ele><time>2026-04-18T08:50:49.655Z</time></trkpt><trkpt lat="43.892315" lon="12.7543633"><ele>87.0</ele><time>2026-04-18T08:50:50.656Z</time></trkpt><trkpt lat="43.8922823" lon="12.7544852"><ele>87.0</ele><time>2026-04-18T08:50:51.655Z</time></trkpt><trkpt lat="43.8922542" lon="12.7545867"><ele>87.0</ele><time>2026-04-18T08:50:52.656Z</time></trkpt><trkpt lat="43.8922317" lon="12.75468"><ele>87.83333333333333</ele><time>2026-04-18T08:50:53.656Z</time></trkpt><trkpt lat="43.8922179" lon="12.7547752"><ele>88.66666666666667</ele><time>2026-04-18T08:50:54.655Z</time></trkpt><trkpt lat="43.892223" lon="12.7548751"><ele>89.5</ele><time>2026-04-18T08:50:55.656Z</time></trkpt><trkpt lat="43.8922469" lon="12.7549738"><ele>90.33333333333334</ele><time>2026-04-18T08:50:56.656Z</time></trkpt><trkpt lat="43.8922907" lon="12.755076"><ele>91.16666666666667</ele><time>2026-04-18T08:50:57.655Z</time></trkpt><trkpt lat="43.8923628" lon="12.7551934"><ele>92.0</ele><time>2026-04-18T08:50:58.655Z</time></trkpt><trkpt lat="43.8924582" lon="12.7553489"><ele>93.0</ele><time>2026-04-18T08:50:59.655Z</time></trkpt><trkpt lat="43.8925648" lon="12.7555323"><ele>94.0</ele><time>2026-04-18T08:51:00.655Z</time></trkpt><trkpt lat="43.8926606" lon="12.7557419"><ele>95.0</ele><time>2026-04-18T08:51:01.655Z</time></trkpt><trkpt lat="43.8927331" lon="12.7559527"><ele>98.75</ele><time>2026-04-18T08:51:02.655Z</time></trkpt><trkpt lat="43.8927831" lon="12.7561452"><ele>102.5</ele><time>2026-04-18T08:51:03.655Z</time></trkpt><trkpt lat="43.8928172" lon="12.7563139"><ele>106.25</ele><time>2026-04-18T08:51:04.655Z</time></trkpt><trkpt lat="43.8928478" lon="12.7564553"><ele>110.0</ele><time>2026-04-18T08:51:05.655Z</time></trkpt><trkpt lat="43.8928814" lon="12.7565687"><ele>110.0</ele><time>2026-04-18T08:51:06.655Z</time></trkpt><trkpt lat="43.8929234" lon="12.7566592"><ele>110.0</ele><time>2026-04-18T08:51:07.656Z</time></trkpt><trkpt lat="43.8929918" lon="12.7567307"><ele>110.0</ele><time>2026-04-18T08:51:08.657Z</time></trkpt><trkpt lat="43.8930843" lon="12.7567824"><ele>110.0</ele><time>2026-04-18T08:51:09.657Z</time></trkpt><trkpt lat="43.893189" lon="12.7568143"><ele>110.0</ele><time>2026-04-18T08:51:10.655Z</time></trkpt><trkpt lat="43.8933034" lon="12.7568315"><ele>114.33333333333333</ele><time>2026-04-18T08:51:11.655Z</time></trkpt><trkpt lat="43.893438" lon="12.7568396"><ele>118.66666666666666</ele><time>2026-04-18T08:51:12.655Z</time></trkpt><trkpt lat="43.8935993" lon="12.756846"><ele>123.0</ele><time>2026-04-18T08:51:13.656Z</time></trkpt><trkpt lat="43.8937713" lon="12.7568516"><ele>123.0</ele><time>2026-04-18T08:51:14.655Z</time></trkpt><trkpt lat="43.8939284" lon="12.7568515"><ele>123.0</ele><time>2026-04-18T08:51:15.655Z</time></trkpt><trkpt lat="43.8940542" lon="12.7568615"><ele>123.0</ele><time>2026-04-18T08:51:16.655Z</time></trkpt><trkpt lat="43.894153" lon="12.7569122"><ele>123.0</ele><time>2026-04-18T08:51:17.656Z</time></trkpt><trkpt lat="43.8942303" lon="12.7569982"><ele>126.2</ele><time>2026-04-18T08:51:18.655Z</time></trkpt><trkpt lat="43.8942851" lon="12.7570964"><ele>129.4</ele><time>2026-04-18T08:51:19.656Z</time></trkpt><trkpt lat="43.8943418" lon="12.7571652"><ele>132.60000000000002</ele><time>2026-04-18T08:51:20.658Z</time></trkpt><trkpt lat="43.8944263" lon="12.7571955"><ele>135.8</ele><time>2026-04-18T08:51:21.66Z</time></trkpt><trkpt lat="43.8945431" lon="12.7571717"><ele>139.0</ele><time>2026-04-18T08:51:22.655Z</time></trkpt><trkpt lat="43.8946868" lon="12.757105"><ele>139.0</ele><time>2026-04-18T08:51:23.656Z</time></trkpt><trkpt lat="43.8948371" lon="12.757037"><ele>139.0</ele><time>2026-04-18T08:51:24.657Z</time></trkpt><trkpt lat="43.8949683" lon="12.7569816"><ele>139.0</ele><time>2026-04-18T08:51:25.656Z</time></trkpt><trkpt lat="43.8950752" lon="12.7569438"><ele>139.0</ele><time>2026-04-18T08:51:26.655Z</time></trkpt><trkpt lat="43.8951696" lon="12.7569299"><ele>140.83333333333334</ele><time>2026-04-18T08:51:27.657Z</time></trkpt><trkpt lat="43.8952576" lon="12.7569377"><ele>142.66666666666669</ele><time>2026-04-18T08:51:28.657Z</time></trkpt><trkpt lat="43.8953444" lon="12.7569661"><ele>144.5</ele><time>2026-04-18T08:51:29.655Z</time></trkpt><trkpt lat="43.8954272" lon="12.7570042"><ele>146.33333333333334</ele><time>2026-04-18T08:51:30.655Z</time></trkpt><trkpt lat="43.8955085" lon="12.7570424"><ele>148.16666666666666</ele><time>2026-04-18T08:51:31.655Z</time></trkpt><trkpt lat="43.8955932" lon="12.7570794"><ele>150.0</ele><time>2026-04-18T08:51:32.657Z</time></trkpt><trkpt lat="43.8956664" lon="12.7571068"><ele>150.0</ele><time>2026-04-18T08:51:33.655Z</time></trkpt><trkpt lat="43.8957368" lon="12.757132"><ele>150.0</ele><time>2026-04-18T08:51:34.656Z</time></trkpt><trkpt lat="43.895809" lon="12.757156"><ele>150.0</ele><time>2026-04-18T08:51:35.655Z</time></trkpt><trkpt lat="43.8958881" lon="12.7571728"><ele>150.0</ele><time>2026-04-18T08:51:36.656Z</time></trkpt><trkpt lat="43.895968" lon="12.7571759"><ele>150.0</ele><time>2026-04-18T08:51:37.654Z</time></trkpt><trkpt lat="43.8960457" lon="12.757169"><ele>150.0</ele><time>2026-04-18T08:51:38.655Z</time></trkpt><trkpt lat="43.8961223" lon="12.7571568"><ele>150.5</ele><time>2026-04-18T08:51:39.655Z</time></trkpt><trkpt lat="43.8961875" lon="12.7571487"><ele>151.0</ele><time>2026-04-18T08:51:40.656Z</time></trkpt><trkpt lat="43.8962999" lon="12.7571506"><ele>151.5</ele><time>2026-04-18T08:51:42.657Z</time></trkpt><trkpt lat="43.8963716" lon="12.7571703"><ele>152.0</ele><time>2026-04-18T08:51:44.656Z</time></trkpt><trkpt lat="43.8963857" lon="12.7572822"><ele>152.5</ele><time>2026-04-18T08:51:47.655Z</time></trkpt><trkpt lat="43.8963114" lon="12.757379"><ele>153.0</ele><time>2026-04-18T08:51:49.656Z</time></trkpt><trkpt lat="43.8962611" lon="12.7574365"><ele>153.0</ele><time>2026-04-18T08:51:50.655Z</time></trkpt><trkpt lat="43.8962067" lon="12.757499"><ele>153.0</ele><time>2026-04-18T08:51:51.655Z</time></trkpt><trkpt lat="43.8961444" lon="12.757571"><ele>153.0</ele><time>2026-04-18T08:51:52.655Z</time></trkpt><trkpt lat="43.8960768" lon="12.7576507"><ele>153.0</ele><time>2026-04-18T08:51:53.655Z</time></trkpt><trkpt lat="43.896012" lon="12.7577391"><ele>153.0</ele><time>2026-04-18T08:51:54.656Z</time></trkpt><trkpt lat="43.8959443" lon="12.7578303"><ele>153.0</ele><time>2026-04-18T08:51:55.656Z</time></trkpt><trkpt lat="43.8958768" lon="12.7579185"><ele>153.0</ele><time>2026-04-18T08:51:56.656Z</time></trkpt><trkpt lat="43.8958112" lon="12.7580105"><ele>153.0</ele><time>2026-04-18T08:51:57.656Z</time></trkpt><trkpt lat="43.8957539" lon="12.7581145"><ele>153.0</ele><time>2026-04-18T08:51:58.655Z</time></trkpt><trkpt lat="43.8956964" lon="12.7582264"><ele>153.0</ele><time>2026-04-18T08:51:59.656Z</time></trkpt><trkpt lat="43.8956369" lon="12.7583329"><ele>153.0</ele><time>2026-04-18T08:52:00.656Z</time></trkpt><trkpt lat="43.8955784" lon="12.7584371"><ele>153.66666666666666</ele><time>2026-04-18T08:52:01.656Z</time></trkpt><trkpt lat="43.8955227" lon="12.7585375"><ele>154.33333333333334</ele><time>2026-04-18T08:52:02.656Z</time></trkpt><trkpt lat="43.895465" lon="12.7586333"><ele>155.0</ele><time>2026-04-18T08:52:03.658Z</time></trkpt><trkpt lat="43.89541" lon="12.7587267"><ele>155.66666666666669</ele><time>2026-04-18T08:52:04.656Z</time></trkpt><trkpt lat="43.8953617" lon="12.758815"><ele>156.33333333333334</ele><time>2026-04-18T08:52:05.656Z</time></trkpt><trkpt lat="43.89532" lon="12.7588933"><ele>157.0</ele><time>2026-04-18T08:52:06.656Z</time></trkpt><trkpt lat="43.89527" lon="12.758985"><ele>157.0</ele><time>2026-04-18T08:52:07.656Z</time></trkpt><trkpt lat="43.895235" lon="12.75908"><ele>157.0</ele><time>2026-04-18T08:52:08.656Z</time></trkpt><trkpt lat="43.895225" lon="12.75918"><ele>157.0</ele><time>2026-04-18T08:52:09.656Z</time></trkpt><trkpt lat="43.895235" lon="12.7592883"><ele>157.0</ele><time>2026-04-18T08:52:10.658Z</time></trkpt><trkpt lat="43.8952533" lon="12.7594033"><ele>157.0</ele><time>2026-04-18T08:52:11.655Z</time></trkpt><trkpt lat="43.8952833" lon="12.7595117"><ele>157.0</ele><time>2026-04-18T08:52:12.657Z</time></trkpt><trkpt lat="43.8953183" lon="12.7596233"><ele>157.83333333333334</ele><time>2026-04-18T08:52:13.654Z</time></trkpt><trkpt lat="43.8953483" lon="12.7597183"><ele>158.66666666666669</ele><time>2026-04-18T08:52:14.656Z</time></trkpt><trkpt lat="43.89537" lon="12.7598217"><ele>159.5</ele><time>2026-04-18T08:52:15.656Z</time></trkpt><trkpt lat="43.8953683" lon="12.7599833"><ele>160.33333333333334</ele><time>2026-04-18T08:52:17.654Z</time></trkpt><trkpt lat="43.89535" lon="12.76012"><ele>161.16666666666666</ele><time>2026-04-18T08:52:19.655Z</time></trkpt><trkpt lat="43.8953883" lon="12.76021"><ele>162.0</ele><time>2026-04-18T08:52:21.654Z</time></trkpt><trkpt lat="43.895495" lon="12.7602333"><ele>162.0</ele><time>2026-04-18T08:52:23.654Z</time></trkpt><trkpt lat="43.8955683" lon="12.7602067"><ele>162.0</ele><time>2026-04-18T08:52:24.654Z</time></trkpt><trkpt lat="43.8956467" lon="12.7601833"><ele>162.0</ele><time>2026-04-18T08:52:25.655Z</time></trkpt><trkpt lat="43.895735" lon="12.76017"><ele>162.0</ele><time>2026-04-18T08:52:26.655Z</time></trkpt><trkpt lat="43.8958233" lon="12.760175"><ele>162.0</ele><time>2026-04-18T08:52:27.655Z</time></trkpt><trkpt lat="43.8959217" lon="12.7601983"><ele>162.0</ele><time>2026-04-18T08:52:28.654Z</time></trkpt><trkpt lat="43.896015" lon="12.7602333"><ele>164.5</ele><time>2026-04-18T08:52:29.654Z</time></trkpt><trkpt lat="43.896105" lon="12.7602583"><ele>167.0</ele><time>2026-04-18T08:52:30.654Z</time></trkpt><trkpt lat="43.8961917" lon="12.76026"><ele>169.5</ele><time>2026-04-18T08:52:31.653Z</time></trkpt><trkpt lat="43.8962633" lon="12.7602133"><ele>172.0</ele><time>2026-04-18T08:52:32.654Z</time></trkpt><trkpt lat="43.8963167" lon="12.7601167"><ele>174.5</ele><time>2026-04-18T08:52:33.654Z</time></trkpt><trkpt lat="43.896355" lon="12.7600033"><ele>177.0</ele><time>2026-04-18T08:52:34.654Z</time></trkpt><trkpt lat="43.8963967" lon="12.75989"><ele>177.16666666666666</ele><time>2026-04-18T08:52:35.654Z</time></trkpt><trkpt lat="43.896425" lon="12.7597567"><ele>177.33333333333334</ele><time>2026-04-18T08:52:36.654Z</time></trkpt><trkpt lat="43.896455" lon="12.7596317"><ele>177.5</ele><time>2026-04-18T08:52:37.654Z</time></trkpt><trkpt lat="43.8964967" lon="12.7595233"><ele>177.66666666666669</ele><time>2026-04-18T08:52:38.654Z</time></trkpt><trkpt lat="43.8965433" lon="12.75944"><ele>177.83333333333334</ele><time>2026-04-18T08:52:39.655Z</time></trkpt><trkpt lat="43.8966033" lon="12.7593683"><ele>178.0</ele><time>2026-04-18T08:52:40.654Z</time></trkpt><trkpt lat="43.8966633" lon="12.759315"><ele>177.57142857142856</ele><time>2026-04-18T08:52:41.654Z</time></trkpt><trkpt lat="43.8967333" lon="12.7592933"><ele>177.14285714285714</ele><time>2026-04-18T08:52:42.654Z</time></trkpt><trkpt lat="43.896795" lon="12.75925"><ele>176.71428571428572</ele><time>2026-04-18T08:52:43.655Z</time></trkpt><trkpt lat="43.8968633" lon="12.7592233"><ele>176.28571428571428</ele><time>2026-04-18T08:52:44.654Z</time></trkpt><trkpt lat="43.896935" lon="12.7592117"><ele>175.85714285714286</ele><time>2026-04-18T08:52:45.654Z</time></trkpt><trkpt lat="43.897" lon="12.7592033"><ele>175.42857142857142</ele><time>2026-04-18T08:52:46.654Z</time></trkpt><trkpt lat="43.897065" lon="12.7592217"><ele>175.0</ele><time>2026-04-18T08:52:47.653Z</time></trkpt><trkpt lat="43.8971233" lon="12.7592567"><ele>177.33333333333334</ele><time>2026-04-18T08:52:48.655Z</time></trkpt><trkpt lat="43.89722" lon="12.7593783"><ele>179.66666666666669</ele><time>2026-04-18T08:52:50.654Z</time></trkpt><trkpt lat="43.8972667" lon="12.7594567"><ele>182.0</ele><time>2026-04-18T08:52:51.655Z</time></trkpt><trkpt lat="43.8973017" lon="12.7595367"><ele>184.33333333333334</ele><time>2026-04-18T08:52:52.655Z</time></trkpt><trkpt lat="43.8973733" lon="12.7596283"><ele>186.66666666666666</ele><time>2026-04-18T08:52:54.655Z</time></trkpt><trkpt lat="43.897385" lon="12.7597217"><ele>189.0</ele><time>2026-04-18T08:52:56.655Z</time></trkpt><trkpt lat="43.8973417" lon="12.7598567"><ele>189.0</ele><time>2026-04-18T08:52:58.655Z</time></trkpt><trkpt lat="43.8972883" lon="12.76006"><ele>189.0</ele><time>2026-04-18T08:53:00.654Z</time></trkpt><trkpt lat="43.8972317" lon="12.7602617"><ele>189.0</ele><time>2026-04-18T08:53:01.654Z</time></trkpt><trkpt lat="43.89721" lon="12.760465"><ele>191.33333333333331</ele><time>2026-04-18T08:53:02.655Z</time></trkpt><trkpt lat="43.8971983" lon="12.7606867"><ele>193.66666666666666</ele><time>2026-04-18T08:53:03.653Z</time></trkpt><trkpt lat="43.897165" lon="12.7609233"><ele>196.0</ele><time>2026-04-18T08:53:04.655Z</time></trkpt><trkpt lat="43.897115" lon="12.7611767"><ele>198.66666666666666</ele><time>2026-04-18T08:53:05.654Z</time></trkpt><trkpt lat="43.8970517" lon="12.761425"><ele>201.33333333333331</ele><time>2026-04-18T08:53:06.654Z</time></trkpt><trkpt lat="43.8969817" lon="12.7616617"><ele>204.0</ele><time>2026-04-18T08:53:07.654Z</time></trkpt><trkpt lat="43.8969133" lon="12.7618933"><ele>206.0</ele><time>2026-04-18T08:53:08.654Z</time></trkpt><trkpt lat="43.896845" lon="12.762125"><ele>208.0</ele><time>2026-04-18T08:53:09.654Z</time></trkpt><trkpt lat="43.8967783" lon="12.762355"><ele>210.0</ele><time>2026-04-18T08:53:10.654Z</time></trkpt><trkpt lat="43.8967133" lon="12.7625883"><ele>206.0</ele><time>2026-04-18T08:53:11.654Z</time></trkpt><trkpt lat="43.89665" lon="12.762815"><ele>202.0</ele><time>2026-04-18T08:53:12.654Z</time></trkpt><trkpt lat="43.8965883" lon="12.7630417"><ele>198.0</ele><time>2026-04-18T08:53:13.654Z</time></trkpt><trkpt lat="43.8965233" lon="12.7632633"><ele>198.0</ele><time>2026-04-18T08:53:14.654Z</time></trkpt><trkpt lat="43.8964533" lon="12.7634817"><ele>198.0</ele><time>2026-04-18T08:53:15.654Z</time></trkpt><trkpt lat="43.896385" lon="12.7636983"><ele>198.0</ele><time>2026-04-18T08:53:16.653Z</time></trkpt><trkpt lat="43.8963167" lon="12.7639217"><ele>201.33333333333331</ele><time>2026-04-18T08:53:17.654Z</time></trkpt><trkpt lat="43.8962417" lon="12.76414"><ele>204.66666666666666</ele><time>2026-04-18T08:53:18.655Z</time></trkpt><trkpt lat="43.896155" lon="12.764345"><ele>208.0</ele><time>2026-04-18T08:53:19.655Z</time></trkpt><trkpt lat="43.89605" lon="12.7645417"><ele>209.66666666666666</ele><time>2026-04-18T08:53:20.654Z</time></trkpt><trkpt lat="43.8959433" lon="12.7647367"><ele>211.33333333333331</ele><time>2026-04-18T08:53:21.654Z</time></trkpt><trkpt lat="43.8958367" lon="12.76493"><ele>213.0</ele><time>2026-04-18T08:53:22.654Z</time></trkpt><trkpt lat="43.8957333" lon="12.7651233"><ele>208.66666666666669</ele><time>2026-04-18T08:53:23.656Z</time></trkpt><trkpt lat="43.8956283" lon="12.7653133"><ele>204.33333333333334</ele><time>2026-04-18T08:53:24.654Z</time></trkpt><trkpt lat="43.8955267" lon="12.7655017"><ele>200.0</ele><time>2026-04-18T08:53:25.654Z</time></trkpt><trkpt lat="43.895425" lon="12.7656917"><ele>200.0</ele><time>2026-04-18T08:53:26.654Z</time></trkpt><trkpt lat="43.8953167" lon="12.7658833"><ele>200.0</ele><time>2026-04-18T08:53:27.654Z</time></trkpt><trkpt lat="43.8952067" lon="12.7660683"><ele>200.0</ele><time>2026-04-18T08:53:28.654Z</time></trkpt><trkpt lat="43.8950867" lon="12.7662333"><ele>196.0</ele><time>2026-04-18T08:53:29.655Z</time></trkpt><trkpt lat="43.8949567" lon="12.7663867"><ele>192.0</ele><time>2026-04-18T08:53:30.654Z</time></trkpt><trkpt lat="43.89481" lon="12.76652"><ele>188.0</ele><time>2026-04-18T08:53:31.654Z</time></trkpt><trkpt lat="43.8946567" lon="12.7666383"><ele>188.0</ele><time>2026-04-18T08:53:32.654Z</time></trkpt><trkpt lat="43.894495" lon="12.766725"><ele>188.0</ele><time>2026-04-18T08:53:33.654Z</time></trkpt><trkpt lat="43.8943267" lon="12.7667917"><ele>188.0</ele><time>2026-04-18T08:53:34.654Z</time></trkpt><trkpt lat="43.8941567" lon="12.7668617"><ele>186.0</ele><time>2026-04-18T08:53:35.654Z</time></trkpt><trkpt lat="43.8939833" lon="12.7669317"><ele>184.0</ele><time>2026-04-18T08:53:36.654Z</time></trkpt><trkpt lat="43.893805" lon="12.7669983"><ele>182.0</ele><time>2026-04-18T08:53:37.653Z</time></trkpt><trkpt lat="43.893625" lon="12.7670633"><ele>182.0</ele><time>2026-04-18T08:53:38.654Z</time></trkpt><trkpt lat="43.8934517" lon="12.7671217"><ele>182.0</ele><time>2026-04-18T08:53:39.654Z</time></trkpt><trkpt lat="43.89328" lon="12.7671517"><ele>182.0</ele><time>2026-04-18T08:53:40.654Z</time></trkpt><trkpt lat="43.89311" lon="12.7671367"><ele>182.0</ele><time>2026-04-18T08:53:41.654Z</time></trkpt><trkpt lat="43.892945" lon="12.7670817"><ele>182.0</ele><time>2026-04-18T08:53:42.654Z</time></trkpt><trkpt lat="43.8927827" lon="12.7669999"><ele>182.0</ele><time>2026-04-18T08:53:43.654Z</time></trkpt><trkpt lat="43.8926262" lon="12.7668957"><ele>182.33333333333331</ele><time>2026-04-18T08:53:44.655Z</time></trkpt><trkpt lat="43.892474" lon="12.7667862"><ele>182.66666666666666</ele><time>2026-04-18T08:53:45.653Z</time></trkpt><trkpt lat="43.8923252" lon="12.7666844"><ele>183.0</ele><time>2026-04-18T08:53:46.653Z</time></trkpt><trkpt lat="43.8921774" lon="12.7665822"><ele>183.0</ele><time>2026-04-18T08:53:47.654Z</time></trkpt><trkpt lat="43.8920289" lon="12.7664743"><ele>183.0</ele><time>2026-04-18T08:53:48.657Z</time></trkpt><trkpt lat="43.8918768" lon="12.7663623"><ele>183.0</ele><time>2026-04-18T08:53:49.654Z</time></trkpt><trkpt lat="43.8917247" lon="12.7662507"><ele>183.33333333333334</ele><time>2026-04-18T08:53:50.655Z</time></trkpt><trkpt lat="43.8915713" lon="12.766139"><ele>183.66666666666669</ele><time>2026-04-18T08:53:51.654Z</time></trkpt><trkpt lat="43.8914136" lon="12.76603"><ele>184.0</ele><time>2026-04-18T08:53:52.654Z</time></trkpt><trkpt lat="43.891251" lon="12.7659331"><ele>180.66666666666669</ele><time>2026-04-18T08:53:53.654Z</time></trkpt><trkpt lat="43.8910844" lon="12.7658532"><ele>177.33333333333334</ele><time>2026-04-18T08:53:54.654Z</time></trkpt><trkpt lat="43.8909107" lon="12.7657945"><ele>174.0</ele><time>2026-04-18T08:53:55.653Z</time></trkpt><trkpt lat="43.8907347" lon="12.7657524"><ele>174.0</ele><time>2026-04-18T08:53:56.654Z</time></trkpt><trkpt lat="43.8905599" lon="12.7657133"><ele>174.0</ele><time>2026-04-18T08:53:57.653Z</time></trkpt><trkpt lat="43.8903839" lon="12.7656656"><ele>174.0</ele><time>2026-04-18T08:53:58.654Z</time></trkpt><trkpt lat="43.8902087" lon="12.7656126"><ele>175.0</ele><time>2026-04-18T08:53:59.654Z</time></trkpt><trkpt lat="43.8900365" lon="12.7655499"><ele>176.0</ele><time>2026-04-18T08:54:00.653Z</time></trkpt><trkpt lat="43.8898667" lon="12.7654771"><ele>177.0</ele><time>2026-04-18T08:54:01.654Z</time></trkpt><trkpt lat="43.8897005" lon="12.7653852"><ele>177.0</ele><time>2026-04-18T08:54:02.654Z</time></trkpt><trkpt lat="43.889541" lon="12.7652715"><ele>177.0</ele><time>2026-04-18T08:54:03.653Z</time></trkpt><trkpt lat="43.8893814" lon="12.765148"><ele>177.0</ele><time>2026-04-18T08:54:04.653Z</time></trkpt><trkpt lat="43.8892211" lon="12.7650238"><ele>174.33333333333334</ele><time>2026-04-18T08:54:05.653Z</time></trkpt><trkpt lat="43.8890587" lon="12.7649024"><ele>171.66666666666669</ele><time>2026-04-18T08:54:06.654Z</time></trkpt><trkpt lat="43.8888917" lon="12.764791"><ele>169.0</ele><time>2026-04-18T08:54:07.656Z</time></trkpt><trkpt lat="43.8887243" lon="12.7646829"><ele>169.0</ele><time>2026-04-18T08:54:08.654Z</time></trkpt><trkpt lat="43.8885555" lon="12.7645737"><ele>169.0</ele><time>2026-04-18T08:54:09.654Z</time></trkpt><trkpt lat="43.8883842" lon="12.7644692"><ele>169.0</ele><time>2026-04-18T08:54:10.653Z</time></trkpt><trkpt lat="43.888218" lon="12.7643486"><ele>166.66666666666669</ele><time>2026-04-18T08:54:11.655Z</time></trkpt><trkpt lat="43.8880531" lon="12.7642206"><ele>164.33333333333334</ele><time>2026-04-18T08:54:12.653Z</time></trkpt><trkpt lat="43.887893" lon="12.7640782"><ele>162.0</ele><time>2026-04-18T08:54:13.655Z</time></trkpt><trkpt lat="43.8877468" lon="12.7639096"><ele>162.0</ele><time>2026-04-18T08:54:14.654Z</time></trkpt><trkpt lat="43.887611" lon="12.7637206"><ele>162.0</ele><time>2026-04-18T08:54:15.654Z</time></trkpt><trkpt lat="43.8874806" lon="12.7635233"><ele>162.0</ele><time>2026-04-18T08:54:16.653Z</time></trkpt><trkpt lat="43.8873506" lon="12.7633255"><ele>160.0</ele><time>2026-04-18T08:54:17.654Z</time></trkpt><trkpt lat="43.8872167" lon="12.763128"><ele>158.0</ele><time>2026-04-18T08:54:18.652Z</time></trkpt><trkpt lat="43.8870844" lon="12.7629319"><ele>156.0</ele><time>2026-04-18T08:54:19.654Z</time></trkpt><trkpt lat="43.8869551" lon="12.762737"><ele>155.66666666666666</ele><time>2026-04-18T08:54:20.654Z</time></trkpt><trkpt lat="43.8868211" lon="12.7625507"><ele>155.33333333333331</ele><time>2026-04-18T08:54:21.654Z</time></trkpt><trkpt lat="43.8866848" lon="12.7623704"><ele>155.0</ele><time>2026-04-18T08:54:22.653Z</time></trkpt><trkpt lat="43.8865435" lon="12.7621988"><ele>155.0</ele><time>2026-04-18T08:54:23.653Z</time></trkpt><trkpt lat="43.8863969" lon="12.7620385"><ele>155.0</ele><time>2026-04-18T08:54:24.654Z</time></trkpt><trkpt lat="43.8862443" lon="12.7618919"><ele>155.0</ele><time>2026-04-18T08:54:25.654Z</time></trkpt><trkpt lat="43.886092" lon="12.7617492"><ele>155.33333333333331</ele><time>2026-04-18T08:54:26.654Z</time></trkpt><trkpt lat="43.8859426" lon="12.7616055"><ele>155.66666666666666</ele><time>2026-04-18T08:54:27.654Z</time></trkpt><trkpt lat="43.8857957" lon="12.7614621"><ele>156.0</ele><time>2026-04-18T08:54:28.654Z</time></trkpt><trkpt lat="43.8856548" lon="12.7613114"><ele>156.0</ele><time>2026-04-18T08:54:29.654Z</time></trkpt><trkpt lat="43.8855222" lon="12.761151"><ele>156.0</ele><time>2026-04-18T08:54:30.655Z</time></trkpt><trkpt lat="43.8854001" lon="12.7609889"><ele>156.0</ele><time>2026-04-18T08:54:31.654Z</time></trkpt><trkpt lat="43.8852898" lon="12.7608236"><ele>156.0</ele><time>2026-04-18T08:54:32.655Z</time></trkpt><trkpt lat="43.8851785" lon="12.7606677"><ele>156.0</ele><time>2026-04-18T08:54:33.654Z</time></trkpt><trkpt lat="43.8850633" lon="12.7605151"><ele>156.0</ele><time>2026-04-18T08:54:34.654Z</time></trkpt><trkpt lat="43.8849443" lon="12.760358"><ele>155.0</ele><time>2026-04-18T08:54:35.654Z</time></trkpt><trkpt lat="43.8848257" lon="12.760195"><ele>154.0</ele><time>2026-04-18T08:54:36.655Z</time></trkpt><trkpt lat="43.88471" lon="12.7600217"><ele>153.0</ele><time>2026-04-18T08:54:37.654Z</time></trkpt><trkpt lat="43.8845949" lon="12.7598448"><ele>153.0</ele><time>2026-04-18T08:54:38.655Z</time></trkpt><trkpt lat="43.88448" lon="12.7596649"><ele>153.0</ele><time>2026-04-18T08:54:39.654Z</time></trkpt><trkpt lat="43.8843621" lon="12.7594844"><ele>153.0</ele><time>2026-04-18T08:54:40.655Z</time></trkpt><trkpt lat="43.8842397" lon="12.7593091"><ele>151.66666666666666</ele><time>2026-04-18T08:54:41.654Z</time></trkpt><trkpt lat="43.8841164" lon="12.7591329"><ele>150.33333333333331</ele><time>2026-04-18T08:54:42.654Z</time></trkpt><trkpt lat="43.8839903" lon="12.7589588"><ele>149.0</ele><time>2026-04-18T08:54:43.654Z</time></trkpt><trkpt lat="43.8838646" lon="12.7587856"><ele>149.0</ele><time>2026-04-18T08:54:44.655Z</time></trkpt><trkpt lat="43.8837371" lon="12.7586123"><ele>149.0</ele><time>2026-04-18T08:54:45.653Z</time></trkpt><trkpt lat="43.8836128" lon="12.7584386"><ele>149.0</ele><time>2026-04-18T08:54:46.653Z</time></trkpt><trkpt lat="43.8834893" lon="12.7582643"><ele>148.0</ele><time>2026-04-18T08:54:47.654Z</time></trkpt><trkpt lat="43.8833644" lon="12.7580897"><ele>147.0</ele><time>2026-04-18T08:54:48.654Z</time></trkpt><trkpt lat="43.8832381" lon="12.7579158"><ele>146.0</ele><time>2026-04-18T08:54:49.652Z</time></trkpt><trkpt lat="43.8831105" lon="12.7577441"><ele>144.66666666666666</ele><time>2026-04-18T08:54:50.655Z</time></trkpt><trkpt lat="43.8829839" lon="12.7575725"><ele>143.33333333333334</ele><time>2026-04-18T08:54:51.654Z</time></trkpt><trkpt lat="43.8828582" lon="12.7573986"><ele>142.0</ele><time>2026-04-18T08:54:52.654Z</time></trkpt><trkpt lat="43.8827345" lon="12.7572239"><ele>142.0</ele><time>2026-04-18T08:54:53.654Z</time></trkpt><trkpt lat="43.882622" lon="12.7570407"><ele>142.0</ele><time>2026-04-18T08:54:54.654Z</time></trkpt><trkpt lat="43.8825157" lon="12.7568551"><ele>142.0</ele><time>2026-04-18T08:54:55.653Z</time></trkpt><trkpt lat="43.8824201" lon="12.7566609"><ele>143.33333333333334</ele><time>2026-04-18T08:54:56.654Z</time></trkpt><trkpt lat="43.8823283" lon="12.756466"><ele>144.66666666666666</ele><time>2026-04-18T08:54:57.654Z</time></trkpt><trkpt lat="43.8822493" lon="12.7562628"><ele>146.0</ele><time>2026-04-18T08:54:58.654Z</time></trkpt><trkpt lat="43.8821755" lon="12.7560568"><ele>144.33333333333331</ele><time>2026-04-18T08:54:59.654Z</time></trkpt><trkpt lat="43.8821" lon="12.7558525"><ele>142.66666666666666</ele><time>2026-04-18T08:55:00.653Z</time></trkpt><trkpt lat="43.8820185" lon="12.7556514"><ele>141.0</ele><time>2026-04-18T08:55:01.654Z</time></trkpt><trkpt lat="43.8819335" lon="12.755447"><ele>141.0</ele><time>2026-04-18T08:55:02.654Z</time></trkpt><trkpt lat="43.8818482" lon="12.7552396"><ele>141.0</ele><time>2026-04-18T08:55:03.654Z</time></trkpt><trkpt lat="43.8817707" lon="12.7550287"><ele>141.0</ele><time>2026-04-18T08:55:04.653Z</time></trkpt><trkpt lat="43.8816954" lon="12.7548162"><ele>142.66666666666666</ele><time>2026-04-18T08:55:05.653Z</time></trkpt><trkpt lat="43.8816204" lon="12.7546032"><ele>144.33333333333331</ele><time>2026-04-18T08:55:06.654Z</time></trkpt><trkpt lat="43.8815474" lon="12.7543935"><ele>146.0</ele><time>2026-04-18T08:55:07.653Z</time></trkpt><trkpt lat="43.8814787" lon="12.7541824"><ele>146.0</ele><time>2026-04-18T08:55:08.654Z</time></trkpt><trkpt lat="43.8814188" lon="12.7539688"><ele>146.0</ele><time>2026-04-18T08:55:09.654Z</time></trkpt><trkpt lat="43.8813783" lon="12.7537442"><ele>146.0</ele><time>2026-04-18T08:55:10.653Z</time></trkpt><trkpt lat="43.8813482" lon="12.7535189"><ele>145.66666666666666</ele><time>2026-04-18T08:55:11.653Z</time></trkpt><trkpt lat="43.8813122" lon="12.7532943"><ele>145.33333333333334</ele><time>2026-04-18T08:55:12.653Z</time></trkpt><trkpt lat="43.8812616" lon="12.7530702"><ele>145.0</ele><time>2026-04-18T08:55:13.654Z</time></trkpt><trkpt lat="43.8811932" lon="12.7528509"><ele>144.33333333333334</ele><time>2026-04-18T08:55:14.654Z</time></trkpt><trkpt lat="43.8811197" lon="12.7526319"><ele>143.66666666666666</ele><time>2026-04-18T08:55:15.654Z</time></trkpt><trkpt lat="43.881043" lon="12.7524142"><ele>143.0</ele><time>2026-04-18T08:55:16.654Z</time></trkpt><trkpt lat="43.8809607" lon="12.7522009"><ele>143.33333333333331</ele><time>2026-04-18T08:55:17.653Z</time></trkpt><trkpt lat="43.8808729" lon="12.7519938"><ele>143.66666666666666</ele><time>2026-04-18T08:55:18.655Z</time></trkpt><trkpt lat="43.880779" lon="12.7517961"><ele>144.0</ele><time>2026-04-18T08:55:19.653Z</time></trkpt><trkpt lat="43.8806795" lon="12.7515997"><ele>145.33333333333334</ele><time>2026-04-18T08:55:20.655Z</time></trkpt><trkpt lat="43.8805721" lon="12.7514126"><ele>146.66666666666669</ele><time>2026-04-18T08:55:21.654Z</time></trkpt><trkpt lat="43.880464" lon="12.751223"><ele>148.0</ele><time>2026-04-18T08:55:22.654Z</time></trkpt><trkpt lat="43.8803597" lon="12.75103"><ele>148.0</ele><time>2026-04-18T08:55:23.653Z</time></trkpt><trkpt lat="43.8802655" lon="12.7508275"><ele>148.0</ele><time>2026-04-18T08:55:24.654Z</time></trkpt><trkpt lat="43.8801729" lon="12.7506204"><ele>148.0</ele><time>2026-04-18T08:55:25.654Z</time></trkpt><trkpt lat="43.8800811" lon="12.7504069"><ele>146.66666666666669</ele><time>2026-04-18T08:55:26.655Z</time></trkpt><trkpt lat="43.8799881" lon="12.750184"><ele>145.33333333333334</ele><time>2026-04-18T08:55:27.654Z</time></trkpt><trkpt lat="43.8798995" lon="12.7499625"><ele>144.0</ele><time>2026-04-18T08:55:28.654Z</time></trkpt><trkpt lat="43.8798097" lon="12.7497433"><ele>144.0</ele><time>2026-04-18T08:55:29.654Z</time></trkpt><trkpt lat="43.8797172" lon="12.7495317"><ele>144.0</ele><time>2026-04-18T08:55:30.661Z</time></trkpt><trkpt lat="43.8796246" lon="12.7493272"><ele>144.0</ele><time>2026-04-18T08:55:31.66Z</time></trkpt><trkpt lat="43.8795334" lon="12.749125"><ele>143.66666666666666</ele><time>2026-04-18T08:55:32.654Z</time></trkpt><trkpt lat="43.8794321" lon="12.7489221"><ele>143.33333333333331</ele><time>2026-04-18T08:55:33.653Z</time></trkpt><trkpt lat="43.8793258" lon="12.7487225"><ele>143.0</ele><time>2026-04-18T08:55:34.654Z</time></trkpt><trkpt lat="43.879214" lon="12.7485301"><ele>144.33333333333331</ele><time>2026-04-18T08:55:35.653Z</time></trkpt><trkpt lat="43.8790992" lon="12.7483398"><ele>145.66666666666666</ele><time>2026-04-18T08:55:36.653Z</time></trkpt><trkpt lat="43.8789821" lon="12.7481504"><ele>147.0</ele><time>2026-04-18T08:55:37.656Z</time></trkpt><trkpt lat="43.8788667" lon="12.74796"><ele>147.0</ele><time>2026-04-18T08:55:38.658Z</time></trkpt><trkpt lat="43.8787633" lon="12.7477563"><ele>147.0</ele><time>2026-04-18T08:55:39.654Z</time></trkpt><trkpt lat="43.8786771" lon="12.747534"><ele>147.0</ele><time>2026-04-18T08:55:40.654Z</time></trkpt><trkpt lat="43.8785916" lon="12.7472848"><ele>146.33333333333334</ele><time>2026-04-18T08:55:41.662Z</time></trkpt><trkpt lat="43.8785002" lon="12.7470095"><ele>145.66666666666669</ele><time>2026-04-18T08:55:42.653Z</time></trkpt><trkpt lat="43.8784107" lon="12.7467193"><ele>145.0</ele><time>2026-04-18T08:55:43.653Z</time></trkpt><trkpt lat="43.8783356" lon="12.7464455"><ele>145.0</ele><time>2026-04-18T08:55:44.654Z</time></trkpt><trkpt lat="43.8782668" lon="12.7461933"><ele>145.0</ele><time>2026-04-18T08:55:45.654Z</time></trkpt><trkpt lat="43.8781973" lon="12.7459559"><ele>145.0</ele><time>2026-04-18T08:55:46.658Z</time></trkpt><trkpt lat="43.878123" lon="12.7457289"><ele>145.0</ele><time>2026-04-18T08:55:47.654Z</time></trkpt><trkpt lat="43.8780501" lon="12.7455038"><ele>145.0</ele><time>2026-04-18T08:55:48.654Z</time></trkpt><trkpt lat="43.8779649" lon="12.7452837"><ele>145.0</ele><time>2026-04-18T08:55:49.654Z</time></trkpt><trkpt lat="43.8778483" lon="12.7450782"><ele>144.33333333333334</ele><time>2026-04-18T08:55:50.655Z</time></trkpt><trkpt lat="43.8777047" lon="12.7448805"><ele>143.66666666666666</ele><time>2026-04-18T08:55:51.654Z</time></trkpt><trkpt lat="43.8775434" lon="12.7446852"><ele>143.0</ele><time>2026-04-18T08:55:52.654Z</time></trkpt><trkpt lat="43.8773896" lon="12.7444838"><ele>146.66666666666666</ele><time>2026-04-18T08:55:53.652Z</time></trkpt><trkpt lat="43.8772428" lon="12.7442794"><ele>150.33333333333334</ele><time>2026-04-18T08:55:54.652Z</time></trkpt><trkpt lat="43.8771012" lon="12.7440901"><ele>154.0</ele><time>2026-04-18T08:55:55.652Z</time></trkpt><trkpt lat="43.8769638" lon="12.7439147"><ele>154.0</ele><time>2026-04-18T08:55:56.653Z</time></trkpt><trkpt lat="43.8768244" lon="12.7437448"><ele>154.0</ele><time>2026-04-18T08:55:57.652Z</time></trkpt><trkpt lat="43.8766779" lon="12.7435796"><ele>154.0</ele><time>2026-04-18T08:55:58.652Z</time></trkpt><trkpt lat="43.8765335" lon="12.7434133"><ele>157.33333333333334</ele><time>2026-04-18T08:55:59.652Z</time></trkpt><trkpt lat="43.8763922" lon="12.7432436"><ele>160.66666666666666</ele><time>2026-04-18T08:56:00.653Z</time></trkpt><trkpt lat="43.8762513" lon="12.7430676"><ele>164.0</ele><time>2026-04-18T08:56:01.652Z</time></trkpt><trkpt lat="43.8761162" lon="12.7428792"><ele>163.33333333333331</ele><time>2026-04-18T08:56:02.653Z</time></trkpt><trkpt lat="43.8759828" lon="12.7426942"><ele>162.66666666666666</ele><time>2026-04-18T08:56:03.652Z</time></trkpt><trkpt lat="43.8758526" lon="12.7425156"><ele>162.0</ele><time>2026-04-18T08:56:04.655Z</time></trkpt><trkpt lat="43.8757304" lon="12.7423547"><ele>163.66666666666666</ele><time>2026-04-18T08:56:05.653Z</time></trkpt><trkpt lat="43.8756039" lon="12.742197"><ele>165.33333333333331</ele><time>2026-04-18T08:56:06.653Z</time></trkpt><trkpt lat="43.8754794" lon="12.7420398"><ele>167.0</ele><time>2026-04-18T08:56:07.652Z</time></trkpt><trkpt lat="43.8753635" lon="12.7418835"><ele>168.66666666666666</ele><time>2026-04-18T08:56:08.653Z</time></trkpt><trkpt lat="43.8752538" lon="12.7417224"><ele>170.33333333333334</ele><time>2026-04-18T08:56:09.652Z</time></trkpt><trkpt lat="43.8751591" lon="12.7415561"><ele>172.0</ele><time>2026-04-18T08:56:10.652Z</time></trkpt><trkpt lat="43.8750733" lon="12.7413848"><ele>169.75</ele><time>2026-04-18T08:56:11.652Z</time></trkpt><trkpt lat="43.874988" lon="12.7412247"><ele>167.5</ele><time>2026-04-18T08:56:12.653Z</time></trkpt><trkpt lat="43.8748966" lon="12.7410657"><ele>165.25</ele><time>2026-04-18T08:56:13.652Z</time></trkpt><trkpt lat="43.8747885" lon="12.7409284"><ele>163.0</ele><time>2026-04-18T08:56:14.652Z</time></trkpt><trkpt lat="43.8746587" lon="12.7408169"><ele>163.0</ele><time>2026-04-18T08:56:15.652Z</time></trkpt><trkpt lat="43.8745066" lon="12.7407461"><ele>163.0</ele><time>2026-04-18T08:56:16.652Z</time></trkpt><trkpt lat="43.8743437" lon="12.7407006"><ele>163.0</ele><time>2026-04-18T08:56:17.652Z</time></trkpt><trkpt lat="43.8741714" lon="12.7406585"><ele>159.33333333333334</ele><time>2026-04-18T08:56:18.652Z</time></trkpt><trkpt lat="43.8739939" lon="12.7406131"><ele>155.66666666666666</ele><time>2026-04-18T08:56:19.652Z</time></trkpt><trkpt lat="43.873821" lon="12.740562"><ele>152.0</ele><time>2026-04-18T08:56:20.653Z</time></trkpt><trkpt lat="43.8736496" lon="12.7405055"><ele>152.0</ele><time>2026-04-18T08:56:21.654Z</time></trkpt><trkpt lat="43.8734815" lon="12.7404434"><ele>152.0</ele><time>2026-04-18T08:56:22.652Z</time></trkpt><trkpt lat="43.8733183" lon="12.7403762"><ele>152.0</ele><time>2026-04-18T08:56:23.653Z</time></trkpt><trkpt lat="43.8731602" lon="12.7403152"><ele>153.0</ele><time>2026-04-18T08:56:24.654Z</time></trkpt><trkpt lat="43.8730041" lon="12.7402462"><ele>154.0</ele><time>2026-04-18T08:56:25.653Z</time></trkpt><trkpt lat="43.8728525" lon="12.7401664"><ele>155.0</ele><time>2026-04-18T08:56:26.654Z</time></trkpt><trkpt lat="43.8727172" lon="12.7400647"><ele>153.5</ele><time>2026-04-18T08:56:27.652Z</time></trkpt><trkpt lat="43.8725998" lon="12.739945"><ele>152.0</ele><time>2026-04-18T08:56:28.652Z</time></trkpt><trkpt lat="43.872494" lon="12.7398161"><ele>150.5</ele><time>2026-04-18T08:56:29.653Z</time></trkpt><trkpt lat="43.8724056" lon="12.7396633"><ele>149.0</ele><time>2026-04-18T08:56:30.654Z</time></trkpt><trkpt lat="43.8723312" lon="12.7394859"><ele>149.66666666666666</ele><time>2026-04-18T08:56:31.653Z</time></trkpt><trkpt lat="43.8722706" lon="12.7392855"><ele>150.33333333333334</ele><time>2026-04-18T08:56:32.653Z</time></trkpt><trkpt lat="43.8722202" lon="12.7390666"><ele>151.0</ele><time>2026-04-18T08:56:33.652Z</time></trkpt><trkpt lat="43.8721746" lon="12.7388392"><ele>151.0</ele><time>2026-04-18T08:56:34.652Z</time></trkpt><trkpt lat="43.8721317" lon="12.7386119"><ele>151.0</ele><time>2026-04-18T08:56:35.652Z</time></trkpt><trkpt lat="43.872085" lon="12.7383933"><ele>151.0</ele><time>2026-04-18T08:56:36.652Z</time></trkpt><trkpt lat="43.8720154" lon="12.7381839"><ele>150.0</ele><time>2026-04-18T08:56:37.651Z</time></trkpt><trkpt lat="43.8719176" lon="12.7379892"><ele>149.0</ele><time>2026-04-18T08:56:38.653Z</time></trkpt><trkpt lat="43.8718071" lon="12.7378025"><ele>148.0</ele><time>2026-04-18T08:56:39.653Z</time></trkpt><trkpt lat="43.8716714" lon="12.7376436"><ele>147.0</ele><time>2026-04-18T08:56:40.652Z</time></trkpt><trkpt lat="43.8715216" lon="12.7374987"><ele>146.0</ele><time>2026-04-18T08:56:41.652Z</time></trkpt><trkpt lat="43.8713582" lon="12.7373628"><ele>145.0</ele><time>2026-04-18T08:56:42.652Z</time></trkpt><trkpt lat="43.8711942" lon="12.7372253"><ele>145.0</ele><time>2026-04-18T08:56:43.652Z</time></trkpt><trkpt lat="43.8710309" lon="12.7370902"><ele>145.0</ele><time>2026-04-18T08:56:44.653Z</time></trkpt><trkpt lat="43.8708637" lon="12.7369764"><ele>145.0</ele><time>2026-04-18T08:56:45.652Z</time></trkpt><trkpt lat="43.8706896" lon="12.7368814"><ele>143.33333333333334</ele><time>2026-04-18T08:56:46.652Z</time></trkpt><trkpt lat="43.8705113" lon="12.736797"><ele>141.66666666666666</ele><time>2026-04-18T08:56:47.652Z</time></trkpt><trkpt lat="43.8703326" lon="12.7367073"><ele>140.0</ele><time>2026-04-18T08:56:48.652Z</time></trkpt><trkpt lat="43.8701605" lon="12.7366032"><ele>139.0</ele><time>2026-04-18T08:56:49.652Z</time></trkpt><trkpt lat="43.8699928" lon="12.7364962"><ele>138.0</ele><time>2026-04-18T08:56:50.653Z</time></trkpt><trkpt lat="43.8698357" lon="12.7363726"><ele>137.0</ele><time>2026-04-18T08:56:51.652Z</time></trkpt><trkpt lat="43.8696848" lon="12.7362438"><ele>137.0</ele><time>2026-04-18T08:56:52.653Z</time></trkpt><trkpt lat="43.8695357" lon="12.7361129"><ele>137.0</ele><time>2026-04-18T08:56:53.655Z</time></trkpt><trkpt lat="43.8693846" lon="12.7359832"><ele>137.0</ele><time>2026-04-18T08:56:54.653Z</time></trkpt><trkpt lat="43.8692363" lon="12.7358578"><ele>138.0</ele><time>2026-04-18T08:56:55.653Z</time></trkpt><trkpt lat="43.8690991" lon="12.7357427"><ele>139.0</ele><time>2026-04-18T08:56:56.653Z</time></trkpt><trkpt lat="43.8689725" lon="12.7356324"><ele>140.0</ele><time>2026-04-18T08:56:57.652Z</time></trkpt><trkpt lat="43.8688513" lon="12.7355326"><ele>140.0</ele><time>2026-04-18T08:56:58.652Z</time></trkpt><trkpt lat="43.8687351" lon="12.7354402"><ele>140.0</ele><time>2026-04-18T08:56:59.652Z</time></trkpt><trkpt lat="43.8686313" lon="12.7353594"><ele>140.0</ele><time>2026-04-18T08:57:00.652Z</time></trkpt><trkpt lat="43.8685402" lon="12.7352903"><ele>140.0</ele><time>2026-04-18T08:57:01.654Z</time></trkpt><trkpt lat="43.8684602" lon="12.7352078"><ele>138.5</ele><time>2026-04-18T08:57:02.654Z</time></trkpt><trkpt lat="43.8683979" lon="12.7350999"><ele>137.0</ele><time>2026-04-18T08:57:03.653Z</time></trkpt><trkpt lat="43.8683595" lon="12.7349686"><ele>135.5</ele><time>2026-04-18T08:57:04.653Z</time></trkpt><trkpt lat="43.8683616" lon="12.7348117"><ele>134.0</ele><time>2026-04-18T08:57:05.653Z</time></trkpt><trkpt lat="43.8684168" lon="12.7346352"><ele>135.0</ele><time>2026-04-18T08:57:06.652Z</time></trkpt><trkpt lat="43.8685082" lon="12.7344344"><ele>136.0</ele><time>2026-04-18T08:57:07.653Z</time></trkpt><trkpt lat="43.8686114" lon="12.7342243"><ele>137.0</ele><time>2026-04-18T08:57:08.653Z</time></trkpt><trkpt lat="43.8687201" lon="12.7340102"><ele>134.33333333333331</ele><time>2026-04-18T08:57:09.652Z</time></trkpt><trkpt lat="43.8688283" lon="12.7338151"><ele>131.66666666666666</ele><time>2026-04-18T08:57:10.653Z</time></trkpt><trkpt lat="43.8689397" lon="12.7336412"><ele>129.0</ele><time>2026-04-18T08:57:11.652Z</time></trkpt><trkpt lat="43.8690584" lon="12.7334859"><ele>128.0</ele><time>2026-04-18T08:57:12.652Z</time></trkpt><trkpt lat="43.8691723" lon="12.73334"><ele>127.0</ele><time>2026-04-18T08:57:13.652Z</time></trkpt><trkpt lat="43.8692748" lon="12.7332003"><ele>126.0</ele><time>2026-04-18T08:57:14.652Z</time></trkpt><trkpt lat="43.8693689" lon="12.7330663"><ele>125.0</ele><time>2026-04-18T08:57:15.652Z</time></trkpt><trkpt lat="43.8694472" lon="12.7329348"><ele>123.25</ele><time>2026-04-18T08:57:16.652Z</time></trkpt><trkpt lat="43.8695014" lon="12.7327904"><ele>121.5</ele><time>2026-04-18T08:57:17.653Z</time></trkpt><trkpt lat="43.8695236" lon="12.7326224"><ele>119.75</ele><time>2026-04-18T08:57:18.651Z</time></trkpt><trkpt lat="43.8695134" lon="12.7324379"><ele>118.0</ele><time>2026-04-18T08:57:19.652Z</time></trkpt><trkpt lat="43.8694896" lon="12.7322532"><ele>118.0</ele><time>2026-04-18T08:57:20.653Z</time></trkpt><trkpt lat="43.8694571" lon="12.732078"><ele>118.00000000000001</ele><time>2026-04-18T08:57:21.652Z</time></trkpt><trkpt lat="43.8694133" lon="12.7319262"><ele>118.00000000000001</ele><time>2026-04-18T08:57:22.651Z</time></trkpt><trkpt lat="43.8693682" lon="12.7317918"><ele>118.0</ele><time>2026-04-18T08:57:23.653Z</time></trkpt><trkpt lat="43.8693403" lon="12.731681"><ele>118.0</ele><time>2026-04-18T08:57:24.652Z</time></trkpt><trkpt lat="43.8693311" lon="12.7315807"><ele>117.80000000000001</ele><time>2026-04-18T08:57:25.652Z</time></trkpt><trkpt lat="43.8693485" lon="12.7314784"><ele>117.60000000000001</ele><time>2026-04-18T08:57:26.653Z</time></trkpt><trkpt lat="43.8693945" lon="12.7313765"><ele>117.39999999999999</ele><time>2026-04-18T08:57:27.652Z</time></trkpt><trkpt lat="43.8694614" lon="12.7312684"><ele>117.19999999999999</ele><time>2026-04-18T08:57:28.653Z</time></trkpt><trkpt lat="43.8695372" lon="12.7311553"><ele>117.0</ele><time>2026-04-18T08:57:29.652Z</time></trkpt><trkpt lat="43.8696151" lon="12.7310494"><ele>116.8</ele><time>2026-04-18T08:57:30.652Z</time></trkpt><trkpt lat="43.8696859" lon="12.7309511"><ele>116.6</ele><time>2026-04-18T08:57:31.653Z</time></trkpt><trkpt lat="43.8697522" lon="12.7308521"><ele>116.39999999999999</ele><time>2026-04-18T08:57:32.652Z</time></trkpt><trkpt lat="43.8698127" lon="12.7307488"><ele>116.19999999999999</ele><time>2026-04-18T08:57:33.652Z</time></trkpt><trkpt lat="43.8698755" lon="12.730643"><ele>116.0</ele><time>2026-04-18T08:57:34.659Z</time></trkpt><trkpt lat="43.8699331" lon="12.7305384"><ele>116.0</ele><time>2026-04-18T08:57:35.652Z</time></trkpt><trkpt lat="43.8699887" lon="12.7304363"><ele>116.0</ele><time>2026-04-18T08:57:36.653Z</time></trkpt><trkpt lat="43.8700465" lon="12.7303375"><ele>116.0</ele><time>2026-04-18T08:57:37.653Z</time></trkpt><trkpt lat="43.8701074" lon="12.7302402"><ele>116.0</ele><time>2026-04-18T08:57:38.663Z</time></trkpt><trkpt lat="43.8701688" lon="12.7301402"><ele>116.0</ele><time>2026-04-18T08:57:39.652Z</time></trkpt><trkpt lat="43.8702359" lon="12.7300377"><ele>114.0</ele><time>2026-04-18T08:57:40.653Z</time></trkpt><trkpt lat="43.8703045" lon="12.7299345"><ele>112.0</ele><time>2026-04-18T08:57:41.653Z</time></trkpt><trkpt lat="43.8703763" lon="12.7298346"><ele>110.0</ele><time>2026-04-18T08:57:42.654Z</time></trkpt><trkpt lat="43.8704358" lon="12.729731"><ele>108.0</ele><time>2026-04-18T08:57:43.653Z</time></trkpt><trkpt lat="43.8704982" lon="12.7296293"><ele>106.0</ele><time>2026-04-18T08:57:44.652Z</time></trkpt><trkpt lat="43.8705624" lon="12.7295293"><ele>106.0</ele><time>2026-04-18T08:57:45.652Z</time></trkpt><trkpt lat="43.8706247" lon="12.7294273"><ele>106.0</ele><time>2026-04-18T08:57:46.652Z</time></trkpt><trkpt lat="43.8706865" lon="12.7293282"><ele>106.0</ele><time>2026-04-18T08:57:47.652Z</time></trkpt><trkpt lat="43.8707444" lon="12.7292271"><ele>106.0</ele><time>2026-04-18T08:57:48.653Z</time></trkpt><trkpt lat="43.8708066" lon="12.7291251"><ele>106.0</ele><time>2026-04-18T08:57:49.653Z</time></trkpt><trkpt lat="43.8708693" lon="12.7290203"><ele>105.8</ele><time>2026-04-18T08:57:50.654Z</time></trkpt><trkpt lat="43.8709296" lon="12.7289123"><ele>105.6</ele><time>2026-04-18T08:57:51.652Z</time></trkpt><trkpt lat="43.870988" lon="12.7288018"><ele>105.4</ele><time>2026-04-18T08:57:52.652Z</time></trkpt><trkpt lat="43.8710442" lon="12.7286876"><ele>105.2</ele><time>2026-04-18T08:57:53.653Z</time></trkpt><trkpt lat="43.8710851" lon="12.7285696"><ele>105.0</ele><time>2026-04-18T08:57:54.652Z</time></trkpt><trkpt lat="43.8711185" lon="12.7284537"><ele>105.0</ele><time>2026-04-18T08:57:55.652Z</time></trkpt><trkpt lat="43.8711522" lon="12.7283416"><ele>105.0</ele><time>2026-04-18T08:57:56.652Z</time></trkpt><trkpt lat="43.8711844" lon="12.7282336"><ele>105.0</ele><time>2026-04-18T08:57:57.652Z</time></trkpt><trkpt lat="43.8712189" lon="12.7281326"><ele>105.0</ele><time>2026-04-18T08:57:58.652Z</time></trkpt><trkpt lat="43.8712485" lon="12.7280391"><ele>105.0</ele><time>2026-04-18T08:57:59.652Z</time></trkpt><trkpt lat="43.8712761" lon="12.727948"><ele>105.0</ele><time>2026-04-18T08:58:00.652Z</time></trkpt><trkpt lat="43.8712985" lon="12.7278556"><ele>105.0</ele><time>2026-04-18T08:58:01.657Z</time></trkpt><trkpt lat="43.8713207" lon="12.7277662"><ele>105.0</ele><time>2026-04-18T08:58:02.652Z</time></trkpt><trkpt lat="43.8713438" lon="12.7276826"><ele>105.0</ele><time>2026-04-18T08:58:03.652Z</time></trkpt><trkpt lat="43.8714049" lon="12.7275221"><ele>105.0</ele><time>2026-04-18T08:58:05.652Z</time></trkpt><trkpt lat="43.8714404" lon="12.7274297"><ele>105.0</ele><time>2026-04-18T08:58:06.652Z</time></trkpt><trkpt lat="43.8714773" lon="12.7273246"><ele>105.0</ele><time>2026-04-18T08:58:07.652Z</time></trkpt><trkpt lat="43.8715203" lon="12.7272015"><ele>105.2</ele><time>2026-04-18T08:58:08.653Z</time></trkpt><trkpt lat="43.8715618" lon="12.7270755"><ele>105.4</ele><time>2026-04-18T08:58:09.652Z</time></trkpt><trkpt lat="43.8716043" lon="12.7269581"><ele>105.6</ele><time>2026-04-18T08:58:10.652Z</time></trkpt><trkpt lat="43.8716447" lon="12.7268497"><ele>105.8</ele><time>2026-04-18T08:58:11.653Z</time></trkpt><trkpt lat="43.871686" lon="12.7267418"><ele>106.0</ele><time>2026-04-18T08:58:12.653Z</time></trkpt><trkpt lat="43.8717276" lon="12.7266326"><ele>106.16666666666667</ele><time>2026-04-18T08:58:13.652Z</time></trkpt><trkpt lat="43.8717663" lon="12.7265299"><ele>106.33333333333334</ele><time>2026-04-18T08:58:14.654Z</time></trkpt><trkpt lat="43.8718002" lon="12.7264423"><ele>106.5</ele><time>2026-04-18T08:58:15.652Z</time></trkpt><trkpt lat="43.8718321" lon="12.7263605"><ele>106.66666666666666</ele><time>2026-04-18T08:58:16.652Z</time></trkpt><trkpt lat="43.8718737" lon="12.7262389"><ele>106.83333333333333</ele><time>2026-04-18T08:58:18.652Z</time></trkpt><trkpt lat="43.8718409" lon="12.7261489"><ele>107.0</ele><time>2026-04-18T08:58:20.652Z</time></trkpt><trkpt lat="43.8717819" lon="12.7260993"><ele>106.49999999999999</ele><time>2026-04-18T08:58:21.656Z</time></trkpt><trkpt lat="43.8717072" lon="12.7260332"><ele>106.0</ele><time>2026-04-18T08:58:22.656Z</time></trkpt><trkpt lat="43.871631" lon="12.7259635"><ele>105.5</ele><time>2026-04-18T08:58:23.652Z</time></trkpt><trkpt lat="43.8715601" lon="12.7258937"><ele>105.0</ele><time>2026-04-18T08:58:24.663Z</time></trkpt><trkpt lat="43.8714897" lon="12.7258277"><ele>104.49999999999999</ele><time>2026-04-18T08:58:25.652Z</time></trkpt><trkpt lat="43.871421" lon="12.7257597"><ele>104.0</ele><time>2026-04-18T08:58:26.653Z</time></trkpt><trkpt lat="43.8713527" lon="12.7256933"><ele>103.99999999999999</ele><time>2026-04-18T08:58:27.652Z</time></trkpt><trkpt lat="43.8712863" lon="12.725626"><ele>104.0</ele><time>2026-04-18T08:58:28.653Z</time></trkpt><trkpt lat="43.8712183" lon="12.7255618"><ele>104.0</ele><time>2026-04-18T08:58:29.662Z</time></trkpt><trkpt lat="43.871152" lon="12.7255011"><ele>104.0</ele><time>2026-04-18T08:58:30.652Z</time></trkpt><trkpt lat="43.8710905" lon="12.7254346"><ele>103.99999999999999</ele><time>2026-04-18T08:58:31.654Z</time></trkpt><trkpt lat="43.8710234" lon="12.7253786"><ele>104.0</ele><time>2026-04-18T08:58:32.653Z</time></trkpt><trkpt lat="43.8709584" lon="12.7253181"><ele>102.2</ele><time>2026-04-18T08:58:33.652Z</time></trkpt><trkpt lat="43.8708991" lon="12.725241"><ele>100.4</ele><time>2026-04-18T08:58:34.652Z</time></trkpt><trkpt lat="43.8708464" lon="12.7251511"><ele>98.6</ele><time>2026-04-18T08:58:35.652Z</time></trkpt><trkpt lat="43.8708" lon="12.7250475"><ele>96.8</ele><time>2026-04-18T08:58:36.652Z</time></trkpt><trkpt lat="43.8707627" lon="12.7249201"><ele>95.0</ele><time>2026-04-18T08:58:37.652Z</time></trkpt><trkpt lat="43.8707309" lon="12.72478"><ele>94.4</ele><time>2026-04-18T08:58:38.652Z</time></trkpt><trkpt lat="43.8707" lon="12.7246376"><ele>93.8</ele><time>2026-04-18T08:58:39.652Z</time></trkpt><trkpt lat="43.8706693" lon="12.7244981"><ele>93.19999999999999</ele><time>2026-04-18T08:58:40.652Z</time></trkpt><trkpt lat="43.8706351" lon="12.7243584"><ele>92.6</ele><time>2026-04-18T08:58:41.652Z</time></trkpt><trkpt lat="43.8706015" lon="12.7242131"><ele>92.0</ele><time>2026-04-18T08:58:42.652Z</time></trkpt><trkpt lat="43.8705605" lon="12.7240681"><ele>90.19999999999999</ele><time>2026-04-18T08:58:43.653Z</time></trkpt><trkpt lat="43.8705168" lon="12.7239258"><ele>88.4</ele><time>2026-04-18T08:58:44.652Z</time></trkpt><trkpt lat="43.8704752" lon="12.7237778"><ele>86.6</ele><time>2026-04-18T08:58:45.652Z</time></trkpt><trkpt lat="43.8704375" lon="12.723629"><ele>84.80000000000001</ele><time>2026-04-18T08:58:46.652Z</time></trkpt><trkpt lat="43.8704011" lon="12.7234907"><ele>83.0</ele><time>2026-04-18T08:58:47.653Z</time></trkpt><trkpt lat="43.8703689" lon="12.7233628"><ele>81.2</ele><time>2026-04-18T08:58:48.653Z</time></trkpt><trkpt lat="43.8703451" lon="12.7232365"><ele>79.4</ele><time>2026-04-18T08:58:49.654Z</time></trkpt><trkpt lat="43.8703304" lon="12.7231101"><ele>77.60000000000001</ele><time>2026-04-18T08:58:50.653Z</time></trkpt><trkpt lat="43.870329" lon="12.7229848"><ele>75.80000000000001</ele><time>2026-04-18T08:58:51.654Z</time></trkpt><trkpt lat="43.8703377" lon="12.7228582"><ele>74.0</ele><time>2026-04-18T08:58:52.656Z</time></trkpt><trkpt lat="43.8703485" lon="12.7227282"><ele>72.2</ele><time>2026-04-18T08:58:53.652Z</time></trkpt><trkpt lat="43.8703567" lon="12.7226009"><ele>70.4</ele><time>2026-04-18T08:58:54.651Z</time></trkpt><trkpt lat="43.8703665" lon="12.7224747"><ele>68.6</ele><time>2026-04-18T08:58:55.651Z</time></trkpt><trkpt lat="43.8703765" lon="12.722352"><ele>66.8</ele><time>2026-04-18T08:58:56.651Z</time></trkpt><trkpt lat="43.8703797" lon="12.7222282"><ele>65.0</ele><time>2026-04-18T08:58:57.651Z</time></trkpt><trkpt lat="43.8703865" lon="12.7221055"><ele>65.0</ele><time>2026-04-18T08:58:58.651Z</time></trkpt><trkpt lat="43.8703951" lon="12.7219868"><ele>65.0</ele><time>2026-04-18T08:58:59.651Z</time></trkpt><trkpt lat="43.870413" lon="12.7218694"><ele>65.0</ele><time>2026-04-18T08:59:00.651Z</time></trkpt><trkpt lat="43.8704407" lon="12.7217545"><ele>65.0</ele><time>2026-04-18T08:59:01.651Z</time></trkpt><trkpt lat="43.8704591" lon="12.7216461"><ele>65.0</ele><time>2026-04-18T08:59:02.651Z</time></trkpt><trkpt lat="43.8704745" lon="12.7215473"><ele>65.0</ele><time>2026-04-18T08:59:03.652Z</time></trkpt><trkpt lat="43.8704746" lon="12.7214459"><ele>64.6</ele><time>2026-04-18T08:59:04.651Z</time></trkpt><trkpt lat="43.8704628" lon="12.721332"><ele>64.2</ele><time>2026-04-18T08:59:05.65Z</time></trkpt><trkpt lat="43.8704489" lon="12.7212066"><ele>63.8</ele><time>2026-04-18T08:59:06.651Z</time></trkpt><trkpt lat="43.8704192" lon="12.7210827"><ele>63.4</ele><time>2026-04-18T08:59:07.65Z</time></trkpt><trkpt lat="43.8703872" lon="12.7209588"><ele>63.0</ele><time>2026-04-18T08:59:08.651Z</time></trkpt><trkpt lat="43.8703554" lon="12.7208364"><ele>62.666666666666664</ele><time>2026-04-18T08:59:09.651Z</time></trkpt><trkpt lat="43.8703291" lon="12.720718"><ele>62.33333333333333</ele><time>2026-04-18T08:59:10.652Z</time></trkpt><trkpt lat="43.8703071" lon="12.7206002"><ele>62.0</ele><time>2026-04-18T08:59:11.652Z</time></trkpt><trkpt lat="43.8702815" lon="12.7204876"><ele>61.666666666666664</ele><time>2026-04-18T08:59:12.651Z</time></trkpt><trkpt lat="43.8702548" lon="12.7203818"><ele>61.33333333333333</ele><time>2026-04-18T08:59:13.651Z</time></trkpt><trkpt lat="43.8702254" lon="12.7202807"><ele>61.0</ele><time>2026-04-18T08:59:14.651Z</time></trkpt><trkpt lat="43.8702002" lon="12.7201865"><ele>60.99999999999999</ele><time>2026-04-18T08:59:15.651Z</time></trkpt><trkpt lat="43.8701751" lon="12.7200961"><ele>61.0</ele><time>2026-04-18T08:59:16.651Z</time></trkpt><trkpt lat="43.8701459" lon="12.7200038"><ele>60.99999999999999</ele><time>2026-04-18T08:59:17.651Z</time></trkpt><trkpt lat="43.8701163" lon="12.7199113"><ele>60.99999999999999</ele><time>2026-04-18T08:59:18.652Z</time></trkpt><trkpt lat="43.8700853" lon="12.7198186"><ele>61.0</ele><time>2026-04-18T08:59:19.652Z</time></trkpt><trkpt lat="43.8700553" lon="12.7197253"><ele>60.99999999999999</ele><time>2026-04-18T08:59:20.652Z</time></trkpt><trkpt lat="43.8700264" lon="12.7196335"><ele>60.99999999999999</ele><time>2026-04-18T08:59:21.652Z</time></trkpt><trkpt lat="43.8699926" lon="12.7195462"><ele>61.49999999999999</ele><time>2026-04-18T08:59:22.651Z</time></trkpt><trkpt lat="43.8699603" lon="12.7194611"><ele>62.0</ele><time>2026-04-18T08:59:23.652Z</time></trkpt><trkpt lat="43.8699271" lon="12.7193761"><ele>62.5</ele><time>2026-04-18T08:59:24.652Z</time></trkpt><trkpt lat="43.869896" lon="12.7192872"><ele>63.0</ele><time>2026-04-18T08:59:25.653Z</time></trkpt><trkpt lat="43.8698604" lon="12.7192046"><ele>63.49999999999999</ele><time>2026-04-18T08:59:26.652Z</time></trkpt><trkpt lat="43.8698302" lon="12.7191265"><ele>64.0</ele><time>2026-04-18T08:59:27.651Z</time></trkpt><trkpt lat="43.8697764" lon="12.7189787"><ele>64.0</ele><time>2026-04-18T08:59:29.651Z</time></trkpt><trkpt lat="43.869751" lon="12.7188289"><ele>64.0</ele><time>2026-04-18T08:59:31.652Z</time></trkpt><trkpt lat="43.8697437" lon="12.7186752"><ele>64.0</ele><time>2026-04-18T08:59:33.653Z</time></trkpt><trkpt lat="43.8697467" lon="12.7185134"><ele>64.0</ele><time>2026-04-18T08:59:35.652Z</time></trkpt><trkpt lat="43.8697619" lon="12.7184208"><ele>64.0</ele><time>2026-04-18T08:59:36.651Z</time></trkpt><trkpt lat="43.8697848" lon="12.7183269"><ele>63.99999999999999</ele><time>2026-04-18T08:59:37.651Z</time></trkpt><trkpt lat="43.8698173" lon="12.7182315"><ele>64.0</ele><time>2026-04-18T08:59:38.656Z</time></trkpt><trkpt lat="43.8698506" lon="12.7181382"><ele>64.0</ele><time>2026-04-18T08:59:39.651Z</time></trkpt><trkpt lat="43.8698826" lon="12.7180529"><ele>64.0</ele><time>2026-04-18T08:59:40.651Z</time></trkpt><trkpt lat="43.8699475" lon="12.7179094"><ele>63.99999999999999</ele><time>2026-04-18T08:59:42.651Z</time></trkpt><trkpt lat="43.8699807" lon="12.7178331"><ele>64.0</ele><time>2026-04-18T08:59:43.651Z</time></trkpt><trkpt lat="43.870009" lon="12.7177457"><ele>63.83333333333333</ele><time>2026-04-18T08:59:44.651Z</time></trkpt><trkpt lat="43.8700296" lon="12.7176544"><ele>63.666666666666664</ele><time>2026-04-18T08:59:45.651Z</time></trkpt><trkpt lat="43.8700392" lon="12.7175527"><ele>63.5</ele><time>2026-04-18T08:59:46.651Z</time></trkpt><trkpt lat="43.8700387" lon="12.7174432"><ele>63.33333333333333</ele><time>2026-04-18T08:59:47.653Z</time></trkpt><trkpt lat="43.8700346" lon="12.7173289"><ele>63.166666666666664</ele><time>2026-04-18T08:59:48.651Z</time></trkpt><trkpt lat="43.870019" lon="12.7172191"><ele>63.0</ele><time>2026-04-18T08:59:49.651Z</time></trkpt><trkpt lat="43.8700072" lon="12.7170967"><ele>63.0</ele><time>2026-04-18T08:59:50.652Z</time></trkpt><trkpt lat="43.8699991" lon="12.7169718"><ele>63.0</ele><time>2026-04-18T08:59:51.651Z</time></trkpt><trkpt lat="43.8699915" lon="12.7168474"><ele>63.0</ele><time>2026-04-18T08:59:52.652Z</time></trkpt><trkpt lat="43.86998" lon="12.7167167"><ele>63.0</ele><time>2026-04-18T08:59:53.652Z</time></trkpt><trkpt lat="43.86997" lon="12.716595"><ele>63.0</ele><time>2026-04-18T08:59:54.651Z</time></trkpt><trkpt lat="43.86996" lon="12.7164683"><ele>63.0</ele><time>2026-04-18T08:59:55.651Z</time></trkpt><trkpt lat="43.8699533" lon="12.7163483"><ele>63.0</ele><time>2026-04-18T08:59:56.653Z</time></trkpt><trkpt lat="43.8699517" lon="12.716225"><ele>63.0</ele><time>2026-04-18T08:59:57.651Z</time></trkpt><trkpt lat="43.8699467" lon="12.716095"><ele>63.0</ele><time>2026-04-18T08:59:58.652Z</time></trkpt><trkpt lat="43.8699533" lon="12.7159667"><ele>63.0</ele><time>2026-04-18T08:59:59.651Z</time></trkpt><trkpt lat="43.8699583" lon="12.7158483"><ele>63.0</ele><time>2026-04-18T09:00:00.652Z</time></trkpt><trkpt lat="43.8699583" lon="12.7157383"><ele>63.166666666666664</ele><time>2026-04-18T09:00:01.651Z</time></trkpt><trkpt lat="43.86996" lon="12.71564"><ele>63.33333333333333</ele><time>2026-04-18T09:00:02.651Z</time></trkpt><trkpt lat="43.8699683" lon="12.715485"><ele>63.5</ele><time>2026-04-18T09:00:04.651Z</time></trkpt><trkpt lat="43.8700383" lon="12.7153633"><ele>63.666666666666664</ele><time>2026-04-18T09:00:06.652Z</time></trkpt><trkpt lat="43.8700917" lon="12.71531"><ele>63.83333333333333</ele><time>2026-04-18T09:00:07.651Z</time></trkpt><trkpt lat="43.8701417" lon="12.7152433"><ele>64.0</ele><time>2026-04-18T09:00:08.652Z</time></trkpt><trkpt lat="43.8701783" lon="12.7151517"><ele>64.5</ele><time>2026-04-18T09:00:09.652Z</time></trkpt><trkpt lat="43.8702083" lon="12.71505"><ele>65.0</ele><time>2026-04-18T09:00:10.651Z</time></trkpt><trkpt lat="43.8702367" lon="12.714945"><ele>65.5</ele><time>2026-04-18T09:00:11.65Z</time></trkpt><trkpt lat="43.8702683" lon="12.714835"><ele>66.0</ele><time>2026-04-18T09:00:12.652Z</time></trkpt><trkpt lat="43.8703" lon="12.7147217"><ele>66.5</ele><time>2026-04-18T09:00:13.652Z</time></trkpt><trkpt lat="43.87034" lon="12.7146083"><ele>67.0</ele><time>2026-04-18T09:00:14.651Z</time></trkpt><trkpt lat="43.8703733" lon="12.7144833"><ele>66.6</ele><time>2026-04-18T09:00:15.651Z</time></trkpt><trkpt lat="43.8704017" lon="12.71435"><ele>66.2</ele><time>2026-04-18T09:00:16.651Z</time></trkpt><trkpt lat="43.8704133" lon="12.7141983"><ele>65.8</ele><time>2026-04-18T09:00:17.651Z</time></trkpt><trkpt lat="43.8704167" lon="12.7140583"><ele>65.4</ele><time>2026-04-18T09:00:18.65Z</time></trkpt><trkpt lat="43.8704167" lon="12.7139183"><ele>65.0</ele><time>2026-04-18T09:00:19.651Z</time></trkpt><trkpt lat="43.8704183" lon="12.7137817"><ele>65.0</ele><time>2026-04-18T09:00:20.653Z</time></trkpt><trkpt lat="43.8704267" lon="12.7136433"><ele>65.0</ele><time>2026-04-18T09:00:21.652Z</time></trkpt><trkpt lat="43.8704283" lon="12.7135033"><ele>65.0</ele><time>2026-04-18T09:00:22.651Z</time></trkpt><trkpt lat="43.8704333" lon="12.713365"><ele>65.0</ele><time>2026-04-18T09:00:23.651Z</time></trkpt><trkpt lat="43.8704367" lon="12.71322"><ele>65.0</ele><time>2026-04-18T09:00:24.652Z</time></trkpt><trkpt lat="43.8704483" lon="12.7130767"><ele>65.0</ele><time>2026-04-18T09:00:25.651Z</time></trkpt><trkpt lat="43.87046" lon="12.7129333"><ele>65.0</ele><time>2026-04-18T09:00:26.651Z</time></trkpt><trkpt lat="43.870477" lon="12.712798"><ele>65.0</ele><time>2026-04-18T09:00:27.651Z</time></trkpt><trkpt lat="43.8704903" lon="12.7126642"><ele>65.0</ele><time>2026-04-18T09:00:28.651Z</time></trkpt><trkpt lat="43.8705116" lon="12.7125324"><ele>65.0</ele><time>2026-04-18T09:00:29.651Z</time></trkpt><trkpt lat="43.8705308" lon="12.7124072"><ele>65.16666666666667</ele><time>2026-04-18T09:00:30.651Z</time></trkpt><trkpt lat="43.8705463" lon="12.7122883"><ele>65.33333333333334</ele><time>2026-04-18T09:00:31.651Z</time></trkpt><trkpt lat="43.870554" lon="12.7121681"><ele>65.5</ele><time>2026-04-18T09:00:32.652Z</time></trkpt><trkpt lat="43.8705534" lon="12.7120496"><ele>65.66666666666667</ele><time>2026-04-18T09:00:33.651Z</time></trkpt><trkpt lat="43.8705486" lon="12.7119329"><ele>65.83333333333333</ele><time>2026-04-18T09:00:34.651Z</time></trkpt><trkpt lat="43.8705466" lon="12.7118202"><ele>66.0</ele><time>2026-04-18T09:00:35.651Z</time></trkpt><trkpt lat="43.8705452" lon="12.7117058"><ele>66.5</ele><time>2026-04-18T09:00:36.652Z</time></trkpt><trkpt lat="43.8705473" lon="12.7115908"><ele>67.0</ele><time>2026-04-18T09:00:37.651Z</time></trkpt><trkpt lat="43.8705472" lon="12.7114762"><ele>67.5</ele><time>2026-04-18T09:00:38.652Z</time></trkpt><trkpt lat="43.8705435" lon="12.7113578"><ele>68.0</ele><time>2026-04-18T09:00:39.652Z</time></trkpt><trkpt lat="43.8705447" lon="12.7112425"><ele>68.5</ele><time>2026-04-18T09:00:40.651Z</time></trkpt><trkpt lat="43.8705491" lon="12.7111283"><ele>69.0</ele><time>2026-04-18T09:00:41.651Z</time></trkpt><trkpt lat="43.8705588" lon="12.7110133"><ele>69.33333333333333</ele><time>2026-04-18T09:00:42.651Z</time></trkpt><trkpt lat="43.8705646" lon="12.7108965"><ele>69.66666666666667</ele><time>2026-04-18T09:00:43.649Z</time></trkpt><trkpt lat="43.8705603" lon="12.7107806"><ele>70.0</ele><time>2026-04-18T09:00:44.651Z</time></trkpt><trkpt lat="43.8705589" lon="12.7106658"><ele>70.33333333333334</ele><time>2026-04-18T09:00:45.651Z</time></trkpt><trkpt lat="43.8705516" lon="12.7105527"><ele>70.66666666666667</ele><time>2026-04-18T09:00:46.65Z</time></trkpt><trkpt lat="43.8705351" lon="12.71044"><ele>71.0</ele><time>2026-04-18T09:00:47.651Z</time></trkpt><trkpt lat="43.8705194" lon="12.7103218"><ele>71.39999999999999</ele><time>2026-04-18T09:00:48.65Z</time></trkpt><trkpt lat="43.8705051" lon="12.7102005"><ele>71.8</ele><time>2026-04-18T09:00:49.65Z</time></trkpt><trkpt lat="43.8704818" lon="12.7100749"><ele>72.19999999999999</ele><time>2026-04-18T09:00:50.651Z</time></trkpt><trkpt lat="43.8704556" lon="12.7099449"><ele>72.6</ele><time>2026-04-18T09:00:51.651Z</time></trkpt><trkpt lat="43.8704284" lon="12.7098237"><ele>73.0</ele><time>2026-04-18T09:00:52.652Z</time></trkpt><trkpt lat="43.8704018" lon="12.7097171"><ele>73.0</ele><time>2026-04-18T09:00:53.651Z</time></trkpt><trkpt lat="43.8703807" lon="12.7096254"><ele>73.0</ele><time>2026-04-18T09:00:54.651Z</time></trkpt><trkpt lat="43.8703459" lon="12.7094774"><ele>73.0</ele><time>2026-04-18T09:00:56.651Z</time></trkpt><trkpt lat="43.8703099" lon="12.7093306"><ele>73.0</ele><time>2026-04-18T09:00:58.65Z</time></trkpt><trkpt lat="43.8702939" lon="12.7092432"><ele>73.0</ele><time>2026-04-18T09:00:59.651Z</time></trkpt><trkpt lat="43.8702775" lon="12.7091472"><ele>73.0</ele><time>2026-04-18T09:01:00.652Z</time></trkpt><trkpt lat="43.8702582" lon="12.7090513"><ele>73.0</ele><time>2026-04-18T09:01:01.65Z</time></trkpt><trkpt lat="43.8702406" lon="12.7089492"><ele>73.0</ele><time>2026-04-18T09:01:02.651Z</time></trkpt><trkpt lat="43.870225" lon="12.7088428"><ele>73.0</ele><time>2026-04-18T09:01:03.651Z</time></trkpt><trkpt lat="43.8702086" lon="12.7087344"><ele>73.0</ele><time>2026-04-18T09:01:04.651Z</time></trkpt><trkpt lat="43.8701883" lon="12.7086306"><ele>73.0</ele><time>2026-04-18T09:01:05.652Z</time></trkpt><trkpt lat="43.8701694" lon="12.7085271"><ele>73.0</ele><time>2026-04-18T09:01:06.651Z</time></trkpt><trkpt lat="43.870151" lon="12.7084251"><ele>73.0</ele><time>2026-04-18T09:01:07.651Z</time></trkpt><trkpt lat="43.8701366" lon="12.7083316"><ele>73.0</ele><time>2026-04-18T09:01:08.65Z</time></trkpt><trkpt lat="43.8701185" lon="12.7082437"><ele>73.0</ele><time>2026-04-18T09:01:09.651Z</time></trkpt><trkpt lat="43.8701023" lon="12.7080893"><ele>73.0</ele><time>2026-04-18T09:01:11.65Z</time></trkpt><trkpt lat="43.8700822" lon="12.7079227"><ele>73.0</ele><time>2026-04-18T09:01:13.65Z</time></trkpt><trkpt lat="43.8700696" lon="12.7078175"><ele>73.0</ele><time>2026-04-18T09:01:14.651Z</time></trkpt><trkpt lat="43.870059" lon="12.7077031"><ele>73.16666666666666</ele><time>2026-04-18T09:01:15.651Z</time></trkpt><trkpt lat="43.870047" lon="12.707587"><ele>73.33333333333333</ele><time>2026-04-18T09:01:16.65Z</time></trkpt><trkpt lat="43.8700421" lon="12.7074656"><ele>73.5</ele><time>2026-04-18T09:01:17.651Z</time></trkpt><trkpt lat="43.870045" lon="12.7073459"><ele>73.66666666666667</ele><time>2026-04-18T09:01:18.651Z</time></trkpt><trkpt lat="43.8700587" lon="12.7072258"><ele>73.83333333333334</ele><time>2026-04-18T09:01:19.651Z</time></trkpt><trkpt lat="43.8700849" lon="12.7071096"><ele>74.0</ele><time>2026-04-18T09:01:20.651Z</time></trkpt><trkpt lat="43.8701194" lon="12.7069948"><ele>74.33333333333334</ele><time>2026-04-18T09:01:21.651Z</time></trkpt><trkpt lat="43.8701601" lon="12.706883"><ele>74.66666666666667</ele><time>2026-04-18T09:01:22.652Z</time></trkpt><trkpt lat="43.8702076" lon="12.7067758"><ele>75.0</ele><time>2026-04-18T09:01:23.651Z</time></trkpt><trkpt lat="43.8702524" lon="12.7066691"><ele>75.33333333333333</ele><time>2026-04-18T09:01:24.65Z</time></trkpt><trkpt lat="43.8702934" lon="12.7065597"><ele>75.66666666666666</ele><time>2026-04-18T09:01:25.651Z</time></trkpt><trkpt lat="43.8703261" lon="12.7064467"><ele>76.0</ele><time>2026-04-18T09:01:26.651Z</time></trkpt><trkpt lat="43.8703446" lon="12.7063278"><ele>76.0</ele><time>2026-04-18T09:01:27.65Z</time></trkpt><trkpt lat="43.8703441" lon="12.7062061"><ele>76.0</ele><time>2026-04-18T09:01:28.651Z</time></trkpt><trkpt lat="43.8703372" lon="12.706084"><ele>76.0</ele><time>2026-04-18T09:01:29.651Z</time></trkpt><trkpt lat="43.8703262" lon="12.7059632"><ele>76.0</ele><time>2026-04-18T09:01:30.652Z</time></trkpt><trkpt lat="43.8703153" lon="12.7058441"><ele>76.0</ele><time>2026-04-18T09:01:31.651Z</time></trkpt><trkpt lat="43.8703035" lon="12.7057255"><ele>76.0</ele><time>2026-04-18T09:01:32.652Z</time></trkpt><trkpt lat="43.8702947" lon="12.7056084"><ele>77.4</ele><time>2026-04-18T09:01:33.65Z</time></trkpt><trkpt lat="43.8702891" lon="12.7054832"><ele>78.8</ele><time>2026-04-18T09:01:34.651Z</time></trkpt><trkpt lat="43.870292" lon="12.7053622"><ele>80.2</ele><time>2026-04-18T09:01:35.651Z</time></trkpt><trkpt lat="43.8703148" lon="12.7052344"><ele>81.60000000000001</ele><time>2026-04-18T09:01:36.651Z</time></trkpt><trkpt lat="43.8703494" lon="12.7051042"><ele>83.0</ele><time>2026-04-18T09:01:37.651Z</time></trkpt><trkpt lat="43.8703908" lon="12.7049741"><ele>85.25</ele><time>2026-04-18T09:01:38.652Z</time></trkpt><trkpt lat="43.8704325" lon="12.7048423"><ele>87.5</ele><time>2026-04-18T09:01:39.651Z</time></trkpt><trkpt lat="43.8704692" lon="12.7046992"><ele>89.75</ele><time>2026-04-18T09:01:40.651Z</time></trkpt><trkpt lat="43.8705011" lon="12.7045444"><ele>92.0</ele><time>2026-04-18T09:01:41.65Z</time></trkpt><trkpt lat="43.8705153" lon="12.7043727"><ele>93.75</ele><time>2026-04-18T09:01:42.651Z</time></trkpt><trkpt lat="43.8705258" lon="12.7042019"><ele>95.5</ele><time>2026-04-18T09:01:43.651Z</time></trkpt><trkpt lat="43.8705319" lon="12.7040276"><ele>97.25</ele><time>2026-04-18T09:01:44.651Z</time></trkpt><trkpt lat="43.8705414" lon="12.7038542"><ele>99.0</ele><time>2026-04-18T09:01:45.651Z</time></trkpt><trkpt lat="43.8705435" lon="12.7036848"><ele>101.25</ele><time>2026-04-18T09:01:46.651Z</time></trkpt><trkpt lat="43.8705456" lon="12.703517"><ele>103.5</ele><time>2026-04-18T09:01:47.651Z</time></trkpt><trkpt lat="43.8705526" lon="12.7033536"><ele>105.75</ele><time>2026-04-18T09:01:48.65Z</time></trkpt><trkpt lat="43.8705699" lon="12.7032012"><ele>108.0</ele><time>2026-04-18T09:01:49.651Z</time></trkpt><trkpt lat="43.8705927" lon="12.7030531"><ele>108.0</ele><time>2026-04-18T09:01:50.651Z</time></trkpt><trkpt lat="43.8706167" lon="12.7029056"><ele>108.00000000000001</ele><time>2026-04-18T09:01:51.649Z</time></trkpt><trkpt lat="43.8706397" lon="12.7027573"><ele>108.00000000000001</ele><time>2026-04-18T09:01:52.651Z</time></trkpt><trkpt lat="43.8706662" lon="12.7026075"><ele>108.0</ele><time>2026-04-18T09:01:53.649Z</time></trkpt><trkpt lat="43.870693" lon="12.7024533"><ele>108.0</ele><time>2026-04-18T09:01:54.649Z</time></trkpt><trkpt lat="43.8707208" lon="12.7022968"><ele>109.5</ele><time>2026-04-18T09:01:55.649Z</time></trkpt><trkpt lat="43.8707521" lon="12.702137"><ele>111.0</ele><time>2026-04-18T09:01:56.65Z</time></trkpt><trkpt lat="43.8707811" lon="12.7019697"><ele>112.5</ele><time>2026-04-18T09:01:57.65Z</time></trkpt><trkpt lat="43.8708159" lon="12.7018153"><ele>114.0</ele><time>2026-04-18T09:01:58.65Z</time></trkpt><trkpt lat="43.870843" lon="12.7016715"><ele>114.80000000000001</ele><time>2026-04-18T09:01:59.65Z</time></trkpt><trkpt lat="43.8708639" lon="12.7015284"><ele>115.60000000000001</ele><time>2026-04-18T09:02:00.65Z</time></trkpt><trkpt lat="43.8708814" lon="12.7013851"><ele>116.4</ele><time>2026-04-18T09:02:01.65Z</time></trkpt><trkpt lat="43.8708982" lon="12.7012365"><ele>117.2</ele><time>2026-04-18T09:02:02.65Z</time></trkpt><trkpt lat="43.8709133" lon="12.7010721"><ele>118.0</ele><time>2026-04-18T09:02:03.65Z</time></trkpt><trkpt lat="43.870932" lon="12.7009001"><ele>114.25</ele><time>2026-04-18T09:02:04.65Z</time></trkpt><trkpt lat="43.870953" lon="12.7007359"><ele>110.5</ele><time>2026-04-18T09:02:05.65Z</time></trkpt><trkpt lat="43.8709731" lon="12.7005853"><ele>106.75</ele><time>2026-04-18T09:02:06.652Z</time></trkpt><trkpt lat="43.8710042" lon="12.7004437"><ele>103.0</ele><time>2026-04-18T09:02:07.65Z</time></trkpt><trkpt lat="43.8710602" lon="12.7003049"><ele>104.5</ele><time>2026-04-18T09:02:08.651Z</time></trkpt><trkpt lat="43.871132" lon="12.7001644"><ele>106.0</ele><time>2026-04-18T09:02:09.65Z</time></trkpt><trkpt lat="43.8712235" lon="12.700027"><ele>107.5</ele><time>2026-04-18T09:02:10.65Z</time></trkpt><trkpt lat="43.871314" lon="12.6998838"><ele>109.0</ele><time>2026-04-18T09:02:11.649Z</time></trkpt><trkpt lat="43.8713874" lon="12.6997344"><ele>109.0</ele><time>2026-04-18T09:02:12.65Z</time></trkpt><trkpt lat="43.8714466" lon="12.6995762"><ele>109.0</ele><time>2026-04-18T09:02:13.649Z</time></trkpt><trkpt lat="43.8714827" lon="12.6994047"><ele>109.0</ele><time>2026-04-18T09:02:14.65Z</time></trkpt><trkpt lat="43.8714946" lon="12.6992543"><ele>109.0</ele><time>2026-04-18T09:02:15.649Z</time></trkpt><trkpt lat="43.8714786" lon="12.6991313"><ele>110.75</ele><time>2026-04-18T09:02:16.65Z</time></trkpt><trkpt lat="43.8714284" lon="12.6990196"><ele>112.5</ele><time>2026-04-18T09:02:17.649Z</time></trkpt><trkpt lat="43.8713135" lon="12.6989381"><ele>114.25</ele><time>2026-04-18T09:02:18.649Z</time></trkpt><trkpt lat="43.8711555" lon="12.6988896"><ele>116.0</ele><time>2026-04-18T09:02:19.648Z</time></trkpt><trkpt lat="43.8709805" lon="12.6988652"><ele>119.33333333333333</ele><time>2026-04-18T09:02:20.65Z</time></trkpt><trkpt lat="43.8708097" lon="12.6988412"><ele>122.66666666666666</ele><time>2026-04-18T09:02:21.649Z</time></trkpt><trkpt lat="43.8706454" lon="12.6987885"><ele>126.0</ele><time>2026-04-18T09:02:22.649Z</time></trkpt><trkpt lat="43.8704879" lon="12.6986992"><ele>126.0</ele><time>2026-04-18T09:02:23.65Z</time></trkpt><trkpt lat="43.8703352" lon="12.6986085"><ele>126.0</ele><time>2026-04-18T09:02:24.649Z</time></trkpt><trkpt lat="43.8702026" lon="12.6985263"><ele>126.0</ele><time>2026-04-18T09:02:25.649Z</time></trkpt><trkpt lat="43.8700878" lon="12.6984501"><ele>126.0</ele><time>2026-04-18T09:02:26.65Z</time></trkpt><trkpt lat="43.8699883" lon="12.698363"><ele>128.66666666666666</ele><time>2026-04-18T09:02:27.65Z</time></trkpt><trkpt lat="43.8698932" lon="12.6982588"><ele>131.33333333333331</ele><time>2026-04-18T09:02:28.65Z</time></trkpt><trkpt lat="43.8697894" lon="12.6981152"><ele>134.0</ele><time>2026-04-18T09:02:29.65Z</time></trkpt><trkpt lat="43.8696719" lon="12.6979184"><ele>137.0</ele><time>2026-04-18T09:02:30.649Z</time></trkpt><trkpt lat="43.8695399" lon="12.6977174"><ele>140.0</ele><time>2026-04-18T09:02:31.65Z</time></trkpt><trkpt lat="43.8694166" lon="12.6975393"><ele>143.0</ele><time>2026-04-18T09:02:32.651Z</time></trkpt><trkpt lat="43.8693032" lon="12.6973841"><ele>142.5</ele><time>2026-04-18T09:02:33.651Z</time></trkpt><trkpt lat="43.8691957" lon="12.6972537"><ele>142.0</ele><time>2026-04-18T09:02:34.65Z</time></trkpt><trkpt lat="43.8690768" lon="12.6971521"><ele>141.5</ele><time>2026-04-18T09:02:35.65Z</time></trkpt><trkpt lat="43.8689372" lon="12.6970675"><ele>141.0</ele><time>2026-04-18T09:02:36.649Z</time></trkpt><trkpt lat="43.8687816" lon="12.6969846"><ele>142.25</ele><time>2026-04-18T09:02:37.65Z</time></trkpt><trkpt lat="43.8686254" lon="12.6969186"><ele>143.5</ele><time>2026-04-18T09:02:38.65Z</time></trkpt><trkpt lat="43.868481" lon="12.6968633"><ele>144.75</ele><time>2026-04-18T09:02:39.65Z</time></trkpt><trkpt lat="43.8683533" lon="12.6968133"><ele>146.0</ele><time>2026-04-18T09:02:40.649Z</time></trkpt><trkpt lat="43.8682333" lon="12.6967783"><ele>146.0</ele><time>2026-04-18T09:02:41.65Z</time></trkpt><trkpt lat="43.8681183" lon="12.69675"><ele>146.0</ele><time>2026-04-18T09:02:42.65Z</time></trkpt><trkpt lat="43.8680167" lon="12.6967367"><ele>146.0</ele><time>2026-04-18T09:02:43.65Z</time></trkpt><trkpt lat="43.8679267" lon="12.696715"><ele>146.0</ele><time>2026-04-18T09:02:44.65Z</time></trkpt><trkpt lat="43.8678367" lon="12.6966467"><ele>146.0</ele><time>2026-04-18T09:02:45.649Z</time></trkpt><trkpt lat="43.86777" lon="12.6965017"><ele>146.0</ele><time>2026-04-18T09:02:46.649Z</time></trkpt><trkpt lat="43.8677283" lon="12.6962917"><ele>146.0</ele><time>2026-04-18T09:02:47.649Z</time></trkpt><trkpt lat="43.8677017" lon="12.6960717"><ele>146.0</ele><time>2026-04-18T09:02:48.649Z</time></trkpt><trkpt lat="43.8676867" lon="12.695885"><ele>147.75</ele><time>2026-04-18T09:02:49.649Z</time></trkpt><trkpt lat="43.8676467" lon="12.6957233"><ele>149.5</ele><time>2026-04-18T09:02:50.649Z</time></trkpt><trkpt lat="43.8675917" lon="12.69558"><ele>151.25</ele><time>2026-04-18T09:02:51.649Z</time></trkpt><trkpt lat="43.8675017" lon="12.6954567"><ele>153.0</ele><time>2026-04-18T09:02:52.649Z</time></trkpt><trkpt lat="43.8674217" lon="12.695345"><ele>154.0</ele><time>2026-04-18T09:02:53.649Z</time></trkpt><trkpt lat="43.8673533" lon="12.6952483"><ele>155.0</ele><time>2026-04-18T09:02:54.65Z</time></trkpt><trkpt lat="43.867285" lon="12.6951717"><ele>156.0</ele><time>2026-04-18T09:02:55.649Z</time></trkpt><trkpt lat="43.8672283" lon="12.6950967"><ele>157.0</ele><time>2026-04-18T09:02:56.65Z</time></trkpt><trkpt lat="43.86718" lon="12.69503"><ele>158.0</ele><time>2026-04-18T09:02:57.65Z</time></trkpt><trkpt lat="43.8671067" lon="12.6949167"><ele>159.0</ele><time>2026-04-18T09:02:59.649Z</time></trkpt><trkpt lat="43.86703" lon="12.69487"><ele>159.0</ele><time>2026-04-18T09:03:02.65Z</time></trkpt><trkpt lat="43.8669283" lon="12.6949233"><ele>159.0</ele><time>2026-04-18T09:03:04.649Z</time></trkpt><trkpt lat="43.8668167" lon="12.6950133"><ele>159.0</ele><time>2026-04-18T09:03:06.65Z</time></trkpt><trkpt lat="43.8667567" lon="12.6950683"><ele>159.0</ele><time>2026-04-18T09:03:07.65Z</time></trkpt><trkpt lat="43.866685" lon="12.6951217"><ele>159.0</ele><time>2026-04-18T09:03:08.65Z</time></trkpt><trkpt lat="43.8666067" lon="12.6951767"><ele>159.33333333333334</ele><time>2026-04-18T09:03:09.65Z</time></trkpt><trkpt lat="43.8665283" lon="12.6952183"><ele>159.66666666666666</ele><time>2026-04-18T09:03:10.65Z</time></trkpt><trkpt lat="43.8664483" lon="12.6952333"><ele>160.0</ele><time>2026-04-18T09:03:11.649Z</time></trkpt><trkpt lat="43.8663633" lon="12.6952433"><ele>160.33333333333331</ele><time>2026-04-18T09:03:12.649Z</time></trkpt><trkpt lat="43.8662717" lon="12.6952433"><ele>160.66666666666666</ele><time>2026-04-18T09:03:13.649Z</time></trkpt><trkpt lat="43.8661704" lon="12.6952376"><ele>161.0</ele><time>2026-04-18T09:03:14.651Z</time></trkpt><trkpt lat="43.8660662" lon="12.6952275"><ele>161.0</ele><time>2026-04-18T09:03:15.649Z</time></trkpt><trkpt lat="43.8659688" lon="12.6952027"><ele>161.0</ele><time>2026-04-18T09:03:16.65Z</time></trkpt><trkpt lat="43.8658753" lon="12.6951828"><ele>161.0</ele><time>2026-04-18T09:03:17.653Z</time></trkpt><trkpt lat="43.8657896" lon="12.6951642"><ele>161.0</ele><time>2026-04-18T09:03:18.65Z</time></trkpt><trkpt lat="43.8657163" lon="12.6951474"><ele>161.0</ele><time>2026-04-18T09:03:19.651Z</time></trkpt><trkpt lat="43.8655998" lon="12.6951085"><ele>161.0</ele><time>2026-04-18T09:03:21.649Z</time></trkpt><trkpt lat="43.8655265" lon="12.6949782"><ele>161.0</ele><time>2026-04-18T09:03:23.65Z</time></trkpt><trkpt lat="43.8655031" lon="12.694871"><ele>161.0</ele><time>2026-04-18T09:03:24.664Z</time></trkpt><trkpt lat="43.8654927" lon="12.694724"><ele>161.0</ele><time>2026-04-18T09:03:25.651Z</time></trkpt><trkpt lat="43.865471" lon="12.6945605"><ele>161.0</ele><time>2026-04-18T09:03:26.65Z</time></trkpt><trkpt lat="43.8654207" lon="12.6944047"><ele>162.5</ele><time>2026-04-18T09:03:27.65Z</time></trkpt><trkpt lat="43.8653395" lon="12.6942618"><ele>164.0</ele><time>2026-04-18T09:03:28.65Z</time></trkpt><trkpt lat="43.8652438" lon="12.6941353"><ele>165.5</ele><time>2026-04-18T09:03:29.65Z</time></trkpt><trkpt lat="43.8651628" lon="12.6940063"><ele>167.0</ele><time>2026-04-18T09:03:30.65Z</time></trkpt><trkpt lat="43.8651052" lon="12.693863"><ele>167.0</ele><time>2026-04-18T09:03:31.65Z</time></trkpt><trkpt lat="43.8650772" lon="12.6937082"><ele>167.0</ele><time>2026-04-18T09:03:32.65Z</time></trkpt><trkpt lat="43.8650874" lon="12.6935416"><ele>167.0</ele><time>2026-04-18T09:03:33.65Z</time></trkpt><trkpt lat="43.8651116" lon="12.6933794"><ele>167.0</ele><time>2026-04-18T09:03:34.649Z</time></trkpt><trkpt lat="43.8651161" lon="12.6932281"><ele>168.25</ele><time>2026-04-18T09:03:35.65Z</time></trkpt><trkpt lat="43.8650826" lon="12.6930851"><ele>169.5</ele><time>2026-04-18T09:03:36.65Z</time></trkpt><trkpt lat="43.8650137" lon="12.6929582"><ele>170.75</ele><time>2026-04-18T09:03:37.649Z</time></trkpt><trkpt lat="43.8649132" lon="12.6928558"><ele>172.0</ele><time>2026-04-18T09:03:38.651Z</time></trkpt><trkpt lat="43.8647841" lon="12.6927756"><ele>171.33333333333334</ele><time>2026-04-18T09:03:39.649Z</time></trkpt><trkpt lat="43.8646378" lon="12.69271"><ele>170.66666666666666</ele><time>2026-04-18T09:03:40.649Z</time></trkpt><trkpt lat="43.8644894" lon="12.6926528"><ele>170.0</ele><time>2026-04-18T09:03:41.649Z</time></trkpt><trkpt lat="43.8643351" lon="12.6926035"><ele>173.0</ele><time>2026-04-18T09:03:42.65Z</time></trkpt><trkpt lat="43.864174" lon="12.6925591"><ele>176.0</ele><time>2026-04-18T09:03:43.649Z</time></trkpt><trkpt lat="43.8640115" lon="12.6925122"><ele>179.0</ele><time>2026-04-18T09:03:44.651Z</time></trkpt><trkpt lat="43.8638597" lon="12.6924464"><ele>179.0</ele><time>2026-04-18T09:03:45.649Z</time></trkpt><trkpt lat="43.8637113" lon="12.6923637"><ele>179.0</ele><time>2026-04-18T09:03:46.648Z</time></trkpt><trkpt lat="43.8635691" lon="12.6922905"><ele>179.0</ele><time>2026-04-18T09:03:47.649Z</time></trkpt><trkpt lat="43.863439" lon="12.6922611"><ele>179.0</ele><time>2026-04-18T09:03:48.65Z</time></trkpt><trkpt lat="43.8633122" lon="12.6922904"><ele>181.5</ele><time>2026-04-18T09:03:49.65Z</time></trkpt><trkpt lat="43.8631898" lon="12.6923598"><ele>184.0</ele><time>2026-04-18T09:03:50.65Z</time></trkpt><trkpt lat="43.86306" lon="12.692473"><ele>186.5</ele><time>2026-04-18T09:03:51.65Z</time></trkpt><trkpt lat="43.8629216" lon="12.6925754"><ele>189.0</ele><time>2026-04-18T09:03:52.651Z</time></trkpt><trkpt lat="43.8627716" lon="12.692643"><ele>189.0</ele><time>2026-04-18T09:03:53.649Z</time></trkpt><trkpt lat="43.8626216" lon="12.692689"><ele>189.0</ele><time>2026-04-18T09:03:54.65Z</time></trkpt><trkpt lat="43.8624802" lon="12.6927247"><ele>189.0</ele><time>2026-04-18T09:03:55.65Z</time></trkpt><trkpt lat="43.8623519" lon="12.6927522"><ele>189.0</ele><time>2026-04-18T09:03:56.649Z</time></trkpt><trkpt lat="43.8622309" lon="12.6927632"><ele>190.0</ele><time>2026-04-18T09:03:57.649Z</time></trkpt><trkpt lat="43.8621142" lon="12.6927477"><ele>191.0</ele><time>2026-04-18T09:03:58.649Z</time></trkpt><trkpt lat="43.8620038" lon="12.6927061"><ele>192.0</ele><time>2026-04-18T09:03:59.65Z</time></trkpt><trkpt lat="43.8619027" lon="12.6926307"><ele>193.0</ele><time>2026-04-18T09:04:00.65Z</time></trkpt><trkpt lat="43.8618205" lon="12.6925136"><ele>193.5</ele><time>2026-04-18T09:04:01.65Z</time></trkpt><trkpt lat="43.861768" lon="12.6923471"><ele>194.0</ele><time>2026-04-18T09:04:02.649Z</time></trkpt><trkpt lat="43.861733" lon="12.6921643"><ele>194.5</ele><time>2026-04-18T09:04:03.65Z</time></trkpt><trkpt lat="43.8617059" lon="12.69198"><ele>195.0</ele><time>2026-04-18T09:04:04.65Z</time></trkpt><trkpt lat="43.8616826" lon="12.6918011"><ele>195.6</ele><time>2026-04-18T09:04:05.65Z</time></trkpt><trkpt lat="43.8616591" lon="12.6916369"><ele>196.2</ele><time>2026-04-18T09:04:06.651Z</time></trkpt><trkpt lat="43.8616303" lon="12.6914907"><ele>196.8</ele><time>2026-04-18T09:04:07.65Z</time></trkpt><trkpt lat="43.8615808" lon="12.6913649"><ele>197.4</ele><time>2026-04-18T09:04:08.65Z</time></trkpt><trkpt lat="43.8615" lon="12.6912609"><ele>198.0</ele><time>2026-04-18T09:04:09.651Z</time></trkpt><trkpt lat="43.8613857" lon="12.6911985"><ele>198.0</ele><time>2026-04-18T09:04:10.649Z</time></trkpt><trkpt lat="43.8612537" lon="12.6911802"><ele>198.0</ele><time>2026-04-18T09:04:11.65Z</time></trkpt><trkpt lat="43.8611092" lon="12.6911944"><ele>198.0</ele><time>2026-04-18T09:04:12.649Z</time></trkpt><trkpt lat="43.8609565" lon="12.6912176"><ele>198.0</ele><time>2026-04-18T09:04:13.65Z</time></trkpt><trkpt lat="43.8608015" lon="12.6912362"><ele>199.0</ele><time>2026-04-18T09:04:14.65Z</time></trkpt><trkpt lat="43.8606446" lon="12.691247"><ele>200.0</ele><time>2026-04-18T09:04:15.648Z</time></trkpt><trkpt lat="43.8604885" lon="12.6912577"><ele>201.0</ele><time>2026-04-18T09:04:16.649Z</time></trkpt><trkpt lat="43.8603366" lon="12.6912692"><ele>201.0</ele><time>2026-04-18T09:04:17.651Z</time></trkpt><trkpt lat="43.8601885" lon="12.6912779"><ele>201.0</ele><time>2026-04-18T09:04:18.659Z</time></trkpt><trkpt lat="43.8600401" lon="12.691277"><ele>201.0</ele><time>2026-04-18T09:04:19.649Z</time></trkpt><trkpt lat="43.8598914" lon="12.6912738"><ele>201.0</ele><time>2026-04-18T09:04:20.651Z</time></trkpt><trkpt lat="43.8597433" lon="12.6912708"><ele>204.25</ele><time>2026-04-18T09:04:21.651Z</time></trkpt><trkpt lat="43.859596" lon="12.6912662"><ele>207.5</ele><time>2026-04-18T09:04:22.652Z</time></trkpt><trkpt lat="43.85945" lon="12.6912664"><ele>210.75</ele><time>2026-04-18T09:04:23.651Z</time></trkpt><trkpt lat="43.8593097" lon="12.6912605"><ele>214.0</ele><time>2026-04-18T09:04:24.651Z</time></trkpt><trkpt lat="43.8591684" lon="12.6912505"><ele>216.0</ele><time>2026-04-18T09:04:25.651Z</time></trkpt><trkpt lat="43.8590255" lon="12.6912439"><ele>218.0</ele><time>2026-04-18T09:04:26.653Z</time></trkpt><trkpt lat="43.8588852" lon="12.6912432"><ele>220.0</ele><time>2026-04-18T09:04:27.651Z</time></trkpt><trkpt lat="43.8587454" lon="12.6912489"><ele>222.0</ele><time>2026-04-18T09:04:28.651Z</time></trkpt><trkpt lat="43.8586122" lon="12.6912784"><ele>222.0</ele><time>2026-04-18T09:04:29.65Z</time></trkpt><trkpt lat="43.8584896" lon="12.6913525"><ele>222.0</ele><time>2026-04-18T09:04:30.651Z</time></trkpt><trkpt lat="43.8583787" lon="12.6914515"><ele>222.0</ele><time>2026-04-18T09:04:31.651Z</time></trkpt><trkpt lat="43.8582702" lon="12.6915539"><ele>222.0</ele><time>2026-04-18T09:04:32.651Z</time></trkpt><trkpt lat="43.8581701" lon="12.6916461"><ele>224.5</ele><time>2026-04-18T09:04:33.651Z</time></trkpt><trkpt lat="43.8580657" lon="12.6917119"><ele>227.0</ele><time>2026-04-18T09:04:34.651Z</time></trkpt><trkpt lat="43.8579608" lon="12.6917326"><ele>229.5</ele><time>2026-04-18T09:04:35.65Z</time></trkpt><trkpt lat="43.857849" lon="12.6916942"><ele>232.0</ele><time>2026-04-18T09:04:36.651Z</time></trkpt><trkpt lat="43.8577323" lon="12.691618"><ele>232.0</ele><time>2026-04-18T09:04:37.649Z</time></trkpt><trkpt lat="43.8576268" lon="12.691501"><ele>232.0</ele><time>2026-04-18T09:04:38.649Z</time></trkpt><trkpt lat="43.857544" lon="12.6913548"><ele>232.0</ele><time>2026-04-18T09:04:39.649Z</time></trkpt><trkpt lat="43.8574827" lon="12.6911926"><ele>232.0</ele><time>2026-04-18T09:04:40.648Z</time></trkpt><trkpt lat="43.8574326" lon="12.6910229"><ele>236.25</ele><time>2026-04-18T09:04:41.649Z</time></trkpt><trkpt lat="43.8573988" lon="12.6908495"><ele>240.5</ele><time>2026-04-18T09:04:42.649Z</time></trkpt><trkpt lat="43.8573862" lon="12.690678"><ele>244.75</ele><time>2026-04-18T09:04:43.649Z</time></trkpt><trkpt lat="43.8573926" lon="12.6905165"><ele>249.0</ele><time>2026-04-18T09:04:44.65Z</time></trkpt><trkpt lat="43.857421" lon="12.6903566"><ele>250.0</ele><time>2026-04-18T09:04:45.649Z</time></trkpt><trkpt lat="43.8574728" lon="12.6902001"><ele>251.0</ele><time>2026-04-18T09:04:46.649Z</time></trkpt><trkpt lat="43.8575421" lon="12.6900455"><ele>252.0</ele><time>2026-04-18T09:04:47.648Z</time></trkpt><trkpt lat="43.8576278" lon="12.6898984"><ele>253.0</ele><time>2026-04-18T09:04:48.649Z</time></trkpt><trkpt lat="43.8577227" lon="12.6897405"><ele>258.3333333333333</ele><time>2026-04-18T09:04:49.648Z</time></trkpt><trkpt lat="43.8578146" lon="12.6895422"><ele>263.6666666666667</ele><time>2026-04-18T09:04:50.649Z</time></trkpt><trkpt lat="43.8579032" lon="12.6893176"><ele>269.0</ele><time>2026-04-18T09:04:51.648Z</time></trkpt><trkpt lat="43.8579915" lon="12.6890809"><ele>271.0</ele><time>2026-04-18T09:04:52.648Z</time></trkpt><trkpt lat="43.8580832" lon="12.6888209"><ele>273.0</ele><time>2026-04-18T09:04:53.648Z</time></trkpt><trkpt lat="43.8581822" lon="12.6885509"><ele>275.0</ele><time>2026-04-18T09:04:54.648Z</time></trkpt><trkpt lat="43.858282" lon="12.6883033"><ele>275.0</ele><time>2026-04-18T09:04:55.648Z</time></trkpt><trkpt lat="43.8583721" lon="12.6880795"><ele>275.0</ele><time>2026-04-18T09:04:56.648Z</time></trkpt><trkpt lat="43.8584471" lon="12.6878749"><ele>275.0</ele><time>2026-04-18T09:04:57.649Z</time></trkpt><trkpt lat="43.85851" lon="12.6876912"><ele>277.25</ele><time>2026-04-18T09:04:58.648Z</time></trkpt><trkpt lat="43.8585609" lon="12.687528"><ele>279.5</ele><time>2026-04-18T09:04:59.648Z</time></trkpt><trkpt lat="43.8585861" lon="12.6873669"><ele>281.75</ele><time>2026-04-18T09:05:00.648Z</time></trkpt><trkpt lat="43.8585915" lon="12.6872122"><ele>284.0</ele><time>2026-04-18T09:05:01.648Z</time></trkpt><trkpt lat="43.8585885" lon="12.6870593"><ele>282.2</ele><time>2026-04-18T09:05:02.648Z</time></trkpt><trkpt lat="43.85858" lon="12.6869116"><ele>280.4</ele><time>2026-04-18T09:05:03.648Z</time></trkpt><trkpt lat="43.8585692" lon="12.6867591"><ele>278.6</ele><time>2026-04-18T09:05:04.649Z</time></trkpt><trkpt lat="43.8585611" lon="12.6866062"><ele>276.8</ele><time>2026-04-18T09:05:05.648Z</time></trkpt><trkpt lat="43.8585594" lon="12.6864532"><ele>275.0</ele><time>2026-04-18T09:05:06.649Z</time></trkpt><trkpt lat="43.8585713" lon="12.6862977"><ele>275.0</ele><time>2026-04-18T09:05:07.648Z</time></trkpt><trkpt lat="43.8585947" lon="12.6861301"><ele>275.0</ele><time>2026-04-18T09:05:08.648Z</time></trkpt><trkpt lat="43.8586305" lon="12.6859495"><ele>275.0</ele><time>2026-04-18T09:05:09.648Z</time></trkpt><trkpt lat="43.8586714" lon="12.6857581"><ele>275.0</ele><time>2026-04-18T09:05:10.649Z</time></trkpt><trkpt lat="43.8587074" lon="12.6855566"><ele>276.0</ele><time>2026-04-18T09:05:11.648Z</time></trkpt><trkpt lat="43.8587424" lon="12.6853503"><ele>277.0</ele><time>2026-04-18T09:05:12.648Z</time></trkpt><trkpt lat="43.8587785" lon="12.6851401"><ele>278.0</ele><time>2026-04-18T09:05:13.648Z</time></trkpt><trkpt lat="43.858813" lon="12.6849272"><ele>280.6666666666667</ele><time>2026-04-18T09:05:14.649Z</time></trkpt><trkpt lat="43.8588496" lon="12.6847134"><ele>283.3333333333333</ele><time>2026-04-18T09:05:15.648Z</time></trkpt><trkpt lat="43.858887" lon="12.6844993"><ele>286.0</ele><time>2026-04-18T09:05:16.73Z</time></trkpt><trkpt lat="43.858918" lon="12.6843059"><ele>287.5</ele><time>2026-04-18T09:05:17.648Z</time></trkpt><trkpt lat="43.8589347" lon="12.6841053"><ele>289.0</ele><time>2026-04-18T09:05:18.65Z</time></trkpt><trkpt lat="43.8589349" lon="12.6839069"><ele>290.5</ele><time>2026-04-18T09:05:19.648Z</time></trkpt><trkpt lat="43.8589174" lon="12.6837034"><ele>292.0</ele><time>2026-04-18T09:05:20.648Z</time></trkpt><trkpt lat="43.8588718" lon="12.6835048"><ele>292.0</ele><time>2026-04-18T09:05:21.648Z</time></trkpt><trkpt lat="43.8587959" lon="12.6833052"><ele>292.0</ele><time>2026-04-18T09:05:22.648Z</time></trkpt><trkpt lat="43.8587244" lon="12.6830944"><ele>292.0</ele><time>2026-04-18T09:05:23.648Z</time></trkpt><trkpt lat="43.8586802" lon="12.6828744"><ele>293.0</ele><time>2026-04-18T09:05:24.648Z</time></trkpt><trkpt lat="43.8586456" lon="12.682646"><ele>294.0</ele><time>2026-04-18T09:05:25.648Z</time></trkpt><trkpt lat="43.8585976" lon="12.6824203"><ele>295.0</ele><time>2026-04-18T09:05:26.648Z</time></trkpt><trkpt lat="43.8585378" lon="12.6821997"><ele>295.0</ele><time>2026-04-18T09:05:27.648Z</time></trkpt><trkpt lat="43.8584705" lon="12.6819821"><ele>295.0</ele><time>2026-04-18T09:05:28.648Z</time></trkpt><trkpt lat="43.85839" lon="12.6817683"><ele>295.0</ele><time>2026-04-18T09:05:29.648Z</time></trkpt><trkpt lat="43.8583167" lon="12.68155"><ele>303.3333333333333</ele><time>2026-04-18T09:05:30.648Z</time></trkpt><trkpt lat="43.8582467" lon="12.6813283"><ele>311.6666666666667</ele><time>2026-04-18T09:05:31.649Z</time></trkpt><trkpt lat="43.8581733" lon="12.6811117"><ele>320.0</ele><time>2026-04-18T09:05:32.648Z</time></trkpt><trkpt lat="43.8580967" lon="12.6808983"><ele>320.0</ele><time>2026-04-18T09:05:33.648Z</time></trkpt><trkpt lat="43.85802" lon="12.6806867"><ele>320.0</ele><time>2026-04-18T09:05:34.648Z</time></trkpt><trkpt lat="43.8579433" lon="12.6804783"><ele>320.0</ele><time>2026-04-18T09:05:35.648Z</time></trkpt><trkpt lat="43.8578633" lon="12.6802783"><ele>321.0</ele><time>2026-04-18T09:05:36.648Z</time></trkpt><trkpt lat="43.8577867" lon="12.680085"><ele>322.0</ele><time>2026-04-18T09:05:37.649Z</time></trkpt><trkpt lat="43.8577167" lon="12.6799017"><ele>323.0</ele><time>2026-04-18T09:05:38.648Z</time></trkpt><trkpt lat="43.857655" lon="12.67973"><ele>324.0</ele><time>2026-04-18T09:05:39.649Z</time></trkpt><trkpt lat="43.8576083" lon="12.6795667"><ele>326.0</ele><time>2026-04-18T09:05:40.648Z</time></trkpt><trkpt lat="43.857575" lon="12.679405"><ele>328.0</ele><time>2026-04-18T09:05:41.648Z</time></trkpt><trkpt lat="43.85758" lon="12.679245"><ele>330.0</ele><time>2026-04-18T09:05:42.647Z</time></trkpt><trkpt lat="43.8576033" lon="12.6790883"><ele>332.0</ele><time>2026-04-18T09:05:43.648Z</time></trkpt><trkpt lat="43.8576283" lon="12.6789367"><ele>332.0</ele><time>2026-04-18T09:05:44.649Z</time></trkpt><trkpt lat="43.8576583" lon="12.6787883"><ele>332.0</ele><time>2026-04-18T09:05:45.648Z</time></trkpt><trkpt lat="43.857695" lon="12.6786433"><ele>332.0</ele><time>2026-04-18T09:05:46.648Z</time></trkpt><trkpt lat="43.85774" lon="12.6785033"><ele>332.0</ele><time>2026-04-18T09:05:47.648Z</time></trkpt><trkpt lat="43.857785" lon="12.67836"><ele>332.0</ele><time>2026-04-18T09:05:48.649Z</time></trkpt><trkpt lat="43.8578417" lon="12.6782233"><ele>334.0</ele><time>2026-04-18T09:05:49.648Z</time></trkpt><trkpt lat="43.8578967" lon="12.6780867"><ele>336.0</ele><time>2026-04-18T09:05:50.648Z</time></trkpt><trkpt lat="43.857955" lon="12.6779583"><ele>338.0</ele><time>2026-04-18T09:05:51.649Z</time></trkpt><trkpt lat="43.8580117" lon="12.6778317"><ele>340.0</ele><time>2026-04-18T09:05:52.649Z</time></trkpt><trkpt lat="43.85808" lon="12.6777217"><ele>342.0</ele><time>2026-04-18T09:05:53.649Z</time></trkpt><trkpt lat="43.8581633" lon="12.677635"><ele>343.8</ele><time>2026-04-18T09:05:54.647Z</time></trkpt><trkpt lat="43.85825" lon="12.677565"><ele>345.6</ele><time>2026-04-18T09:05:55.648Z</time></trkpt><trkpt lat="43.8583383" lon="12.6775033"><ele>347.40000000000003</ele><time>2026-04-18T09:05:56.649Z</time></trkpt><trkpt lat="43.8584133" lon="12.6774267"><ele>349.20000000000005</ele><time>2026-04-18T09:05:57.648Z</time></trkpt><trkpt lat="43.8584733" lon="12.67732"><ele>351.0</ele><time>2026-04-18T09:05:58.649Z</time></trkpt><trkpt lat="43.85851" lon="12.6771817"><ele>352.0</ele><time>2026-04-18T09:05:59.647Z</time></trkpt><trkpt lat="43.8585283" lon="12.6770167"><ele>353.0</ele><time>2026-04-18T09:06:00.647Z</time></trkpt><trkpt lat="43.8585417" lon="12.6768317"><ele>354.0</ele><time>2026-04-18T09:06:01.647Z</time></trkpt><trkpt lat="43.8585547" lon="12.6766315"><ele>355.0</ele><time>2026-04-18T09:06:02.649Z</time></trkpt><trkpt lat="43.8585693" lon="12.6764202"><ele>358.3333333333333</ele><time>2026-04-18T09:06:03.648Z</time></trkpt><trkpt lat="43.8585867" lon="12.6762"><ele>361.6666666666667</ele><time>2026-04-18T09:06:04.648Z</time></trkpt><trkpt lat="43.8586067" lon="12.6759744"><ele>365.0</ele><time>2026-04-18T09:06:05.647Z</time></trkpt><trkpt lat="43.8586269" lon="12.6757486"><ele>368.33333333333337</ele><time>2026-04-18T09:06:06.648Z</time></trkpt><trkpt lat="43.8586463" lon="12.6755224"><ele>371.6666666666667</ele><time>2026-04-18T09:06:07.647Z</time></trkpt><trkpt lat="43.8586472" lon="12.6753045"><ele>375.0</ele><time>2026-04-18T09:06:08.648Z</time></trkpt><trkpt lat="43.8586521" lon="12.6751008"><ele>375.75</ele><time>2026-04-18T09:06:09.648Z</time></trkpt><trkpt lat="43.8586699" lon="12.674903"><ele>376.5</ele><time>2026-04-18T09:06:10.648Z</time></trkpt><trkpt lat="43.8586903" lon="12.6747125"><ele>377.25</ele><time>2026-04-18T09:06:11.648Z</time></trkpt><trkpt lat="43.8587079" lon="12.6745274"><ele>378.0</ele><time>2026-04-18T09:06:12.648Z</time></trkpt><trkpt lat="43.858715" lon="12.6743426"><ele>378.75</ele><time>2026-04-18T09:06:13.648Z</time></trkpt><trkpt lat="43.8587138" lon="12.6741599"><ele>379.5</ele><time>2026-04-18T09:06:14.648Z</time></trkpt><trkpt lat="43.8587217" lon="12.6739785"><ele>380.25</ele><time>2026-04-18T09:06:15.648Z</time></trkpt><trkpt lat="43.8587433" lon="12.6737942"><ele>381.0</ele><time>2026-04-18T09:06:16.647Z</time></trkpt><trkpt lat="43.8587656" lon="12.6736092"><ele>380.25</ele><time>2026-04-18T09:06:17.648Z</time></trkpt><trkpt lat="43.8587857" lon="12.6734335"><ele>379.5</ele><time>2026-04-18T09:06:18.648Z</time></trkpt><trkpt lat="43.8588016" lon="12.6732724"><ele>378.75</ele><time>2026-04-18T09:06:19.648Z</time></trkpt><trkpt lat="43.8588129" lon="12.6731249"><ele>378.0</ele><time>2026-04-18T09:06:20.648Z</time></trkpt><trkpt lat="43.8588168" lon="12.6729767"><ele>378.0</ele><time>2026-04-18T09:06:21.651Z</time></trkpt><trkpt lat="43.8587916" lon="12.6728324"><ele>378.0</ele><time>2026-04-18T09:06:22.647Z</time></trkpt><trkpt lat="43.8587291" lon="12.6727009"><ele>378.0</ele><time>2026-04-18T09:06:23.648Z</time></trkpt><trkpt lat="43.8586297" lon="12.6726094"><ele>378.0</ele><time>2026-04-18T09:06:24.648Z</time></trkpt><trkpt lat="43.8585094" lon="12.6725469"><ele>378.25</ele><time>2026-04-18T09:06:25.648Z</time></trkpt><trkpt lat="43.8583844" lon="12.6724976"><ele>378.5</ele><time>2026-04-18T09:06:26.658Z</time></trkpt><trkpt lat="43.8582628" lon="12.6724475"><ele>378.75</ele><time>2026-04-18T09:06:27.648Z</time></trkpt><trkpt lat="43.858148" lon="12.672397"><ele>379.0</ele><time>2026-04-18T09:06:28.649Z</time></trkpt><trkpt lat="43.8580371" lon="12.6723491"><ele>379.0</ele><time>2026-04-18T09:06:29.648Z</time></trkpt><trkpt lat="43.8579309" lon="12.6722975"><ele>379.0</ele><time>2026-04-18T09:06:30.649Z</time></trkpt><trkpt lat="43.8578285" lon="12.6722489"><ele>379.0</ele><time>2026-04-18T09:06:31.648Z</time></trkpt><trkpt lat="43.8577279" lon="12.6722113"><ele>379.0</ele><time>2026-04-18T09:06:32.65Z</time></trkpt><trkpt lat="43.8576436" lon="12.6721698"><ele>379.0</ele><time>2026-04-18T09:06:33.647Z</time></trkpt><trkpt lat="43.8575687" lon="12.6721254"><ele>379.2</ele><time>2026-04-18T09:06:34.649Z</time></trkpt><trkpt lat="43.857504" lon="12.6720809"><ele>379.4</ele><time>2026-04-18T09:06:35.649Z</time></trkpt><trkpt lat="43.8574164" lon="12.6719658"><ele>379.6</ele><time>2026-04-18T09:06:37.648Z</time></trkpt><trkpt lat="43.8573268" lon="12.6719166"><ele>379.8</ele><time>2026-04-18T09:06:39.646Z</time></trkpt><trkpt lat="43.8571932" lon="12.6719478"><ele>380.0</ele><time>2026-04-18T09:06:41.647Z</time></trkpt><trkpt lat="43.8571124" lon="12.6719414"><ele>380.5</ele><time>2026-04-18T09:06:42.648Z</time></trkpt><trkpt lat="43.8570301" lon="12.6719102"><ele>381.0</ele><time>2026-04-18T09:06:43.649Z</time></trkpt><trkpt lat="43.8569499" lon="12.6718743"><ele>381.5</ele><time>2026-04-18T09:06:44.649Z</time></trkpt><trkpt lat="43.8568785" lon="12.6718362"><ele>382.0</ele><time>2026-04-18T09:06:45.647Z</time></trkpt><trkpt lat="43.8568139" lon="12.6717975"><ele>382.5</ele><time>2026-04-18T09:06:46.648Z</time></trkpt><trkpt lat="43.8567328" lon="12.6717597"><ele>383.0</ele><time>2026-04-18T09:06:47.647Z</time></trkpt><trkpt lat="43.8566324" lon="12.6717163"><ele>383.79999999999995</ele><time>2026-04-18T09:06:48.648Z</time></trkpt><trkpt lat="43.8565268" lon="12.671701"><ele>384.6</ele><time>2026-04-18T09:06:49.647Z</time></trkpt><trkpt lat="43.8564365" lon="12.6717123"><ele>385.4</ele><time>2026-04-18T09:06:50.648Z</time></trkpt><trkpt lat="43.8563638" lon="12.6717272"><ele>386.20000000000005</ele><time>2026-04-18T09:06:51.647Z</time></trkpt><trkpt lat="43.8562519" lon="12.6717631"><ele>387.0</ele><time>2026-04-18T09:06:53.648Z</time></trkpt><trkpt lat="43.8561601" lon="12.671876"><ele>387.0</ele><time>2026-04-18T09:06:55.647Z</time></trkpt><trkpt lat="43.8560822" lon="12.6719312"><ele>387.0</ele><time>2026-04-18T09:06:56.648Z</time></trkpt><trkpt lat="43.8559716" lon="12.6719792"><ele>387.0</ele><time>2026-04-18T09:06:57.648Z</time></trkpt><trkpt lat="43.8558235" lon="12.6720133"><ele>387.0</ele><time>2026-04-18T09:06:58.648Z</time></trkpt><trkpt lat="43.8556516" lon="12.672044"><ele>383.0</ele><time>2026-04-18T09:06:59.648Z</time></trkpt><trkpt lat="43.8554749" lon="12.6720592"><ele>379.0</ele><time>2026-04-18T09:07:00.649Z</time></trkpt><trkpt lat="43.855305" lon="12.672058"><ele>375.0</ele><time>2026-04-18T09:07:01.648Z</time></trkpt><trkpt lat="43.8551354" lon="12.6720326"><ele>373.0</ele><time>2026-04-18T09:07:02.648Z</time></trkpt><trkpt lat="43.8549721" lon="12.6719869"><ele>371.0</ele><time>2026-04-18T09:07:03.652Z</time></trkpt><trkpt lat="43.8548202" lon="12.671949"><ele>369.0</ele><time>2026-04-18T09:07:04.648Z</time></trkpt><trkpt lat="43.8546742" lon="12.6719243"><ele>369.0</ele><time>2026-04-18T09:07:05.648Z</time></trkpt><trkpt lat="43.8545339" lon="12.6719365"><ele>369.0</ele><time>2026-04-18T09:07:06.649Z</time></trkpt><trkpt lat="43.8543966" lon="12.6719508"><ele>369.0</ele><time>2026-04-18T09:07:07.648Z</time></trkpt><trkpt lat="43.8542582" lon="12.6719692"><ele>369.0</ele><time>2026-04-18T09:07:08.649Z</time></trkpt><trkpt lat="43.854136" lon="12.6719888"><ele>367.6</ele><time>2026-04-18T09:07:09.648Z</time></trkpt><trkpt lat="43.8540199" lon="12.6720157"><ele>366.2</ele><time>2026-04-18T09:07:10.648Z</time></trkpt><trkpt lat="43.8539084" lon="12.6720343"><ele>364.8</ele><time>2026-04-18T09:07:11.647Z</time></trkpt><trkpt lat="43.8538003" lon="12.6720387"><ele>363.40000000000003</ele><time>2026-04-18T09:07:12.648Z</time></trkpt><trkpt lat="43.853698" lon="12.6720333"><ele>362.0</ele><time>2026-04-18T09:07:13.648Z</time></trkpt><trkpt lat="43.8535942" lon="12.6720194"><ele>362.0</ele><time>2026-04-18T09:07:14.648Z</time></trkpt><trkpt lat="43.8534884" lon="12.6719961"><ele>362.0</ele><time>2026-04-18T09:07:15.648Z</time></trkpt><trkpt lat="43.8533797" lon="12.6719627"><ele>362.0</ele><time>2026-04-18T09:07:16.648Z</time></trkpt><trkpt lat="43.853269" lon="12.6719281"><ele>362.0</ele><time>2026-04-18T09:07:17.648Z</time></trkpt><trkpt lat="43.8531632" lon="12.6718856"><ele>362.0</ele><time>2026-04-18T09:07:18.648Z</time></trkpt><trkpt lat="43.853066" lon="12.6718382"><ele>365.40000000000003</ele><time>2026-04-18T09:07:19.648Z</time></trkpt><trkpt lat="43.8529728" lon="12.6717906"><ele>368.8</ele><time>2026-04-18T09:07:20.65Z</time></trkpt><trkpt lat="43.8528816" lon="12.6717422"><ele>372.2</ele><time>2026-04-18T09:07:21.649Z</time></trkpt><trkpt lat="43.8527954" lon="12.6716777"><ele>375.6</ele><time>2026-04-18T09:07:22.648Z</time></trkpt><trkpt lat="43.8527108" lon="12.6716116"><ele>379.0</ele><time>2026-04-18T09:07:23.647Z</time></trkpt><trkpt lat="43.8526361" lon="12.6715305"><ele>376.79999999999995</ele><time>2026-04-18T09:07:24.648Z</time></trkpt><trkpt lat="43.8525696" lon="12.6714236"><ele>374.59999999999997</ele><time>2026-04-18T09:07:25.647Z</time></trkpt><trkpt lat="43.8525076" lon="12.6713048"><ele>372.4</ele><time>2026-04-18T09:07:26.649Z</time></trkpt><trkpt lat="43.8524406" lon="12.6711939"><ele>370.2</ele><time>2026-04-18T09:07:27.647Z</time></trkpt><trkpt lat="43.8523745" lon="12.6710937"><ele>368.0</ele><time>2026-04-18T09:07:28.649Z</time></trkpt><trkpt lat="43.8523204" lon="12.6709982"><ele>368.0</ele><time>2026-04-18T09:07:29.648Z</time></trkpt><trkpt lat="43.85227" lon="12.6709103"><ele>368.0</ele><time>2026-04-18T09:07:30.648Z</time></trkpt><trkpt lat="43.8522344" lon="12.6708151"><ele>368.0</ele><time>2026-04-18T09:07:31.648Z</time></trkpt><trkpt lat="43.8522184" lon="12.6707158"><ele>368.0</ele><time>2026-04-18T09:07:32.651Z</time></trkpt><trkpt lat="43.8522114" lon="12.6706231"><ele>368.0</ele><time>2026-04-18T09:07:33.653Z</time></trkpt><trkpt lat="43.8522167" lon="12.670525"><ele>368.0</ele><time>2026-04-18T09:07:34.65Z</time></trkpt><trkpt lat="43.8522384" lon="12.6704278"><ele>368.0</ele><time>2026-04-18T09:07:35.647Z</time></trkpt><trkpt lat="43.8522862" lon="12.6703325"><ele>366.6666666666667</ele><time>2026-04-18T09:07:36.648Z</time></trkpt><trkpt lat="43.8523516" lon="12.6702397"><ele>365.33333333333337</ele><time>2026-04-18T09:07:37.647Z</time></trkpt><trkpt lat="43.8524208" lon="12.6701513"><ele>364.0</ele><time>2026-04-18T09:07:38.648Z</time></trkpt><trkpt lat="43.8524862" lon="12.6700653"><ele>362.6666666666667</ele><time>2026-04-18T09:07:39.649Z</time></trkpt><trkpt lat="43.8525477" lon="12.6699844"><ele>361.3333333333333</ele><time>2026-04-18T09:07:40.65Z</time></trkpt><trkpt lat="43.8526043" lon="12.6699106"><ele>360.0</ele><time>2026-04-18T09:07:41.648Z</time></trkpt><trkpt lat="43.8526581" lon="12.6698548"><ele>360.0</ele><time>2026-04-18T09:07:42.647Z</time></trkpt><trkpt lat="43.8527385" lon="12.6697387"><ele>360.0</ele><time>2026-04-18T09:07:44.654Z</time></trkpt><trkpt lat="43.8526847" lon="12.6696143"><ele>360.0</ele><time>2026-04-18T09:07:46.647Z</time></trkpt><trkpt lat="43.8526016" lon="12.6696291"><ele>360.0</ele><time>2026-04-18T09:07:47.649Z</time></trkpt><trkpt lat="43.8525129" lon="12.6696991"><ele>360.0</ele><time>2026-04-18T09:07:48.647Z</time></trkpt><trkpt lat="43.8524299" lon="12.6698064"><ele>359.2</ele><time>2026-04-18T09:07:49.647Z</time></trkpt><trkpt lat="43.85235" lon="12.6699148"><ele>358.4</ele><time>2026-04-18T09:07:50.647Z</time></trkpt><trkpt lat="43.852284" lon="12.670007"><ele>357.6</ele><time>2026-04-18T09:07:51.647Z</time></trkpt><trkpt lat="43.8522229" lon="12.6700738"><ele>356.8</ele><time>2026-04-18T09:07:52.648Z</time></trkpt><trkpt lat="43.8521631" lon="12.670117"><ele>356.0</ele><time>2026-04-18T09:07:53.649Z</time></trkpt><trkpt lat="43.8520549" lon="12.6700332"><ele>356.0</ele><time>2026-04-18T09:07:55.647Z</time></trkpt><trkpt lat="43.8520302" lon="12.6699423"><ele>356.0</ele><time>2026-04-18T09:07:56.647Z</time></trkpt><trkpt lat="43.8520657" lon="12.6698295"><ele>356.0</ele><time>2026-04-18T09:07:57.649Z</time></trkpt><trkpt lat="43.8521521" lon="12.6697225"><ele>356.0</ele><time>2026-04-18T09:07:58.654Z</time></trkpt><trkpt lat="43.8522482" lon="12.6696254"><ele>356.0</ele><time>2026-04-18T09:07:59.649Z</time></trkpt><trkpt lat="43.8523445" lon="12.6695319"><ele>356.0</ele><time>2026-04-18T09:08:00.646Z</time></trkpt><trkpt lat="43.8524347" lon="12.6694497"><ele>356.0</ele><time>2026-04-18T09:08:01.646Z</time></trkpt><trkpt lat="43.8525172" lon="12.6693806"><ele>356.0</ele><time>2026-04-18T09:08:02.647Z</time></trkpt><trkpt lat="43.8525922" lon="12.6693282"><ele>356.0</ele><time>2026-04-18T09:08:03.646Z</time></trkpt><trkpt lat="43.8526554" lon="12.669281"><ele>356.0</ele><time>2026-04-18T09:08:04.648Z</time></trkpt><trkpt lat="43.8527369" lon="12.6691634"><ele>351.8</ele><time>2026-04-18T09:08:06.646Z</time></trkpt><trkpt lat="43.8526952" lon="12.6690292"><ele>347.6</ele><time>2026-04-18T09:08:08.647Z</time></trkpt><trkpt lat="43.8526156" lon="12.669039"><ele>343.4</ele><time>2026-04-18T09:08:09.646Z</time></trkpt><trkpt lat="43.852527" lon="12.6690817"><ele>339.2</ele><time>2026-04-18T09:08:10.646Z</time></trkpt><trkpt lat="43.8524233" lon="12.6691759"><ele>335.0</ele><time>2026-04-18T09:08:11.646Z</time></trkpt><trkpt lat="43.8523023" lon="12.6692277"><ele>335.0</ele><time>2026-04-18T09:08:12.647Z</time></trkpt><trkpt lat="43.8521833" lon="12.6692524"><ele>335.0</ele><time>2026-04-18T09:08:13.646Z</time></trkpt><trkpt lat="43.8520723" lon="12.6692249"><ele>335.0</ele><time>2026-04-18T09:08:14.647Z</time></trkpt><trkpt lat="43.8519769" lon="12.6691618"><ele>335.0</ele><time>2026-04-18T09:08:15.645Z</time></trkpt><trkpt lat="43.8518909" lon="12.6690888"><ele>335.0</ele><time>2026-04-18T09:08:16.646Z</time></trkpt><trkpt lat="43.8518152" lon="12.6690282"><ele>333.4</ele><time>2026-04-18T09:08:17.645Z</time></trkpt><trkpt lat="43.8517479" lon="12.6689861"><ele>331.8</ele><time>2026-04-18T09:08:18.647Z</time></trkpt><trkpt lat="43.8516364" lon="12.6689874"><ele>330.20000000000005</ele><time>2026-04-18T09:08:20.646Z</time></trkpt><trkpt lat="43.8515476" lon="12.6691165"><ele>328.6</ele><time>2026-04-18T09:08:22.646Z</time></trkpt><trkpt lat="43.8515038" lon="12.6692041"><ele>327.0</ele><time>2026-04-18T09:08:23.646Z</time></trkpt><trkpt lat="43.8514745" lon="12.6693218"><ele>328.20000000000005</ele><time>2026-04-18T09:08:24.646Z</time></trkpt><trkpt lat="43.8514471" lon="12.6694619"><ele>329.4</ele><time>2026-04-18T09:08:25.646Z</time></trkpt><trkpt lat="43.8514166" lon="12.6696115"><ele>330.6</ele><time>2026-04-18T09:08:26.647Z</time></trkpt><trkpt lat="43.8513833" lon="12.6697568"><ele>331.79999999999995</ele><time>2026-04-18T09:08:27.646Z</time></trkpt><trkpt lat="43.8513479" lon="12.6698914"><ele>333.0</ele><time>2026-04-18T09:08:28.647Z</time></trkpt><trkpt lat="43.8513167" lon="12.6700148"><ele>333.0</ele><time>2026-04-18T09:08:29.647Z</time></trkpt><trkpt lat="43.8512852" lon="12.6701334"><ele>333.0</ele><time>2026-04-18T09:08:30.647Z</time></trkpt><trkpt lat="43.8512537" lon="12.6702498"><ele>333.0</ele><time>2026-04-18T09:08:31.647Z</time></trkpt><trkpt lat="43.8512233" lon="12.6703668"><ele>333.0</ele><time>2026-04-18T09:08:32.647Z</time></trkpt><trkpt lat="43.8511865" lon="12.6704811"><ele>333.0</ele><time>2026-04-18T09:08:33.647Z</time></trkpt><trkpt lat="43.8511346" lon="12.6705759"><ele>333.0</ele><time>2026-04-18T09:08:34.647Z</time></trkpt><trkpt lat="43.8510564" lon="12.670644"><ele>334.4</ele><time>2026-04-18T09:08:35.648Z</time></trkpt><trkpt lat="43.8509645" lon="12.6706896"><ele>335.79999999999995</ele><time>2026-04-18T09:08:36.647Z</time></trkpt><trkpt lat="43.8508607" lon="12.6707179"><ele>337.2</ele><time>2026-04-18T09:08:37.646Z</time></trkpt><trkpt lat="43.8507605" lon="12.6707336"><ele>338.6</ele><time>2026-04-18T09:08:38.646Z</time></trkpt><trkpt lat="43.850669" lon="12.6707396"><ele>340.0</ele><time>2026-04-18T09:08:39.647Z</time></trkpt><trkpt lat="43.8505796" lon="12.670739"><ele>336.0</ele><time>2026-04-18T09:08:40.646Z</time></trkpt><trkpt lat="43.8505066" lon="12.6707381"><ele>332.0</ele><time>2026-04-18T09:08:41.646Z</time></trkpt><trkpt lat="43.8503995" lon="12.6707248"><ele>328.0</ele><time>2026-04-18T09:08:43.646Z</time></trkpt><trkpt lat="43.8503297" lon="12.6707591"><ele>324.0</ele><time>2026-04-18T09:08:45.646Z</time></trkpt><trkpt lat="43.8502633" lon="12.6708167"><ele>320.0</ele><time>2026-04-18T09:09:01.648Z</time></trkpt><trkpt lat="43.850195" lon="12.67089"><ele>316.0</ele><time>2026-04-18T09:09:03.647Z</time></trkpt><trkpt lat="43.8501317" lon="12.6709833"><ele>316.5714285714286</ele><time>2026-04-18T09:09:05.648Z</time></trkpt><trkpt lat="43.8501067" lon="12.6710767"><ele>317.14285714285717</ele><time>2026-04-18T09:09:06.647Z</time></trkpt><trkpt lat="43.8500833" lon="12.67117"><ele>317.7142857142857</ele><time>2026-04-18T09:09:07.647Z</time></trkpt><trkpt lat="43.8500583" lon="12.671265"><ele>318.28571428571433</ele><time>2026-04-18T09:09:08.651Z</time></trkpt><trkpt lat="43.8500383" lon="12.6713567"><ele>318.8571428571429</ele><time>2026-04-18T09:09:09.647Z</time></trkpt><trkpt lat="43.8500217" lon="12.6714567"><ele>319.42857142857144</ele><time>2026-04-18T09:09:10.646Z</time></trkpt><trkpt lat="43.850005" lon="12.6715467"><ele>320.0</ele><time>2026-04-18T09:09:11.647Z</time></trkpt><trkpt lat="43.8499767" lon="12.6716883"><ele>320.0</ele><time>2026-04-18T09:09:13.647Z</time></trkpt><trkpt lat="43.8499517" lon="12.6718167"><ele>320.0</ele><time>2026-04-18T09:09:15.646Z</time></trkpt><trkpt lat="43.84993" lon="12.6719467"><ele>320.0</ele><time>2026-04-18T09:09:17.647Z</time></trkpt><trkpt lat="43.84989" lon="12.6720667"><ele>320.0</ele><time>2026-04-18T09:09:19.647Z</time></trkpt><trkpt lat="43.849835" lon="12.6721917"><ele>320.0</ele><time>2026-04-18T09:09:21.646Z</time></trkpt><trkpt lat="43.8497667" lon="12.6722833"><ele>317.33333333333337</ele><time>2026-04-18T09:09:23.647Z</time></trkpt><trkpt lat="43.849705" lon="12.6723467"><ele>314.6666666666667</ele><time>2026-04-18T09:09:25.649Z</time></trkpt><trkpt lat="43.8496367" lon="12.67239"><ele>312.0</ele><time>2026-04-18T09:09:27.649Z</time></trkpt><trkpt lat="43.8495717" lon="12.6724367"><ele>309.3333333333333</ele><time>2026-04-18T09:09:29.646Z</time></trkpt><trkpt lat="43.8495017" lon="12.672495"><ele>306.66666666666663</ele><time>2026-04-18T09:09:31.646Z</time></trkpt><trkpt lat="43.8494483" lon="12.6725767"><ele>304.0</ele><time>2026-04-18T09:09:33.646Z</time></trkpt><trkpt lat="43.8493933" lon="12.6726367"><ele>304.0</ele><time>2026-04-18T09:09:35.646Z</time></trkpt><trkpt lat="43.8493283" lon="12.6727067"><ele>304.0</ele><time>2026-04-18T09:09:38.647Z</time></trkpt><trkpt lat="43.8492583" lon="12.6727317"><ele>304.0</ele><time>2026-04-18T09:09:41.647Z</time></trkpt><trkpt lat="43.8491967" lon="12.6726983"><ele>304.0</ele><time>2026-04-18T09:09:43.647Z</time></trkpt><trkpt lat="43.849135" lon="12.6726267"><ele>304.0</ele><time>2026-04-18T09:09:45.646Z</time></trkpt><trkpt lat="43.8490833" lon="12.6725233"><ele>304.0</ele><time>2026-04-18T09:09:47.645Z</time></trkpt><trkpt lat="43.8490183" lon="12.672415"><ele>306.8</ele><time>2026-04-18T09:09:49.646Z</time></trkpt><trkpt lat="43.8489583" lon="12.672325"><ele>309.59999999999997</ele><time>2026-04-18T09:09:51.647Z</time></trkpt><trkpt lat="43.8488817" lon="12.67224"><ele>312.4</ele><time>2026-04-18T09:09:53.646Z</time></trkpt><trkpt lat="43.8488093" lon="12.6721329"><ele>315.2</ele><time>2026-04-18T09:09:55.647Z</time></trkpt><trkpt lat="43.8487359" lon="12.672033"><ele>318.0</ele><time>2026-04-18T09:09:57.648Z</time></trkpt><trkpt lat="43.8486605" lon="12.6719379"><ele>317.6</ele><time>2026-04-18T09:09:59.647Z</time></trkpt><trkpt lat="43.8485757" lon="12.6718655"><ele>317.20000000000005</ele><time>2026-04-18T09:10:01.692Z</time></trkpt><trkpt lat="43.8484794" lon="12.6718235"><ele>316.8</ele><time>2026-04-18T09:10:03.647Z</time></trkpt><trkpt lat="43.8483821" lon="12.6717896"><ele>316.40000000000003</ele><time>2026-04-18T09:10:05.647Z</time></trkpt><trkpt lat="43.8482983" lon="12.6717728"><ele>316.0</ele><time>2026-04-18T09:10:07.647Z</time></trkpt><trkpt lat="43.8482063" lon="12.6717653"><ele>316.0</ele><time>2026-04-18T09:10:09.646Z</time></trkpt><trkpt lat="43.8481087" lon="12.6717681"><ele>316.0</ele><time>2026-04-18T09:10:11.647Z</time></trkpt><trkpt lat="43.8480089" lon="12.6717742"><ele>316.0</ele><time>2026-04-18T09:10:13.646Z</time></trkpt><trkpt lat="43.8478966" lon="12.6717331"><ele>316.0</ele><time>2026-04-18T09:10:15.646Z</time></trkpt><trkpt lat="43.8477946" lon="12.6716764"><ele>316.0</ele><time>2026-04-18T09:10:17.646Z</time></trkpt><trkpt lat="43.8477196" lon="12.6716482"><ele>316.0</ele><time>2026-04-18T09:10:19.646Z</time></trkpt><trkpt lat="43.8476374" lon="12.6716448"><ele>316.0</ele><time>2026-04-18T09:10:22.646Z</time></trkpt><trkpt lat="43.8475797" lon="12.6716824"><ele>316.0</ele><time>2026-04-18T09:10:24.646Z</time></trkpt><trkpt lat="43.8474973" lon="12.6717609"><ele>316.0</ele><time>2026-04-18T09:10:26.646Z</time></trkpt><trkpt lat="43.847435" lon="12.6718512"><ele>316.0</ele><time>2026-04-18T09:10:28.646Z</time></trkpt><trkpt lat="43.8473744" lon="12.6719336"><ele>316.0</ele><time>2026-04-18T09:10:30.646Z</time></trkpt><trkpt lat="43.8473151" lon="12.6719889"><ele>315.2</ele><time>2026-04-18T09:10:32.647Z</time></trkpt><trkpt lat="43.8472262" lon="12.6719829"><ele>314.40000000000003</ele><time>2026-04-18T09:10:34.646Z</time></trkpt><trkpt lat="43.8471466" lon="12.6719582"><ele>313.6</ele><time>2026-04-18T09:10:36.646Z</time></trkpt><trkpt lat="43.8470785" lon="12.6719398"><ele>312.8</ele><time>2026-04-18T09:10:39.645Z</time></trkpt><trkpt lat="43.8472203" lon="12.6719556"><ele>312.0</ele><time>2026-04-18T09:12:48.615Z</time></trkpt><trkpt lat="43.8473338" lon="12.6719205"><ele>312.0</ele><time>2026-04-18T09:12:51.759Z</time></trkpt><trkpt lat="43.847387" lon="12.6718669"><ele>312.0</ele><time>2026-04-18T09:12:53.614Z</time></trkpt><trkpt lat="43.847519" lon="12.671679"><ele>312.0</ele><time>2026-04-18T09:12:57.669Z</time></trkpt><trkpt lat="43.8476409" lon="12.671655"><ele>312.0</ele><time>2026-04-18T09:12:59.574Z</time></trkpt><trkpt lat="43.8477057" lon="12.6716623"><ele>312.0</ele><time>2026-04-18T09:13:00.636Z</time></trkpt><trkpt lat="43.8478265" lon="12.6716982"><ele>313.0</ele><time>2026-04-18T09:13:01.701Z</time></trkpt><trkpt lat="43.8480065" lon="12.6717585"><ele>314.0</ele><time>2026-04-18T09:13:03.679Z</time></trkpt><trkpt lat="43.8481028" lon="12.671772"><ele>315.0</ele><time>2026-04-18T09:13:04.681Z</time></trkpt><trkpt lat="43.8481895" lon="12.6717758"><ele>316.0</ele><time>2026-04-18T09:13:05.682Z</time></trkpt><trkpt lat="43.8483365" lon="12.6717922"><ele>316.5</ele><time>2026-04-18T09:13:07.686Z</time></trkpt><trkpt lat="43.848496" lon="12.671815"><ele>317.0</ele><time>2026-04-18T09:13:09.689Z</time></trkpt><trkpt lat="43.8486409" lon="12.6718865"><ele>317.5</ele><time>2026-04-18T09:13:11.692Z</time></trkpt><trkpt lat="43.8487389" lon="12.6719823"><ele>318.0</ele><time>2026-04-18T09:13:12.644Z</time></trkpt><trkpt lat="43.8488246" lon="12.6720798"><ele>318.0</ele><time>2026-04-18T09:13:13.645Z</time></trkpt><trkpt lat="43.8488919" lon="12.6721652"><ele>318.0</ele><time>2026-04-18T09:13:14.645Z</time></trkpt><trkpt lat="43.8489534" lon="12.6722689"><ele>318.0</ele><time>2026-04-18T09:13:15.644Z</time></trkpt><trkpt lat="43.8490147" lon="12.6723771"><ele>318.0</ele><time>2026-04-18T09:13:16.644Z</time></trkpt><trkpt lat="43.8490721" lon="12.6724745"><ele>318.0</ele><time>2026-04-18T09:13:17.644Z</time></trkpt><trkpt lat="43.8491194" lon="12.6725584"><ele>318.0</ele><time>2026-04-18T09:13:18.645Z</time></trkpt><trkpt lat="43.8491623" lon="12.672636"><ele>318.0</ele><time>2026-04-18T09:13:19.644Z</time></trkpt><trkpt lat="43.8492465" lon="12.6727376"><ele>318.0</ele><time>2026-04-18T09:13:21.644Z</time></trkpt><trkpt lat="43.8493473" lon="12.6727092"><ele>318.0</ele><time>2026-04-18T09:13:23.644Z</time></trkpt><trkpt lat="43.8494549" lon="12.6725884"><ele>318.0</ele><time>2026-04-18T09:13:25.643Z</time></trkpt><trkpt lat="43.8495224" lon="12.6725072"><ele>315.6666666666667</ele><time>2026-04-18T09:13:26.645Z</time></trkpt><trkpt lat="43.8495946" lon="12.6724396"><ele>313.3333333333333</ele><time>2026-04-18T09:13:27.644Z</time></trkpt><trkpt lat="43.8496613" lon="12.6723871"><ele>311.0</ele><time>2026-04-18T09:13:28.644Z</time></trkpt><trkpt lat="43.8497282" lon="12.6723368"><ele>308.66666666666663</ele><time>2026-04-18T09:13:29.643Z</time></trkpt><trkpt lat="43.8497915" lon="12.6722866"><ele>306.3333333333333</ele><time>2026-04-18T09:13:30.645Z</time></trkpt><trkpt lat="43.8498684" lon="12.672204"><ele>304.0</ele><time>2026-04-18T09:13:32.644Z</time></trkpt><trkpt lat="43.849914" lon="12.6720768"><ele>304.0</ele><time>2026-04-18T09:13:34.643Z</time></trkpt><trkpt lat="43.8499352" lon="12.6719849"><ele>304.0</ele><time>2026-04-18T09:13:35.643Z</time></trkpt><trkpt lat="43.8499577" lon="12.6718778"><ele>304.0</ele><time>2026-04-18T09:13:36.645Z</time></trkpt><trkpt lat="43.8499778" lon="12.6717731"><ele>304.0</ele><time>2026-04-18T09:13:37.643Z</time></trkpt><trkpt lat="43.8499985" lon="12.6716677"><ele>304.0</ele><time>2026-04-18T09:13:38.646Z</time></trkpt><trkpt lat="43.8500196" lon="12.6715674"><ele>304.0</ele><time>2026-04-18T09:13:39.644Z</time></trkpt><trkpt lat="43.8500385" lon="12.6714746"><ele>306.4</ele><time>2026-04-18T09:13:40.644Z</time></trkpt><trkpt lat="43.8500633" lon="12.6713287"><ele>308.79999999999995</ele><time>2026-04-18T09:13:42.643Z</time></trkpt><trkpt lat="43.8501044" lon="12.6711918"><ele>311.20000000000005</ele><time>2026-04-18T09:13:44.644Z</time></trkpt><trkpt lat="43.8501509" lon="12.6710614"><ele>313.6</ele><time>2026-04-18T09:13:46.644Z</time></trkpt><trkpt lat="43.8501973" lon="12.6709297"><ele>316.0</ele><time>2026-04-18T09:13:48.645Z</time></trkpt><trkpt lat="43.8502518" lon="12.6708357"><ele>316.0</ele><time>2026-04-18T09:13:50.644Z</time></trkpt><trkpt lat="43.8503057" lon="12.6707851"><ele>316.0</ele><time>2026-04-18T09:13:52.644Z</time></trkpt><trkpt lat="43.8503397" lon="12.6707088"><ele>316.0</ele><time>2026-04-18T09:13:56.644Z</time></trkpt><trkpt lat="43.8503068" lon="12.6706162"><ele>316.0</ele><time>2026-04-18T09:13:58.643Z</time></trkpt><trkpt lat="43.8502184" lon="12.6704958"><ele>316.0</ele><time>2026-04-18T09:14:00.644Z</time></trkpt><trkpt lat="43.850164" lon="12.67042"><ele>316.0</ele><time>2026-04-18T09:14:01.643Z</time></trkpt><trkpt lat="43.8501065" lon="12.6703349"><ele>316.6</ele><time>2026-04-18T09:14:02.644Z</time></trkpt><trkpt lat="43.8500492" lon="12.6702367"><ele>317.20000000000005</ele><time>2026-04-18T09:14:03.642Z</time></trkpt><trkpt lat="43.8499961" lon="12.6701311"><ele>317.79999999999995</ele><time>2026-04-18T09:14:04.643Z</time></trkpt><trkpt lat="43.8499444" lon="12.6700117"><ele>318.4</ele><time>2026-04-18T09:14:05.643Z</time></trkpt><trkpt lat="43.8498921" lon="12.6698922"><ele>319.0</ele><time>2026-04-18T09:14:06.643Z</time></trkpt><trkpt lat="43.8498399" lon="12.6697811"><ele>319.0</ele><time>2026-04-18T09:14:07.643Z</time></trkpt><trkpt lat="43.8497824" lon="12.6696764"><ele>319.0</ele><time>2026-04-18T09:14:08.644Z</time></trkpt><trkpt lat="43.8497285" lon="12.6695724"><ele>319.0</ele><time>2026-04-18T09:14:09.643Z</time></trkpt><trkpt lat="43.8496667" lon="12.6694792"><ele>319.0</ele><time>2026-04-18T09:14:10.643Z</time></trkpt><trkpt lat="43.8495984" lon="12.6693986"><ele>319.0</ele><time>2026-04-18T09:14:11.644Z</time></trkpt><trkpt lat="43.8495254" lon="12.6693205"><ele>319.2</ele><time>2026-04-18T09:14:12.644Z</time></trkpt><trkpt lat="43.8494338" lon="12.6692784"><ele>319.4</ele><time>2026-04-18T09:14:13.644Z</time></trkpt><trkpt lat="43.8493456" lon="12.6692396"><ele>319.6</ele><time>2026-04-18T09:14:14.645Z</time></trkpt><trkpt lat="43.8492596" lon="12.6692141"><ele>319.8</ele><time>2026-04-18T09:14:15.643Z</time></trkpt><trkpt lat="43.8491676" lon="12.6691883"><ele>320.0</ele><time>2026-04-18T09:14:16.645Z</time></trkpt><trkpt lat="43.8490758" lon="12.669154"><ele>320.0</ele><time>2026-04-18T09:14:17.643Z</time></trkpt><trkpt lat="43.8489994" lon="12.6690921"><ele>320.0</ele><time>2026-04-18T09:14:18.644Z</time></trkpt><trkpt lat="43.848928" lon="12.6690319"><ele>320.0</ele><time>2026-04-18T09:14:19.642Z</time></trkpt><trkpt lat="43.8488604" lon="12.6689147"><ele>320.0</ele><time>2026-04-18T09:14:20.644Z</time></trkpt><trkpt lat="43.8487913" lon="12.6687874"><ele>320.0</ele><time>2026-04-18T09:14:21.644Z</time></trkpt><trkpt lat="43.8487118" lon="12.668675"><ele>321.0</ele><time>2026-04-18T09:14:22.644Z</time></trkpt><trkpt lat="43.8486215" lon="12.6685804"><ele>322.0</ele><time>2026-04-18T09:14:23.644Z</time></trkpt><trkpt lat="43.848533" lon="12.6685005"><ele>323.0</ele><time>2026-04-18T09:14:24.644Z</time></trkpt><trkpt lat="43.8484453" lon="12.6684206"><ele>324.0</ele><time>2026-04-18T09:14:25.644Z</time></trkpt><trkpt lat="43.8483717" lon="12.668317"><ele>325.0</ele><time>2026-04-18T09:14:26.644Z</time></trkpt><trkpt lat="43.8483183" lon="12.6681987"><ele>325.0</ele><time>2026-04-18T09:14:27.643Z</time></trkpt><trkpt lat="43.8482777" lon="12.6680715"><ele>325.0</ele><time>2026-04-18T09:14:28.644Z</time></trkpt><trkpt lat="43.8482475" lon="12.6679462"><ele>325.0</ele><time>2026-04-18T09:14:29.644Z</time></trkpt><trkpt lat="43.8482166" lon="12.6678219"><ele>325.0</ele><time>2026-04-18T09:14:30.644Z</time></trkpt><trkpt lat="43.8481743" lon="12.6677052"><ele>325.0</ele><time>2026-04-18T09:14:31.643Z</time></trkpt><trkpt lat="43.8481244" lon="12.6676046"><ele>322.6</ele><time>2026-04-18T09:14:32.644Z</time></trkpt><trkpt lat="43.8480651" lon="12.6675182"><ele>320.2</ele><time>2026-04-18T09:14:33.644Z</time></trkpt><trkpt lat="43.8479908" lon="12.6674462"><ele>317.8</ele><time>2026-04-18T09:14:34.643Z</time></trkpt><trkpt lat="43.8478988" lon="12.6673945"><ele>315.4</ele><time>2026-04-18T09:14:35.644Z</time></trkpt><trkpt lat="43.8477987" lon="12.6673575"><ele>313.0</ele><time>2026-04-18T09:14:36.644Z</time></trkpt><trkpt lat="43.8476959" lon="12.6673226"><ele>315.8</ele><time>2026-04-18T09:14:37.644Z</time></trkpt><trkpt lat="43.8475943" lon="12.6672853"><ele>318.6</ele><time>2026-04-18T09:14:38.644Z</time></trkpt><trkpt lat="43.8474933" lon="12.6672476"><ele>321.40000000000003</ele><time>2026-04-18T09:14:39.644Z</time></trkpt><trkpt lat="43.8473903" lon="12.66721"><ele>324.20000000000005</ele><time>2026-04-18T09:14:40.644Z</time></trkpt><trkpt lat="43.847288" lon="12.6671722"><ele>327.0</ele><time>2026-04-18T09:14:41.644Z</time></trkpt><trkpt lat="43.8471838" lon="12.6671346"><ele>327.0</ele><time>2026-04-18T09:14:42.644Z</time></trkpt><trkpt lat="43.847079" lon="12.6670921"><ele>327.0</ele><time>2026-04-18T09:14:43.645Z</time></trkpt><trkpt lat="43.8469785" lon="12.6670442"><ele>327.0</ele><time>2026-04-18T09:14:44.644Z</time></trkpt><trkpt lat="43.8468963" lon="12.6669786"><ele>327.0</ele><time>2026-04-18T09:14:45.643Z</time></trkpt><trkpt lat="43.8468197" lon="12.6668994"><ele>327.0</ele><time>2026-04-18T09:14:46.645Z</time></trkpt><trkpt lat="43.8467449" lon="12.6668061"><ele>327.20000000000005</ele><time>2026-04-18T09:14:47.645Z</time></trkpt><trkpt lat="43.8466768" lon="12.6667038"><ele>327.4</ele><time>2026-04-18T09:14:48.646Z</time></trkpt><trkpt lat="43.8466291" lon="12.666585"><ele>327.6</ele><time>2026-04-18T09:14:49.643Z</time></trkpt><trkpt lat="43.846603" lon="12.666452"><ele>327.79999999999995</ele><time>2026-04-18T09:14:50.645Z</time></trkpt><trkpt lat="43.8465838" lon="12.6663214"><ele>328.0</ele><time>2026-04-18T09:14:51.644Z</time></trkpt><trkpt lat="43.8465628" lon="12.6661989"><ele>325.0</ele><time>2026-04-18T09:14:52.644Z</time></trkpt><trkpt lat="43.846513" lon="12.6660828"><ele>322.0</ele><time>2026-04-18T09:14:53.644Z</time></trkpt><trkpt lat="43.8464443" lon="12.6659806"><ele>319.0</ele><time>2026-04-18T09:14:54.644Z</time></trkpt><trkpt lat="43.8463605" lon="12.6658828"><ele>316.0</ele><time>2026-04-18T09:14:55.644Z</time></trkpt><trkpt lat="43.8462663" lon="12.6657941"><ele>313.0</ele><time>2026-04-18T09:14:56.645Z</time></trkpt><trkpt lat="43.8461752" lon="12.6657014"><ele>313.0</ele><time>2026-04-18T09:14:57.643Z</time></trkpt><trkpt lat="43.8460819" lon="12.6656113"><ele>313.0</ele><time>2026-04-18T09:14:58.644Z</time></trkpt><trkpt lat="43.8459889" lon="12.6655195"><ele>313.0</ele><time>2026-04-18T09:14:59.644Z</time></trkpt><trkpt lat="43.8459295" lon="12.6654139"><ele>313.0</ele><time>2026-04-18T09:15:00.645Z</time></trkpt><trkpt lat="43.8458791" lon="12.6653015"><ele>313.0</ele><time>2026-04-18T09:15:01.643Z</time></trkpt><trkpt lat="43.8458374" lon="12.6651803"><ele>314.0</ele><time>2026-04-18T09:15:02.645Z</time></trkpt><trkpt lat="43.8458001" lon="12.6650587"><ele>315.0</ele><time>2026-04-18T09:15:03.643Z</time></trkpt><trkpt lat="43.8457712" lon="12.664937"><ele>316.0</ele><time>2026-04-18T09:15:04.644Z</time></trkpt><trkpt lat="43.8457377" lon="12.6648269"><ele>317.0</ele><time>2026-04-18T09:15:05.644Z</time></trkpt><trkpt lat="43.845701" lon="12.6647332"><ele>318.0</ele><time>2026-04-18T09:15:06.644Z</time></trkpt><trkpt lat="43.8456663" lon="12.6646563"><ele>319.0</ele><time>2026-04-18T09:15:07.643Z</time></trkpt><trkpt lat="43.8455798" lon="12.6645465"><ele>319.0</ele><time>2026-04-18T09:15:09.643Z</time></trkpt><trkpt lat="43.8454458" lon="12.6645305"><ele>319.0</ele><time>2026-04-18T09:15:11.644Z</time></trkpt><trkpt lat="43.8453611" lon="12.6645767"><ele>319.0</ele><time>2026-04-18T09:15:12.643Z</time></trkpt><trkpt lat="43.8452792" lon="12.6646572"><ele>319.0</ele><time>2026-04-18T09:15:13.643Z</time></trkpt><trkpt lat="43.8452104" lon="12.6647658"><ele>319.0</ele><time>2026-04-18T09:15:14.644Z</time></trkpt><trkpt lat="43.8451442" lon="12.6648595"><ele>319.3333333333333</ele><time>2026-04-18T09:15:15.643Z</time></trkpt><trkpt lat="43.8450766" lon="12.6649362"><ele>319.66666666666663</ele><time>2026-04-18T09:15:16.643Z</time></trkpt><trkpt lat="43.8450111" lon="12.6649953"><ele>320.0</ele><time>2026-04-18T09:15:17.644Z</time></trkpt><trkpt lat="43.8449385" lon="12.6650063"><ele>320.3333333333333</ele><time>2026-04-18T09:15:18.646Z</time></trkpt><trkpt lat="43.8448536" lon="12.6649888"><ele>320.6666666666667</ele><time>2026-04-18T09:15:19.648Z</time></trkpt><trkpt lat="43.844758" lon="12.6649353"><ele>321.0</ele><time>2026-04-18T09:15:20.645Z</time></trkpt><trkpt lat="43.8446643" lon="12.6648751"><ele>321.0</ele><time>2026-04-18T09:15:21.645Z</time></trkpt><trkpt lat="43.8445675" lon="12.6648366"><ele>321.0</ele><time>2026-04-18T09:15:22.644Z</time></trkpt><trkpt lat="43.8444837" lon="12.6648308"><ele>321.0</ele><time>2026-04-18T09:15:23.645Z</time></trkpt><trkpt lat="43.8444065" lon="12.6648761"><ele>321.0</ele><time>2026-04-18T09:15:24.645Z</time></trkpt><trkpt lat="43.8443455" lon="12.6649764"><ele>321.0</ele><time>2026-04-18T09:15:25.645Z</time></trkpt><trkpt lat="43.844309" lon="12.6651176"><ele>319.6</ele><time>2026-04-18T09:15:26.645Z</time></trkpt><trkpt lat="43.8442801" lon="12.6652627"><ele>318.20000000000005</ele><time>2026-04-18T09:15:27.645Z</time></trkpt><trkpt lat="43.8442472" lon="12.6653988"><ele>316.79999999999995</ele><time>2026-04-18T09:15:28.645Z</time></trkpt><trkpt lat="43.8442031" lon="12.6655214"><ele>315.4</ele><time>2026-04-18T09:15:29.647Z</time></trkpt><trkpt lat="43.8441471" lon="12.6656267"><ele>314.0</ele><time>2026-04-18T09:15:30.645Z</time></trkpt><trkpt lat="43.8440806" lon="12.6657211"><ele>314.0</ele><time>2026-04-18T09:15:31.645Z</time></trkpt><trkpt lat="43.8440172" lon="12.6658187"><ele>314.0</ele><time>2026-04-18T09:15:32.645Z</time></trkpt><trkpt lat="43.843959" lon="12.6659186"><ele>314.0</ele><time>2026-04-18T09:15:33.645Z</time></trkpt><trkpt lat="43.8438993" lon="12.666028"><ele>314.0</ele><time>2026-04-18T09:15:34.647Z</time></trkpt><trkpt lat="43.8438216" lon="12.6661215"><ele>314.0</ele><time>2026-04-18T09:15:35.645Z</time></trkpt><trkpt lat="43.8437348" lon="12.6662021"><ele>312.0</ele><time>2026-04-18T09:15:36.645Z</time></trkpt><trkpt lat="43.8436385" lon="12.666267"><ele>310.0</ele><time>2026-04-18T09:15:37.645Z</time></trkpt><trkpt lat="43.843541" lon="12.6663229"><ele>308.0</ele><time>2026-04-18T09:15:38.645Z</time></trkpt><trkpt lat="43.8434499" lon="12.6663809"><ele>306.0</ele><time>2026-04-18T09:15:39.645Z</time></trkpt><trkpt lat="43.8433714" lon="12.6664659"><ele>304.0</ele><time>2026-04-18T09:15:40.645Z</time></trkpt><trkpt lat="43.8433073" lon="12.6665811"><ele>304.0</ele><time>2026-04-18T09:15:41.645Z</time></trkpt><trkpt lat="43.8432552" lon="12.66671"><ele>304.0</ele><time>2026-04-18T09:15:42.644Z</time></trkpt><trkpt lat="43.8432098" lon="12.6668398"><ele>304.0</ele><time>2026-04-18T09:15:43.644Z</time></trkpt><trkpt lat="43.8431535" lon="12.6669501"><ele>304.0</ele><time>2026-04-18T09:15:44.644Z</time></trkpt><trkpt lat="43.8430859" lon="12.667044"><ele>304.0</ele><time>2026-04-18T09:15:45.643Z</time></trkpt><trkpt lat="43.8430069" lon="12.6671392"><ele>304.5</ele><time>2026-04-18T09:15:46.643Z</time></trkpt><trkpt lat="43.8429187" lon="12.6672204"><ele>305.0</ele><time>2026-04-18T09:15:47.644Z</time></trkpt><trkpt lat="43.8428199" lon="12.6672564"><ele>305.5</ele><time>2026-04-18T09:15:48.642Z</time></trkpt><trkpt lat="43.8427" lon="12.6672316"><ele>306.0</ele><time>2026-04-18T09:15:49.644Z</time></trkpt><trkpt lat="43.8425782" lon="12.6671882"><ele>306.0</ele><time>2026-04-18T09:15:50.642Z</time></trkpt><trkpt lat="43.8424545" lon="12.6671535"><ele>306.0</ele><time>2026-04-18T09:15:51.643Z</time></trkpt><trkpt lat="43.8423327" lon="12.6671223"><ele>306.0</ele><time>2026-04-18T09:15:52.642Z</time></trkpt><trkpt lat="43.8422211" lon="12.6671126"><ele>306.0</ele><time>2026-04-18T09:15:53.643Z</time></trkpt><trkpt lat="43.8421164" lon="12.6671281"><ele>306.0</ele><time>2026-04-18T09:15:54.643Z</time></trkpt><trkpt lat="43.8420169" lon="12.6671469"><ele>306.0</ele><time>2026-04-18T09:15:55.643Z</time></trkpt><trkpt lat="43.8419239" lon="12.6671861"><ele>306.0</ele><time>2026-04-18T09:15:56.643Z</time></trkpt><trkpt lat="43.8418484" lon="12.6672586"><ele>306.0</ele><time>2026-04-18T09:15:57.644Z</time></trkpt><trkpt lat="43.841775" lon="12.6673363"><ele>306.0</ele><time>2026-04-18T09:15:58.642Z</time></trkpt><trkpt lat="43.8417023" lon="12.6674299"><ele>305.2</ele><time>2026-04-18T09:15:59.644Z</time></trkpt><trkpt lat="43.8416428" lon="12.6675579"><ele>304.40000000000003</ele><time>2026-04-18T09:16:00.644Z</time></trkpt><trkpt lat="43.8415811" lon="12.6676927"><ele>303.6</ele><time>2026-04-18T09:16:01.646Z</time></trkpt><trkpt lat="43.8415133" lon="12.6678215"><ele>302.8</ele><time>2026-04-18T09:16:02.643Z</time></trkpt><trkpt lat="43.8414383" lon="12.6679283"><ele>302.0</ele><time>2026-04-18T09:16:03.644Z</time></trkpt><trkpt lat="43.8413546" lon="12.6680141"><ele>302.0</ele><time>2026-04-18T09:16:04.641Z</time></trkpt><trkpt lat="43.841265" lon="12.6680952"><ele>302.0</ele><time>2026-04-18T09:16:05.643Z</time></trkpt><trkpt lat="43.8411693" lon="12.6681766"><ele>302.0</ele><time>2026-04-18T09:16:06.642Z</time></trkpt><trkpt lat="43.8410717" lon="12.668242"><ele>302.0</ele><time>2026-04-18T09:16:07.644Z</time></trkpt><trkpt lat="43.8409739" lon="12.6682868"><ele>302.0</ele><time>2026-04-18T09:16:08.643Z</time></trkpt><trkpt lat="43.8408703" lon="12.6683127"><ele>298.6</ele><time>2026-04-18T09:16:09.643Z</time></trkpt><trkpt lat="43.8407647" lon="12.6683248"><ele>295.2</ele><time>2026-04-18T09:16:10.647Z</time></trkpt><trkpt lat="43.8406539" lon="12.6683376"><ele>291.8</ele><time>2026-04-18T09:16:11.653Z</time></trkpt><trkpt lat="43.84054" lon="12.6683554"><ele>288.4</ele><time>2026-04-18T09:16:12.643Z</time></trkpt><trkpt lat="43.8404263" lon="12.668391"><ele>285.0</ele><time>2026-04-18T09:16:13.645Z</time></trkpt><trkpt lat="43.8403092" lon="12.6684309"><ele>285.0</ele><time>2026-04-18T09:16:14.642Z</time></trkpt><trkpt lat="43.8401854" lon="12.6684557"><ele>285.0</ele><time>2026-04-18T09:16:15.643Z</time></trkpt><trkpt lat="43.840056" lon="12.6684519"><ele>285.0</ele><time>2026-04-18T09:16:16.643Z</time></trkpt><trkpt lat="43.8399276" lon="12.6684266"><ele>285.0</ele><time>2026-04-18T09:16:17.643Z</time></trkpt><trkpt lat="43.8397962" lon="12.6683856"><ele>283.75</ele><time>2026-04-18T09:16:18.643Z</time></trkpt><trkpt lat="43.8396654" lon="12.6683384"><ele>282.5</ele><time>2026-04-18T09:16:19.645Z</time></trkpt><trkpt lat="43.8395422" lon="12.6682938"><ele>281.25</ele><time>2026-04-18T09:16:20.643Z</time></trkpt><trkpt lat="43.839424" lon="12.6682516"><ele>280.0</ele><time>2026-04-18T09:16:21.643Z</time></trkpt><trkpt lat="43.8393133" lon="12.66821"><ele>279.6</ele><time>2026-04-18T09:16:22.643Z</time></trkpt><trkpt lat="43.8392083" lon="12.6681733"><ele>279.2</ele><time>2026-04-18T09:16:23.643Z</time></trkpt><trkpt lat="43.8391117" lon="12.66814"><ele>278.8</ele><time>2026-04-18T09:16:24.644Z</time></trkpt><trkpt lat="43.8390167" lon="12.6681083"><ele>278.4</ele><time>2026-04-18T09:16:25.643Z</time></trkpt><trkpt lat="43.838925" lon="12.66808"><ele>278.0</ele><time>2026-04-18T09:16:26.645Z</time></trkpt><trkpt lat="43.838835" lon="12.668055"><ele>278.0</ele><time>2026-04-18T09:16:27.643Z</time></trkpt><trkpt lat="43.83875" lon="12.668045"><ele>278.0</ele><time>2026-04-18T09:16:28.642Z</time></trkpt><trkpt lat="43.8386717" lon="12.6680533"><ele>278.0</ele><time>2026-04-18T09:16:29.642Z</time></trkpt><trkpt lat="43.8385967" lon="12.6680867"><ele>278.0</ele><time>2026-04-18T09:16:30.643Z</time></trkpt><trkpt lat="43.83852" lon="12.6681517"><ele>278.0</ele><time>2026-04-18T09:16:31.642Z</time></trkpt><trkpt lat="43.8384533" lon="12.6682483"><ele>278.0</ele><time>2026-04-18T09:16:32.643Z</time></trkpt><trkpt lat="43.838395" lon="12.6683667"><ele>277.5</ele><time>2026-04-18T09:16:33.642Z</time></trkpt><trkpt lat="43.8383367" lon="12.668505"><ele>277.0</ele><time>2026-04-18T09:16:34.642Z</time></trkpt><trkpt lat="43.838275" lon="12.668635"><ele>276.5</ele><time>2026-04-18T09:16:35.642Z</time></trkpt><trkpt lat="43.8382033" lon="12.6687633"><ele>276.0</ele><time>2026-04-18T09:16:36.643Z</time></trkpt><trkpt lat="43.83813" lon="12.6688917"><ele>276.0</ele><time>2026-04-18T09:16:37.642Z</time></trkpt><trkpt lat="43.838055" lon="12.6690133"><ele>276.0</ele><time>2026-04-18T09:16:38.642Z</time></trkpt><trkpt lat="43.837975" lon="12.6691333"><ele>276.0</ele><time>2026-04-18T09:16:39.642Z</time></trkpt><trkpt lat="43.8378967" lon="12.6692533"><ele>276.0</ele><time>2026-04-18T09:16:40.642Z</time></trkpt><trkpt lat="43.8378133" lon="12.66937"><ele>277.6</ele><time>2026-04-18T09:16:41.642Z</time></trkpt><trkpt lat="43.837735" lon="12.669485"><ele>279.20000000000005</ele><time>2026-04-18T09:16:42.642Z</time></trkpt><trkpt lat="43.8376617" lon="12.6695967"><ele>280.79999999999995</ele><time>2026-04-18T09:16:43.642Z</time></trkpt><trkpt lat="43.8375917" lon="12.6697117"><ele>282.4</ele><time>2026-04-18T09:16:44.642Z</time></trkpt><trkpt lat="43.8375233" lon="12.6698317"><ele>284.0</ele><time>2026-04-18T09:16:45.642Z</time></trkpt><trkpt lat="43.83746" lon="12.6699517"><ele>280.4</ele><time>2026-04-18T09:16:46.642Z</time></trkpt><trkpt lat="43.83739" lon="12.67007"><ele>276.79999999999995</ele><time>2026-04-18T09:16:47.642Z</time></trkpt><trkpt lat="43.837325" lon="12.67018"><ele>273.20000000000005</ele><time>2026-04-18T09:16:48.644Z</time></trkpt><trkpt lat="43.8372567" lon="12.6702717"><ele>269.6</ele><time>2026-04-18T09:16:49.643Z</time></trkpt><trkpt lat="43.8371817" lon="12.6703483"><ele>266.0</ele><time>2026-04-18T09:16:50.642Z</time></trkpt><trkpt lat="43.8370917" lon="12.6704017"><ele>266.0</ele><time>2026-04-18T09:16:51.643Z</time></trkpt><trkpt lat="43.8369783" lon="12.67041"><ele>266.0</ele><time>2026-04-18T09:16:52.642Z</time></trkpt><trkpt lat="43.8368583" lon="12.6703817"><ele>266.0</ele><time>2026-04-18T09:16:53.645Z</time></trkpt><trkpt lat="43.8367333" lon="12.6703483"><ele>266.0</ele><time>2026-04-18T09:16:54.643Z</time></trkpt><trkpt lat="43.836605" lon="12.6703283"><ele>264.5</ele><time>2026-04-18T09:16:55.643Z</time></trkpt><trkpt lat="43.8364767" lon="12.670345"><ele>263.0</ele><time>2026-04-18T09:16:56.643Z</time></trkpt><trkpt lat="43.8363513" lon="12.6703811"><ele>261.5</ele><time>2026-04-18T09:16:57.643Z</time></trkpt><trkpt lat="43.8362297" lon="12.6704176"><ele>260.0</ele><time>2026-04-18T09:16:58.642Z</time></trkpt><trkpt lat="43.8361121" lon="12.6704429"><ele>260.0</ele><time>2026-04-18T09:16:59.642Z</time></trkpt><trkpt lat="43.8359919" lon="12.6704423"><ele>260.0</ele><time>2026-04-18T09:17:00.643Z</time></trkpt><trkpt lat="43.8358708" lon="12.6704016"><ele>260.0</ele><time>2026-04-18T09:17:01.642Z</time></trkpt><trkpt lat="43.835751" lon="12.670319"><ele>260.0</ele><time>2026-04-18T09:17:02.642Z</time></trkpt><trkpt lat="43.8356356" lon="12.6702145"><ele>256.0</ele><time>2026-04-18T09:17:03.642Z</time></trkpt><trkpt lat="43.8355288" lon="12.6701001"><ele>252.0</ele><time>2026-04-18T09:17:04.642Z</time></trkpt><trkpt lat="43.8354296" lon="12.6699907"><ele>248.0</ele><time>2026-04-18T09:17:05.642Z</time></trkpt><trkpt lat="43.8353297" lon="12.6698961"><ele>244.0</ele><time>2026-04-18T09:17:06.643Z</time></trkpt><trkpt lat="43.8352322" lon="12.669815"><ele>243.6</ele><time>2026-04-18T09:17:07.642Z</time></trkpt><trkpt lat="43.8351286" lon="12.6697501"><ele>243.2</ele><time>2026-04-18T09:17:08.642Z</time></trkpt><trkpt lat="43.8350208" lon="12.6697087"><ele>242.79999999999998</ele><time>2026-04-18T09:17:09.642Z</time></trkpt><trkpt lat="43.8349095" lon="12.6697021"><ele>242.39999999999998</ele><time>2026-04-18T09:17:10.642Z</time></trkpt><trkpt lat="43.8347993" lon="12.6697244"><ele>242.0</ele><time>2026-04-18T09:17:11.642Z</time></trkpt><trkpt lat="43.8347004" lon="12.6698019"><ele>242.0</ele><time>2026-04-18T09:17:12.643Z</time></trkpt><trkpt lat="43.8346102" lon="12.6698981"><ele>242.0</ele><time>2026-04-18T09:17:13.642Z</time></trkpt><trkpt lat="43.8345147" lon="12.6699661"><ele>242.0</ele><time>2026-04-18T09:17:14.643Z</time></trkpt><trkpt lat="43.8344114" lon="12.6699881"><ele>242.0</ele><time>2026-04-18T09:17:15.643Z</time></trkpt><trkpt lat="43.8343024" lon="12.6699773"><ele>242.0</ele><time>2026-04-18T09:17:16.642Z</time></trkpt><trkpt lat="43.834193" lon="12.6699445"><ele>240.0</ele><time>2026-04-18T09:17:17.642Z</time></trkpt><trkpt lat="43.8340831" lon="12.6699059"><ele>238.0</ele><time>2026-04-18T09:17:18.643Z</time></trkpt><trkpt lat="43.8339722" lon="12.669864"><ele>236.0</ele><time>2026-04-18T09:17:19.643Z</time></trkpt><trkpt lat="43.8338606" lon="12.6698274"><ele>234.0</ele><time>2026-04-18T09:17:20.644Z</time></trkpt><trkpt lat="43.8337487" lon="12.6697926"><ele>234.0</ele><time>2026-04-18T09:17:21.642Z</time></trkpt><trkpt lat="43.8336352" lon="12.669762"><ele>234.0</ele><time>2026-04-18T09:17:22.642Z</time></trkpt><trkpt lat="43.83352" lon="12.6697374"><ele>234.0</ele><time>2026-04-18T09:17:23.643Z</time></trkpt><trkpt lat="43.8334058" lon="12.6697183"><ele>234.0</ele><time>2026-04-18T09:17:24.643Z</time></trkpt><trkpt lat="43.8332876" lon="12.6697112"><ele>233.2</ele><time>2026-04-18T09:17:25.642Z</time></trkpt><trkpt lat="43.833173" lon="12.6697295"><ele>232.39999999999998</ele><time>2026-04-18T09:17:26.642Z</time></trkpt><trkpt lat="43.8330609" lon="12.6697568"><ele>231.6</ele><time>2026-04-18T09:17:27.642Z</time></trkpt><trkpt lat="43.8329519" lon="12.6697819"><ele>230.8</ele><time>2026-04-18T09:17:28.642Z</time></trkpt><trkpt lat="43.8328513" lon="12.6697983"><ele>230.0</ele><time>2026-04-18T09:17:29.642Z</time></trkpt><trkpt lat="43.8327558" lon="12.6698098"><ele>230.0</ele><time>2026-04-18T09:17:30.642Z</time></trkpt><trkpt lat="43.8326602" lon="12.6697896"><ele>230.0</ele><time>2026-04-18T09:17:31.642Z</time></trkpt><trkpt lat="43.832573" lon="12.6697307"><ele>230.0</ele><time>2026-04-18T09:17:32.643Z</time></trkpt><trkpt lat="43.8324977" lon="12.6696451"><ele>230.0</ele><time>2026-04-18T09:17:33.642Z</time></trkpt><trkpt lat="43.8324336" lon="12.6695509"><ele>230.0</ele><time>2026-04-18T09:17:34.642Z</time></trkpt><trkpt lat="43.8323818" lon="12.669462"><ele>228.00000000000003</ele><time>2026-04-18T09:17:35.642Z</time></trkpt><trkpt lat="43.8323348" lon="12.6693815"><ele>226.0</ele><time>2026-04-18T09:17:36.642Z</time></trkpt><trkpt lat="43.8322877" lon="12.6693153"><ele>224.0</ele><time>2026-04-18T09:17:37.642Z</time></trkpt><trkpt lat="43.832195" lon="12.6692145"><ele>222.0</ele><time>2026-04-18T09:17:39.643Z</time></trkpt><trkpt lat="43.8321163" lon="12.6691409"><ele>220.00000000000003</ele><time>2026-04-18T09:17:41.643Z</time></trkpt><trkpt lat="43.8320577" lon="12.6690748"><ele>218.0</ele><time>2026-04-18T09:17:44.642Z</time></trkpt><trkpt lat="43.831987" lon="12.6690088"><ele>218.0</ele><time>2026-04-18T09:17:52.642Z</time></trkpt><trkpt lat="43.8319037" lon="12.6688626"><ele>218.0</ele><time>2026-04-18T09:17:54.642Z</time></trkpt><trkpt lat="43.8318651" lon="12.668758"><ele>218.0</ele><time>2026-04-18T09:17:55.642Z</time></trkpt><trkpt lat="43.8318357" lon="12.6686181"><ele>218.0</ele><time>2026-04-18T09:17:56.641Z</time></trkpt><trkpt lat="43.8318173" lon="12.6684693"><ele>218.0</ele><time>2026-04-18T09:17:57.642Z</time></trkpt><trkpt lat="43.83182" lon="12.6683"><ele>215.0</ele><time>2026-04-18T09:17:58.642Z</time></trkpt><trkpt lat="43.831845" lon="12.6681583"><ele>212.0</ele><time>2026-04-18T09:17:59.642Z</time></trkpt><trkpt lat="43.83188" lon="12.6680283"><ele>209.0</ele><time>2026-04-18T09:18:00.642Z</time></trkpt><trkpt lat="43.8319133" lon="12.66791"><ele>206.0</ele><time>2026-04-18T09:18:01.642Z</time></trkpt><trkpt lat="43.8319433" lon="12.6678"><ele>203.0</ele><time>2026-04-18T09:18:02.643Z</time></trkpt><trkpt lat="43.83196" lon="12.66769"><ele>204.33333333333334</ele><time>2026-04-18T09:18:03.642Z</time></trkpt><trkpt lat="43.83196" lon="12.6675817"><ele>205.66666666666669</ele><time>2026-04-18T09:18:04.642Z</time></trkpt><trkpt lat="43.8319433" lon="12.6674717"><ele>207.0</ele><time>2026-04-18T09:18:05.642Z</time></trkpt><trkpt lat="43.8319" lon="12.66737"><ele>208.33333333333331</ele><time>2026-04-18T09:18:06.642Z</time></trkpt><trkpt lat="43.8318417" lon="12.6672767"><ele>209.66666666666666</ele><time>2026-04-18T09:18:07.642Z</time></trkpt><trkpt lat="43.8317633" lon="12.6671833"><ele>211.0</ele><time>2026-04-18T09:18:08.643Z</time></trkpt><trkpt lat="43.831675" lon="12.6670767"><ele>211.0</ele><time>2026-04-18T09:18:09.642Z</time></trkpt><trkpt lat="43.8316033" lon="12.6669667"><ele>211.0</ele><time>2026-04-18T09:18:10.642Z</time></trkpt><trkpt lat="43.8315517" lon="12.6668417"><ele>211.0</ele><time>2026-04-18T09:18:11.642Z</time></trkpt><trkpt lat="43.8315217" lon="12.6666933"><ele>211.0</ele><time>2026-04-18T09:18:12.642Z</time></trkpt><trkpt lat="43.831495" lon="12.6665633"><ele>211.0</ele><time>2026-04-18T09:18:13.642Z</time></trkpt><trkpt lat="43.8314633" lon="12.6664383"><ele>208.0</ele><time>2026-04-18T09:18:14.642Z</time></trkpt><trkpt lat="43.831415" lon="12.6663283"><ele>205.0</ele><time>2026-04-18T09:18:15.642Z</time></trkpt><trkpt lat="43.8313483" lon="12.6662367"><ele>202.0</ele><time>2026-04-18T09:18:16.642Z</time></trkpt><trkpt lat="43.8312517" lon="12.66618"><ele>199.0</ele><time>2026-04-18T09:18:17.641Z</time></trkpt><trkpt lat="43.8311383" lon="12.66616"><ele>196.0</ele><time>2026-04-18T09:18:18.643Z</time></trkpt><trkpt lat="43.831025" lon="12.6661967"><ele>194.0</ele><time>2026-04-18T09:18:19.644Z</time></trkpt><trkpt lat="43.8308183" lon="12.6662767"><ele>192.0</ele><time>2026-04-18T09:18:21.642Z</time></trkpt><trkpt lat="43.8307167" lon="12.6662267"><ele>190.0</ele><time>2026-04-18T09:18:22.642Z</time></trkpt><trkpt lat="43.8306167" lon="12.6661483"><ele>188.0</ele><time>2026-04-18T09:18:23.642Z</time></trkpt><trkpt lat="43.83052" lon="12.66606"><ele>188.0</ele><time>2026-04-18T09:18:24.642Z</time></trkpt><trkpt lat="43.8304233" lon="12.6659667"><ele>188.0</ele><time>2026-04-18T09:18:25.642Z</time></trkpt><trkpt lat="43.8303467" lon="12.6658683"><ele>188.0</ele><time>2026-04-18T09:18:26.642Z</time></trkpt><trkpt lat="43.8302833" lon="12.6657867"><ele>188.0</ele><time>2026-04-18T09:18:27.644Z</time></trkpt><trkpt lat="43.8302117" lon="12.6657233"><ele>188.0</ele><time>2026-04-18T09:18:28.642Z</time></trkpt><trkpt lat="43.83013" lon="12.6656917"><ele>188.8</ele><time>2026-04-18T09:18:29.642Z</time></trkpt><trkpt lat="43.8300417" lon="12.6657067"><ele>189.60000000000002</ele><time>2026-04-18T09:18:30.642Z</time></trkpt><trkpt lat="43.82995" lon="12.665745"><ele>190.39999999999998</ele><time>2026-04-18T09:18:31.642Z</time></trkpt><trkpt lat="43.829865" lon="12.6658"><ele>191.2</ele><time>2026-04-18T09:18:32.642Z</time></trkpt><trkpt lat="43.8297733" lon="12.6658717"><ele>192.0</ele><time>2026-04-18T09:18:33.645Z</time></trkpt><trkpt lat="43.829685" lon="12.6659483"><ele>192.0</ele><time>2026-04-18T09:18:34.641Z</time></trkpt><trkpt lat="43.8295983" lon="12.6660233"><ele>192.0</ele><time>2026-04-18T09:18:35.642Z</time></trkpt><trkpt lat="43.829505" lon="12.6660883"><ele>192.0</ele><time>2026-04-18T09:18:36.645Z</time></trkpt><trkpt lat="43.8294233" lon="12.6661567"><ele>192.0</ele><time>2026-04-18T09:18:37.643Z</time></trkpt><trkpt lat="43.8293433" lon="12.66623"><ele>192.0</ele><time>2026-04-18T09:18:38.643Z</time></trkpt><trkpt lat="43.8292735" lon="12.6662917"><ele>189.33333333333334</ele><time>2026-04-18T09:18:39.643Z</time></trkpt><trkpt lat="43.8292118" lon="12.6663522"><ele>186.66666666666666</ele><time>2026-04-18T09:18:40.643Z</time></trkpt><trkpt lat="43.8291569" lon="12.6664128"><ele>184.0</ele><time>2026-04-18T09:18:41.642Z</time></trkpt><trkpt lat="43.8290463" lon="12.6664278"><ele>181.33333333333331</ele><time>2026-04-18T09:18:43.642Z</time></trkpt><trkpt lat="43.829012" lon="12.6663544"><ele>178.66666666666666</ele><time>2026-04-18T09:18:44.648Z</time></trkpt><trkpt lat="43.8290623" lon="12.66619"><ele>176.0</ele><time>2026-04-18T09:18:46.642Z</time></trkpt><trkpt lat="43.829139" lon="12.6661087"><ele>175.5</ele><time>2026-04-18T09:18:47.64Z</time></trkpt><trkpt lat="43.8292051" lon="12.6660127"><ele>175.0</ele><time>2026-04-18T09:18:48.642Z</time></trkpt><trkpt lat="43.8292824" lon="12.6659101"><ele>174.5</ele><time>2026-04-18T09:18:49.639Z</time></trkpt><trkpt lat="43.8293791" lon="12.6657716"><ele>174.0</ele><time>2026-04-18T09:18:50.641Z</time></trkpt><trkpt lat="43.8294604" lon="12.6656336"><ele>174.2</ele><time>2026-04-18T09:18:51.64Z</time></trkpt><trkpt lat="43.8295299" lon="12.6654879"><ele>174.39999999999998</ele><time>2026-04-18T09:18:52.64Z</time></trkpt><trkpt lat="43.8295996" lon="12.6653646"><ele>174.6</ele><time>2026-04-18T09:18:53.642Z</time></trkpt><trkpt lat="43.8296726" lon="12.665255"><ele>174.8</ele><time>2026-04-18T09:18:54.639Z</time></trkpt><trkpt lat="43.8297469" lon="12.6651606"><ele>175.0</ele><time>2026-04-18T09:18:55.64Z</time></trkpt><trkpt lat="43.8298149" lon="12.6650733"><ele>175.0</ele><time>2026-04-18T09:18:56.641Z</time></trkpt><trkpt lat="43.8298754" lon="12.6649902"><ele>175.0</ele><time>2026-04-18T09:18:57.64Z</time></trkpt><trkpt lat="43.8299305" lon="12.6649079"><ele>175.0</ele><time>2026-04-18T09:18:58.641Z</time></trkpt><trkpt lat="43.8299838" lon="12.6648284"><ele>175.0</ele><time>2026-04-18T09:18:59.642Z</time></trkpt><trkpt lat="43.8300368" lon="12.6647469"><ele>175.0</ele><time>2026-04-18T09:19:00.641Z</time></trkpt><trkpt lat="43.8300845" lon="12.6646532"><ele>175.0</ele><time>2026-04-18T09:19:01.64Z</time></trkpt><trkpt lat="43.8301257" lon="12.6645477"><ele>173.2</ele><time>2026-04-18T09:19:02.642Z</time></trkpt><trkpt lat="43.8301386" lon="12.6644268"><ele>171.4</ele><time>2026-04-18T09:19:03.641Z</time></trkpt><trkpt lat="43.8301273" lon="12.6642939"><ele>169.60000000000002</ele><time>2026-04-18T09:19:04.641Z</time></trkpt><trkpt lat="43.8300958" lon="12.664144"><ele>167.8</ele><time>2026-04-18T09:19:05.642Z</time></trkpt><trkpt lat="43.8300645" lon="12.6639944"><ele>166.0</ele><time>2026-04-18T09:19:06.641Z</time></trkpt><trkpt lat="43.8300256" lon="12.6638546"><ele>166.0</ele><time>2026-04-18T09:19:07.641Z</time></trkpt><trkpt lat="43.8299713" lon="12.6637278"><ele>166.0</ele><time>2026-04-18T09:19:08.641Z</time></trkpt><trkpt lat="43.8299078" lon="12.6636114"><ele>166.0</ele><time>2026-04-18T09:19:09.641Z</time></trkpt><trkpt lat="43.8298341" lon="12.6635003"><ele>166.0</ele><time>2026-04-18T09:19:10.641Z</time></trkpt><trkpt lat="43.8297616" lon="12.6633963"><ele>166.0</ele><time>2026-04-18T09:19:11.641Z</time></trkpt><trkpt lat="43.8296877" lon="12.6632961"><ele>163.83333333333334</ele><time>2026-04-18T09:19:12.641Z</time></trkpt><trkpt lat="43.8296177" lon="12.6632032"><ele>161.66666666666669</ele><time>2026-04-18T09:19:13.641Z</time></trkpt><trkpt lat="43.8295611" lon="12.6631084"><ele>159.5</ele><time>2026-04-18T09:19:14.641Z</time></trkpt><trkpt lat="43.8295089" lon="12.663008"><ele>157.33333333333334</ele><time>2026-04-18T09:19:15.641Z</time></trkpt><trkpt lat="43.8294579" lon="12.6629169"><ele>155.16666666666666</ele><time>2026-04-18T09:19:16.641Z</time></trkpt><trkpt lat="43.8294113" lon="12.6628367"><ele>153.0</ele><time>2026-04-18T09:19:17.64Z</time></trkpt><trkpt lat="43.8293538" lon="12.6627925"><ele>152.33333333333334</ele><time>2026-04-18T09:19:18.641Z</time></trkpt><trkpt lat="43.8292817" lon="12.6627915"><ele>151.66666666666666</ele><time>2026-04-18T09:19:19.641Z</time></trkpt><trkpt lat="43.8292078" lon="12.6628381"><ele>151.0</ele><time>2026-04-18T09:19:20.641Z</time></trkpt><trkpt lat="43.8291546" lon="12.6629327"><ele>150.33333333333331</ele><time>2026-04-18T09:19:21.642Z</time></trkpt><trkpt lat="43.8291466" lon="12.6630568"><ele>149.66666666666666</ele><time>2026-04-18T09:19:22.641Z</time></trkpt><trkpt lat="43.8291837" lon="12.6632066"><ele>149.0</ele><time>2026-04-18T09:19:23.641Z</time></trkpt><trkpt lat="43.8292272" lon="12.663352"><ele>149.0</ele><time>2026-04-18T09:19:24.641Z</time></trkpt><trkpt lat="43.8292648" lon="12.6634916"><ele>149.0</ele><time>2026-04-18T09:19:25.641Z</time></trkpt><trkpt lat="43.8292964" lon="12.6636233"><ele>149.0</ele><time>2026-04-18T09:19:26.642Z</time></trkpt><trkpt lat="43.8293074" lon="12.663747"><ele>149.0</ele><time>2026-04-18T09:19:27.654Z</time></trkpt><trkpt lat="43.829285" lon="12.6638727"><ele>149.0</ele><time>2026-04-18T09:19:28.642Z</time></trkpt><trkpt lat="43.8292219" lon="12.6639915"><ele>149.5</ele><time>2026-04-18T09:19:29.642Z</time></trkpt><trkpt lat="43.8291253" lon="12.6640889"><ele>150.0</ele><time>2026-04-18T09:19:30.643Z</time></trkpt><trkpt lat="43.8290116" lon="12.664181"><ele>150.5</ele><time>2026-04-18T09:19:31.642Z</time></trkpt><trkpt lat="43.8289073" lon="12.6642918"><ele>151.0</ele><time>2026-04-18T09:19:32.649Z</time></trkpt><trkpt lat="43.8288317" lon="12.6644172"><ele>152.5</ele><time>2026-04-18T09:19:33.642Z</time></trkpt><trkpt lat="43.8287743" lon="12.664548"><ele>154.0</ele><time>2026-04-18T09:19:34.643Z</time></trkpt><trkpt lat="43.8287119" lon="12.6646736"><ele>155.5</ele><time>2026-04-18T09:19:35.642Z</time></trkpt><trkpt lat="43.8286208" lon="12.6647872"><ele>157.0</ele><time>2026-04-18T09:19:36.643Z</time></trkpt><trkpt lat="43.8285114" lon="12.6648913"><ele>152.75</ele><time>2026-04-18T09:19:37.643Z</time></trkpt><trkpt lat="43.8283982" lon="12.6649766"><ele>148.5</ele><time>2026-04-18T09:19:38.644Z</time></trkpt><trkpt lat="43.8282918" lon="12.6650543"><ele>144.25</ele><time>2026-04-18T09:19:39.642Z</time></trkpt><trkpt lat="43.8281909" lon="12.6651297"><ele>140.0</ele><time>2026-04-18T09:19:40.643Z</time></trkpt><trkpt lat="43.8280987" lon="12.6652081"><ele>139.2</ele><time>2026-04-18T09:19:41.643Z</time></trkpt><trkpt lat="43.8280106" lon="12.6652864"><ele>138.4</ele><time>2026-04-18T09:19:42.643Z</time></trkpt><trkpt lat="43.8279169" lon="12.6653441"><ele>137.6</ele><time>2026-04-18T09:19:43.643Z</time></trkpt><trkpt lat="43.8278181" lon="12.6653884"><ele>136.8</ele><time>2026-04-18T09:19:44.643Z</time></trkpt><trkpt lat="43.8277199" lon="12.6654227"><ele>136.0</ele><time>2026-04-18T09:19:45.641Z</time></trkpt><trkpt lat="43.8276263" lon="12.665446"><ele>136.0</ele><time>2026-04-18T09:19:46.644Z</time></trkpt><trkpt lat="43.8275326" lon="12.6654826"><ele>136.0</ele><time>2026-04-18T09:19:47.641Z</time></trkpt><trkpt lat="43.8274403" lon="12.6655259"><ele>136.0</ele><time>2026-04-18T09:19:48.641Z</time></trkpt><trkpt lat="43.8273565" lon="12.6655783"><ele>136.0</ele><time>2026-04-18T09:19:49.651Z</time></trkpt><trkpt lat="43.8272862" lon="12.665647"><ele>136.0</ele><time>2026-04-18T09:19:50.642Z</time></trkpt><trkpt lat="43.8272263" lon="12.6657289"><ele>136.0</ele><time>2026-04-18T09:19:51.641Z</time></trkpt><trkpt lat="43.8272" lon="12.6658413"><ele>136.0</ele><time>2026-04-18T09:19:52.642Z</time></trkpt><trkpt lat="43.8272175" lon="12.6659737"><ele>136.0</ele><time>2026-04-18T09:19:53.642Z</time></trkpt><trkpt lat="43.8272684" lon="12.6661026"><ele>136.0</ele><time>2026-04-18T09:19:54.641Z</time></trkpt><trkpt lat="43.8273377" lon="12.66622"><ele>136.0</ele><time>2026-04-18T09:19:55.641Z</time></trkpt><trkpt lat="43.8274182" lon="12.6663158"><ele>135.83333333333334</ele><time>2026-04-18T09:19:56.641Z</time></trkpt><trkpt lat="43.8274838" lon="12.6664105"><ele>135.66666666666669</ele><time>2026-04-18T09:19:57.64Z</time></trkpt><trkpt lat="43.8275321" lon="12.6665063"><ele>135.5</ele><time>2026-04-18T09:19:58.64Z</time></trkpt><trkpt lat="43.8275573" lon="12.6666036"><ele>135.33333333333334</ele><time>2026-04-18T09:19:59.641Z</time></trkpt><trkpt lat="43.827557" lon="12.6666991"><ele>135.16666666666666</ele><time>2026-04-18T09:20:00.641Z</time></trkpt><trkpt lat="43.8275374" lon="12.6667885"><ele>135.0</ele><time>2026-04-18T09:20:01.642Z</time></trkpt><trkpt lat="43.8274554" lon="12.6669138"><ele>135.0</ele><time>2026-04-18T09:20:03.641Z</time></trkpt><trkpt lat="43.8273902" lon="12.6669551"><ele>135.0</ele><time>2026-04-18T09:20:04.641Z</time></trkpt><trkpt lat="43.8272951" lon="12.6669628"><ele>135.0</ele><time>2026-04-18T09:20:05.641Z</time></trkpt><trkpt lat="43.82719" lon="12.6669652"><ele>135.0</ele><time>2026-04-18T09:20:06.642Z</time></trkpt><trkpt lat="43.827074" lon="12.6669419"><ele>135.0</ele><time>2026-04-18T09:20:07.641Z</time></trkpt><trkpt lat="43.8269579" lon="12.6668969"><ele>135.0</ele><time>2026-04-18T09:20:08.641Z</time></trkpt><trkpt lat="43.8268449" lon="12.6668359"><ele>135.0</ele><time>2026-04-18T09:20:09.641Z</time></trkpt><trkpt lat="43.8267379" lon="12.6667738"><ele>135.0</ele><time>2026-04-18T09:20:10.641Z</time></trkpt><trkpt lat="43.8266406" lon="12.6667035"><ele>135.0</ele><time>2026-04-18T09:20:11.641Z</time></trkpt><trkpt lat="43.8265499" lon="12.6666394"><ele>135.0</ele><time>2026-04-18T09:20:12.641Z</time></trkpt><trkpt lat="43.8264626" lon="12.6665982"><ele>133.0</ele><time>2026-04-18T09:20:13.641Z</time></trkpt><trkpt lat="43.8263689" lon="12.6665839"><ele>131.0</ele><time>2026-04-18T09:20:14.641Z</time></trkpt><trkpt lat="43.8262771" lon="12.6665915"><ele>129.0</ele><time>2026-04-18T09:20:15.641Z</time></trkpt><trkpt lat="43.8261919" lon="12.6666285"><ele>127.0</ele><time>2026-04-18T09:20:16.641Z</time></trkpt><trkpt lat="43.8261267" lon="12.6666798"><ele>125.0</ele><time>2026-04-18T09:20:17.64Z</time></trkpt><trkpt lat="43.8260669" lon="12.6667569"><ele>123.0</ele><time>2026-04-18T09:20:19.64Z</time></trkpt><trkpt lat="43.8260217" lon="12.6666908"><ele>123.0</ele><time>2026-04-18T09:20:23.64Z</time></trkpt><trkpt lat="43.8260789" lon="12.6665856"><ele>123.0</ele><time>2026-04-18T09:20:25.64Z</time></trkpt><trkpt lat="43.826131" lon="12.6665302"><ele>123.0</ele><time>2026-04-18T09:20:26.64Z</time></trkpt><trkpt lat="43.8262001" lon="12.6664576"><ele>123.0</ele><time>2026-04-18T09:20:27.641Z</time></trkpt><trkpt lat="43.8262854" lon="12.6663996"><ele>123.0</ele><time>2026-04-18T09:20:28.641Z</time></trkpt><trkpt lat="43.8263702" lon="12.6663409"><ele>123.0</ele><time>2026-04-18T09:20:29.641Z</time></trkpt><trkpt lat="43.826446" lon="12.666265"><ele>123.0</ele><time>2026-04-18T09:20:30.641Z</time></trkpt><trkpt lat="43.8265064" lon="12.6661793"><ele>123.00000000000001</ele><time>2026-04-18T09:20:31.641Z</time></trkpt><trkpt lat="43.8265552" lon="12.6660858"><ele>123.00000000000001</ele><time>2026-04-18T09:20:32.641Z</time></trkpt><trkpt lat="43.8265773" lon="12.6659606"><ele>123.0</ele><time>2026-04-18T09:20:33.64Z</time></trkpt><trkpt lat="43.8265836" lon="12.6658116"><ele>123.0</ele><time>2026-04-18T09:20:34.64Z</time></trkpt><trkpt lat="43.8265876" lon="12.6656597"><ele>121.4</ele><time>2026-04-18T09:20:35.64Z</time></trkpt><trkpt lat="43.826595" lon="12.6655105"><ele>119.80000000000001</ele><time>2026-04-18T09:20:36.64Z</time></trkpt><trkpt lat="43.826602" lon="12.6653831"><ele>118.2</ele><time>2026-04-18T09:20:37.64Z</time></trkpt><trkpt lat="43.8266232" lon="12.6652547"><ele>116.6</ele><time>2026-04-18T09:20:38.641Z</time></trkpt><trkpt lat="43.8266586" lon="12.6651322"><ele>115.0</ele><time>2026-04-18T09:20:39.645Z</time></trkpt><trkpt lat="43.8267075" lon="12.6650133"><ele>113.4</ele><time>2026-04-18T09:20:40.641Z</time></trkpt><trkpt lat="43.826778" lon="12.6649033"><ele>111.8</ele><time>2026-04-18T09:20:41.642Z</time></trkpt><trkpt lat="43.826848" lon="12.6648011"><ele>110.19999999999999</ele><time>2026-04-18T09:20:42.641Z</time></trkpt><trkpt lat="43.826928" lon="12.664712"><ele>108.6</ele><time>2026-04-18T09:20:43.641Z</time></trkpt><trkpt lat="43.8269905" lon="12.6646105"><ele>107.0</ele><time>2026-04-18T09:20:44.641Z</time></trkpt><trkpt lat="43.8270424" lon="12.6645083"><ele>108.6</ele><time>2026-04-18T09:20:45.641Z</time></trkpt><trkpt lat="43.8270811" lon="12.6644016"><ele>110.19999999999999</ele><time>2026-04-18T09:20:46.642Z</time></trkpt><trkpt lat="43.8271103" lon="12.6642802"><ele>111.8</ele><time>2026-04-18T09:20:47.641Z</time></trkpt><trkpt lat="43.8271354" lon="12.6641493"><ele>113.4</ele><time>2026-04-18T09:20:48.641Z</time></trkpt><trkpt lat="43.8271568" lon="12.664013"><ele>115.0</ele><time>2026-04-18T09:20:49.64Z</time></trkpt><trkpt lat="43.8271724" lon="12.6638789"><ele>115.0</ele><time>2026-04-18T09:20:50.641Z</time></trkpt><trkpt lat="43.8271934" lon="12.6637389"><ele>115.0</ele><time>2026-04-18T09:20:51.641Z</time></trkpt><trkpt lat="43.8272161" lon="12.6636096"><ele>115.0</ele><time>2026-04-18T09:20:52.64Z</time></trkpt><trkpt lat="43.8272439" lon="12.6634895"><ele>115.0</ele><time>2026-04-18T09:20:53.64Z</time></trkpt><trkpt lat="43.8272757" lon="12.6633754"><ele>115.0</ele><time>2026-04-18T09:20:54.64Z</time></trkpt><trkpt lat="43.8273118" lon="12.6632626"><ele>113.4</ele><time>2026-04-18T09:20:55.64Z</time></trkpt><trkpt lat="43.8273538" lon="12.6631448"><ele>111.8</ele><time>2026-04-18T09:20:56.641Z</time></trkpt><trkpt lat="43.8274056" lon="12.6630215"><ele>110.19999999999999</ele><time>2026-04-18T09:20:57.64Z</time></trkpt><trkpt lat="43.8274557" lon="12.6628913"><ele>108.6</ele><time>2026-04-18T09:20:58.641Z</time></trkpt><trkpt lat="43.827501" lon="12.6627611"><ele>107.0</ele><time>2026-04-18T09:20:59.643Z</time></trkpt><trkpt lat="43.8275481" lon="12.6626306"><ele>106.0</ele><time>2026-04-18T09:21:00.641Z</time></trkpt><trkpt lat="43.8275953" lon="12.6624964"><ele>104.99999999999999</ele><time>2026-04-18T09:21:01.64Z</time></trkpt><trkpt lat="43.8276406" lon="12.6623724"><ele>104.0</ele><time>2026-04-18T09:21:02.641Z</time></trkpt><trkpt lat="43.827678" lon="12.6622584"><ele>103.0</ele><time>2026-04-18T09:21:03.641Z</time></trkpt><trkpt lat="43.8277167" lon="12.6621483"><ele>102.0</ele><time>2026-04-18T09:21:04.643Z</time></trkpt><trkpt lat="43.8277512" lon="12.662039"><ele>103.8</ele><time>2026-04-18T09:21:05.64Z</time></trkpt><trkpt lat="43.8277834" lon="12.6619323"><ele>105.6</ele><time>2026-04-18T09:21:06.644Z</time></trkpt><trkpt lat="43.8278199" lon="12.6618194"><ele>107.39999999999999</ele><time>2026-04-18T09:21:07.64Z</time></trkpt><trkpt lat="43.8278607" lon="12.661702"><ele>109.19999999999999</ele><time>2026-04-18T09:21:08.64Z</time></trkpt><trkpt lat="43.8279087" lon="12.6615762"><ele>111.0</ele><time>2026-04-18T09:21:09.645Z</time></trkpt><trkpt lat="43.8279532" lon="12.6614573"><ele>111.0</ele><time>2026-04-18T09:21:10.64Z</time></trkpt><trkpt lat="43.8279925" lon="12.6613371"><ele>111.0</ele><time>2026-04-18T09:21:11.64Z</time></trkpt><trkpt lat="43.8280457" lon="12.6612055"><ele>111.0</ele><time>2026-04-18T09:21:12.641Z</time></trkpt><trkpt lat="43.8281032" lon="12.6610757"><ele>111.0</ele><time>2026-04-18T09:21:13.641Z</time></trkpt><trkpt lat="43.8281657" lon="12.6609483"><ele>111.0</ele><time>2026-04-18T09:21:14.64Z</time></trkpt><trkpt lat="43.8282357" lon="12.6608237"><ele>109.8</ele><time>2026-04-18T09:21:15.64Z</time></trkpt><trkpt lat="43.8283025" lon="12.660703"><ele>108.6</ele><time>2026-04-18T09:21:16.642Z</time></trkpt><trkpt lat="43.8283621" lon="12.6605779"><ele>107.4</ele><time>2026-04-18T09:21:17.642Z</time></trkpt><trkpt lat="43.8284176" lon="12.6604579"><ele>106.2</ele><time>2026-04-18T09:21:18.642Z</time></trkpt><trkpt lat="43.8284827" lon="12.6603366"><ele>105.0</ele><time>2026-04-18T09:21:19.642Z</time></trkpt><trkpt lat="43.828547" lon="12.6602095"><ele>103.8</ele><time>2026-04-18T09:21:20.642Z</time></trkpt><trkpt lat="43.8286107" lon="12.6600791"><ele>102.6</ele><time>2026-04-18T09:21:21.642Z</time></trkpt><trkpt lat="43.8286699" lon="12.6599526"><ele>101.4</ele><time>2026-04-18T09:21:22.641Z</time></trkpt><trkpt lat="43.8287266" lon="12.6598314"><ele>100.2</ele><time>2026-04-18T09:21:23.642Z</time></trkpt><trkpt lat="43.8287833" lon="12.6597175"><ele>99.0</ele><time>2026-04-18T09:21:24.641Z</time></trkpt><trkpt lat="43.8288389" lon="12.6596056"><ele>99.0</ele><time>2026-04-18T09:21:25.641Z</time></trkpt><trkpt lat="43.8288931" lon="12.6594939"><ele>99.0</ele><time>2026-04-18T09:21:26.641Z</time></trkpt><trkpt lat="43.8289454" lon="12.6593719"><ele>99.0</ele><time>2026-04-18T09:21:27.64Z</time></trkpt><trkpt lat="43.8289986" lon="12.659249"><ele>99.0</ele><time>2026-04-18T09:21:28.64Z</time></trkpt><trkpt lat="43.829052" lon="12.6591201"><ele>99.0</ele><time>2026-04-18T09:21:29.64Z</time></trkpt><trkpt lat="43.829105" lon="12.6589911"><ele>98.4</ele><time>2026-04-18T09:21:30.643Z</time></trkpt><trkpt lat="43.8291515" lon="12.6588636"><ele>97.80000000000001</ele><time>2026-04-18T09:21:31.641Z</time></trkpt><trkpt lat="43.8292026" lon="12.6587354"><ele>97.19999999999999</ele><time>2026-04-18T09:21:32.641Z</time></trkpt><trkpt lat="43.8292556" lon="12.6586157"><ele>96.6</ele><time>2026-04-18T09:21:33.64Z</time></trkpt><trkpt lat="43.8293091" lon="12.6585067"><ele>96.0</ele><time>2026-04-18T09:21:34.64Z</time></trkpt><trkpt lat="43.8293624" lon="12.6584065"><ele>97.19999999999999</ele><time>2026-04-18T09:21:35.641Z</time></trkpt><trkpt lat="43.8294222" lon="12.6583146"><ele>98.39999999999999</ele><time>2026-04-18T09:21:36.641Z</time></trkpt><trkpt lat="43.8294886" lon="12.6582292"><ele>99.6</ele><time>2026-04-18T09:21:37.642Z</time></trkpt><trkpt lat="43.82957" lon="12.6581393"><ele>100.8</ele><time>2026-04-18T09:21:38.64Z</time></trkpt><trkpt lat="43.8296584" lon="12.6580387"><ele>102.0</ele><time>2026-04-18T09:21:39.641Z</time></trkpt><trkpt lat="43.829767" lon="12.6579196"><ele>102.0</ele><time>2026-04-18T09:21:40.641Z</time></trkpt><trkpt lat="43.8298799" lon="12.6578015"><ele>102.0</ele><time>2026-04-18T09:21:41.64Z</time></trkpt><trkpt lat="43.8299853" lon="12.657699"><ele>102.0</ele><time>2026-04-18T09:21:42.64Z</time></trkpt><trkpt lat="43.8300801" lon="12.6576088"><ele>102.0</ele><time>2026-04-18T09:21:43.641Z</time></trkpt><trkpt lat="43.8301659" lon="12.6575242"><ele>103.8</ele><time>2026-04-18T09:21:44.64Z</time></trkpt><trkpt lat="43.8302482" lon="12.6574438"><ele>105.6</ele><time>2026-04-18T09:21:45.641Z</time></trkpt><trkpt lat="43.830325" lon="12.6573547"><ele>107.39999999999999</ele><time>2026-04-18T09:21:46.64Z</time></trkpt><trkpt lat="43.8303988" lon="12.6572545"><ele>109.19999999999999</ele><time>2026-04-18T09:21:47.64Z</time></trkpt><trkpt lat="43.8304708" lon="12.6571493"><ele>111.0</ele><time>2026-04-18T09:21:48.64Z</time></trkpt><trkpt lat="43.830546" lon="12.6570365"><ele>108.8</ele><time>2026-04-18T09:21:49.64Z</time></trkpt><trkpt lat="43.8306204" lon="12.6569226"><ele>106.6</ele><time>2026-04-18T09:21:50.64Z</time></trkpt><trkpt lat="43.8306856" lon="12.6568127"><ele>104.4</ele><time>2026-04-18T09:21:51.64Z</time></trkpt><trkpt lat="43.8307448" lon="12.6567059"><ele>102.2</ele><time>2026-04-18T09:21:52.639Z</time></trkpt><trkpt lat="43.8308012" lon="12.656595"><ele>100.0</ele><time>2026-04-18T09:21:53.639Z</time></trkpt><trkpt lat="43.8308576" lon="12.6564917"><ele>100.00000000000001</ele><time>2026-04-18T09:21:54.639Z</time></trkpt><trkpt lat="43.8309144" lon="12.6563994"><ele>100.0</ele><time>2026-04-18T09:21:55.639Z</time></trkpt><trkpt lat="43.830978" lon="12.6563251"><ele>100.0</ele><time>2026-04-18T09:21:56.64Z</time></trkpt><trkpt lat="43.8310502" lon="12.6562683"><ele>100.0</ele><time>2026-04-18T09:21:57.639Z</time></trkpt><trkpt lat="43.8311272" lon="12.6562217"><ele>100.00000000000001</ele><time>2026-04-18T09:21:58.639Z</time></trkpt><trkpt lat="43.8312045" lon="12.6561809"><ele>100.0</ele><time>2026-04-18T09:21:59.64Z</time></trkpt><trkpt lat="43.8312868" lon="12.6561427"><ele>100.6</ele><time>2026-04-18T09:22:00.64Z</time></trkpt><trkpt lat="43.8313747" lon="12.6561035"><ele>101.2</ele><time>2026-04-18T09:22:01.64Z</time></trkpt><trkpt lat="43.8314656" lon="12.6560641"><ele>101.80000000000001</ele><time>2026-04-18T09:22:02.64Z</time></trkpt><trkpt lat="43.8315538" lon="12.6560141"><ele>102.4</ele><time>2026-04-18T09:22:03.639Z</time></trkpt><trkpt lat="43.8316394" lon="12.6559473"><ele>103.0</ele><time>2026-04-18T09:22:04.65Z</time></trkpt><trkpt lat="43.8317243" lon="12.6558689"><ele>106.0</ele><time>2026-04-18T09:22:05.64Z</time></trkpt><trkpt lat="43.8318154" lon="12.6557877"><ele>109.0</ele><time>2026-04-18T09:22:06.64Z</time></trkpt><trkpt lat="43.831905" lon="12.6556934"><ele>112.0</ele><time>2026-04-18T09:22:07.641Z</time></trkpt><trkpt lat="43.8319955" lon="12.655592"><ele>115.0</ele><time>2026-04-18T09:22:08.642Z</time></trkpt><trkpt lat="43.8320924" lon="12.6554817"><ele>115.0</ele><time>2026-04-18T09:22:09.649Z</time></trkpt><trkpt lat="43.8321886" lon="12.6553719"><ele>115.0</ele><time>2026-04-18T09:22:10.676Z</time></trkpt><trkpt lat="43.8322808" lon="12.6552708"><ele>115.0</ele><time>2026-04-18T09:22:11.645Z</time></trkpt><trkpt lat="43.8323699" lon="12.6551745"><ele>115.0</ele><time>2026-04-18T09:22:12.644Z</time></trkpt><trkpt lat="43.832456" lon="12.6550895"><ele>113.6</ele><time>2026-04-18T09:22:13.638Z</time></trkpt><trkpt lat="43.8325505" lon="12.6550185"><ele>112.2</ele><time>2026-04-18T09:22:14.64Z</time></trkpt><trkpt lat="43.8326452" lon="12.6549624"><ele>110.80000000000001</ele><time>2026-04-18T09:22:15.639Z</time></trkpt><trkpt lat="43.8327486" lon="12.6549222"><ele>109.4</ele><time>2026-04-18T09:22:16.639Z</time></trkpt><trkpt lat="43.8328532" lon="12.6548918"><ele>108.0</ele><time>2026-04-18T09:22:17.64Z</time></trkpt><trkpt lat="43.8329638" lon="12.6548733"><ele>108.0</ele><time>2026-04-18T09:22:18.639Z</time></trkpt><trkpt lat="43.8330813" lon="12.6548644"><ele>108.0</ele><time>2026-04-18T09:22:19.639Z</time></trkpt><trkpt lat="43.8332002" lon="12.6548581"><ele>108.0</ele><time>2026-04-18T09:22:20.641Z</time></trkpt><trkpt lat="43.8333215" lon="12.6548479"><ele>108.0</ele><time>2026-04-18T09:22:21.639Z</time></trkpt><trkpt lat="43.8334529" lon="12.6548272"><ele>110.0</ele><time>2026-04-18T09:22:22.64Z</time></trkpt><trkpt lat="43.8335895" lon="12.6548012"><ele>112.0</ele><time>2026-04-18T09:22:23.648Z</time></trkpt><trkpt lat="43.8337304" lon="12.6547554"><ele>114.0</ele><time>2026-04-18T09:22:24.639Z</time></trkpt><trkpt lat="43.8338731" lon="12.6546908"><ele>116.0</ele><time>2026-04-18T09:22:25.639Z</time></trkpt><trkpt lat="43.8340163" lon="12.654622"><ele>116.0</ele><time>2026-04-18T09:22:26.641Z</time></trkpt><trkpt lat="43.834152" lon="12.6545538"><ele>116.0</ele><time>2026-04-18T09:22:27.638Z</time></trkpt><trkpt lat="43.8342774" lon="12.6544951"><ele>116.0</ele><time>2026-04-18T09:22:28.639Z</time></trkpt><trkpt lat="43.8344054" lon="12.654441"><ele>116.0</ele><time>2026-04-18T09:22:29.639Z</time></trkpt><trkpt lat="43.8345219" lon="12.6543966"><ele>115.19999999999999</ele><time>2026-04-18T09:22:30.64Z</time></trkpt><trkpt lat="43.8346279" lon="12.6543519"><ele>114.39999999999999</ele><time>2026-04-18T09:22:31.639Z</time></trkpt><trkpt lat="43.8347258" lon="12.6543088"><ele>113.6</ele><time>2026-04-18T09:22:32.64Z</time></trkpt><trkpt lat="43.8348268" lon="12.654265"><ele>112.8</ele><time>2026-04-18T09:22:33.639Z</time></trkpt><trkpt lat="43.8349212" lon="12.6542118"><ele>112.0</ele><time>2026-04-18T09:22:34.64Z</time></trkpt><trkpt lat="43.8350158" lon="12.6541466"><ele>112.0</ele><time>2026-04-18T09:22:35.64Z</time></trkpt><trkpt lat="43.8351104" lon="12.65408"><ele>111.99999999999999</ele><time>2026-04-18T09:22:36.639Z</time></trkpt><trkpt lat="43.8352039" lon="12.6539993"><ele>111.99999999999999</ele><time>2026-04-18T09:22:37.639Z</time></trkpt><trkpt lat="43.8352982" lon="12.6539055"><ele>112.0</ele><time>2026-04-18T09:22:38.638Z</time></trkpt><trkpt lat="43.835393" lon="12.6538104"><ele>112.0</ele><time>2026-04-18T09:22:39.639Z</time></trkpt><trkpt lat="43.8354848" lon="12.6537054"><ele>111.39999999999999</ele><time>2026-04-18T09:22:40.639Z</time></trkpt><trkpt lat="43.8355653" lon="12.6536165"><ele>110.79999999999998</ele><time>2026-04-18T09:22:41.64Z</time></trkpt><trkpt lat="43.8356359" lon="12.6535365"><ele>110.2</ele><time>2026-04-18T09:22:42.64Z</time></trkpt><trkpt lat="43.8357094" lon="12.6534665"><ele>109.6</ele><time>2026-04-18T09:22:43.639Z</time></trkpt><trkpt lat="43.8357928" lon="12.6533932"><ele>109.0</ele><time>2026-04-18T09:22:44.639Z</time></trkpt><trkpt lat="43.8358762" lon="12.6533161"><ele>109.0</ele><time>2026-04-18T09:22:45.639Z</time></trkpt><trkpt lat="43.8359576" lon="12.6532324"><ele>109.0</ele><time>2026-04-18T09:22:46.639Z</time></trkpt><trkpt lat="43.836044" lon="12.6531461"><ele>109.0</ele><time>2026-04-18T09:22:47.64Z</time></trkpt><trkpt lat="43.8361254" lon="12.6530631"><ele>109.0</ele><time>2026-04-18T09:22:48.641Z</time></trkpt><trkpt lat="43.8362026" lon="12.6529814"><ele>109.0</ele><time>2026-04-18T09:22:49.64Z</time></trkpt><trkpt lat="43.8362774" lon="12.6529008"><ele>108.50000000000001</ele><time>2026-04-18T09:22:50.639Z</time></trkpt><trkpt lat="43.8363496" lon="12.6528233"><ele>108.0</ele><time>2026-04-18T09:22:51.641Z</time></trkpt><trkpt lat="43.8364209" lon="12.6527467"><ele>107.5</ele><time>2026-04-18T09:22:52.639Z</time></trkpt><trkpt lat="43.8364851" lon="12.6526682"><ele>107.0</ele><time>2026-04-18T09:22:53.642Z</time></trkpt><trkpt lat="43.8365419" lon="12.6525906"><ele>106.50000000000001</ele><time>2026-04-18T09:22:54.641Z</time></trkpt><trkpt lat="43.8365988" lon="12.6525194"><ele>106.0</ele><time>2026-04-18T09:22:55.641Z</time></trkpt><trkpt lat="43.8366561" lon="12.6524469"><ele>106.00000000000001</ele><time>2026-04-18T09:22:56.639Z</time></trkpt><trkpt lat="43.8367125" lon="12.6523772"><ele>106.0</ele><time>2026-04-18T09:22:57.639Z</time></trkpt><trkpt lat="43.8367662" lon="12.6523009"><ele>106.0</ele><time>2026-04-18T09:22:58.64Z</time></trkpt><trkpt lat="43.8368183" lon="12.6522192"><ele>106.0</ele><time>2026-04-18T09:22:59.639Z</time></trkpt><trkpt lat="43.8368733" lon="12.6521402"><ele>106.00000000000001</ele><time>2026-04-18T09:23:00.64Z</time></trkpt><trkpt lat="43.8369328" lon="12.652066"><ele>106.0</ele><time>2026-04-18T09:23:01.639Z</time></trkpt><trkpt lat="43.8369881" lon="12.651982"><ele>106.0</ele><time>2026-04-18T09:23:02.641Z</time></trkpt><trkpt lat="43.8370453" lon="12.651882"><ele>106.0</ele><time>2026-04-18T09:23:03.639Z</time></trkpt><trkpt lat="43.837089" lon="12.6517745"><ele>106.0</ele><time>2026-04-18T09:23:04.639Z</time></trkpt><trkpt lat="43.8371205" lon="12.6516541"><ele>106.0</ele><time>2026-04-18T09:23:05.639Z</time></trkpt><trkpt lat="43.8371552" lon="12.6515325"><ele>106.0</ele><time>2026-04-18T09:23:06.639Z</time></trkpt><trkpt lat="43.8371919" lon="12.6514154"><ele>106.00000000000001</ele><time>2026-04-18T09:23:07.639Z</time></trkpt><trkpt lat="43.8372276" lon="12.6512978"><ele>106.0</ele><time>2026-04-18T09:23:08.64Z</time></trkpt><trkpt lat="43.837258" lon="12.6511892"><ele>106.0</ele><time>2026-04-18T09:23:09.639Z</time></trkpt><trkpt lat="43.837294" lon="12.6510805"><ele>106.0</ele><time>2026-04-18T09:23:10.639Z</time></trkpt><trkpt lat="43.8373269" lon="12.6509703"><ele>106.00000000000001</ele><time>2026-04-18T09:23:11.639Z</time></trkpt><trkpt lat="43.8373502" lon="12.6508574"><ele>106.0</ele><time>2026-04-18T09:23:12.639Z</time></trkpt><trkpt lat="43.8373399" lon="12.6507512"><ele>105.83333333333334</ele><time>2026-04-18T09:23:13.639Z</time></trkpt><trkpt lat="43.837307" lon="12.650655"><ele>105.66666666666667</ele><time>2026-04-18T09:23:14.641Z</time></trkpt><trkpt lat="43.8372614" lon="12.650565"><ele>105.5</ele><time>2026-04-18T09:23:15.639Z</time></trkpt><trkpt lat="43.837219" lon="12.6504717"><ele>105.33333333333334</ele><time>2026-04-18T09:23:16.639Z</time></trkpt><trkpt lat="43.8371898" lon="12.6503742"><ele>105.16666666666667</ele><time>2026-04-18T09:23:17.639Z</time></trkpt><trkpt lat="43.8371782" lon="12.6502784"><ele>105.0</ele><time>2026-04-18T09:23:18.64Z</time></trkpt><trkpt lat="43.8372063" lon="12.6501189"><ele>105.5</ele><time>2026-04-18T09:23:20.64Z</time></trkpt><trkpt lat="43.8372547" lon="12.6499838"><ele>106.0</ele><time>2026-04-18T09:23:22.639Z</time></trkpt><trkpt lat="43.8373063" lon="12.6498436"><ele>106.5</ele><time>2026-04-18T09:23:24.639Z</time></trkpt><trkpt lat="43.8373382" lon="12.6497599"><ele>107.0</ele><time>2026-04-18T09:23:25.639Z</time></trkpt><trkpt lat="43.8373698" lon="12.6496689"><ele>107.5</ele><time>2026-04-18T09:23:26.64Z</time></trkpt><trkpt lat="43.8373988" lon="12.6495689"><ele>108.0</ele><time>2026-04-18T09:23:27.64Z</time></trkpt><trkpt lat="43.8374287" lon="12.6494656"><ele>107.71428571428571</ele><time>2026-04-18T09:23:28.639Z</time></trkpt><trkpt lat="43.8374591" lon="12.6493634"><ele>107.42857142857142</ele><time>2026-04-18T09:23:29.639Z</time></trkpt><trkpt lat="43.8374884" lon="12.649264"><ele>107.14285714285714</ele><time>2026-04-18T09:23:30.639Z</time></trkpt><trkpt lat="43.8375178" lon="12.6491688"><ele>106.85714285714286</ele><time>2026-04-18T09:23:31.639Z</time></trkpt><trkpt lat="43.8375413" lon="12.6490809"><ele>106.57142857142857</ele><time>2026-04-18T09:23:32.64Z</time></trkpt><trkpt lat="43.837563" lon="12.6489909"><ele>106.28571428571429</ele><time>2026-04-18T09:23:33.639Z</time></trkpt><trkpt lat="43.8375945" lon="12.6489082"><ele>106.0</ele><time>2026-04-18T09:23:34.64Z</time></trkpt><trkpt lat="43.8376298" lon="12.6488299"><ele>106.85714285714286</ele><time>2026-04-18T09:23:35.639Z</time></trkpt><trkpt lat="43.8376664" lon="12.64875"><ele>107.71428571428571</ele><time>2026-04-18T09:23:36.639Z</time></trkpt><trkpt lat="43.8377087" lon="12.6486732"><ele>108.57142857142857</ele><time>2026-04-18T09:23:37.64Z</time></trkpt><trkpt lat="43.8377535" lon="12.6485998"><ele>109.42857142857143</ele><time>2026-04-18T09:23:38.64Z</time></trkpt><trkpt lat="43.837805" lon="12.6485343"><ele>110.28571428571428</ele><time>2026-04-18T09:23:39.639Z</time></trkpt><trkpt lat="43.8378623" lon="12.6484896"><ele>111.14285714285714</ele><time>2026-04-18T09:23:40.639Z</time></trkpt><trkpt lat="43.837925" lon="12.6484575"><ele>112.0</ele><time>2026-04-18T09:23:41.64Z</time></trkpt><trkpt lat="43.8379904" lon="12.6484345"><ele>112.0</ele><time>2026-04-18T09:23:42.639Z</time></trkpt><trkpt lat="43.838056" lon="12.6484188"><ele>112.0</ele><time>2026-04-18T09:23:43.639Z</time></trkpt><trkpt lat="43.8381214" lon="12.6483984"><ele>112.0</ele><time>2026-04-18T09:23:44.64Z</time></trkpt><trkpt lat="43.8381866" lon="12.6483695"><ele>112.0</ele><time>2026-04-18T09:23:45.639Z</time></trkpt><trkpt lat="43.8382487" lon="12.6483204"><ele>112.0</ele><time>2026-04-18T09:23:46.639Z</time></trkpt><trkpt lat="43.8383087" lon="12.6482622"><ele>112.0</ele><time>2026-04-18T09:23:47.641Z</time></trkpt><trkpt lat="43.8383653" lon="12.6482002"><ele>112.0</ele><time>2026-04-18T09:23:48.64Z</time></trkpt><trkpt lat="43.838418" lon="12.6481353"><ele>113.33333333333334</ele><time>2026-04-18T09:23:49.639Z</time></trkpt><trkpt lat="43.8384696" lon="12.6480663"><ele>114.66666666666667</ele><time>2026-04-18T09:23:50.64Z</time></trkpt><trkpt lat="43.8385209" lon="12.6479999"><ele>116.0</ele><time>2026-04-18T09:23:51.639Z</time></trkpt><trkpt lat="43.8385708" lon="12.6479369"><ele>117.33333333333334</ele><time>2026-04-18T09:23:52.639Z</time></trkpt><trkpt lat="43.8386171" lon="12.647875"><ele>118.66666666666667</ele><time>2026-04-18T09:23:53.638Z</time></trkpt><trkpt lat="43.8386718" lon="12.6478273"><ele>120.0</ele><time>2026-04-18T09:23:54.639Z</time></trkpt><trkpt lat="43.8387622" lon="12.6477149"><ele>120.0</ele><time>2026-04-18T09:23:56.639Z</time></trkpt><trkpt lat="43.838838" lon="12.6476117"><ele>120.0</ele><time>2026-04-18T09:23:58.639Z</time></trkpt><trkpt lat="43.838875" lon="12.6475149"><ele>120.0</ele><time>2026-04-18T09:24:00.639Z</time></trkpt><trkpt lat="43.8388923" lon="12.6473834"><ele>120.0</ele><time>2026-04-18T09:24:02.64Z</time></trkpt><trkpt lat="43.8388724" lon="12.6472532"><ele>120.0</ele><time>2026-04-18T09:24:04.639Z</time></trkpt><trkpt lat="43.838892" lon="12.6470855"><ele>120.0</ele><time>2026-04-18T09:24:06.639Z</time></trkpt><trkpt lat="43.8389323" lon="12.6469971"><ele>120.0</ele><time>2026-04-18T09:24:07.639Z</time></trkpt><trkpt lat="43.8389804" lon="12.6469126"><ele>120.0</ele><time>2026-04-18T09:24:08.639Z</time></trkpt><trkpt lat="43.8390289" lon="12.6468357"><ele>120.0</ele><time>2026-04-18T09:24:09.639Z</time></trkpt><trkpt lat="43.8390724" lon="12.6467627"><ele>120.0</ele><time>2026-04-18T09:24:10.639Z</time></trkpt><trkpt lat="43.8391344" lon="12.6467135"><ele>120.0</ele><time>2026-04-18T09:24:11.638Z</time></trkpt><trkpt lat="43.8392049" lon="12.6466774"><ele>120.0</ele><time>2026-04-18T09:24:12.639Z</time></trkpt><trkpt lat="43.8392768" lon="12.6466501"><ele>120.16666666666667</ele><time>2026-04-18T09:24:13.639Z</time></trkpt><trkpt lat="43.8393495" lon="12.6466281"><ele>120.33333333333334</ele><time>2026-04-18T09:24:14.639Z</time></trkpt><trkpt lat="43.8394194" lon="12.6466042"><ele>120.5</ele><time>2026-04-18T09:24:15.639Z</time></trkpt><trkpt lat="43.839485" lon="12.6465757"><ele>120.66666666666667</ele><time>2026-04-18T09:24:16.639Z</time></trkpt><trkpt lat="43.8395437" lon="12.6465425"><ele>120.83333333333334</ele><time>2026-04-18T09:24:17.639Z</time></trkpt><trkpt lat="43.8396624" lon="12.6465022"><ele>121.0</ele><time>2026-04-18T09:24:19.639Z</time></trkpt><trkpt lat="43.839783" lon="12.6464586"><ele>121.00000000000001</ele><time>2026-04-18T09:24:21.639Z</time></trkpt><trkpt lat="43.8398553" lon="12.6464404"><ele>121.0</ele><time>2026-04-18T09:24:22.639Z</time></trkpt><trkpt lat="43.839932" lon="12.6464159"><ele>121.0</ele><time>2026-04-18T09:24:23.64Z</time></trkpt><trkpt lat="43.8400051" lon="12.6463841"><ele>121.0</ele><time>2026-04-18T09:24:24.644Z</time></trkpt><trkpt lat="43.8400725" lon="12.6463574"><ele>121.00000000000001</ele><time>2026-04-18T09:24:25.639Z</time></trkpt><trkpt lat="43.8401365" lon="12.6463406"><ele>121.0</ele><time>2026-04-18T09:24:26.639Z</time></trkpt><trkpt lat="43.8402529" lon="12.6462923"><ele>120.83333333333334</ele><time>2026-04-18T09:24:28.64Z</time></trkpt><trkpt lat="43.8403134" lon="12.6462606"><ele>120.66666666666667</ele><time>2026-04-18T09:24:29.64Z</time></trkpt><trkpt lat="43.8403762" lon="12.6462263"><ele>120.5</ele><time>2026-04-18T09:24:30.64Z</time></trkpt><trkpt lat="43.8404381" lon="12.6461621"><ele>120.33333333333334</ele><time>2026-04-18T09:24:31.64Z</time></trkpt><trkpt lat="43.8404966" lon="12.6460804"><ele>120.16666666666667</ele><time>2026-04-18T09:24:32.639Z</time></trkpt><trkpt lat="43.8405458" lon="12.6459874"><ele>120.0</ele><time>2026-04-18T09:24:33.639Z</time></trkpt><trkpt lat="43.8405871" lon="12.6458908"><ele>120.0</ele><time>2026-04-18T09:24:34.639Z</time></trkpt><trkpt lat="43.8406166" lon="12.6457904"><ele>120.0</ele><time>2026-04-18T09:24:35.638Z</time></trkpt><trkpt lat="43.8406439" lon="12.6456902"><ele>120.0</ele><time>2026-04-18T09:24:36.638Z</time></trkpt><trkpt lat="43.8406627" lon="12.6455769"><ele>120.0</ele><time>2026-04-18T09:24:37.637Z</time></trkpt><trkpt lat="43.8406814" lon="12.6454557"><ele>120.0</ele><time>2026-04-18T09:24:38.638Z</time></trkpt><trkpt lat="43.8407031" lon="12.6453276"><ele>120.0</ele><time>2026-04-18T09:24:39.638Z</time></trkpt><trkpt lat="43.8407287" lon="12.6452132"><ele>119.66666666666667</ele><time>2026-04-18T09:24:40.638Z</time></trkpt><trkpt lat="43.8407518" lon="12.6451129"><ele>119.33333333333334</ele><time>2026-04-18T09:24:41.638Z</time></trkpt><trkpt lat="43.8407746" lon="12.6450277"><ele>119.0</ele><time>2026-04-18T09:24:42.638Z</time></trkpt><trkpt lat="43.8408151" lon="12.6448778"><ele>118.66666666666667</ele><time>2026-04-18T09:24:44.638Z</time></trkpt><trkpt lat="43.8408207" lon="12.6447816"><ele>118.33333333333334</ele><time>2026-04-18T09:24:45.638Z</time></trkpt><trkpt lat="43.8408156" lon="12.6446618"><ele>118.0</ele><time>2026-04-18T09:24:46.638Z</time></trkpt><trkpt lat="43.8408035" lon="12.6445423"><ele>117.80000000000001</ele><time>2026-04-18T09:24:47.638Z</time></trkpt><trkpt lat="43.8407993" lon="12.6444189"><ele>117.60000000000001</ele><time>2026-04-18T09:24:48.639Z</time></trkpt><trkpt lat="43.8408232" lon="12.6442854"><ele>117.39999999999999</ele><time>2026-04-18T09:24:49.639Z</time></trkpt><trkpt lat="43.8408658" lon="12.6441405"><ele>117.19999999999999</ele><time>2026-04-18T09:24:50.64Z</time></trkpt><trkpt lat="43.8409094" lon="12.643996"><ele>117.0</ele><time>2026-04-18T09:24:51.639Z</time></trkpt><trkpt lat="43.8409475" lon="12.643858"><ele>119.0</ele><time>2026-04-18T09:24:52.639Z</time></trkpt><trkpt lat="43.8409875" lon="12.6437131"><ele>121.0</ele><time>2026-04-18T09:24:53.639Z</time></trkpt><trkpt lat="43.8410288" lon="12.6435582"><ele>123.0</ele><time>2026-04-18T09:24:54.638Z</time></trkpt><trkpt lat="43.841071" lon="12.6433947"><ele>125.0</ele><time>2026-04-18T09:24:55.638Z</time></trkpt><trkpt lat="43.8411129" lon="12.6432242"><ele>125.0</ele><time>2026-04-18T09:24:56.638Z</time></trkpt><trkpt lat="43.8411531" lon="12.6430606"><ele>125.0</ele><time>2026-04-18T09:24:57.638Z</time></trkpt><trkpt lat="43.8411931" lon="12.6429006"><ele>125.0</ele><time>2026-04-18T09:24:58.638Z</time></trkpt><trkpt lat="43.841231" lon="12.6427412"><ele>125.0</ele><time>2026-04-18T09:24:59.637Z</time></trkpt><trkpt lat="43.8412681" lon="12.6425881"><ele>124.2</ele><time>2026-04-18T09:25:00.638Z</time></trkpt><trkpt lat="43.8413052" lon="12.6424483"><ele>123.4</ele><time>2026-04-18T09:25:01.638Z</time></trkpt><trkpt lat="43.8413265" lon="12.6423179"><ele>122.6</ele><time>2026-04-18T09:25:02.638Z</time></trkpt><trkpt lat="43.8413398" lon="12.6421915"><ele>121.8</ele><time>2026-04-18T09:25:03.637Z</time></trkpt><trkpt lat="43.8413527" lon="12.642073"><ele>121.0</ele><time>2026-04-18T09:25:04.637Z</time></trkpt><trkpt lat="43.8413685" lon="12.6419661"><ele>120.83333333333334</ele><time>2026-04-18T09:25:05.638Z</time></trkpt><trkpt lat="43.8413841" lon="12.6418691"><ele>120.66666666666667</ele><time>2026-04-18T09:25:06.638Z</time></trkpt><trkpt lat="43.8414108" lon="12.6417754"><ele>120.5</ele><time>2026-04-18T09:25:07.638Z</time></trkpt><trkpt lat="43.841448" lon="12.6416703"><ele>120.33333333333334</ele><time>2026-04-18T09:25:08.638Z</time></trkpt><trkpt lat="43.8414905" lon="12.6415557"><ele>120.16666666666667</ele><time>2026-04-18T09:25:09.637Z</time></trkpt><trkpt lat="43.8415354" lon="12.6414416"><ele>120.0</ele><time>2026-04-18T09:25:10.638Z</time></trkpt><trkpt lat="43.8415606" lon="12.6413218"><ele>120.0</ele><time>2026-04-18T09:25:11.638Z</time></trkpt><trkpt lat="43.8415669" lon="12.6412131"><ele>120.0</ele><time>2026-04-18T09:25:12.638Z</time></trkpt><trkpt lat="43.8415598" lon="12.6411162"><ele>120.0</ele><time>2026-04-18T09:25:13.636Z</time></trkpt><trkpt lat="43.8415504" lon="12.6409794"><ele>120.0</ele><time>2026-04-18T09:25:15.638Z</time></trkpt><trkpt lat="43.8415859" lon="12.6408647"><ele>120.0</ele><time>2026-04-18T09:25:17.638Z</time></trkpt><trkpt lat="43.8416759" lon="12.6407485"><ele>119.6</ele><time>2026-04-18T09:25:19.638Z</time></trkpt><trkpt lat="43.8417401" lon="12.6406826"><ele>119.2</ele><time>2026-04-18T09:25:20.638Z</time></trkpt><trkpt lat="43.8418102" lon="12.6406198"><ele>118.80000000000001</ele><time>2026-04-18T09:25:21.638Z</time></trkpt><trkpt lat="43.8419006" lon="12.6405784"><ele>118.4</ele><time>2026-04-18T09:25:22.638Z</time></trkpt><trkpt lat="43.8420102" lon="12.6405615"><ele>118.0</ele><time>2026-04-18T09:25:23.638Z</time></trkpt><trkpt lat="43.8421131" lon="12.640565"><ele>119.2</ele><time>2026-04-18T09:25:24.638Z</time></trkpt><trkpt lat="43.842205" lon="12.6405808"><ele>120.4</ele><time>2026-04-18T09:25:25.638Z</time></trkpt><trkpt lat="43.8422867" lon="12.640606"><ele>121.60000000000001</ele><time>2026-04-18T09:25:26.639Z</time></trkpt><trkpt lat="43.8423573" lon="12.6406742"><ele>122.80000000000001</ele><time>2026-04-18T09:25:27.637Z</time></trkpt><trkpt lat="43.8424144" lon="12.6407827"><ele>124.0</ele><time>2026-04-18T09:25:28.638Z</time></trkpt><trkpt lat="43.842465" lon="12.6409267"><ele>124.0</ele><time>2026-04-18T09:25:29.638Z</time></trkpt><trkpt lat="43.84253" lon="12.6410433"><ele>124.0</ele><time>2026-04-18T09:25:30.638Z</time></trkpt><trkpt lat="43.8426117" lon="12.6411383"><ele>124.0</ele><time>2026-04-18T09:25:31.638Z</time></trkpt><trkpt lat="43.8427" lon="12.641215"><ele>124.0</ele><time>2026-04-18T09:25:32.639Z</time></trkpt><trkpt lat="43.842785" lon="12.641285"><ele>124.0</ele><time>2026-04-18T09:25:33.638Z</time></trkpt><trkpt lat="43.8428783" lon="12.641365"><ele>129.0</ele><time>2026-04-18T09:25:34.638Z</time></trkpt><trkpt lat="43.8429983" lon="12.6414533"><ele>134.0</ele><time>2026-04-18T09:25:35.638Z</time></trkpt><trkpt lat="43.843145" lon="12.6415583"><ele>139.0</ele><time>2026-04-18T09:25:36.639Z</time></trkpt><trkpt lat="43.8433083" lon="12.6416617"><ele>141.33333333333334</ele><time>2026-04-18T09:25:37.638Z</time></trkpt><trkpt lat="43.8434833" lon="12.641765"><ele>143.66666666666666</ele><time>2026-04-18T09:25:38.638Z</time></trkpt><trkpt lat="43.843675" lon="12.6418733"><ele>146.0</ele><time>2026-04-18T09:25:39.638Z</time></trkpt><trkpt lat="43.8438733" lon="12.641985"><ele>148.33333333333331</ele><time>2026-04-18T09:25:40.638Z</time></trkpt><trkpt lat="43.8440583" lon="12.6420917"><ele>150.66666666666666</ele><time>2026-04-18T09:25:41.638Z</time></trkpt><trkpt lat="43.8442233" lon="12.6422"><ele>153.0</ele><time>2026-04-18T09:25:42.638Z</time></trkpt><trkpt lat="43.84436" lon="12.6422983"><ele>156.0</ele><time>2026-04-18T09:25:43.637Z</time></trkpt><trkpt lat="43.8444767" lon="12.642385"><ele>159.0</ele><time>2026-04-18T09:25:44.637Z</time></trkpt><trkpt lat="43.8445767" lon="12.6424583"><ele>162.0</ele><time>2026-04-18T09:25:45.638Z</time></trkpt><trkpt lat="43.8446633" lon="12.642515"><ele>165.0</ele><time>2026-04-18T09:25:46.638Z</time></trkpt><trkpt lat="43.8447467" lon="12.6425633"><ele>168.0</ele><time>2026-04-18T09:25:47.637Z</time></trkpt><trkpt lat="43.8448317" lon="12.6426"><ele>168.0</ele><time>2026-04-18T09:25:48.637Z</time></trkpt><trkpt lat="43.84492" lon="12.6426067"><ele>168.0</ele><time>2026-04-18T09:25:49.637Z</time></trkpt><trkpt lat="43.8450267" lon="12.6425783"><ele>168.0</ele><time>2026-04-18T09:25:50.638Z</time></trkpt><trkpt lat="43.845135" lon="12.6425133"><ele>168.0</ele><time>2026-04-18T09:25:51.638Z</time></trkpt><trkpt lat="43.84523" lon="12.64244"><ele>168.0</ele><time>2026-04-18T09:25:52.637Z</time></trkpt><trkpt lat="43.8453117" lon="12.6423783"><ele>170.33333333333334</ele><time>2026-04-18T09:25:53.638Z</time></trkpt><trkpt lat="43.8453933" lon="12.6423467"><ele>172.66666666666666</ele><time>2026-04-18T09:25:54.637Z</time></trkpt><trkpt lat="43.845465" lon="12.6423517"><ele>175.0</ele><time>2026-04-18T09:25:55.637Z</time></trkpt><trkpt lat="43.8455283" lon="12.6423967"><ele>177.33333333333331</ele><time>2026-04-18T09:25:56.638Z</time></trkpt><trkpt lat="43.84558" lon="12.6424683"><ele>179.66666666666666</ele><time>2026-04-18T09:25:57.638Z</time></trkpt><trkpt lat="43.84561" lon="12.6425667"><ele>182.0</ele><time>2026-04-18T09:25:58.638Z</time></trkpt><trkpt lat="43.8456383" lon="12.6426783"><ele>182.0</ele><time>2026-04-18T09:25:59.638Z</time></trkpt><trkpt lat="43.8456667" lon="12.6427883"><ele>182.0</ele><time>2026-04-18T09:26:00.638Z</time></trkpt><trkpt lat="43.84571" lon="12.6428733"><ele>182.0</ele><time>2026-04-18T09:26:01.637Z</time></trkpt><trkpt lat="43.8457583" lon="12.64295"><ele>182.0</ele><time>2026-04-18T09:26:02.638Z</time></trkpt><trkpt lat="43.845815" lon="12.6430117"><ele>182.0</ele><time>2026-04-18T09:26:03.638Z</time></trkpt><trkpt lat="43.8458772" lon="12.6430476"><ele>182.0</ele><time>2026-04-18T09:26:04.638Z</time></trkpt><trkpt lat="43.8459452" lon="12.643059"><ele>182.0</ele><time>2026-04-18T09:26:05.638Z</time></trkpt><trkpt lat="43.8460178" lon="12.6430515"><ele>187.0</ele><time>2026-04-18T09:26:06.637Z</time></trkpt><trkpt lat="43.846098" lon="12.6430226"><ele>192.0</ele><time>2026-04-18T09:26:07.636Z</time></trkpt><trkpt lat="43.8461873" lon="12.6429677"><ele>197.0</ele><time>2026-04-18T09:26:08.638Z</time></trkpt><trkpt lat="43.8463029" lon="12.6428978"><ele>202.0</ele><time>2026-04-18T09:26:09.637Z</time></trkpt><trkpt lat="43.8464378" lon="12.6428259"><ele>200.5</ele><time>2026-04-18T09:26:10.638Z</time></trkpt><trkpt lat="43.8465746" lon="12.6427655"><ele>199.0</ele><time>2026-04-18T09:26:11.637Z</time></trkpt><trkpt lat="43.8467029" lon="12.6427103"><ele>197.5</ele><time>2026-04-18T09:26:12.637Z</time></trkpt><trkpt lat="43.8468125" lon="12.6426665"><ele>196.0</ele><time>2026-04-18T09:26:13.638Z</time></trkpt><trkpt lat="43.8468969" lon="12.642635"><ele>200.4</ele><time>2026-04-18T09:26:14.639Z</time></trkpt><trkpt lat="43.8469686" lon="12.6426095"><ele>204.8</ele><time>2026-04-18T09:26:15.637Z</time></trkpt><trkpt lat="43.8470922" lon="12.642572"><ele>209.20000000000002</ele><time>2026-04-18T09:26:17.637Z</time></trkpt><trkpt lat="43.8471786" lon="12.642631"><ele>213.60000000000002</ele><time>2026-04-18T09:26:19.637Z</time></trkpt><trkpt lat="43.8471943" lon="12.6427957"><ele>218.0</ele><time>2026-04-18T09:26:21.637Z</time></trkpt><trkpt lat="43.8471949" lon="12.642902"><ele>218.33333333333334</ele><time>2026-04-18T09:26:22.637Z</time></trkpt><trkpt lat="43.8471953" lon="12.6430037"><ele>218.66666666666669</ele><time>2026-04-18T09:26:23.637Z</time></trkpt><trkpt lat="43.8472242" lon="12.643088"><ele>219.0</ele><time>2026-04-18T09:26:24.638Z</time></trkpt><trkpt lat="43.8472723" lon="12.6431479"><ele>219.33333333333331</ele><time>2026-04-18T09:26:25.639Z</time></trkpt><trkpt lat="43.8473298" lon="12.6431862"><ele>219.66666666666666</ele><time>2026-04-18T09:26:26.639Z</time></trkpt><trkpt lat="43.8473896" lon="12.6432155"><ele>220.0</ele><time>2026-04-18T09:26:27.638Z</time></trkpt><trkpt lat="43.8475072" lon="12.643247"><ele>221.2</ele><time>2026-04-18T09:26:29.638Z</time></trkpt><trkpt lat="43.8476323" lon="12.6432783"><ele>222.4</ele><time>2026-04-18T09:26:31.638Z</time></trkpt><trkpt lat="43.8476951" lon="12.6432944"><ele>223.60000000000002</ele><time>2026-04-18T09:26:32.638Z</time></trkpt><trkpt lat="43.8478126" lon="12.6432793"><ele>224.8</ele><time>2026-04-18T09:26:34.637Z</time></trkpt><trkpt lat="43.8479056" lon="12.6431611"><ele>226.0</ele><time>2026-04-18T09:26:36.638Z</time></trkpt><trkpt lat="43.8479402" lon="12.6430711"><ele>225.99999999999997</ele><time>2026-04-18T09:26:37.638Z</time></trkpt><trkpt lat="43.847959" lon="12.6429729"><ele>226.0</ele><time>2026-04-18T09:26:38.638Z</time></trkpt><trkpt lat="43.8479588" lon="12.6428742"><ele>226.0</ele><time>2026-04-18T09:26:39.636Z</time></trkpt><trkpt lat="43.847943" lon="12.6427816"><ele>226.0</ele><time>2026-04-18T09:26:40.637Z</time></trkpt><trkpt lat="43.8479263" lon="12.6426953"><ele>225.99999999999997</ele><time>2026-04-18T09:26:41.638Z</time></trkpt><trkpt lat="43.8479258" lon="12.6425341"><ele>226.0</ele><time>2026-04-18T09:26:43.638Z</time></trkpt><trkpt lat="43.8479649" lon="12.6423985"><ele>226.99999999999997</ele><time>2026-04-18T09:26:45.637Z</time></trkpt><trkpt lat="43.8480542" lon="12.6422735"><ele>228.0</ele><time>2026-04-18T09:26:47.637Z</time></trkpt><trkpt lat="43.8481137" lon="12.6422217"><ele>229.0</ele><time>2026-04-18T09:26:48.637Z</time></trkpt><trkpt lat="43.8481809" lon="12.6421845"><ele>230.0</ele><time>2026-04-18T09:26:49.637Z</time></trkpt><trkpt lat="43.8482499" lon="12.6421616"><ele>230.99999999999997</ele><time>2026-04-18T09:26:50.638Z</time></trkpt><trkpt lat="43.8483151" lon="12.6421467"><ele>232.0</ele><time>2026-04-18T09:26:51.636Z</time></trkpt><trkpt lat="43.848386" lon="12.6421434"><ele>232.0</ele><time>2026-04-18T09:26:52.637Z</time></trkpt><trkpt lat="43.848455" lon="12.6421486"><ele>232.0</ele><time>2026-04-18T09:26:53.638Z</time></trkpt><trkpt lat="43.8485764" lon="12.642117"><ele>232.0</ele><time>2026-04-18T09:26:55.637Z</time></trkpt><trkpt lat="43.8486875" lon="12.6420589"><ele>232.0</ele><time>2026-04-18T09:26:57.637Z</time></trkpt><trkpt lat="43.8487537" lon="12.6420016"><ele>232.0</ele><time>2026-04-18T09:26:58.638Z</time></trkpt><trkpt lat="43.8488182" lon="12.641938"><ele>233.99999999999997</ele><time>2026-04-18T09:26:59.638Z</time></trkpt><trkpt lat="43.8488783" lon="12.6418769"><ele>236.0</ele><time>2026-04-18T09:27:00.638Z</time></trkpt><trkpt lat="43.8489406" lon="12.6418101"><ele>238.0</ele><time>2026-04-18T09:27:01.637Z</time></trkpt><trkpt lat="43.8490035" lon="12.6417388"><ele>240.0</ele><time>2026-04-18T09:27:02.639Z</time></trkpt><trkpt lat="43.8490666" lon="12.6416627"><ele>241.99999999999997</ele><time>2026-04-18T09:27:03.637Z</time></trkpt><trkpt lat="43.849131" lon="12.6415809"><ele>244.0</ele><time>2026-04-18T09:27:04.637Z</time></trkpt><trkpt lat="43.8491931" lon="12.6414946"><ele>244.0</ele><time>2026-04-18T09:27:05.638Z</time></trkpt><trkpt lat="43.8492558" lon="12.6414053"><ele>243.99999999999997</ele><time>2026-04-18T09:27:06.637Z</time></trkpt><trkpt lat="43.8493175" lon="12.6413057"><ele>243.99999999999997</ele><time>2026-04-18T09:27:07.637Z</time></trkpt><trkpt lat="43.8493752" lon="12.6411971"><ele>244.0</ele><time>2026-04-18T09:27:08.638Z</time></trkpt><trkpt lat="43.8494327" lon="12.6410917"><ele>244.0</ele><time>2026-04-18T09:27:09.637Z</time></trkpt><trkpt lat="43.8494903" lon="12.6409835"><ele>246.6</ele><time>2026-04-18T09:27:10.638Z</time></trkpt><trkpt lat="43.849563" lon="12.6408874"><ele>249.2</ele><time>2026-04-18T09:27:11.637Z</time></trkpt><trkpt lat="43.8496449" lon="12.6408048"><ele>251.79999999999998</ele><time>2026-04-18T09:27:12.638Z</time></trkpt><trkpt lat="43.8497198" lon="12.6407234"><ele>254.39999999999998</ele><time>2026-04-18T09:27:13.638Z</time></trkpt><trkpt lat="43.8497962" lon="12.6406549"><ele>257.0</ele><time>2026-04-18T09:27:14.638Z</time></trkpt><trkpt lat="43.8498674" lon="12.640616"><ele>257.0</ele><time>2026-04-18T09:27:15.638Z</time></trkpt><trkpt lat="43.8499798" lon="12.6405612"><ele>257.0</ele><time>2026-04-18T09:27:17.644Z</time></trkpt><trkpt lat="43.8500786" lon="12.6405424"><ele>257.0</ele><time>2026-04-18T09:27:19.638Z</time></trkpt><trkpt lat="43.8501888" lon="12.6405794"><ele>257.0</ele><time>2026-04-18T09:27:21.638Z</time></trkpt><trkpt lat="43.8502511" lon="12.6406191"><ele>257.0</ele><time>2026-04-18T09:27:22.638Z</time></trkpt><trkpt lat="43.8503162" lon="12.6406728"><ele>258.1666666666667</ele><time>2026-04-18T09:27:23.638Z</time></trkpt><trkpt lat="43.8503837" lon="12.6407088"><ele>259.33333333333337</ele><time>2026-04-18T09:27:24.638Z</time></trkpt><trkpt lat="43.8504503" lon="12.6407288"><ele>260.5</ele><time>2026-04-18T09:27:25.639Z</time></trkpt><trkpt lat="43.8505269" lon="12.6407581"><ele>261.6666666666667</ele><time>2026-04-18T09:27:26.638Z</time></trkpt><trkpt lat="43.8506072" lon="12.6407735"><ele>262.8333333333333</ele><time>2026-04-18T09:27:27.637Z</time></trkpt><trkpt lat="43.8506872" lon="12.6407854"><ele>264.0</ele><time>2026-04-18T09:27:28.637Z</time></trkpt><trkpt lat="43.8507608" lon="12.6407921"><ele>264.0</ele><time>2026-04-18T09:27:29.636Z</time></trkpt><trkpt lat="43.8508274" lon="12.6408164"><ele>264.0</ele><time>2026-04-18T09:27:30.636Z</time></trkpt><trkpt lat="43.850887" lon="12.6408625"><ele>264.0</ele><time>2026-04-18T09:27:31.636Z</time></trkpt><trkpt lat="43.8509401" lon="12.6409205"><ele>264.0</ele><time>2026-04-18T09:27:32.638Z</time></trkpt><trkpt lat="43.850961" lon="12.6410144"><ele>264.0</ele><time>2026-04-18T09:27:33.636Z</time></trkpt><trkpt lat="43.8509762" lon="12.6411184"><ele>264.0</ele><time>2026-04-18T09:27:34.636Z</time></trkpt><trkpt lat="43.8509923" lon="12.6412297"><ele>264.0</ele><time>2026-04-18T09:27:35.636Z</time></trkpt><trkpt lat="43.8510078" lon="12.6413419"><ele>265.5</ele><time>2026-04-18T09:27:36.636Z</time></trkpt><trkpt lat="43.8510269" lon="12.6414453"><ele>267.0</ele><time>2026-04-18T09:27:37.636Z</time></trkpt><trkpt lat="43.8510619" lon="12.6415402"><ele>268.5</ele><time>2026-04-18T09:27:38.639Z</time></trkpt><trkpt lat="43.8511068" lon="12.6416343"><ele>270.0</ele><time>2026-04-18T09:27:39.636Z</time></trkpt><trkpt lat="43.8511634" lon="12.6417283"><ele>271.5</ele><time>2026-04-18T09:27:40.637Z</time></trkpt><trkpt lat="43.8512414" lon="12.6418123"><ele>273.0</ele><time>2026-04-18T09:27:41.636Z</time></trkpt><trkpt lat="43.8513287" lon="12.6418857"><ele>273.0</ele><time>2026-04-18T09:27:42.636Z</time></trkpt><trkpt lat="43.8514121" lon="12.6419619"><ele>273.0</ele><time>2026-04-18T09:27:43.637Z</time></trkpt><trkpt lat="43.8514858" lon="12.6420374"><ele>273.0</ele><time>2026-04-18T09:27:44.638Z</time></trkpt><trkpt lat="43.8515504" lon="12.6421046"><ele>273.0</ele><time>2026-04-18T09:27:45.637Z</time></trkpt><trkpt lat="43.8516028" lon="12.642159"><ele>273.0</ele><time>2026-04-18T09:27:46.637Z</time></trkpt><trkpt lat="43.8516733" lon="12.6422542"><ele>273.0</ele><time>2026-04-18T09:27:48.637Z</time></trkpt><trkpt lat="43.851733" lon="12.6423192"><ele>271.8</ele><time>2026-04-18T09:27:50.637Z</time></trkpt><trkpt lat="43.8518095" lon="12.6423821"><ele>270.6</ele><time>2026-04-18T09:27:53.638Z</time></trkpt><trkpt lat="43.8519028" lon="12.6424101"><ele>269.4</ele><time>2026-04-18T09:27:55.637Z</time></trkpt><trkpt lat="43.8520046" lon="12.6424153"><ele>268.2</ele><time>2026-04-18T09:27:57.636Z</time></trkpt><trkpt lat="43.8521191" lon="12.6423947"><ele>267.0</ele><time>2026-04-18T09:27:59.637Z</time></trkpt><trkpt lat="43.8522468" lon="12.6424155"><ele>267.0</ele><time>2026-04-18T09:28:01.636Z</time></trkpt><trkpt lat="43.8523261" lon="12.642468"><ele>267.0</ele><time>2026-04-18T09:28:02.636Z</time></trkpt><trkpt lat="43.8523889" lon="12.6425619"><ele>267.0</ele><time>2026-04-18T09:28:03.636Z</time></trkpt><trkpt lat="43.8524561" lon="12.6426655"><ele>267.0</ele><time>2026-04-18T09:28:04.636Z</time></trkpt><trkpt lat="43.8525204" lon="12.6427688"><ele>267.0</ele><time>2026-04-18T09:28:05.636Z</time></trkpt><trkpt lat="43.8525839" lon="12.642882"><ele>269.1666666666667</ele><time>2026-04-18T09:28:06.638Z</time></trkpt><trkpt lat="43.8526413" lon="12.6429974"><ele>271.3333333333333</ele><time>2026-04-18T09:28:07.638Z</time></trkpt><trkpt lat="43.8526935" lon="12.6431061"><ele>273.5</ele><time>2026-04-18T09:28:08.639Z</time></trkpt><trkpt lat="43.8527429" lon="12.6432055"><ele>275.66666666666663</ele><time>2026-04-18T09:28:09.637Z</time></trkpt><trkpt lat="43.852776" lon="12.6432979"><ele>277.8333333333333</ele><time>2026-04-18T09:28:10.636Z</time></trkpt><trkpt lat="43.8528227" lon="12.6433817"><ele>280.0</ele><time>2026-04-18T09:28:11.637Z</time></trkpt><trkpt lat="43.8528766" lon="12.6434576"><ele>280.0</ele><time>2026-04-18T09:28:12.638Z</time></trkpt><trkpt lat="43.8529376" lon="12.6435393"><ele>280.0</ele><time>2026-04-18T09:28:13.636Z</time></trkpt><trkpt lat="43.8530058" lon="12.6436084"><ele>280.0</ele><time>2026-04-18T09:28:14.637Z</time></trkpt><trkpt lat="43.8530856" lon="12.6436685"><ele>280.0</ele><time>2026-04-18T09:28:15.636Z</time></trkpt><trkpt lat="43.8531726" lon="12.6437408"><ele>280.0</ele><time>2026-04-18T09:28:16.636Z</time></trkpt><trkpt lat="43.8532476" lon="12.6438061"><ele>281.0</ele><time>2026-04-18T09:28:17.636Z</time></trkpt><trkpt lat="43.8533196" lon="12.6438536"><ele>282.0</ele><time>2026-04-18T09:28:18.637Z</time></trkpt><trkpt lat="43.853391" lon="12.6438877"><ele>283.0</ele><time>2026-04-18T09:28:19.637Z</time></trkpt><trkpt lat="43.8534612" lon="12.643907"><ele>284.0</ele><time>2026-04-18T09:28:20.637Z</time></trkpt><trkpt lat="43.8535314" lon="12.6439177"><ele>285.0</ele><time>2026-04-18T09:28:21.637Z</time></trkpt><trkpt lat="43.8536094" lon="12.643911"><ele>286.0</ele><time>2026-04-18T09:28:22.636Z</time></trkpt><trkpt lat="43.8536891" lon="12.6438968"><ele>286.0</ele><time>2026-04-18T09:28:23.637Z</time></trkpt><trkpt lat="43.8537662" lon="12.6438748"><ele>286.0</ele><time>2026-04-18T09:28:24.637Z</time></trkpt><trkpt lat="43.8538415" lon="12.6438473"><ele>286.0</ele><time>2026-04-18T09:28:25.637Z</time></trkpt><trkpt lat="43.8539176" lon="12.6438325"><ele>286.0</ele><time>2026-04-18T09:28:26.637Z</time></trkpt><trkpt lat="43.8539956" lon="12.6438328"><ele>286.0</ele><time>2026-04-18T09:28:27.636Z</time></trkpt><trkpt lat="43.8540716" lon="12.6438386"><ele>286.0</ele><time>2026-04-18T09:28:28.637Z</time></trkpt><trkpt lat="43.8541352" lon="12.6438794"><ele>286.0</ele><time>2026-04-18T09:28:29.636Z</time></trkpt><trkpt lat="43.8541941" lon="12.6439489"><ele>286.0</ele><time>2026-04-18T09:28:30.636Z</time></trkpt><trkpt lat="43.854253" lon="12.644039"><ele>286.0</ele><time>2026-04-18T09:28:31.636Z</time></trkpt><trkpt lat="43.8543321" lon="12.6441331"><ele>286.0</ele><time>2026-04-18T09:28:32.636Z</time></trkpt><trkpt lat="43.8544307" lon="12.6442318"><ele>286.0</ele><time>2026-04-18T09:28:33.636Z</time></trkpt><trkpt lat="43.8545464" lon="12.6443305"><ele>290.0</ele><time>2026-04-18T09:28:34.637Z</time></trkpt><trkpt lat="43.8546735" lon="12.6444386"><ele>294.0</ele><time>2026-04-18T09:28:35.636Z</time></trkpt><trkpt lat="43.8548183" lon="12.6445587"><ele>298.0</ele><time>2026-04-18T09:28:36.637Z</time></trkpt><trkpt lat="43.8549581" lon="12.644671"><ele>298.0</ele><time>2026-04-18T09:28:37.636Z</time></trkpt><trkpt lat="43.8550854" lon="12.64478"><ele>298.0</ele><time>2026-04-18T09:28:38.637Z</time></trkpt><trkpt lat="43.8551914" lon="12.6448733"><ele>298.0</ele><time>2026-04-18T09:28:39.635Z</time></trkpt><trkpt lat="43.8552921" lon="12.6449397"><ele>298.0</ele><time>2026-04-18T09:28:40.638Z</time></trkpt><trkpt lat="43.8553929" lon="12.644989"><ele>302.0</ele><time>2026-04-18T09:28:41.636Z</time></trkpt><trkpt lat="43.8554955" lon="12.6450354"><ele>306.0</ele><time>2026-04-18T09:28:42.636Z</time></trkpt><trkpt lat="43.855585" lon="12.6450931"><ele>310.0</ele><time>2026-04-18T09:28:43.636Z</time></trkpt><trkpt lat="43.8556567" lon="12.6451731"><ele>314.0</ele><time>2026-04-18T09:28:44.636Z</time></trkpt><trkpt lat="43.8557106" lon="12.6452863"><ele>318.0</ele><time>2026-04-18T09:28:45.636Z</time></trkpt><trkpt lat="43.8557357" lon="12.6454356"><ele>318.0</ele><time>2026-04-18T09:28:46.636Z</time></trkpt><trkpt lat="43.8557323" lon="12.645604"><ele>318.0</ele><time>2026-04-18T09:28:47.636Z</time></trkpt><trkpt lat="43.8556952" lon="12.6457788"><ele>318.0</ele><time>2026-04-18T09:28:48.636Z</time></trkpt><trkpt lat="43.8556277" lon="12.6459503"><ele>318.0</ele><time>2026-04-18T09:28:49.637Z</time></trkpt><trkpt lat="43.8555443" lon="12.6461066"><ele>321.25</ele><time>2026-04-18T09:28:50.636Z</time></trkpt><trkpt lat="43.8554698" lon="12.6462578"><ele>324.5</ele><time>2026-04-18T09:28:51.636Z</time></trkpt><trkpt lat="43.8554087" lon="12.6464025"><ele>327.75</ele><time>2026-04-18T09:28:52.636Z</time></trkpt><trkpt lat="43.855371" lon="12.6465288"><ele>331.0</ele><time>2026-04-18T09:28:53.636Z</time></trkpt><trkpt lat="43.8553512" lon="12.6466699"><ele>331.0</ele><time>2026-04-18T09:28:54.637Z</time></trkpt><trkpt lat="43.8553489" lon="12.6468378"><ele>331.0</ele><time>2026-04-18T09:28:55.637Z</time></trkpt><trkpt lat="43.855353" lon="12.647012"><ele>331.0</ele><time>2026-04-18T09:28:56.637Z</time></trkpt><trkpt lat="43.8553573" lon="12.6471905"><ele>331.0</ele><time>2026-04-18T09:28:57.637Z</time></trkpt><trkpt lat="43.8553429" lon="12.6473581"><ele>332.25</ele><time>2026-04-18T09:28:58.636Z</time></trkpt><trkpt lat="43.8552993" lon="12.647527"><ele>333.5</ele><time>2026-04-18T09:28:59.637Z</time></trkpt><trkpt lat="43.8552202" lon="12.6476963"><ele>334.75</ele><time>2026-04-18T09:29:00.635Z</time></trkpt><trkpt lat="43.8551217" lon="12.647868"><ele>336.0</ele><time>2026-04-18T09:29:01.636Z</time></trkpt><trkpt lat="43.8550103" lon="12.6480229"><ele>336.0</ele><time>2026-04-18T09:29:02.636Z</time></trkpt><trkpt lat="43.8548941" lon="12.648136"><ele>336.0</ele><time>2026-04-18T09:29:03.636Z</time></trkpt><trkpt lat="43.8547854" lon="12.6481936"><ele>336.0</ele><time>2026-04-18T09:29:04.636Z</time></trkpt><trkpt lat="43.8547032" lon="12.6482411"><ele>336.0</ele><time>2026-04-18T09:29:05.636Z</time></trkpt><trkpt lat="43.8546382" lon="12.6483011"><ele>336.0</ele><time>2026-04-18T09:29:06.637Z</time></trkpt><trkpt lat="43.8546019" lon="12.648374"><ele>336.0</ele><time>2026-04-18T09:29:07.636Z</time></trkpt><trkpt lat="43.8545985" lon="12.6484713"><ele>336.0</ele><time>2026-04-18T09:29:08.635Z</time></trkpt><trkpt lat="43.8546511" lon="12.6485984"><ele>336.0</ele><time>2026-04-18T09:29:09.636Z</time></trkpt><trkpt lat="43.8547202" lon="12.6487331"><ele>336.0</ele><time>2026-04-18T09:29:10.636Z</time></trkpt><trkpt lat="43.85481" lon="12.6488706"><ele>336.0</ele><time>2026-04-18T09:29:11.636Z</time></trkpt><trkpt lat="43.8549078" lon="12.6490014"><ele>337.0</ele><time>2026-04-18T09:29:12.636Z</time></trkpt><trkpt lat="43.8550007" lon="12.6491247"><ele>338.0</ele><time>2026-04-18T09:29:13.636Z</time></trkpt><trkpt lat="43.8550813" lon="12.6492527"><ele>339.0</ele><time>2026-04-18T09:29:14.636Z</time></trkpt><trkpt lat="43.8551473" lon="12.6493944"><ele>340.0</ele><time>2026-04-18T09:29:15.636Z</time></trkpt><trkpt lat="43.8552015" lon="12.6495548"><ele>347.0</ele><time>2026-04-18T09:29:16.637Z</time></trkpt><trkpt lat="43.8552461" lon="12.649752"><ele>354.0</ele><time>2026-04-18T09:29:17.636Z</time></trkpt><trkpt lat="43.855293" lon="12.649972"><ele>361.0</ele><time>2026-04-18T09:29:18.637Z</time></trkpt><trkpt lat="43.8553489" lon="12.650208"><ele>361.0</ele><time>2026-04-18T09:29:19.636Z</time></trkpt><trkpt lat="43.8554018" lon="12.6504684"><ele>361.0</ele><time>2026-04-18T09:29:20.637Z</time></trkpt><trkpt lat="43.855457" lon="12.6507391"><ele>361.0</ele><time>2026-04-18T09:29:21.636Z</time></trkpt><trkpt lat="43.8555054" lon="12.6509913"><ele>361.25</ele><time>2026-04-18T09:29:22.636Z</time></trkpt><trkpt lat="43.8555512" lon="12.6512107"><ele>361.5</ele><time>2026-04-18T09:29:23.636Z</time></trkpt><trkpt lat="43.8555949" lon="12.6514005"><ele>361.75</ele><time>2026-04-18T09:29:24.637Z</time></trkpt><trkpt lat="43.8556197" lon="12.6515477"><ele>362.0</ele><time>2026-04-18T09:29:25.636Z</time></trkpt><trkpt lat="43.8556244" lon="12.6516397"><ele>362.0</ele><time>2026-04-18T09:29:26.636Z</time></trkpt><trkpt lat="43.8556245" lon="12.6517371"><ele>362.0</ele><time>2026-04-18T09:29:27.636Z</time></trkpt><trkpt lat="43.8556128" lon="12.6518322"><ele>362.0</ele><time>2026-04-18T09:29:28.636Z</time></trkpt><trkpt lat="43.8556077" lon="12.6519197"><ele>362.0</ele><time>2026-04-18T09:29:29.636Z</time></trkpt><trkpt lat="43.8556122" lon="12.6520089"><ele>362.0</ele><time>2026-04-18T09:29:30.636Z</time></trkpt><trkpt lat="43.8556112" lon="12.652189"><ele>362.0</ele><time>2026-04-18T09:29:32.636Z</time></trkpt><trkpt lat="43.8556145" lon="12.6522874"><ele>362.0</ele><time>2026-04-18T09:29:33.636Z</time></trkpt><trkpt lat="43.8556113" lon="12.6523906"><ele>362.0</ele><time>2026-04-18T09:29:34.636Z</time></trkpt><trkpt lat="43.8556063" lon="12.6525062"><ele>362.0</ele><time>2026-04-18T09:29:35.636Z</time></trkpt><trkpt lat="43.8555972" lon="12.652628"><ele>362.0</ele><time>2026-04-18T09:29:36.636Z</time></trkpt><trkpt lat="43.8555883" lon="12.6527797"><ele>362.0</ele><time>2026-04-18T09:29:37.636Z</time></trkpt><trkpt lat="43.8555846" lon="12.6529605"><ele>363.6666666666667</ele><time>2026-04-18T09:29:38.636Z</time></trkpt><trkpt lat="43.8555798" lon="12.6531579"><ele>365.3333333333333</ele><time>2026-04-18T09:29:39.637Z</time></trkpt><trkpt lat="43.8555716" lon="12.6533766"><ele>367.0</ele><time>2026-04-18T09:29:40.636Z</time></trkpt><trkpt lat="43.8555701" lon="12.6535841"><ele>369.25</ele><time>2026-04-18T09:29:41.637Z</time></trkpt><trkpt lat="43.855577" lon="12.6537766"><ele>371.5</ele><time>2026-04-18T09:29:42.635Z</time></trkpt><trkpt lat="43.8556045" lon="12.653961"><ele>373.75</ele><time>2026-04-18T09:29:43.636Z</time></trkpt><trkpt lat="43.8556619" lon="12.6541385"><ele>376.0</ele><time>2026-04-18T09:29:44.639Z</time></trkpt><trkpt lat="43.8557476" lon="12.654307"><ele>376.66666666666663</ele><time>2026-04-18T09:29:45.636Z</time></trkpt><trkpt lat="43.8558541" lon="12.654463"><ele>377.3333333333333</ele><time>2026-04-18T09:29:46.636Z</time></trkpt><trkpt lat="43.8559766" lon="12.6546017"><ele>378.0</ele><time>2026-04-18T09:29:47.636Z</time></trkpt><trkpt lat="43.8561021" lon="12.6547129"><ele>378.0</ele><time>2026-04-18T09:29:48.639Z</time></trkpt><trkpt lat="43.8562357" lon="12.6547991"><ele>378.0</ele><time>2026-04-18T09:29:49.636Z</time></trkpt><trkpt lat="43.856365" lon="12.6548717"><ele>378.0</ele><time>2026-04-18T09:29:50.636Z</time></trkpt><trkpt lat="43.8564826" lon="12.6549437"><ele>378.0</ele><time>2026-04-18T09:29:51.636Z</time></trkpt><trkpt lat="43.8565781" lon="12.6550327"><ele>378.0</ele><time>2026-04-18T09:29:52.636Z</time></trkpt><trkpt lat="43.8566576" lon="12.6551491"><ele>378.0</ele><time>2026-04-18T09:29:53.636Z</time></trkpt><trkpt lat="43.8567124" lon="12.6552944"><ele>378.0</ele><time>2026-04-18T09:29:54.636Z</time></trkpt><trkpt lat="43.8567414" lon="12.6554735"><ele>378.0</ele><time>2026-04-18T09:29:55.636Z</time></trkpt><trkpt lat="43.8567459" lon="12.6556849"><ele>375.75</ele><time>2026-04-18T09:29:56.636Z</time></trkpt><trkpt lat="43.8567542" lon="12.6558902"><ele>373.5</ele><time>2026-04-18T09:29:57.636Z</time></trkpt><trkpt lat="43.8567668" lon="12.656079"><ele>371.25</ele><time>2026-04-18T09:29:58.636Z</time></trkpt><trkpt lat="43.8567917" lon="12.65625"><ele>369.0</ele><time>2026-04-18T09:29:59.637Z</time></trkpt><trkpt lat="43.8568564" lon="12.6564005"><ele>369.0</ele><time>2026-04-18T09:30:00.638Z</time></trkpt><trkpt lat="43.856953" lon="12.656516"><ele>369.0</ele><time>2026-04-18T09:30:01.636Z</time></trkpt><trkpt lat="43.8570689" lon="12.6565897"><ele>369.0</ele><time>2026-04-18T09:30:02.637Z</time></trkpt><trkpt lat="43.8571776" lon="12.656658"><ele>369.0</ele><time>2026-04-18T09:30:03.636Z</time></trkpt><trkpt lat="43.8572635" lon="12.6567448"><ele>370.75</ele><time>2026-04-18T09:30:04.638Z</time></trkpt><trkpt lat="43.8573285" lon="12.6569633"><ele>372.5</ele><time>2026-04-18T09:30:06.635Z</time></trkpt><trkpt lat="43.8573199" lon="12.6570898"><ele>374.25</ele><time>2026-04-18T09:30:07.635Z</time></trkpt><trkpt lat="43.8572648" lon="12.6572338"><ele>376.0</ele><time>2026-04-18T09:30:08.637Z</time></trkpt><trkpt lat="43.8571668" lon="12.657403"><ele>376.0</ele><time>2026-04-18T09:30:09.635Z</time></trkpt><trkpt lat="43.8571096" lon="12.6575717"><ele>376.0</ele><time>2026-04-18T09:30:10.635Z</time></trkpt><trkpt lat="43.8570981" lon="12.6577395"><ele>376.0</ele><time>2026-04-18T09:30:11.64Z</time></trkpt><trkpt lat="43.85713" lon="12.6579074"><ele>376.0</ele><time>2026-04-18T09:30:12.635Z</time></trkpt><trkpt lat="43.8572129" lon="12.6580812"><ele>378.3333333333333</ele><time>2026-04-18T09:30:13.635Z</time></trkpt><trkpt lat="43.8573131" lon="12.6582608"><ele>380.6666666666667</ele><time>2026-04-18T09:30:14.639Z</time></trkpt><trkpt lat="43.857431" lon="12.6584302"><ele>383.0</ele><time>2026-04-18T09:30:15.636Z</time></trkpt><trkpt lat="43.8575451" lon="12.6585791"><ele>375.0</ele><time>2026-04-18T09:30:16.641Z</time></trkpt><trkpt lat="43.8576365" lon="12.6587241"><ele>367.0</ele><time>2026-04-18T09:30:17.643Z</time></trkpt><trkpt lat="43.8577302" lon="12.6590646"><ele>359.0</ele><time>2026-04-18T09:30:19.636Z</time></trkpt><trkpt lat="43.8577238" lon="12.6592636"><ele>355.33333333333337</ele><time>2026-04-18T09:30:20.635Z</time></trkpt><trkpt lat="43.8576811" lon="12.6594694"><ele>351.6666666666667</ele><time>2026-04-18T09:30:21.635Z</time></trkpt><trkpt lat="43.8576185" lon="12.6596735"><ele>348.0</ele><time>2026-04-18T09:30:22.635Z</time></trkpt><trkpt lat="43.8575355" lon="12.65987"><ele>357.3333333333333</ele><time>2026-04-18T09:30:23.635Z</time></trkpt><trkpt lat="43.857447" lon="12.660056"><ele>366.66666666666663</ele><time>2026-04-18T09:30:24.635Z</time></trkpt><trkpt lat="43.8573572" lon="12.6602384"><ele>376.0</ele><time>2026-04-18T09:30:25.637Z</time></trkpt><trkpt lat="43.8572704" lon="12.6604186"><ele>376.0</ele><time>2026-04-18T09:30:26.635Z</time></trkpt><trkpt lat="43.8571944" lon="12.6606014"><ele>376.0</ele><time>2026-04-18T09:30:27.635Z</time></trkpt><trkpt lat="43.8571391" lon="12.6607998"><ele>376.0</ele><time>2026-04-18T09:30:28.635Z</time></trkpt><trkpt lat="43.8571029" lon="12.6610203"><ele>379.66666666666663</ele><time>2026-04-18T09:30:29.635Z</time></trkpt><trkpt lat="43.8570776" lon="12.6612559"><ele>383.3333333333333</ele><time>2026-04-18T09:30:30.635Z</time></trkpt><trkpt lat="43.8570512" lon="12.6614944"><ele>387.0</ele><time>2026-04-18T09:30:31.636Z</time></trkpt><trkpt lat="43.8570264" lon="12.6617204"><ele>387.0</ele><time>2026-04-18T09:30:32.637Z</time></trkpt><trkpt lat="43.8570008" lon="12.6619287"><ele>387.0</ele><time>2026-04-18T09:30:33.646Z</time></trkpt><trkpt lat="43.856979" lon="12.6621145"><ele>387.0</ele><time>2026-04-18T09:30:34.635Z</time></trkpt><trkpt lat="43.8569613" lon="12.6622933"><ele>387.0</ele><time>2026-04-18T09:30:35.634Z</time></trkpt><trkpt lat="43.856955" lon="12.6624617"><ele>388.25</ele><time>2026-04-18T09:30:36.636Z</time></trkpt><trkpt lat="43.856975" lon="12.6626483"><ele>389.5</ele><time>2026-04-18T09:30:37.635Z</time></trkpt><trkpt lat="43.85701" lon="12.6628417"><ele>390.75</ele><time>2026-04-18T09:30:38.637Z</time></trkpt><trkpt lat="43.857055" lon="12.6630433"><ele>392.0</ele><time>2026-04-18T09:30:39.636Z</time></trkpt><trkpt lat="43.8571067" lon="12.6632483"><ele>392.3333333333333</ele><time>2026-04-18T09:30:40.635Z</time></trkpt><trkpt lat="43.85716" lon="12.6634567"><ele>392.66666666666663</ele><time>2026-04-18T09:30:41.636Z</time></trkpt><trkpt lat="43.8572217" lon="12.6636667"><ele>393.0</ele><time>2026-04-18T09:30:42.638Z</time></trkpt><trkpt lat="43.8572783" lon="12.6638733"><ele>391.25</ele><time>2026-04-18T09:30:43.637Z</time></trkpt><trkpt lat="43.8573383" lon="12.66407"><ele>389.5</ele><time>2026-04-18T09:30:44.635Z</time></trkpt><trkpt lat="43.85739" lon="12.6642517"><ele>387.75</ele><time>2026-04-18T09:30:45.636Z</time></trkpt><trkpt lat="43.8574433" lon="12.6644183"><ele>386.0</ele><time>2026-04-18T09:30:46.636Z</time></trkpt><trkpt lat="43.8574883" lon="12.6645717"><ele>386.0</ele><time>2026-04-18T09:30:47.635Z</time></trkpt><trkpt lat="43.857515" lon="12.6647233"><ele>386.0</ele><time>2026-04-18T09:30:48.635Z</time></trkpt><trkpt lat="43.8575267" lon="12.6648767"><ele>386.0</ele><time>2026-04-18T09:30:49.633Z</time></trkpt><trkpt lat="43.857515" lon="12.6650383"><ele>386.0</ele><time>2026-04-18T09:30:50.634Z</time></trkpt><trkpt lat="43.8574567" lon="12.6652033"><ele>388.0</ele><time>2026-04-18T09:30:51.635Z</time></trkpt><trkpt lat="43.8573433" lon="12.6653283"><ele>390.0</ele><time>2026-04-18T09:30:52.635Z</time></trkpt><trkpt lat="43.8572033" lon="12.665385"><ele>392.0</ele><time>2026-04-18T09:30:53.635Z</time></trkpt><trkpt lat="43.8570667" lon="12.6654067"><ele>394.0</ele><time>2026-04-18T09:30:54.642Z</time></trkpt><trkpt lat="43.85694" lon="12.6654217"><ele>394.0</ele><time>2026-04-18T09:30:55.634Z</time></trkpt><trkpt lat="43.8568117" lon="12.6654433"><ele>394.0</ele><time>2026-04-18T09:30:56.636Z</time></trkpt><trkpt lat="43.8567033" lon="12.665475"><ele>394.0</ele><time>2026-04-18T09:30:57.634Z</time></trkpt><trkpt lat="43.8566083" lon="12.665525"><ele>394.0</ele><time>2026-04-18T09:30:58.635Z</time></trkpt><trkpt lat="43.8565133" lon="12.6656183"><ele>391.5</ele><time>2026-04-18T09:30:59.635Z</time></trkpt><trkpt lat="43.8564417" lon="12.6657667"><ele>389.0</ele><time>2026-04-18T09:31:00.636Z</time></trkpt><trkpt lat="43.85639" lon="12.6659333"><ele>386.5</ele><time>2026-04-18T09:31:01.635Z</time></trkpt><trkpt lat="43.8563817" lon="12.6661083"><ele>384.0</ele><time>2026-04-18T09:31:02.636Z</time></trkpt><trkpt lat="43.8563933" lon="12.6662867"><ele>384.0</ele><time>2026-04-18T09:31:03.635Z</time></trkpt><trkpt lat="43.8564533" lon="12.66646"><ele>384.0</ele><time>2026-04-18T09:31:04.635Z</time></trkpt><trkpt lat="43.8565233" lon="12.6666483"><ele>384.0</ele><time>2026-04-18T09:31:05.635Z</time></trkpt><trkpt lat="43.8566067" lon="12.6668517"><ele>385.0</ele><time>2026-04-18T09:31:06.637Z</time></trkpt><trkpt lat="43.85669" lon="12.6670483"><ele>386.0</ele><time>2026-04-18T09:31:07.638Z</time></trkpt><trkpt lat="43.8567633" lon="12.6672283"><ele>387.0</ele><time>2026-04-18T09:31:08.636Z</time></trkpt><trkpt lat="43.8568333" lon="12.6673983"><ele>387.0</ele><time>2026-04-18T09:31:09.637Z</time></trkpt><trkpt lat="43.8568983" lon="12.6675517"><ele>387.0</ele><time>2026-04-18T09:31:10.636Z</time></trkpt><trkpt lat="43.8569683" lon="12.66769"><ele>387.0</ele><time>2026-04-18T09:31:11.636Z</time></trkpt><trkpt lat="43.8570467" lon="12.6678067"><ele>387.0</ele><time>2026-04-18T09:31:12.637Z</time></trkpt><trkpt lat="43.8571267" lon="12.667895"><ele>385.8</ele><time>2026-04-18T09:31:13.636Z</time></trkpt><trkpt lat="43.85721" lon="12.6679833"><ele>384.6</ele><time>2026-04-18T09:31:14.635Z</time></trkpt><trkpt lat="43.8572867" lon="12.6680817"><ele>383.40000000000003</ele><time>2026-04-18T09:31:15.635Z</time></trkpt><trkpt lat="43.8573517" lon="12.668195"><ele>382.20000000000005</ele><time>2026-04-18T09:31:16.634Z</time></trkpt><trkpt lat="43.8574067" lon="12.668315"><ele>381.0</ele><time>2026-04-18T09:31:17.635Z</time></trkpt><trkpt lat="43.8574467" lon="12.6684533"><ele>381.0</ele><time>2026-04-18T09:31:18.636Z</time></trkpt><trkpt lat="43.8574817" lon="12.6685983"><ele>381.0</ele><time>2026-04-18T09:31:19.635Z</time></trkpt><trkpt lat="43.857515" lon="12.6687417"><ele>381.0</ele><time>2026-04-18T09:31:20.635Z</time></trkpt><trkpt lat="43.8575433" lon="12.668895"><ele>381.0</ele><time>2026-04-18T09:31:21.634Z</time></trkpt><trkpt lat="43.857575" lon="12.6690617"><ele>380.5</ele><time>2026-04-18T09:31:22.635Z</time></trkpt><trkpt lat="43.8576067" lon="12.6692267"><ele>380.0</ele><time>2026-04-18T09:31:23.638Z</time></trkpt><trkpt lat="43.8576417" lon="12.6693833"><ele>379.5</ele><time>2026-04-18T09:31:24.639Z</time></trkpt><trkpt lat="43.8576717" lon="12.66953"><ele>379.0</ele><time>2026-04-18T09:31:25.634Z</time></trkpt><trkpt lat="43.8577017" lon="12.6696683"><ele>379.16666666666663</ele><time>2026-04-18T09:31:26.634Z</time></trkpt><trkpt lat="43.8577317" lon="12.6697983"><ele>379.3333333333333</ele><time>2026-04-18T09:31:27.634Z</time></trkpt><trkpt lat="43.857765" lon="12.6699217"><ele>379.5</ele><time>2026-04-18T09:31:28.635Z</time></trkpt><trkpt lat="43.8577883" lon="12.6700367"><ele>379.6666666666667</ele><time>2026-04-18T09:31:29.634Z</time></trkpt><trkpt lat="43.8578083" lon="12.670145"><ele>379.83333333333337</ele><time>2026-04-18T09:31:30.635Z</time></trkpt><trkpt lat="43.8578283" lon="12.67024"><ele>380.0</ele><time>2026-04-18T09:31:31.634Z</time></trkpt><trkpt lat="43.8578533" lon="12.6703517"><ele>380.0</ele><time>2026-04-18T09:31:32.635Z</time></trkpt><trkpt lat="43.8578667" lon="12.67053"><ele>380.0</ele><time>2026-04-18T09:31:33.635Z</time></trkpt><trkpt lat="43.8578717" lon="12.6707417"><ele>380.0</ele><time>2026-04-18T09:31:34.635Z</time></trkpt><trkpt lat="43.8578683" lon="12.6709333"><ele>380.0</ele><time>2026-04-18T09:31:35.634Z</time></trkpt><trkpt lat="43.8578533" lon="12.6711067"><ele>380.75</ele><time>2026-04-18T09:31:36.636Z</time></trkpt><trkpt lat="43.85781" lon="12.671265"><ele>381.5</ele><time>2026-04-18T09:31:37.635Z</time></trkpt><trkpt lat="43.8577533" lon="12.6714167"><ele>382.25</ele><time>2026-04-18T09:31:38.636Z</time></trkpt><trkpt lat="43.85768" lon="12.6715483"><ele>383.0</ele><time>2026-04-18T09:31:39.635Z</time></trkpt><trkpt lat="43.8576117" lon="12.67165"><ele>383.0</ele><time>2026-04-18T09:31:40.635Z</time></trkpt><trkpt lat="43.8575433" lon="12.6717417"><ele>383.0</ele><time>2026-04-18T09:31:41.635Z</time></trkpt><trkpt lat="43.8574767" lon="12.67182"><ele>383.0</ele><time>2026-04-18T09:31:42.636Z</time></trkpt><trkpt lat="43.85742" lon="12.6718833"><ele>383.0</ele><time>2026-04-18T09:31:43.636Z</time></trkpt><trkpt lat="43.8573717" lon="12.6719467"><ele>383.0</ele><time>2026-04-18T09:31:44.635Z</time></trkpt><trkpt lat="43.8574" lon="12.6720767"><ele>383.0</ele><time>2026-04-18T09:31:46.634Z</time></trkpt><trkpt lat="43.85746" lon="12.67213"><ele>382.0</ele><time>2026-04-18T09:31:47.635Z</time></trkpt><trkpt lat="43.85758" lon="12.6721983"><ele>381.0</ele><time>2026-04-18T09:31:48.634Z</time></trkpt><trkpt lat="43.8577183" lon="12.6722833"><ele>380.0</ele><time>2026-04-18T09:31:49.635Z</time></trkpt><trkpt lat="43.8579183" lon="12.6723783"><ele>379.6666666666667</ele><time>2026-04-18T09:31:50.635Z</time></trkpt><trkpt lat="43.858105" lon="12.6724583"><ele>379.3333333333333</ele><time>2026-04-18T09:31:51.634Z</time></trkpt><trkpt lat="43.8582717" lon="12.672525"><ele>379.0</ele><time>2026-04-18T09:31:52.635Z</time></trkpt><trkpt lat="43.8584117" lon="12.6725867"><ele>378.75</ele><time>2026-04-18T09:31:53.638Z</time></trkpt><trkpt lat="43.8585333" lon="12.672645"><ele>378.5</ele><time>2026-04-18T09:31:54.635Z</time></trkpt><trkpt lat="43.8586467" lon="12.67272"><ele>378.25</ele><time>2026-04-18T09:31:55.635Z</time></trkpt><trkpt lat="43.8587267" lon="12.6728317"><ele>378.0</ele><time>2026-04-18T09:31:56.636Z</time></trkpt><trkpt lat="43.8587917" lon="12.6729533"><ele>378.0</ele><time>2026-04-18T09:31:57.636Z</time></trkpt><trkpt lat="43.85881" lon="12.6731217"><ele>378.0</ele><time>2026-04-18T09:31:58.636Z</time></trkpt><trkpt lat="43.8587867" lon="12.673325"><ele>378.0</ele><time>2026-04-18T09:31:59.636Z</time></trkpt><trkpt lat="43.8587517" lon="12.67357"><ele>379.0</ele><time>2026-04-18T09:32:00.636Z</time></trkpt><trkpt lat="43.858725" lon="12.6738367"><ele>380.0</ele><time>2026-04-18T09:32:01.637Z</time></trkpt><trkpt lat="43.8587017" lon="12.67408"><ele>381.0</ele><time>2026-04-18T09:32:02.636Z</time></trkpt><trkpt lat="43.8586933" lon="12.6743083"><ele>380.0</ele><time>2026-04-18T09:32:03.635Z</time></trkpt><trkpt lat="43.8586833" lon="12.6745317"><ele>379.0</ele><time>2026-04-18T09:32:04.636Z</time></trkpt><trkpt lat="43.85868" lon="12.674765"><ele>378.0</ele><time>2026-04-18T09:32:05.636Z</time></trkpt><trkpt lat="43.8586817" lon="12.67498"><ele>378.0</ele><time>2026-04-18T09:32:06.637Z</time></trkpt><trkpt lat="43.8586667" lon="12.6751633"><ele>378.0</ele><time>2026-04-18T09:32:07.636Z</time></trkpt><trkpt lat="43.8586533" lon="12.6753383"><ele>378.0</ele><time>2026-04-18T09:32:08.637Z</time></trkpt><trkpt lat="43.8586367" lon="12.675505"><ele>378.0</ele><time>2026-04-18T09:32:09.636Z</time></trkpt><trkpt lat="43.8586133" lon="12.6756683"><ele>377.25</ele><time>2026-04-18T09:32:10.636Z</time></trkpt><trkpt lat="43.8585933" lon="12.67583"><ele>376.5</ele><time>2026-04-18T09:32:11.636Z</time></trkpt><trkpt lat="43.8585833" lon="12.67599"><ele>375.75</ele><time>2026-04-18T09:32:12.636Z</time></trkpt><trkpt lat="43.8585767" lon="12.676145"><ele>375.0</ele><time>2026-04-18T09:32:13.636Z</time></trkpt><trkpt lat="43.8585633" lon="12.6762967"><ele>373.0</ele><time>2026-04-18T09:32:14.636Z</time></trkpt><trkpt lat="43.85855" lon="12.6764467"><ele>371.0</ele><time>2026-04-18T09:32:15.635Z</time></trkpt><trkpt lat="43.858535" lon="12.6765917"><ele>369.0</ele><time>2026-04-18T09:32:16.635Z</time></trkpt><trkpt lat="43.8585217" lon="12.6767317"><ele>367.0</ele><time>2026-04-18T09:32:17.634Z</time></trkpt><trkpt lat="43.8585083" lon="12.6768667"><ele>365.0</ele><time>2026-04-18T09:32:18.634Z</time></trkpt><trkpt lat="43.8584933" lon="12.6769967"><ele>363.33333333333337</ele><time>2026-04-18T09:32:19.634Z</time></trkpt><trkpt lat="43.8584817" lon="12.6771233"><ele>361.6666666666667</ele><time>2026-04-18T09:32:20.635Z</time></trkpt><trkpt lat="43.85847" lon="12.6772417"><ele>360.0</ele><time>2026-04-18T09:32:21.635Z</time></trkpt><trkpt lat="43.8584467" lon="12.6773567"><ele>358.3333333333333</ele><time>2026-04-18T09:32:22.635Z</time></trkpt><trkpt lat="43.8584" lon="12.6774583"><ele>356.66666666666663</ele><time>2026-04-18T09:32:23.635Z</time></trkpt><trkpt lat="43.8583233" lon="12.6775367"><ele>355.0</ele><time>2026-04-18T09:32:24.635Z</time></trkpt><trkpt lat="43.8582283" lon="12.6776083"><ele>354.0</ele><time>2026-04-18T09:32:25.634Z</time></trkpt><trkpt lat="43.858135" lon="12.6777"><ele>353.0</ele><time>2026-04-18T09:32:26.637Z</time></trkpt><trkpt lat="43.8580467" lon="12.6778283"><ele>352.0</ele><time>2026-04-18T09:32:27.635Z</time></trkpt><trkpt lat="43.8579683" lon="12.677985"><ele>351.0</ele><time>2026-04-18T09:32:28.635Z</time></trkpt><trkpt lat="43.8578933" lon="12.678145"><ele>348.75</ele><time>2026-04-18T09:32:29.635Z</time></trkpt><trkpt lat="43.857825" lon="12.6782983"><ele>346.5</ele><time>2026-04-18T09:32:30.635Z</time></trkpt><trkpt lat="43.8577633" lon="12.6784517"><ele>344.25</ele><time>2026-04-18T09:32:31.635Z</time></trkpt><trkpt lat="43.8577067" lon="12.6786017"><ele>342.0</ele><time>2026-04-18T09:32:32.636Z</time></trkpt><trkpt lat="43.8576667" lon="12.6787583"><ele>343.0</ele><time>2026-04-18T09:32:33.635Z</time></trkpt><trkpt lat="43.85763" lon="12.678915"><ele>344.0</ele><time>2026-04-18T09:32:34.635Z</time></trkpt><trkpt lat="43.8575983" lon="12.67907"><ele>345.0</ele><time>2026-04-18T09:32:35.635Z</time></trkpt><trkpt lat="43.8575833" lon="12.679225"><ele>346.0</ele><time>2026-04-18T09:32:36.635Z</time></trkpt><trkpt lat="43.8575717" lon="12.6793833"><ele>344.25</ele><time>2026-04-18T09:32:37.635Z</time></trkpt><trkpt lat="43.8575833" lon="12.6795433"><ele>342.5</ele><time>2026-04-18T09:32:38.635Z</time></trkpt><trkpt lat="43.8576433" lon="12.6797167"><ele>340.75</ele><time>2026-04-18T09:32:39.635Z</time></trkpt><trkpt lat="43.8577317" lon="12.6799133"><ele>339.0</ele><time>2026-04-18T09:32:40.634Z</time></trkpt><trkpt lat="43.85781" lon="12.6801467"><ele>332.6666666666667</ele><time>2026-04-18T09:32:41.634Z</time></trkpt><trkpt lat="43.8578917" lon="12.68039"><ele>326.33333333333337</ele><time>2026-04-18T09:32:42.634Z</time></trkpt><trkpt lat="43.8579667" lon="12.68063"><ele>320.0</ele><time>2026-04-18T09:32:43.635Z</time></trkpt><trkpt lat="43.8580583" lon="12.6808567"><ele>320.0</ele><time>2026-04-18T09:32:44.635Z</time></trkpt><trkpt lat="43.8581383" lon="12.6810717"><ele>320.0</ele><time>2026-04-18T09:32:45.635Z</time></trkpt><trkpt lat="43.8582117" lon="12.6812867"><ele>320.0</ele><time>2026-04-18T09:32:46.635Z</time></trkpt><trkpt lat="43.8582883" lon="12.6815"><ele>320.33333333333337</ele><time>2026-04-18T09:32:47.635Z</time></trkpt><trkpt lat="43.8583583" lon="12.681715"><ele>320.6666666666667</ele><time>2026-04-18T09:32:48.635Z</time></trkpt><trkpt lat="43.8584233" lon="12.6819217"><ele>321.0</ele><time>2026-04-18T09:32:49.634Z</time></trkpt><trkpt lat="43.858485" lon="12.682115"><ele>314.5</ele><time>2026-04-18T09:32:50.635Z</time></trkpt><trkpt lat="43.8585467" lon="12.6823067"><ele>308.0</ele><time>2026-04-18T09:32:51.634Z</time></trkpt><trkpt lat="43.8585917" lon="12.6825017"><ele>301.5</ele><time>2026-04-18T09:32:52.634Z</time></trkpt><trkpt lat="43.8586383" lon="12.6826917"><ele>295.0</ele><time>2026-04-18T09:32:53.637Z</time></trkpt><trkpt lat="43.8586767" lon="12.6828783"><ele>294.25</ele><time>2026-04-18T09:32:54.634Z</time></trkpt><trkpt lat="43.85869" lon="12.6830733"><ele>293.5</ele><time>2026-04-18T09:32:55.634Z</time></trkpt><trkpt lat="43.8587167" lon="12.68325"><ele>292.75</ele><time>2026-04-18T09:32:56.638Z</time></trkpt><trkpt lat="43.858775" lon="12.68341"><ele>292.0</ele><time>2026-04-18T09:32:57.638Z</time></trkpt><trkpt lat="43.8588333" lon="12.6835717"><ele>292.0</ele><time>2026-04-18T09:32:58.635Z</time></trkpt><trkpt lat="43.8588883" lon="12.6837317"><ele>292.0</ele><time>2026-04-18T09:32:59.634Z</time></trkpt><trkpt lat="43.8589217" lon="12.683905"><ele>292.0</ele><time>2026-04-18T09:33:00.64Z</time></trkpt><trkpt lat="43.8589283" lon="12.6840967"><ele>292.0</ele><time>2026-04-18T09:33:01.634Z</time></trkpt><trkpt lat="43.8589083" lon="12.684285"><ele>290.5</ele><time>2026-04-18T09:33:02.634Z</time></trkpt><trkpt lat="43.8588767" lon="12.684475"><ele>289.0</ele><time>2026-04-18T09:33:03.633Z</time></trkpt><trkpt lat="43.8588517" lon="12.684665"><ele>287.5</ele><time>2026-04-18T09:33:04.635Z</time></trkpt><trkpt lat="43.8588183" lon="12.6848517"><ele>286.0</ele><time>2026-04-18T09:33:05.634Z</time></trkpt><trkpt lat="43.8587867" lon="12.6850433"><ele>286.0</ele><time>2026-04-18T09:33:06.634Z</time></trkpt><trkpt lat="43.8587467" lon="12.6852217"><ele>286.0</ele><time>2026-04-18T09:33:07.634Z</time></trkpt><trkpt lat="43.8587117" lon="12.685415"><ele>286.0</ele><time>2026-04-18T09:33:08.636Z</time></trkpt><trkpt lat="43.8586767" lon="12.6855983"><ele>286.0</ele><time>2026-04-18T09:33:09.634Z</time></trkpt><trkpt lat="43.8586417" lon="12.6857767"><ele>284.0</ele><time>2026-04-18T09:33:10.634Z</time></trkpt><trkpt lat="43.8586017" lon="12.685945"><ele>282.0</ele><time>2026-04-18T09:33:11.633Z</time></trkpt><trkpt lat="43.85857" lon="12.6861017"><ele>280.0</ele><time>2026-04-18T09:33:12.634Z</time></trkpt><trkpt lat="43.8585483" lon="12.686255"><ele>278.0</ele><time>2026-04-18T09:33:13.633Z</time></trkpt><trkpt lat="43.8585283" lon="12.6863967"><ele>277.25</ele><time>2026-04-18T09:33:14.634Z</time></trkpt><trkpt lat="43.8585233" lon="12.6865483"><ele>276.5</ele><time>2026-04-18T09:33:15.634Z</time></trkpt><trkpt lat="43.85853" lon="12.6866983"><ele>275.75</ele><time>2026-04-18T09:33:16.634Z</time></trkpt><trkpt lat="43.8585383" lon="12.68686"><ele>275.0</ele><time>2026-04-18T09:33:17.633Z</time></trkpt><trkpt lat="43.8585417" lon="12.6870217"><ele>277.25</ele><time>2026-04-18T09:33:18.633Z</time></trkpt><trkpt lat="43.8585483" lon="12.6871817"><ele>279.5</ele><time>2026-04-18T09:33:19.633Z</time></trkpt><trkpt lat="43.8585517" lon="12.6873333"><ele>281.75</ele><time>2026-04-18T09:33:20.634Z</time></trkpt><trkpt lat="43.8585383" lon="12.6874817"><ele>284.0</ele><time>2026-04-18T09:33:21.634Z</time></trkpt><trkpt lat="43.8585067" lon="12.687645"><ele>286.0</ele><time>2026-04-18T09:33:22.633Z</time></trkpt><trkpt lat="43.8584633" lon="12.6877933"><ele>288.0</ele><time>2026-04-18T09:33:23.633Z</time></trkpt><trkpt lat="43.8584173" lon="12.6879449"><ele>290.0</ele><time>2026-04-18T09:33:24.635Z</time></trkpt><trkpt lat="43.8583675" lon="12.6880963"><ele>292.0</ele><time>2026-04-18T09:33:25.635Z</time></trkpt><trkpt lat="43.8583115" lon="12.6882548"><ele>288.25</ele><time>2026-04-18T09:33:26.634Z</time></trkpt><trkpt lat="43.8582448" lon="12.6884154"><ele>284.5</ele><time>2026-04-18T09:33:27.634Z</time></trkpt><trkpt lat="43.8581766" lon="12.6885808"><ele>280.75</ele><time>2026-04-18T09:33:28.633Z</time></trkpt><trkpt lat="43.8581077" lon="12.6887575"><ele>277.0</ele><time>2026-04-18T09:33:29.634Z</time></trkpt><trkpt lat="43.8580413" lon="12.688932"><ele>277.0</ele><time>2026-04-18T09:33:30.635Z</time></trkpt><trkpt lat="43.857975" lon="12.6890987"><ele>277.0</ele><time>2026-04-18T09:33:31.634Z</time></trkpt><trkpt lat="43.8579125" lon="12.689265"><ele>277.0</ele><time>2026-04-18T09:33:32.634Z</time></trkpt><trkpt lat="43.8578511" lon="12.6894374"><ele>277.0</ele><time>2026-04-18T09:33:33.635Z</time></trkpt><trkpt lat="43.8577901" lon="12.6896018"><ele>275.0</ele><time>2026-04-18T09:33:34.634Z</time></trkpt><trkpt lat="43.8577231" lon="12.6897599"><ele>273.0</ele><time>2026-04-18T09:33:35.633Z</time></trkpt><trkpt lat="43.857649" lon="12.6899082"><ele>271.0</ele><time>2026-04-18T09:33:36.635Z</time></trkpt><trkpt lat="43.8575761" lon="12.6900447"><ele>269.0</ele><time>2026-04-18T09:33:37.634Z</time></trkpt><trkpt lat="43.8575049" lon="12.6901718"><ele>264.0</ele><time>2026-04-18T09:33:38.634Z</time></trkpt><trkpt lat="43.8574493" lon="12.6903123"><ele>259.0</ele><time>2026-04-18T09:33:39.636Z</time></trkpt><trkpt lat="43.8574102" lon="12.6904625"><ele>254.0</ele><time>2026-04-18T09:33:40.633Z</time></trkpt><trkpt lat="43.8573908" lon="12.6906211"><ele>249.0</ele><time>2026-04-18T09:33:41.634Z</time></trkpt><trkpt lat="43.857388" lon="12.690777"><ele>249.0</ele><time>2026-04-18T09:33:42.633Z</time></trkpt><trkpt lat="43.8574079" lon="12.6909224"><ele>248.99999999999997</ele><time>2026-04-18T09:33:43.634Z</time></trkpt><trkpt lat="43.8574434" lon="12.6910547"><ele>248.99999999999997</ele><time>2026-04-18T09:33:44.635Z</time></trkpt><trkpt lat="43.8574836" lon="12.6911806"><ele>249.0</ele><time>2026-04-18T09:33:45.633Z</time></trkpt><trkpt lat="43.8575229" lon="12.6913081"><ele>249.0</ele><time>2026-04-18T09:33:46.643Z</time></trkpt><trkpt lat="43.8575748" lon="12.691428"><ele>245.6</ele><time>2026-04-18T09:33:47.633Z</time></trkpt><trkpt lat="43.8576432" lon="12.69154"><ele>242.2</ele><time>2026-04-18T09:33:48.634Z</time></trkpt><trkpt lat="43.8577268" lon="12.691637"><ele>238.79999999999998</ele><time>2026-04-18T09:33:49.633Z</time></trkpt><trkpt lat="43.8578214" lon="12.6917111"><ele>235.39999999999998</ele><time>2026-04-18T09:33:50.635Z</time></trkpt><trkpt lat="43.8579221" lon="12.6917623"><ele>232.0</ele><time>2026-04-18T09:33:51.635Z</time></trkpt><trkpt lat="43.8580331" lon="12.6917709"><ele>232.0</ele><time>2026-04-18T09:33:52.635Z</time></trkpt><trkpt lat="43.8581455" lon="12.6917287"><ele>232.0</ele><time>2026-04-18T09:33:53.633Z</time></trkpt><trkpt lat="43.858245" lon="12.6916528"><ele>232.0</ele><time>2026-04-18T09:33:54.635Z</time></trkpt><trkpt lat="43.8583408" lon="12.6915644"><ele>232.0</ele><time>2026-04-18T09:33:55.633Z</time></trkpt><trkpt lat="43.8584406" lon="12.6914754"><ele>229.5</ele><time>2026-04-18T09:33:56.634Z</time></trkpt><trkpt lat="43.8585426" lon="12.6913958"><ele>227.0</ele><time>2026-04-18T09:33:57.634Z</time></trkpt><trkpt lat="43.8586461" lon="12.6913289"><ele>224.5</ele><time>2026-04-18T09:33:58.634Z</time></trkpt><trkpt lat="43.8587568" lon="12.6912831"><ele>222.0</ele><time>2026-04-18T09:33:59.634Z</time></trkpt><trkpt lat="43.8588769" lon="12.6912696"><ele>222.0</ele><time>2026-04-18T09:34:00.634Z</time></trkpt><trkpt lat="43.8590011" lon="12.6912622"><ele>222.0</ele><time>2026-04-18T09:34:01.635Z</time></trkpt><trkpt lat="43.85913" lon="12.6912681"><ele>222.0</ele><time>2026-04-18T09:34:02.634Z</time></trkpt><trkpt lat="43.8592619" lon="12.6912771"><ele>222.0</ele><time>2026-04-18T09:34:03.634Z</time></trkpt><trkpt lat="43.8593955" lon="12.691285"><ele>220.0</ele><time>2026-04-18T09:34:04.633Z</time></trkpt><trkpt lat="43.8595281" lon="12.6912933"><ele>218.0</ele><time>2026-04-18T09:34:05.634Z</time></trkpt><trkpt lat="43.8596589" lon="12.691302"><ele>216.0</ele><time>2026-04-18T09:34:06.635Z</time></trkpt><trkpt lat="43.8597877" lon="12.6913113"><ele>214.0</ele><time>2026-04-18T09:34:07.634Z</time></trkpt><trkpt lat="43.8599162" lon="12.691321"><ele>214.0</ele><time>2026-04-18T09:34:08.64Z</time></trkpt><trkpt lat="43.8600464" lon="12.6913217"><ele>214.0</ele><time>2026-04-18T09:34:09.634Z</time></trkpt><trkpt lat="43.8601795" lon="12.6913206"><ele>214.0</ele><time>2026-04-18T09:34:10.633Z</time></trkpt><trkpt lat="43.8603185" lon="12.6913162"><ele>214.0</ele><time>2026-04-18T09:34:11.639Z</time></trkpt><trkpt lat="43.8604571" lon="12.6913135"><ele>210.75</ele><time>2026-04-18T09:34:12.634Z</time></trkpt><trkpt lat="43.860599" lon="12.6913062"><ele>207.5</ele><time>2026-04-18T09:34:13.639Z</time></trkpt><trkpt lat="43.8607405" lon="12.6912898"><ele>204.25</ele><time>2026-04-18T09:34:14.634Z</time></trkpt><trkpt lat="43.8608812" lon="12.6912713"><ele>201.0</ele><time>2026-04-18T09:34:15.633Z</time></trkpt><trkpt lat="43.8610171" lon="12.6912525"><ele>200.25</ele><time>2026-04-18T09:34:16.633Z</time></trkpt><trkpt lat="43.8611476" lon="12.6912369"><ele>199.5</ele><time>2026-04-18T09:34:17.634Z</time></trkpt><trkpt lat="43.8612654" lon="12.6912254"><ele>198.75</ele><time>2026-04-18T09:34:18.634Z</time></trkpt><trkpt lat="43.8613702" lon="12.6912375"><ele>198.0</ele><time>2026-04-18T09:34:19.634Z</time></trkpt><trkpt lat="43.8614664" lon="12.691272"><ele>198.0</ele><time>2026-04-18T09:34:20.633Z</time></trkpt><trkpt lat="43.8615477" lon="12.6913283"><ele>198.0</ele><time>2026-04-18T09:34:21.633Z</time></trkpt><trkpt lat="43.8616018" lon="12.6914175"><ele>198.0</ele><time>2026-04-18T09:34:22.632Z</time></trkpt><trkpt lat="43.8616385" lon="12.6915255"><ele>198.0</ele><time>2026-04-18T09:34:23.635Z</time></trkpt><trkpt lat="43.8616631" lon="12.6916475"><ele>198.0</ele><time>2026-04-18T09:34:24.633Z</time></trkpt><trkpt lat="43.8616846" lon="12.6917977"><ele>197.25</ele><time>2026-04-18T09:34:25.633Z</time></trkpt><trkpt lat="43.8617064" lon="12.6919616"><ele>196.5</ele><time>2026-04-18T09:34:26.634Z</time></trkpt><trkpt lat="43.8617302" lon="12.6921283"><ele>195.75</ele><time>2026-04-18T09:34:27.633Z</time></trkpt><trkpt lat="43.8617551" lon="12.6922851"><ele>195.0</ele><time>2026-04-18T09:34:28.634Z</time></trkpt><trkpt lat="43.8617964" lon="12.6924353"><ele>194.5</ele><time>2026-04-18T09:34:29.632Z</time></trkpt><trkpt lat="43.8618501" lon="12.6925665"><ele>194.0</ele><time>2026-04-18T09:34:30.633Z</time></trkpt><trkpt lat="43.8619265" lon="12.6926733"><ele>193.5</ele><time>2026-04-18T09:34:31.633Z</time></trkpt><trkpt lat="43.8620247" lon="12.6927483"><ele>193.0</ele><time>2026-04-18T09:34:32.636Z</time></trkpt><trkpt lat="43.8621432" lon="12.6927883"><ele>193.0</ele><time>2026-04-18T09:34:33.634Z</time></trkpt><trkpt lat="43.8622764" lon="12.6927931"><ele>193.0</ele><time>2026-04-18T09:34:34.635Z</time></trkpt><trkpt lat="43.8624143" lon="12.6927757"><ele>193.0</ele><time>2026-04-18T09:34:35.634Z</time></trkpt><trkpt lat="43.8625564" lon="12.6927392"><ele>193.0</ele><time>2026-04-18T09:34:36.633Z</time></trkpt><trkpt lat="43.8627049" lon="12.6926939"><ele>192.0</ele><time>2026-04-18T09:34:37.633Z</time></trkpt><trkpt lat="43.8628559" lon="12.6926344"><ele>191.0</ele><time>2026-04-18T09:34:38.634Z</time></trkpt><trkpt lat="43.8629916" lon="12.6925565"><ele>190.0</ele><time>2026-04-18T09:34:39.633Z</time></trkpt><trkpt lat="43.8631134" lon="12.692463"><ele>189.0</ele><time>2026-04-18T09:34:40.633Z</time></trkpt><trkpt lat="43.8632254" lon="12.6923725"><ele>189.0</ele><time>2026-04-18T09:34:41.633Z</time></trkpt><trkpt lat="43.8633266" lon="12.69231"><ele>189.0</ele><time>2026-04-18T09:34:42.633Z</time></trkpt><trkpt lat="43.8634248" lon="12.6922711"><ele>189.0</ele><time>2026-04-18T09:34:43.633Z</time></trkpt><trkpt lat="43.8635316" lon="12.6922737"><ele>189.0</ele><time>2026-04-18T09:34:44.634Z</time></trkpt><trkpt lat="43.8636442" lon="12.692323"><ele>189.0</ele><time>2026-04-18T09:34:45.633Z</time></trkpt><trkpt lat="43.8637749" lon="12.6923929"><ele>185.66666666666666</ele><time>2026-04-18T09:34:46.633Z</time></trkpt><trkpt lat="43.8639256" lon="12.6924689"><ele>182.33333333333331</ele><time>2026-04-18T09:34:47.634Z</time></trkpt><trkpt lat="43.8640904" lon="12.6925407"><ele>179.0</ele><time>2026-04-18T09:34:48.634Z</time></trkpt><trkpt lat="43.8642564" lon="12.6926084"><ele>176.66666666666666</ele><time>2026-04-18T09:34:49.633Z</time></trkpt><trkpt lat="43.8644169" lon="12.6926715"><ele>174.33333333333334</ele><time>2026-04-18T09:34:50.633Z</time></trkpt><trkpt lat="43.8645739" lon="12.6927281"><ele>172.0</ele><time>2026-04-18T09:34:51.634Z</time></trkpt><trkpt lat="43.8647173" lon="12.6927948"><ele>172.0</ele><time>2026-04-18T09:34:52.635Z</time></trkpt><trkpt lat="43.864841" lon="12.6928659"><ele>172.0</ele><time>2026-04-18T09:34:53.633Z</time></trkpt><trkpt lat="43.8649503" lon="12.6929433"><ele>172.0</ele><time>2026-04-18T09:34:54.634Z</time></trkpt><trkpt lat="43.8650464" lon="12.6930376"><ele>172.0</ele><time>2026-04-18T09:34:55.633Z</time></trkpt><trkpt lat="43.8651143" lon="12.6931596"><ele>172.25</ele><time>2026-04-18T09:34:56.634Z</time></trkpt><trkpt lat="43.8651418" lon="12.693314"><ele>172.5</ele><time>2026-04-18T09:34:57.634Z</time></trkpt><trkpt lat="43.8651268" lon="12.6934949"><ele>172.75</ele><time>2026-04-18T09:34:58.634Z</time></trkpt><trkpt lat="43.8651027" lon="12.6936722"><ele>173.0</ele><time>2026-04-18T09:34:59.633Z</time></trkpt><trkpt lat="43.865097" lon="12.6938289"><ele>171.5</ele><time>2026-04-18T09:35:00.632Z</time></trkpt><trkpt lat="43.8651326" lon="12.6939735"><ele>170.0</ele><time>2026-04-18T09:35:01.633Z</time></trkpt><trkpt lat="43.8651975" lon="12.6941148"><ele>168.5</ele><time>2026-04-18T09:35:02.716Z</time></trkpt><trkpt lat="43.8652866" lon="12.6942344"><ele>167.0</ele><time>2026-04-18T09:35:03.633Z</time></trkpt><trkpt lat="43.8653807" lon="12.6943552"><ele>165.8</ele><time>2026-04-18T09:35:04.632Z</time></trkpt><trkpt lat="43.8654475" lon="12.6944855"><ele>164.6</ele><time>2026-04-18T09:35:05.633Z</time></trkpt><trkpt lat="43.865493" lon="12.6946224"><ele>163.4</ele><time>2026-04-18T09:35:06.634Z</time></trkpt><trkpt lat="43.8655096" lon="12.6947643"><ele>162.20000000000002</ele><time>2026-04-18T09:35:07.633Z</time></trkpt><trkpt lat="43.8654993" lon="12.6948995"><ele>161.0</ele><time>2026-04-18T09:35:08.634Z</time></trkpt><trkpt lat="43.865465" lon="12.6950227"><ele>161.0</ele><time>2026-04-18T09:35:09.633Z</time></trkpt><trkpt lat="43.8654056" lon="12.6951285"><ele>161.0</ele><time>2026-04-18T09:35:10.633Z</time></trkpt><trkpt lat="43.8653267" lon="12.6952112"><ele>161.0</ele><time>2026-04-18T09:35:11.633Z</time></trkpt><trkpt lat="43.8652203" lon="12.6952612"><ele>161.0</ele><time>2026-04-18T09:35:12.633Z</time></trkpt><trkpt lat="43.8650849" lon="12.6952951"><ele>161.0</ele><time>2026-04-18T09:35:13.633Z</time></trkpt><trkpt lat="43.8649447" lon="12.6953206"><ele>157.75</ele><time>2026-04-18T09:35:14.633Z</time></trkpt><trkpt lat="43.8648123" lon="12.6953452"><ele>154.5</ele><time>2026-04-18T09:35:15.633Z</time></trkpt><trkpt lat="43.864694" lon="12.6953897"><ele>151.25</ele><time>2026-04-18T09:35:16.633Z</time></trkpt><trkpt lat="43.8645859" lon="12.6954587"><ele>148.0</ele><time>2026-04-18T09:35:17.633Z</time></trkpt><trkpt lat="43.8644885" lon="12.6955515"><ele>148.0</ele><time>2026-04-18T09:35:18.634Z</time></trkpt><trkpt lat="43.8644123" lon="12.6956647"><ele>148.0</ele><time>2026-04-18T09:35:19.634Z</time></trkpt><trkpt lat="43.8643401" lon="12.6957942"><ele>148.0</ele><time>2026-04-18T09:35:20.634Z</time></trkpt><trkpt lat="43.8642692" lon="12.6959297"><ele>148.0</ele><time>2026-04-18T09:35:21.633Z</time></trkpt><trkpt lat="43.8641996" lon="12.6960698"><ele>143.0</ele><time>2026-04-18T09:35:22.634Z</time></trkpt><trkpt lat="43.8641288" lon="12.6962104"><ele>138.0</ele><time>2026-04-18T09:35:23.638Z</time></trkpt><trkpt lat="43.8639264" lon="12.6965978"><ele>138.0</ele><time>2026-04-18T09:35:26.635Z</time></trkpt><trkpt lat="43.8638572" lon="12.6967099"><ele>138.0</ele><time>2026-04-18T09:35:27.64Z</time></trkpt><trkpt lat="43.8637845" lon="12.6968147"><ele>138.0</ele><time>2026-04-18T09:35:28.636Z</time></trkpt><trkpt lat="43.8636889" lon="12.6969001"><ele>138.0</ele><time>2026-04-18T09:35:29.636Z</time></trkpt><trkpt lat="43.8635766" lon="12.6969618"><ele>138.0</ele><time>2026-04-18T09:35:30.637Z</time></trkpt><trkpt lat="43.8634446" lon="12.6970068"><ele>134.75</ele><time>2026-04-18T09:35:31.633Z</time></trkpt><trkpt lat="43.8633054" lon="12.6970526"><ele>131.5</ele><time>2026-04-18T09:35:32.634Z</time></trkpt><trkpt lat="43.8631593" lon="12.6971013"><ele>128.25</ele><time>2026-04-18T09:35:33.633Z</time></trkpt><trkpt lat="43.8630076" lon="12.6971509"><ele>125.0</ele><time>2026-04-18T09:35:34.633Z</time></trkpt><trkpt lat="43.8628587" lon="12.6972064"><ele>125.0</ele><time>2026-04-18T09:35:35.633Z</time></trkpt><trkpt lat="43.862714" lon="12.6972569"><ele>125.0</ele><time>2026-04-18T09:35:36.633Z</time></trkpt><trkpt lat="43.8625751" lon="12.6973022"><ele>125.0</ele><time>2026-04-18T09:35:37.633Z</time></trkpt><trkpt lat="43.8624437" lon="12.6973487"><ele>125.0</ele><time>2026-04-18T09:35:38.633Z</time></trkpt><trkpt lat="43.8623124" lon="12.6974004"><ele>124.25</ele><time>2026-04-18T09:35:39.633Z</time></trkpt><trkpt lat="43.8621835" lon="12.697453"><ele>123.5</ele><time>2026-04-18T09:35:40.634Z</time></trkpt><trkpt lat="43.8620569" lon="12.6975016"><ele>122.75</ele><time>2026-04-18T09:35:41.634Z</time></trkpt><trkpt lat="43.8619326" lon="12.6975462"><ele>122.0</ele><time>2026-04-18T09:35:42.632Z</time></trkpt><trkpt lat="43.8618192" lon="12.6975896"><ele>122.25</ele><time>2026-04-18T09:35:43.633Z</time></trkpt><trkpt lat="43.8617073" lon="12.6976349"><ele>122.5</ele><time>2026-04-18T09:35:44.633Z</time></trkpt><trkpt lat="43.8615962" lon="12.6976819"><ele>122.75</ele><time>2026-04-18T09:35:45.633Z</time></trkpt><trkpt lat="43.8614862" lon="12.6977291"><ele>123.0</ele><time>2026-04-18T09:35:46.633Z</time></trkpt><trkpt lat="43.8613791" lon="12.6977801"><ele>120.5</ele><time>2026-04-18T09:35:47.632Z</time></trkpt><trkpt lat="43.861278" lon="12.6978408"><ele>118.0</ele><time>2026-04-18T09:35:48.642Z</time></trkpt><trkpt lat="43.8611807" lon="12.6979187"><ele>115.5</ele><time>2026-04-18T09:35:49.633Z</time></trkpt><trkpt lat="43.861086" lon="12.6980105"><ele>113.0</ele><time>2026-04-18T09:35:50.634Z</time></trkpt><trkpt lat="43.8609908" lon="12.6981055"><ele>112.80000000000001</ele><time>2026-04-18T09:35:51.634Z</time></trkpt><trkpt lat="43.8608998" lon="12.6982026"><ele>112.60000000000001</ele><time>2026-04-18T09:35:52.633Z</time></trkpt><trkpt lat="43.8608143" lon="12.6983024"><ele>112.39999999999999</ele><time>2026-04-18T09:35:53.634Z</time></trkpt><trkpt lat="43.8607357" lon="12.6984008"><ele>112.19999999999999</ele><time>2026-04-18T09:35:54.633Z</time></trkpt><trkpt lat="43.8606694" lon="12.6985004"><ele>112.0</ele><time>2026-04-18T09:35:55.632Z</time></trkpt><trkpt lat="43.8606213" lon="12.6986054"><ele>112.0</ele><time>2026-04-18T09:35:56.633Z</time></trkpt><trkpt lat="43.8605924" lon="12.6987356"><ele>111.99999999999999</ele><time>2026-04-18T09:35:57.631Z</time></trkpt><trkpt lat="43.8605891" lon="12.6988886"><ele>111.99999999999999</ele><time>2026-04-18T09:35:58.633Z</time></trkpt><trkpt lat="43.8606107" lon="12.6990426"><ele>112.0</ele><time>2026-04-18T09:35:59.633Z</time></trkpt><trkpt lat="43.8606597" lon="12.6991847"><ele>112.0</ele><time>2026-04-18T09:36:00.633Z</time></trkpt><trkpt lat="43.860723" lon="12.6993241"><ele>110.75</ele><time>2026-04-18T09:36:01.638Z</time></trkpt><trkpt lat="43.8607886" lon="12.6994711"><ele>109.5</ele><time>2026-04-18T09:36:02.633Z</time></trkpt><trkpt lat="43.86085" lon="12.6996282"><ele>108.25</ele><time>2026-04-18T09:36:03.633Z</time></trkpt><trkpt lat="43.8609172" lon="12.6997923"><ele>107.0</ele><time>2026-04-18T09:36:04.635Z</time></trkpt><trkpt lat="43.8609885" lon="12.6999642"><ele>107.0</ele><time>2026-04-18T09:36:05.632Z</time></trkpt><trkpt lat="43.8610571" lon="12.7001504"><ele>107.0</ele><time>2026-04-18T09:36:06.632Z</time></trkpt><trkpt lat="43.8611268" lon="12.7003456"><ele>107.0</ele><time>2026-04-18T09:36:07.632Z</time></trkpt><trkpt lat="43.8611953" lon="12.700549"><ele>108.66666666666666</ele><time>2026-04-18T09:36:08.632Z</time></trkpt><trkpt lat="43.8612602" lon="12.7007578"><ele>110.33333333333334</ele><time>2026-04-18T09:36:09.632Z</time></trkpt><trkpt lat="43.8613178" lon="12.7009663"><ele>112.0</ele><time>2026-04-18T09:36:10.632Z</time></trkpt><trkpt lat="43.8613596" lon="12.7011816"><ele>115.0</ele><time>2026-04-18T09:36:11.632Z</time></trkpt><trkpt lat="43.8613786" lon="12.7014024"><ele>118.0</ele><time>2026-04-18T09:36:12.631Z</time></trkpt><trkpt lat="43.8614009" lon="12.7016178"><ele>121.0</ele><time>2026-04-18T09:36:13.631Z</time></trkpt><trkpt lat="43.8614371" lon="12.7018112"><ele>123.5</ele><time>2026-04-18T09:36:14.632Z</time></trkpt><trkpt lat="43.8614898" lon="12.7019923"><ele>126.0</ele><time>2026-04-18T09:36:15.632Z</time></trkpt><trkpt lat="43.8615518" lon="12.7021573"><ele>128.5</ele><time>2026-04-18T09:36:16.632Z</time></trkpt><trkpt lat="43.8616158" lon="12.7023153"><ele>131.0</ele><time>2026-04-18T09:36:17.632Z</time></trkpt><trkpt lat="43.8616756" lon="12.7024696"><ele>131.0</ele><time>2026-04-18T09:36:18.632Z</time></trkpt><trkpt lat="43.8617286" lon="12.7026133"><ele>131.0</ele><time>2026-04-18T09:36:19.632Z</time></trkpt><trkpt lat="43.8617766" lon="12.702744"><ele>131.0</ele><time>2026-04-18T09:36:20.632Z</time></trkpt><trkpt lat="43.8618211" lon="12.7028686"><ele>131.0</ele><time>2026-04-18T09:36:21.632Z</time></trkpt><trkpt lat="43.8618604" lon="12.7029911"><ele>131.0</ele><time>2026-04-18T09:36:22.632Z</time></trkpt><trkpt lat="43.8618925" lon="12.7031145"><ele>130.66666666666666</ele><time>2026-04-18T09:36:23.632Z</time></trkpt><trkpt lat="43.8619118" lon="12.7032373"><ele>130.33333333333331</ele><time>2026-04-18T09:36:24.632Z</time></trkpt><trkpt lat="43.8619188" lon="12.7033442"><ele>130.0</ele><time>2026-04-18T09:36:25.632Z</time></trkpt><trkpt lat="43.86191" lon="12.7034406"><ele>129.66666666666666</ele><time>2026-04-18T09:36:26.632Z</time></trkpt><trkpt lat="43.8618825" lon="12.7035204"><ele>129.33333333333334</ele><time>2026-04-18T09:36:27.632Z</time></trkpt><trkpt lat="43.8618109" lon="12.7035598"><ele>129.0</ele><time>2026-04-18T09:36:28.631Z</time></trkpt><trkpt lat="43.8617123" lon="12.703538"><ele>130.6</ele><time>2026-04-18T09:36:29.632Z</time></trkpt><trkpt lat="43.8616114" lon="12.7034765"><ele>132.2</ele><time>2026-04-18T09:36:30.632Z</time></trkpt><trkpt lat="43.8615174" lon="12.7034114"><ele>133.79999999999998</ele><time>2026-04-18T09:36:31.632Z</time></trkpt><trkpt lat="43.8614204" lon="12.703354"><ele>135.4</ele><time>2026-04-18T09:36:32.632Z</time></trkpt><trkpt lat="43.8613254" lon="12.703299"><ele>137.0</ele><time>2026-04-18T09:36:33.632Z</time></trkpt><trkpt lat="43.861234" lon="12.7032432"><ele>137.0</ele><time>2026-04-18T09:36:34.632Z</time></trkpt><trkpt lat="43.8611438" lon="12.7031853"><ele>137.0</ele><time>2026-04-18T09:36:35.632Z</time></trkpt><trkpt lat="43.8610551" lon="12.7031322"><ele>137.0</ele><time>2026-04-18T09:36:36.632Z</time></trkpt><trkpt lat="43.8609671" lon="12.7030819"><ele>137.0</ele><time>2026-04-18T09:36:37.631Z</time></trkpt><trkpt lat="43.860882" lon="12.7030309"><ele>137.0</ele><time>2026-04-18T09:36:38.632Z</time></trkpt><trkpt lat="43.8608048" lon="12.7029825"><ele>137.66666666666666</ele><time>2026-04-18T09:36:39.632Z</time></trkpt><trkpt lat="43.8607256" lon="12.7029433"><ele>138.33333333333331</ele><time>2026-04-18T09:36:40.632Z</time></trkpt><trkpt lat="43.8606469" lon="12.7029258"><ele>139.0</ele><time>2026-04-18T09:36:41.632Z</time></trkpt><trkpt lat="43.8605661" lon="12.7029347"><ele>139.66666666666666</ele><time>2026-04-18T09:36:42.633Z</time></trkpt><trkpt lat="43.8604918" lon="12.7029849"><ele>140.33333333333334</ele><time>2026-04-18T09:36:43.633Z</time></trkpt><trkpt lat="43.8604184" lon="12.7030456"><ele>141.0</ele><time>2026-04-18T09:36:44.632Z</time></trkpt><trkpt lat="43.8603492" lon="12.7031146"><ele>141.0</ele><time>2026-04-18T09:36:45.632Z</time></trkpt><trkpt lat="43.860272" lon="12.7031902"><ele>141.0</ele><time>2026-04-18T09:36:46.632Z</time></trkpt><trkpt lat="43.8601889" lon="12.7032664"><ele>141.0</ele><time>2026-04-18T09:36:47.632Z</time></trkpt><trkpt lat="43.8601107" lon="12.7033451"><ele>141.0</ele><time>2026-04-18T09:36:48.633Z</time></trkpt><trkpt lat="43.8600339" lon="12.7034188"><ele>141.0</ele><time>2026-04-18T09:36:49.632Z</time></trkpt><trkpt lat="43.8599583" lon="12.7034856"><ele>141.0</ele><time>2026-04-18T09:36:50.633Z</time></trkpt><trkpt lat="43.8598819" lon="12.7035505"><ele>141.0</ele><time>2026-04-18T09:36:51.632Z</time></trkpt><trkpt lat="43.8598023" lon="12.7036081"><ele>141.0</ele><time>2026-04-18T09:36:52.633Z</time></trkpt><trkpt lat="43.8597185" lon="12.7036701"><ele>141.0</ele><time>2026-04-18T09:36:53.632Z</time></trkpt><trkpt lat="43.8596384" lon="12.7037409"><ele>141.0</ele><time>2026-04-18T09:36:54.632Z</time></trkpt><trkpt lat="43.859558" lon="12.7038156"><ele>141.0</ele><time>2026-04-18T09:36:55.632Z</time></trkpt><trkpt lat="43.8594868" lon="12.7038962"><ele>141.0</ele><time>2026-04-18T09:36:56.635Z</time></trkpt><trkpt lat="43.8594173" lon="12.7039693"><ele>141.0</ele><time>2026-04-18T09:36:57.632Z</time></trkpt><trkpt lat="43.8593554" lon="12.704044"><ele>141.0</ele><time>2026-04-18T09:36:58.632Z</time></trkpt><trkpt lat="43.8592905" lon="12.7041245"><ele>141.0</ele><time>2026-04-18T09:36:59.632Z</time></trkpt><trkpt lat="43.8592281" lon="12.7042099"><ele>141.0</ele><time>2026-04-18T09:37:00.632Z</time></trkpt><trkpt lat="43.8591685" lon="12.7042956"><ele>140.8</ele><time>2026-04-18T09:37:01.633Z</time></trkpt><trkpt lat="43.8591098" lon="12.7043838"><ele>140.6</ele><time>2026-04-18T09:37:02.632Z</time></trkpt><trkpt lat="43.8590542" lon="12.7044763"><ele>140.4</ele><time>2026-04-18T09:37:03.632Z</time></trkpt><trkpt lat="43.8590037" lon="12.7045946"><ele>140.2</ele><time>2026-04-18T09:37:04.632Z</time></trkpt><trkpt lat="43.8589604" lon="12.7047276"><ele>140.0</ele><time>2026-04-18T09:37:05.631Z</time></trkpt><trkpt lat="43.8589271" lon="12.7048804"><ele>140.0</ele><time>2026-04-18T09:37:06.632Z</time></trkpt><trkpt lat="43.8589051" lon="12.7050479"><ele>140.0</ele><time>2026-04-18T09:37:07.633Z</time></trkpt><trkpt lat="43.8588863" lon="12.7052186"><ele>140.0</ele><time>2026-04-18T09:37:08.635Z</time></trkpt><trkpt lat="43.8588692" lon="12.7053885"><ele>140.0</ele><time>2026-04-18T09:37:09.632Z</time></trkpt><trkpt lat="43.858853" lon="12.7055521"><ele>139.0</ele><time>2026-04-18T09:37:10.632Z</time></trkpt><trkpt lat="43.8588371" lon="12.7057276"><ele>138.0</ele><time>2026-04-18T09:37:11.633Z</time></trkpt><trkpt lat="43.8588261" lon="12.7059096"><ele>137.0</ele><time>2026-04-18T09:37:12.632Z</time></trkpt><trkpt lat="43.8588244" lon="12.7060931"><ele>136.0</ele><time>2026-04-18T09:37:13.632Z</time></trkpt><trkpt lat="43.8588238" lon="12.7062709"><ele>135.5</ele><time>2026-04-18T09:37:14.76Z</time></trkpt><trkpt lat="43.8588217" lon="12.7065877"><ele>135.0</ele><time>2026-04-18T09:37:16.633Z</time></trkpt><trkpt lat="43.8588233" lon="12.7067421"><ele>134.5</ele><time>2026-04-18T09:37:17.632Z</time></trkpt><trkpt lat="43.8588305" lon="12.7068912"><ele>134.0</ele><time>2026-04-18T09:37:18.632Z</time></trkpt><trkpt lat="43.8588377" lon="12.7070407"><ele>133.33333333333331</ele><time>2026-04-18T09:37:19.633Z</time></trkpt><trkpt lat="43.8588496" lon="12.7071977"><ele>132.66666666666666</ele><time>2026-04-18T09:37:20.741Z</time></trkpt><trkpt lat="43.8589121" lon="12.7075151"><ele>132.0</ele><time>2026-04-18T09:37:22.633Z</time></trkpt><trkpt lat="43.8589619" lon="12.7076731"><ele>131.6</ele><time>2026-04-18T09:37:23.631Z</time></trkpt><trkpt lat="43.8590173" lon="12.7078241"><ele>131.2</ele><time>2026-04-18T09:37:24.634Z</time></trkpt><trkpt lat="43.8590707" lon="12.7079702"><ele>130.8</ele><time>2026-04-18T09:37:25.631Z</time></trkpt><trkpt lat="43.8591187" lon="12.7081009"><ele>130.4</ele><time>2026-04-18T09:37:26.632Z</time></trkpt><trkpt lat="43.8591638" lon="12.7082192"><ele>130.0</ele><time>2026-04-18T09:37:27.631Z</time></trkpt><trkpt lat="43.859207" lon="12.7083285"><ele>130.0</ele><time>2026-04-18T09:37:28.632Z</time></trkpt><trkpt lat="43.8592473" lon="12.7084255"><ele>130.0</ele><time>2026-04-18T09:37:29.632Z</time></trkpt><trkpt lat="43.8592883" lon="12.7085265"><ele>130.0</ele><time>2026-04-18T09:37:30.634Z</time></trkpt><trkpt lat="43.8593283" lon="12.7086293"><ele>130.0</ele><time>2026-04-18T09:37:31.632Z</time></trkpt><trkpt lat="43.8593641" lon="12.7087447"><ele>130.0</ele><time>2026-04-18T09:37:32.635Z</time></trkpt><trkpt lat="43.8593871" lon="12.7088787"><ele>130.0</ele><time>2026-04-18T09:37:33.632Z</time></trkpt><trkpt lat="43.8594056" lon="12.7090216"><ele>127.75</ele><time>2026-04-18T09:37:34.632Z</time></trkpt><trkpt lat="43.8594189" lon="12.7091833"><ele>125.5</ele><time>2026-04-18T09:37:35.631Z</time></trkpt><trkpt lat="43.8594308" lon="12.709352"><ele>123.25</ele><time>2026-04-18T09:37:36.632Z</time></trkpt><trkpt lat="43.8594567" lon="12.7095254"><ele>121.0</ele><time>2026-04-18T09:37:37.632Z</time></trkpt><trkpt lat="43.859494" lon="12.7096951"><ele>121.0</ele><time>2026-04-18T09:37:38.632Z</time></trkpt><trkpt lat="43.8595415" lon="12.7098629"><ele>121.0</ele><time>2026-04-18T09:37:39.632Z</time></trkpt><trkpt lat="43.8595912" lon="12.7100254"><ele>121.0</ele><time>2026-04-18T09:37:40.632Z</time></trkpt><trkpt lat="43.859638" lon="12.7101909"><ele>121.0</ele><time>2026-04-18T09:37:41.632Z</time></trkpt><trkpt lat="43.8596861" lon="12.7103558"><ele>121.75</ele><time>2026-04-18T09:37:42.632Z</time></trkpt><trkpt lat="43.8597414" lon="12.7105208"><ele>122.5</ele><time>2026-04-18T09:37:43.631Z</time></trkpt><trkpt lat="43.8597972" lon="12.7106858"><ele>123.25</ele><time>2026-04-18T09:37:44.632Z</time></trkpt><trkpt lat="43.8598555" lon="12.7108556"><ele>124.0</ele><time>2026-04-18T09:37:45.632Z</time></trkpt><trkpt lat="43.8599124" lon="12.7110263"><ele>123.25</ele><time>2026-04-18T09:37:46.631Z</time></trkpt><trkpt lat="43.8599729" lon="12.7111952"><ele>122.5</ele><time>2026-04-18T09:37:47.631Z</time></trkpt><trkpt lat="43.8600354" lon="12.7113663"><ele>121.75</ele><time>2026-04-18T09:37:48.631Z</time></trkpt><trkpt lat="43.8600972" lon="12.711537"><ele>121.0</ele><time>2026-04-18T09:37:49.632Z</time></trkpt><trkpt lat="43.8601521" lon="12.7117105"><ele>120.75</ele><time>2026-04-18T09:37:50.632Z</time></trkpt><trkpt lat="43.8602" lon="12.7118894"><ele>120.5</ele><time>2026-04-18T09:37:51.632Z</time></trkpt><trkpt lat="43.860242" lon="12.7120723"><ele>120.25</ele><time>2026-04-18T09:37:52.63Z</time></trkpt><trkpt lat="43.8602776" lon="12.7122578"><ele>120.0</ele><time>2026-04-18T09:37:53.631Z</time></trkpt><trkpt lat="43.8603001" lon="12.7124506"><ele>120.0</ele><time>2026-04-18T09:37:54.632Z</time></trkpt><trkpt lat="43.860311" lon="12.7126487"><ele>120.0</ele><time>2026-04-18T09:37:55.632Z</time></trkpt><trkpt lat="43.8603156" lon="12.7128507"><ele>120.0</ele><time>2026-04-18T09:37:56.632Z</time></trkpt><trkpt lat="43.8603119" lon="12.713056"><ele>120.0</ele><time>2026-04-18T09:37:57.632Z</time></trkpt><trkpt lat="43.8603035" lon="12.7132698"><ele>118.66666666666666</ele><time>2026-04-18T09:37:58.631Z</time></trkpt><trkpt lat="43.8602895" lon="12.7134809"><ele>117.33333333333333</ele><time>2026-04-18T09:37:59.632Z</time></trkpt><trkpt lat="43.8602786" lon="12.7136906"><ele>116.0</ele><time>2026-04-18T09:38:00.632Z</time></trkpt><trkpt lat="43.8602714" lon="12.7139008"><ele>115.25</ele><time>2026-04-18T09:38:01.632Z</time></trkpt><trkpt lat="43.8602684" lon="12.7141114"><ele>114.5</ele><time>2026-04-18T09:38:02.632Z</time></trkpt><trkpt lat="43.8602672" lon="12.7143099"><ele>113.75</ele><time>2026-04-18T09:38:03.632Z</time></trkpt><trkpt lat="43.8602713" lon="12.7144945"><ele>113.0</ele><time>2026-04-18T09:38:04.631Z</time></trkpt><trkpt lat="43.8602813" lon="12.7146668"><ele>112.80000000000001</ele><time>2026-04-18T09:38:05.631Z</time></trkpt><trkpt lat="43.8602859" lon="12.7148338"><ele>112.60000000000001</ele><time>2026-04-18T09:38:06.633Z</time></trkpt><trkpt lat="43.8602877" lon="12.7149893"><ele>112.39999999999999</ele><time>2026-04-18T09:38:07.632Z</time></trkpt><trkpt lat="43.8602833" lon="12.7151271"><ele>112.19999999999999</ele><time>2026-04-18T09:38:08.635Z</time></trkpt><trkpt lat="43.8602692" lon="12.7152381"><ele>112.0</ele><time>2026-04-18T09:38:09.636Z</time></trkpt><trkpt lat="43.8602347" lon="12.7153337"><ele>112.6</ele><time>2026-04-18T09:38:10.633Z</time></trkpt><trkpt lat="43.8601688" lon="12.7154039"><ele>113.19999999999999</ele><time>2026-04-18T09:38:11.642Z</time></trkpt><trkpt lat="43.8600744" lon="12.715433"><ele>113.8</ele><time>2026-04-18T09:38:12.644Z</time></trkpt><trkpt lat="43.8599577" lon="12.7154135"><ele>114.4</ele><time>2026-04-18T09:38:13.632Z</time></trkpt><trkpt lat="43.8598326" lon="12.7153854"><ele>115.0</ele><time>2026-04-18T09:38:14.633Z</time></trkpt><trkpt lat="43.8596941" lon="12.7153574"><ele>116.0</ele><time>2026-04-18T09:38:15.633Z</time></trkpt><trkpt lat="43.8595343" lon="12.7153394"><ele>117.0</ele><time>2026-04-18T09:38:16.631Z</time></trkpt><trkpt lat="43.8593535" lon="12.7153176"><ele>118.0</ele><time>2026-04-18T09:38:17.632Z</time></trkpt><trkpt lat="43.8591694" lon="12.7152699"><ele>117.66666666666667</ele><time>2026-04-18T09:38:18.632Z</time></trkpt><trkpt lat="43.858997" lon="12.7152225"><ele>117.33333333333334</ele><time>2026-04-18T09:38:19.633Z</time></trkpt><trkpt lat="43.8588337" lon="12.7151833"><ele>117.0</ele><time>2026-04-18T09:38:20.632Z</time></trkpt><trkpt lat="43.8586777" lon="12.7151528"><ele>117.0</ele><time>2026-04-18T09:38:21.633Z</time></trkpt><trkpt lat="43.8585294" lon="12.7151255"><ele>117.0</ele><time>2026-04-18T09:38:22.633Z</time></trkpt><trkpt lat="43.8583825" lon="12.7150979"><ele>117.0</ele><time>2026-04-18T09:38:23.632Z</time></trkpt><trkpt lat="43.8582399" lon="12.7150709"><ele>117.0</ele><time>2026-04-18T09:38:24.631Z</time></trkpt><trkpt lat="43.858104" lon="12.7150432"><ele>115.0</ele><time>2026-04-18T09:38:25.632Z</time></trkpt><trkpt lat="43.8579727" lon="12.7150156"><ele>113.0</ele><time>2026-04-18T09:38:26.633Z</time></trkpt><trkpt lat="43.8578465" lon="12.7149957"><ele>111.0</ele><time>2026-04-18T09:38:27.635Z</time></trkpt><trkpt lat="43.8577239" lon="12.7149779"><ele>109.0</ele><time>2026-04-18T09:38:28.632Z</time></trkpt><trkpt lat="43.8576069" lon="12.7149581"><ele>106.80000000000001</ele><time>2026-04-18T09:38:29.632Z</time></trkpt><trkpt lat="43.8574957" lon="12.7149367"><ele>104.60000000000001</ele><time>2026-04-18T09:38:30.631Z</time></trkpt><trkpt lat="43.8573894" lon="12.7149073"><ele>102.4</ele><time>2026-04-18T09:38:31.632Z</time></trkpt><trkpt lat="43.8572917" lon="12.7148755"><ele>100.2</ele><time>2026-04-18T09:38:32.632Z</time></trkpt><trkpt lat="43.8571993" lon="12.714848"><ele>98.0</ele><time>2026-04-18T09:38:33.631Z</time></trkpt><trkpt lat="43.85711" lon="12.7148311"><ele>98.0</ele><time>2026-04-18T09:38:34.631Z</time></trkpt><trkpt lat="43.8570241" lon="12.714822"><ele>98.0</ele><time>2026-04-18T09:38:35.634Z</time></trkpt><trkpt lat="43.8569453" lon="12.7148375"><ele>98.0</ele><time>2026-04-18T09:38:36.631Z</time></trkpt><trkpt lat="43.8568666" lon="12.7148831"><ele>98.0</ele><time>2026-04-18T09:38:37.631Z</time></trkpt><trkpt lat="43.8567918" lon="12.7149685"><ele>98.0</ele><time>2026-04-18T09:38:38.632Z</time></trkpt><trkpt lat="43.856735" lon="12.7151054"><ele>95.0</ele><time>2026-04-18T09:38:39.637Z</time></trkpt><trkpt lat="43.8566869" lon="12.7152606"><ele>92.0</ele><time>2026-04-18T09:38:40.631Z</time></trkpt><trkpt lat="43.8566475" lon="12.7154105"><ele>89.0</ele><time>2026-04-18T09:38:41.632Z</time></trkpt><trkpt lat="43.856615" lon="12.7155498"><ele>86.0</ele><time>2026-04-18T09:38:42.633Z</time></trkpt><trkpt lat="43.8565971" lon="12.7156831"><ele>83.0</ele><time>2026-04-18T09:38:43.633Z</time></trkpt><trkpt lat="43.8565976" lon="12.7158113"><ele>83.0</ele><time>2026-04-18T09:38:44.632Z</time></trkpt><trkpt lat="43.8566193" lon="12.7159358"><ele>83.0</ele><time>2026-04-18T09:38:45.633Z</time></trkpt><trkpt lat="43.8566588" lon="12.7160487"><ele>83.0</ele><time>2026-04-18T09:38:46.631Z</time></trkpt><trkpt lat="43.8567043" lon="12.716148"><ele>83.0</ele><time>2026-04-18T09:38:47.632Z</time></trkpt><trkpt lat="43.8567473" lon="12.716233"><ele>83.0</ele><time>2026-04-18T09:38:48.631Z</time></trkpt><trkpt lat="43.8567844" lon="12.7163117"><ele>83.0</ele><time>2026-04-18T09:38:49.632Z</time></trkpt><trkpt lat="43.8567449" lon="12.7164077"><ele>81.4</ele><time>2026-04-18T09:38:51.63Z</time></trkpt><trkpt lat="43.8566681" lon="12.7164009"><ele>79.80000000000001</ele><time>2026-04-18T09:38:52.63Z</time></trkpt><trkpt lat="43.8565705" lon="12.7163599"><ele>78.2</ele><time>2026-04-18T09:38:53.63Z</time></trkpt><trkpt lat="43.8564665" lon="12.7162996"><ele>76.6</ele><time>2026-04-18T09:38:54.63Z</time></trkpt><trkpt lat="43.8563592" lon="12.716233"><ele>75.0</ele><time>2026-04-18T09:38:55.63Z</time></trkpt><trkpt lat="43.8562471" lon="12.7161724"><ele>75.0</ele><time>2026-04-18T09:38:56.631Z</time></trkpt><trkpt lat="43.856135" lon="12.7161235"><ele>75.0</ele><time>2026-04-18T09:38:57.629Z</time></trkpt><trkpt lat="43.8560225" lon="12.7160899"><ele>75.0</ele><time>2026-04-18T09:38:58.63Z</time></trkpt><trkpt lat="43.8559017" lon="12.7160749"><ele>75.0</ele><time>2026-04-18T09:38:59.631Z</time></trkpt><trkpt lat="43.8557792" lon="12.7160896"><ele>74.75</ele><time>2026-04-18T09:39:00.631Z</time></trkpt><trkpt lat="43.8556562" lon="12.7161343"><ele>74.5</ele><time>2026-04-18T09:39:01.63Z</time></trkpt><trkpt lat="43.8555306" lon="12.7162022"><ele>74.25</ele><time>2026-04-18T09:39:02.631Z</time></trkpt><trkpt lat="43.8553988" lon="12.7162855"><ele>74.0</ele><time>2026-04-18T09:39:03.63Z</time></trkpt><trkpt lat="43.8552661" lon="12.7163755"><ele>74.0</ele><time>2026-04-18T09:39:04.63Z</time></trkpt><trkpt lat="43.8551299" lon="12.716479"><ele>74.0</ele><time>2026-04-18T09:39:05.63Z</time></trkpt><trkpt lat="43.8549942" lon="12.7165976"><ele>74.0</ele><time>2026-04-18T09:39:06.63Z</time></trkpt><trkpt lat="43.8548526" lon="12.7167245"><ele>74.66666666666667</ele><time>2026-04-18T09:39:07.631Z</time></trkpt><trkpt lat="43.8547091" lon="12.7168493"><ele>75.33333333333333</ele><time>2026-04-18T09:39:08.631Z</time></trkpt><trkpt lat="43.8545844" lon="12.7169728"><ele>76.0</ele><time>2026-04-18T09:39:09.63Z</time></trkpt><trkpt lat="43.854467" lon="12.7170763"><ele>76.0</ele><time>2026-04-18T09:39:10.63Z</time></trkpt><trkpt lat="43.8543544" lon="12.7171745"><ele>76.0</ele><time>2026-04-18T09:39:11.63Z</time></trkpt><trkpt lat="43.8542369" lon="12.717273"><ele>76.0</ele><time>2026-04-18T09:39:12.631Z</time></trkpt><trkpt lat="43.8541173" lon="12.7173626"><ele>76.0</ele><time>2026-04-18T09:39:13.63Z</time></trkpt><trkpt lat="43.8539966" lon="12.7174487"><ele>77.0</ele><time>2026-04-18T09:39:14.631Z</time></trkpt><trkpt lat="43.8538734" lon="12.717533"><ele>78.0</ele><time>2026-04-18T09:39:15.63Z</time></trkpt><trkpt lat="43.8537479" lon="12.717619"><ele>79.0</ele><time>2026-04-18T09:39:16.63Z</time></trkpt><trkpt lat="43.8536266" lon="12.7177156"><ele>80.0</ele><time>2026-04-18T09:39:17.63Z</time></trkpt><trkpt lat="43.8535106" lon="12.7178205"><ele>77.25</ele><time>2026-04-18T09:39:18.631Z</time></trkpt><trkpt lat="43.8533987" lon="12.7179335"><ele>74.5</ele><time>2026-04-18T09:39:19.63Z</time></trkpt><trkpt lat="43.8532902" lon="12.7180508"><ele>71.75</ele><time>2026-04-18T09:39:20.631Z</time></trkpt><trkpt lat="43.8531865" lon="12.7181728"><ele>69.0</ele><time>2026-04-18T09:39:21.63Z</time></trkpt><trkpt lat="43.8530884" lon="12.7183001"><ele>69.0</ele><time>2026-04-18T09:39:22.63Z</time></trkpt><trkpt lat="43.8529967" lon="12.7184383"><ele>69.0</ele><time>2026-04-18T09:39:23.63Z</time></trkpt><trkpt lat="43.8529086" lon="12.7185767"><ele>69.0</ele><time>2026-04-18T09:39:24.631Z</time></trkpt><trkpt lat="43.8528197" lon="12.7187095"><ele>69.0</ele><time>2026-04-18T09:39:25.632Z</time></trkpt><trkpt lat="43.8527285" lon="12.7188307"><ele>67.75</ele><time>2026-04-18T09:39:26.631Z</time></trkpt><trkpt lat="43.8526346" lon="12.7189476"><ele>66.5</ele><time>2026-04-18T09:39:27.631Z</time></trkpt><trkpt lat="43.8525343" lon="12.719063"><ele>65.25</ele><time>2026-04-18T09:39:28.63Z</time></trkpt><trkpt lat="43.8524318" lon="12.7191775"><ele>64.0</ele><time>2026-04-18T09:39:29.63Z</time></trkpt><trkpt lat="43.8523332" lon="12.7192833"><ele>64.0</ele><time>2026-04-18T09:39:30.63Z</time></trkpt><trkpt lat="43.8522335" lon="12.7193717"><ele>64.0</ele><time>2026-04-18T09:39:31.632Z</time></trkpt><trkpt lat="43.8521349" lon="12.7194495"><ele>64.0</ele><time>2026-04-18T09:39:32.631Z</time></trkpt><trkpt lat="43.8520407" lon="12.719519"><ele>64.0</ele><time>2026-04-18T09:39:33.63Z</time></trkpt><trkpt lat="43.851944" lon="12.7195837"><ele>64.0</ele><time>2026-04-18T09:39:34.631Z</time></trkpt><trkpt lat="43.8518439" lon="12.7196469"><ele>63.75</ele><time>2026-04-18T09:39:35.631Z</time></trkpt><trkpt lat="43.8517397" lon="12.7197052"><ele>63.5</ele><time>2026-04-18T09:39:36.631Z</time></trkpt><trkpt lat="43.8516343" lon="12.7197766"><ele>63.25</ele><time>2026-04-18T09:39:37.63Z</time></trkpt><trkpt lat="43.8515234" lon="12.7198521"><ele>63.0</ele><time>2026-04-18T09:39:38.631Z</time></trkpt><trkpt lat="43.8514114" lon="12.7199286"><ele>63.0</ele><time>2026-04-18T09:39:39.63Z</time></trkpt><trkpt lat="43.8512992" lon="12.7200054"><ele>63.0</ele><time>2026-04-18T09:39:40.63Z</time></trkpt><trkpt lat="43.8511866" lon="12.7200864"><ele>63.0</ele><time>2026-04-18T09:39:41.63Z</time></trkpt><trkpt lat="43.8510675" lon="12.7201743"><ele>63.0</ele><time>2026-04-18T09:39:42.631Z</time></trkpt><trkpt lat="43.8509377" lon="12.7202674"><ele>62.66666666666667</ele><time>2026-04-18T09:39:43.63Z</time></trkpt><trkpt lat="43.8508024" lon="12.7203642"><ele>62.333333333333336</ele><time>2026-04-18T09:39:44.63Z</time></trkpt><trkpt lat="43.8506611" lon="12.7204587"><ele>62.0</ele><time>2026-04-18T09:39:45.631Z</time></trkpt><trkpt lat="43.8505238" lon="12.7205518"><ele>62.0</ele><time>2026-04-18T09:39:46.63Z</time></trkpt><trkpt lat="43.8503968" lon="12.7206403"><ele>62.0</ele><time>2026-04-18T09:39:47.631Z</time></trkpt><trkpt lat="43.850276" lon="12.7207229"><ele>62.0</ele><time>2026-04-18T09:39:48.631Z</time></trkpt><trkpt lat="43.8501623" lon="12.7207958"><ele>62.0</ele><time>2026-04-18T09:39:49.631Z</time></trkpt><trkpt lat="43.8500578" lon="12.72087"><ele>61.6</ele><time>2026-04-18T09:39:50.631Z</time></trkpt><trkpt lat="43.8499569" lon="12.7209429"><ele>61.2</ele><time>2026-04-18T09:39:51.631Z</time></trkpt><trkpt lat="43.8498643" lon="12.7210111"><ele>60.8</ele><time>2026-04-18T09:39:52.631Z</time></trkpt><trkpt lat="43.8497758" lon="12.7210813"><ele>60.4</ele><time>2026-04-18T09:39:53.631Z</time></trkpt><trkpt lat="43.8497119" lon="12.7211798"><ele>60.0</ele><time>2026-04-18T09:39:54.631Z</time></trkpt><trkpt lat="43.8496766" lon="12.7213007"><ele>59.25</ele><time>2026-04-18T09:39:55.631Z</time></trkpt><trkpt lat="43.8496855" lon="12.7214514"><ele>58.5</ele><time>2026-04-18T09:39:56.631Z</time></trkpt><trkpt lat="43.8497236" lon="12.7216233"><ele>57.75</ele><time>2026-04-18T09:39:57.63Z</time></trkpt><trkpt lat="43.8497866" lon="12.7218286"><ele>57.0</ele><time>2026-04-18T09:39:58.631Z</time></trkpt><trkpt lat="43.8498581" lon="12.722044"><ele>56.5</ele><time>2026-04-18T09:39:59.63Z</time></trkpt><trkpt lat="43.8499244" lon="12.722245"><ele>56.0</ele><time>2026-04-18T09:40:00.63Z</time></trkpt><trkpt lat="43.8499841" lon="12.7224292"><ele>55.5</ele><time>2026-04-18T09:40:01.63Z</time></trkpt><trkpt lat="43.8500338" lon="12.7225973"><ele>55.0</ele><time>2026-04-18T09:40:02.631Z</time></trkpt><trkpt lat="43.8500707" lon="12.7227541"><ele>55.0</ele><time>2026-04-18T09:40:03.63Z</time></trkpt><trkpt lat="43.850077" lon="12.722911"><ele>55.0</ele><time>2026-04-18T09:40:04.63Z</time></trkpt><trkpt lat="43.8500362" lon="12.723075"><ele>55.0</ele><time>2026-04-18T09:40:05.63Z</time></trkpt><trkpt lat="43.8499608" lon="12.7232371"><ele>55.0</ele><time>2026-04-18T09:40:06.631Z</time></trkpt><trkpt lat="43.8498539" lon="12.7233857"><ele>55.0</ele><time>2026-04-18T09:40:07.63Z</time></trkpt><trkpt lat="43.8497187" lon="12.7235163"><ele>55.0</ele><time>2026-04-18T09:40:08.631Z</time></trkpt><trkpt lat="43.8496003" lon="12.7236329"><ele>55.0</ele><time>2026-04-18T09:40:09.63Z</time></trkpt><trkpt lat="43.849502" lon="12.7237375"><ele>55.0</ele><time>2026-04-18T09:40:10.63Z</time></trkpt><trkpt lat="43.8494223" lon="12.7238294"><ele>55.2</ele><time>2026-04-18T09:40:11.631Z</time></trkpt><trkpt lat="43.849349" lon="12.7239059"><ele>55.4</ele><time>2026-04-18T09:40:12.631Z</time></trkpt><trkpt lat="43.8492635" lon="12.7239538"><ele>55.599999999999994</ele><time>2026-04-18T09:40:13.631Z</time></trkpt><trkpt lat="43.8491668" lon="12.7239659"><ele>55.8</ele><time>2026-04-18T09:40:14.631Z</time></trkpt><trkpt lat="43.8490652" lon="12.7239378"><ele>56.0</ele><time>2026-04-18T09:40:15.631Z</time></trkpt><trkpt lat="43.8489676" lon="12.7238694"><ele>55.4</ele><time>2026-04-18T09:40:16.63Z</time></trkpt><trkpt lat="43.8488848" lon="12.7237722"><ele>54.8</ele><time>2026-04-18T09:40:17.63Z</time></trkpt><trkpt lat="43.8488102" lon="12.7236568"><ele>54.199999999999996</ele><time>2026-04-18T09:40:18.632Z</time></trkpt><trkpt lat="43.8487349" lon="12.7235417"><ele>53.599999999999994</ele><time>2026-04-18T09:40:19.632Z</time></trkpt><trkpt lat="43.8486602" lon="12.7234208"><ele>53.0</ele><time>2026-04-18T09:40:20.633Z</time></trkpt><trkpt lat="43.8485829" lon="12.7232943"><ele>53.0</ele><time>2026-04-18T09:40:21.63Z</time></trkpt><trkpt lat="43.8485078" lon="12.7231648"><ele>53.0</ele><time>2026-04-18T09:40:22.63Z</time></trkpt><trkpt lat="43.84843" lon="12.7230405"><ele>53.0</ele><time>2026-04-18T09:40:23.631Z</time></trkpt><trkpt lat="43.8483552" lon="12.7229166"><ele>53.0</ele><time>2026-04-18T09:40:24.631Z</time></trkpt><trkpt lat="43.8482771" lon="12.7227969"><ele>53.599999999999994</ele><time>2026-04-18T09:40:25.631Z</time></trkpt><trkpt lat="43.8482009" lon="12.7226855"><ele>54.199999999999996</ele><time>2026-04-18T09:40:26.632Z</time></trkpt><trkpt lat="43.8481362" lon="12.7225663"><ele>54.8</ele><time>2026-04-18T09:40:27.63Z</time></trkpt><trkpt lat="43.8480769" lon="12.7224538"><ele>55.4</ele><time>2026-04-18T09:40:28.63Z</time></trkpt><trkpt lat="43.8480161" lon="12.722345"><ele>56.0</ele><time>2026-04-18T09:40:29.631Z</time></trkpt><trkpt lat="43.8479632" lon="12.7222392"><ele>56.0</ele><time>2026-04-18T09:40:30.63Z</time></trkpt><trkpt lat="43.8479074" lon="12.7221351"><ele>55.99999999999999</ele><time>2026-04-18T09:40:31.63Z</time></trkpt><trkpt lat="43.8478555" lon="12.722021"><ele>55.99999999999999</ele><time>2026-04-18T09:40:32.63Z</time></trkpt><trkpt lat="43.8478134" lon="12.7219"><ele>56.0</ele><time>2026-04-18T09:40:33.631Z</time></trkpt><trkpt lat="43.8477768" lon="12.7217748"><ele>56.0</ele><time>2026-04-18T09:40:34.631Z</time></trkpt><trkpt lat="43.8477422" lon="12.7216405"><ele>55.8</ele><time>2026-04-18T09:40:35.63Z</time></trkpt><trkpt lat="43.8477113" lon="12.7215036"><ele>55.599999999999994</ele><time>2026-04-18T09:40:36.63Z</time></trkpt><trkpt lat="43.8476832" lon="12.7213666"><ele>55.4</ele><time>2026-04-18T09:40:37.63Z</time></trkpt><trkpt lat="43.8476539" lon="12.7212282"><ele>55.2</ele><time>2026-04-18T09:40:38.631Z</time></trkpt><trkpt lat="43.847623" lon="12.7210909"><ele>55.0</ele><time>2026-04-18T09:40:39.63Z</time></trkpt><trkpt lat="43.8475898" lon="12.720954"><ele>54.8</ele><time>2026-04-18T09:40:40.63Z</time></trkpt><trkpt lat="43.8475477" lon="12.7208243"><ele>54.6</ele><time>2026-04-18T09:40:41.629Z</time></trkpt><trkpt lat="43.8475007" lon="12.7206947"><ele>54.400000000000006</ele><time>2026-04-18T09:40:42.63Z</time></trkpt><trkpt lat="43.8474558" lon="12.7205508"><ele>54.2</ele><time>2026-04-18T09:40:43.63Z</time></trkpt><trkpt lat="43.8474152" lon="12.7203953"><ele>54.0</ele><time>2026-04-18T09:40:44.631Z</time></trkpt><trkpt lat="43.8473846" lon="12.7202284"><ele>54.0</ele><time>2026-04-18T09:40:45.63Z</time></trkpt><trkpt lat="43.8473753" lon="12.7200507"><ele>54.0</ele><time>2026-04-18T09:40:46.631Z</time></trkpt><trkpt lat="43.8473781" lon="12.7198533"><ele>54.0</ele><time>2026-04-18T09:40:47.631Z</time></trkpt><trkpt lat="43.8473721" lon="12.7196389"><ele>54.0</ele><time>2026-04-18T09:40:48.631Z</time></trkpt><trkpt lat="43.847343" lon="12.7194096"><ele>54.33333333333333</ele><time>2026-04-18T09:40:49.631Z</time></trkpt><trkpt lat="43.8472985" lon="12.7191713"><ele>54.666666666666664</ele><time>2026-04-18T09:40:50.631Z</time></trkpt><trkpt lat="43.8472545" lon="12.7189276"><ele>55.0</ele><time>2026-04-18T09:40:51.632Z</time></trkpt><trkpt lat="43.8472141" lon="12.7186869"><ele>54.666666666666664</ele><time>2026-04-18T09:40:52.63Z</time></trkpt><trkpt lat="43.8471708" lon="12.7184377"><ele>54.33333333333333</ele><time>2026-04-18T09:40:53.631Z</time></trkpt><trkpt lat="43.8471164" lon="12.7181638"><ele>54.0</ele><time>2026-04-18T09:40:54.631Z</time></trkpt><trkpt lat="43.8470527" lon="12.7178618"><ele>54.0</ele><time>2026-04-18T09:40:55.631Z</time></trkpt><trkpt lat="43.847" lon="12.7175308"><ele>54.0</ele><time>2026-04-18T09:40:56.631Z</time></trkpt><trkpt lat="43.8469573" lon="12.7172078"><ele>54.0</ele><time>2026-04-18T09:40:57.632Z</time></trkpt><trkpt lat="43.8469146" lon="12.7169108"><ele>54.0</ele><time>2026-04-18T09:40:58.629Z</time></trkpt><trkpt lat="43.8468692" lon="12.716642"><ele>54.0</ele><time>2026-04-18T09:40:59.629Z</time></trkpt><trkpt lat="43.846827" lon="12.7163981"><ele>54.33333333333333</ele><time>2026-04-18T09:41:00.63Z</time></trkpt><trkpt lat="43.8467816" lon="12.7161776"><ele>54.666666666666664</ele><time>2026-04-18T09:41:01.631Z</time></trkpt><trkpt lat="43.8467358" lon="12.7159719"><ele>55.0</ele><time>2026-04-18T09:41:02.631Z</time></trkpt><trkpt lat="43.8466761" lon="12.7157819"><ele>55.0</ele><time>2026-04-18T09:41:03.631Z</time></trkpt><trkpt lat="43.846603" lon="12.7155936"><ele>55.0</ele><time>2026-04-18T09:41:04.63Z</time></trkpt><trkpt lat="43.8465131" lon="12.7154035"><ele>55.0</ele><time>2026-04-18T09:41:05.63Z</time></trkpt><trkpt lat="43.8464025" lon="12.7151983"><ele>54.33333333333333</ele><time>2026-04-18T09:41:06.63Z</time></trkpt><trkpt lat="43.8462793" lon="12.7149792"><ele>53.66666666666667</ele><time>2026-04-18T09:41:07.63Z</time></trkpt><trkpt lat="43.8461575" lon="12.7147349"><ele>53.0</ele><time>2026-04-18T09:41:08.629Z</time></trkpt><trkpt lat="43.846033" lon="12.7144826"><ele>55.5</ele><time>2026-04-18T09:41:09.628Z</time></trkpt><trkpt lat="43.8459011" lon="12.7142226"><ele>58.0</ele><time>2026-04-18T09:41:10.63Z</time></trkpt><trkpt lat="43.845751" lon="12.7139642"><ele>58.0</ele><time>2026-04-18T09:41:11.629Z</time></trkpt><trkpt lat="43.8455922" lon="12.7136841"><ele>58.0</ele><time>2026-04-18T09:41:12.63Z</time></trkpt><trkpt lat="43.8454226" lon="12.7133844"><ele>57.5</ele><time>2026-04-18T09:41:13.629Z</time></trkpt><trkpt lat="43.8452484" lon="12.713065"><ele>57.0</ele><time>2026-04-18T09:41:14.63Z</time></trkpt><trkpt lat="43.8450631" lon="12.71273"><ele>57.0</ele><time>2026-04-18T09:41:15.63Z</time></trkpt><trkpt lat="43.8448665" lon="12.7123948"><ele>57.0</ele><time>2026-04-18T09:41:16.629Z</time></trkpt><trkpt lat="43.8446861" lon="12.7120627"><ele>56.0</ele><time>2026-04-18T09:41:17.631Z</time></trkpt><trkpt lat="43.844522" lon="12.7117447"><ele>55.0</ele><time>2026-04-18T09:41:18.632Z</time></trkpt><trkpt lat="43.8443637" lon="12.7114479"><ele>56.5</ele><time>2026-04-18T09:41:19.63Z</time></trkpt><trkpt lat="43.844213" lon="12.7111656"><ele>58.0</ele><time>2026-04-18T09:41:20.631Z</time></trkpt><trkpt lat="43.8440648" lon="12.710906"><ele>58.0</ele><time>2026-04-18T09:41:21.631Z</time></trkpt><trkpt lat="43.843927" lon="12.7106573"><ele>58.0</ele><time>2026-04-18T09:41:22.631Z</time></trkpt><trkpt lat="43.8437898" lon="12.7104201"><ele>58.0</ele><time>2026-04-18T09:41:23.631Z</time></trkpt><trkpt lat="43.8436477" lon="12.7101944"><ele>58.33333333333333</ele><time>2026-04-18T09:41:24.631Z</time></trkpt><trkpt lat="43.8434864" lon="12.7099938"><ele>58.66666666666667</ele><time>2026-04-18T09:41:25.63Z</time></trkpt><trkpt lat="43.8433069" lon="12.7098193"><ele>59.0</ele><time>2026-04-18T09:41:26.631Z</time></trkpt><trkpt lat="43.8431182" lon="12.7096659"><ele>59.0</ele><time>2026-04-18T09:41:27.63Z</time></trkpt><trkpt lat="43.8429299" lon="12.7095263"><ele>59.0</ele><time>2026-04-18T09:41:28.629Z</time></trkpt><trkpt lat="43.8427479" lon="12.7094026"><ele>59.0</ele><time>2026-04-18T09:41:29.63Z</time></trkpt><trkpt lat="43.8425784" lon="12.7092848"><ele>60.66666666666667</ele><time>2026-04-18T09:41:30.629Z</time></trkpt><trkpt lat="43.8424185" lon="12.7091736"><ele>62.33333333333333</ele><time>2026-04-18T09:41:31.63Z</time></trkpt><trkpt lat="43.842264" lon="12.7090633"><ele>64.0</ele><time>2026-04-18T09:41:32.63Z</time></trkpt><trkpt lat="43.8421139" lon="12.7089587"><ele>64.0</ele><time>2026-04-18T09:41:33.63Z</time></trkpt><trkpt lat="43.8419715" lon="12.7088532"><ele>64.0</ele><time>2026-04-18T09:41:34.63Z</time></trkpt><trkpt lat="43.8418428" lon="12.7087286"><ele>64.0</ele><time>2026-04-18T09:41:35.632Z</time></trkpt><trkpt lat="43.8417294" lon="12.7085805"><ele>65.0</ele><time>2026-04-18T09:41:36.63Z</time></trkpt><trkpt lat="43.8416239" lon="12.7084069"><ele>66.0</ele><time>2026-04-18T09:41:37.632Z</time></trkpt><trkpt lat="43.8415121" lon="12.7082173"><ele>67.0</ele><time>2026-04-18T09:41:38.63Z</time></trkpt><trkpt lat="43.8414011" lon="12.7080095"><ele>67.0</ele><time>2026-04-18T09:41:39.63Z</time></trkpt><trkpt lat="43.8412994" lon="12.707795"><ele>67.0</ele><time>2026-04-18T09:41:40.631Z</time></trkpt><trkpt lat="43.8411996" lon="12.7075773"><ele>67.0</ele><time>2026-04-18T09:41:41.63Z</time></trkpt><trkpt lat="43.8411004" lon="12.7073566"><ele>66.33333333333333</ele><time>2026-04-18T09:41:42.63Z</time></trkpt><trkpt lat="43.8410026" lon="12.7071401"><ele>65.66666666666667</ele><time>2026-04-18T09:41:43.63Z</time></trkpt><trkpt lat="43.84091" lon="12.706939"><ele>65.0</ele><time>2026-04-18T09:41:44.631Z</time></trkpt><trkpt lat="43.840819" lon="12.7067404"><ele>66.33333333333334</ele><time>2026-04-18T09:41:45.632Z</time></trkpt><trkpt lat="43.8407242" lon="12.7065449"><ele>67.66666666666667</ele><time>2026-04-18T09:41:46.63Z</time></trkpt><trkpt lat="43.8406279" lon="12.7063512"><ele>69.0</ele><time>2026-04-18T09:41:47.63Z</time></trkpt><trkpt lat="43.8405306" lon="12.7061541"><ele>69.33333333333333</ele><time>2026-04-18T09:41:48.631Z</time></trkpt><trkpt lat="43.8404307" lon="12.7059581"><ele>69.66666666666666</ele><time>2026-04-18T09:41:49.631Z</time></trkpt><trkpt lat="43.8403321" lon="12.7057639"><ele>70.0</ele><time>2026-04-18T09:41:50.631Z</time></trkpt><trkpt lat="43.8402336" lon="12.7055681"><ele>70.0</ele><time>2026-04-18T09:41:51.63Z</time></trkpt><trkpt lat="43.8401363" lon="12.7053732"><ele>70.0</ele><time>2026-04-18T09:41:52.629Z</time></trkpt><trkpt lat="43.8400382" lon="12.7051814"><ele>70.0</ele><time>2026-04-18T09:41:53.63Z</time></trkpt><trkpt lat="43.8399399" lon="12.7049951"><ele>70.33333333333333</ele><time>2026-04-18T09:41:54.629Z</time></trkpt><trkpt lat="43.8398415" lon="12.7048024"><ele>70.66666666666667</ele><time>2026-04-18T09:41:55.629Z</time></trkpt><trkpt lat="43.8397482" lon="12.704604"><ele>71.0</ele><time>2026-04-18T09:41:56.629Z</time></trkpt><trkpt lat="43.8396527" lon="12.7044105"><ele>72.33333333333334</ele><time>2026-04-18T09:41:57.629Z</time></trkpt><trkpt lat="43.8395621" lon="12.7042142"><ele>73.66666666666667</ele><time>2026-04-18T09:41:58.629Z</time></trkpt><trkpt lat="43.839476" lon="12.7040126"><ele>75.0</ele><time>2026-04-18T09:41:59.629Z</time></trkpt><trkpt lat="43.8393934" lon="12.7038086"><ele>75.0</ele><time>2026-04-18T09:42:00.629Z</time></trkpt><trkpt lat="43.8393302" lon="12.7035895"><ele>75.0</ele><time>2026-04-18T09:42:01.629Z</time></trkpt><trkpt lat="43.8392943" lon="12.703366"><ele>75.0</ele><time>2026-04-18T09:42:02.629Z</time></trkpt><trkpt lat="43.8392769" lon="12.7031488"><ele>75.0</ele><time>2026-04-18T09:42:03.64Z</time></trkpt><trkpt lat="43.8392714" lon="12.7029318"><ele>75.0</ele><time>2026-04-18T09:42:04.629Z</time></trkpt><trkpt lat="43.8392744" lon="12.7027075"><ele>75.0</ele><time>2026-04-18T09:42:05.63Z</time></trkpt><trkpt lat="43.8392806" lon="12.7024562"><ele>75.0</ele><time>2026-04-18T09:42:06.631Z</time></trkpt><trkpt lat="43.8392865" lon="12.7021893"><ele>75.0</ele><time>2026-04-18T09:42:07.632Z</time></trkpt><trkpt lat="43.8392954" lon="12.7019141"><ele>75.0</ele><time>2026-04-18T09:42:08.631Z</time></trkpt><trkpt lat="43.8393008" lon="12.7016519"><ele>77.0</ele><time>2026-04-18T09:42:09.629Z</time></trkpt><trkpt lat="43.839306" lon="12.701418"><ele>79.0</ele><time>2026-04-18T09:42:10.632Z</time></trkpt><trkpt lat="43.8393088" lon="12.7012023"><ele>81.0</ele><time>2026-04-18T09:42:11.63Z</time></trkpt><trkpt lat="43.8393091" lon="12.7009986"><ele>81.0</ele><time>2026-04-18T09:42:12.629Z</time></trkpt><trkpt lat="43.8393104" lon="12.7008054"><ele>81.0</ele><time>2026-04-18T09:42:13.629Z</time></trkpt><trkpt lat="43.8393055" lon="12.7006146"><ele>81.0</ele><time>2026-04-18T09:42:14.629Z</time></trkpt><trkpt lat="43.8392938" lon="12.7004232"><ele>81.0</ele><time>2026-04-18T09:42:15.629Z</time></trkpt><trkpt lat="43.8392703" lon="12.7002298"><ele>80.75</ele><time>2026-04-18T09:42:16.629Z</time></trkpt><trkpt lat="43.8392327" lon="12.7000376"><ele>80.5</ele><time>2026-04-18T09:42:17.63Z</time></trkpt><trkpt lat="43.83918" lon="12.699849"><ele>80.25</ele><time>2026-04-18T09:42:18.629Z</time></trkpt><trkpt lat="43.8391121" lon="12.69966"><ele>80.0</ele><time>2026-04-18T09:42:19.629Z</time></trkpt><trkpt lat="43.8390321" lon="12.6994563"><ele>80.66666666666667</ele><time>2026-04-18T09:42:20.631Z</time></trkpt><trkpt lat="43.8389354" lon="12.6992202"><ele>81.33333333333333</ele><time>2026-04-18T09:42:21.629Z</time></trkpt><trkpt lat="43.8388243" lon="12.6989436"><ele>82.0</ele><time>2026-04-18T09:42:22.629Z</time></trkpt><trkpt lat="43.8386995" lon="12.6986311"><ele>81.5</ele><time>2026-04-18T09:42:23.629Z</time></trkpt><trkpt lat="43.838566" lon="12.6983016"><ele>81.0</ele><time>2026-04-18T09:42:24.629Z</time></trkpt><trkpt lat="43.8384347" lon="12.6979806"><ele>81.5</ele><time>2026-04-18T09:42:25.633Z</time></trkpt><trkpt lat="43.838312" lon="12.697662"><ele>82.0</ele><time>2026-04-18T09:42:26.629Z</time></trkpt><trkpt lat="43.8381945" lon="12.6973486"><ele>82.0</ele><time>2026-04-18T09:42:27.629Z</time></trkpt><trkpt lat="43.8380805" lon="12.6970395"><ele>82.0</ele><time>2026-04-18T09:42:28.629Z</time></trkpt><trkpt lat="43.8379625" lon="12.6967407"><ele>82.5</ele><time>2026-04-18T09:42:29.629Z</time></trkpt><trkpt lat="43.8378454" lon="12.6964507"><ele>83.0</ele><time>2026-04-18T09:42:30.628Z</time></trkpt><trkpt lat="43.837731" lon="12.6961627"><ele>81.5</ele><time>2026-04-18T09:42:31.629Z</time></trkpt><trkpt lat="43.837621" lon="12.6958764"><ele>80.0</ele><time>2026-04-18T09:42:32.629Z</time></trkpt><trkpt lat="43.8375118" lon="12.6955962"><ele>80.0</ele><time>2026-04-18T09:42:33.628Z</time></trkpt><trkpt lat="43.8374037" lon="12.6953195"><ele>80.0</ele><time>2026-04-18T09:42:34.629Z</time></trkpt><trkpt lat="43.8372935" lon="12.6950497"><ele>80.0</ele><time>2026-04-18T09:42:35.629Z</time></trkpt><trkpt lat="43.837188" lon="12.6947957"><ele>80.0</ele><time>2026-04-18T09:42:36.63Z</time></trkpt><trkpt lat="43.8370888" lon="12.6945589"><ele>80.0</ele><time>2026-04-18T09:42:37.628Z</time></trkpt><trkpt lat="43.8369964" lon="12.6943348"><ele>79.66666666666667</ele><time>2026-04-18T09:42:38.629Z</time></trkpt><trkpt lat="43.8369047" lon="12.6941202"><ele>79.33333333333333</ele><time>2026-04-18T09:42:39.629Z</time></trkpt><trkpt lat="43.836813" lon="12.6939084"><ele>79.0</ele><time>2026-04-18T09:42:40.629Z</time></trkpt><trkpt lat="43.8367249" lon="12.693705"><ele>80.33333333333333</ele><time>2026-04-18T09:42:41.628Z</time></trkpt><trkpt lat="43.8366426" lon="12.6935073"><ele>81.66666666666667</ele><time>2026-04-18T09:42:42.629Z</time></trkpt><trkpt lat="43.8365639" lon="12.6933174"><ele>83.0</ele><time>2026-04-18T09:42:43.629Z</time></trkpt><trkpt lat="43.8364897" lon="12.6931322"><ele>83.0</ele><time>2026-04-18T09:42:44.629Z</time></trkpt><trkpt lat="43.8364162" lon="12.6929443"><ele>83.0</ele><time>2026-04-18T09:42:45.629Z</time></trkpt><trkpt lat="43.8363392" lon="12.6927616"><ele>83.0</ele><time>2026-04-18T09:42:46.63Z</time></trkpt><trkpt lat="43.8362613" lon="12.6925763"><ele>83.75</ele><time>2026-04-18T09:42:47.631Z</time></trkpt><trkpt lat="43.8361912" lon="12.692393"><ele>84.5</ele><time>2026-04-18T09:42:48.629Z</time></trkpt><trkpt lat="43.836122" lon="12.6922137"><ele>85.25</ele><time>2026-04-18T09:42:49.629Z</time></trkpt><trkpt lat="43.8360562" lon="12.6920277"><ele>86.0</ele><time>2026-04-18T09:42:50.63Z</time></trkpt><trkpt lat="43.8359902" lon="12.6918168"><ele>86.0</ele><time>2026-04-18T09:42:51.63Z</time></trkpt><trkpt lat="43.8359283" lon="12.6915862"><ele>86.0</ele><time>2026-04-18T09:42:52.63Z</time></trkpt><trkpt lat="43.8358726" lon="12.6913457"><ele>86.0</ele><time>2026-04-18T09:42:53.63Z</time></trkpt><trkpt lat="43.835818" lon="12.6911058"><ele>85.66666666666667</ele><time>2026-04-18T09:42:54.629Z</time></trkpt><trkpt lat="43.8357602" lon="12.6908611"><ele>85.33333333333333</ele><time>2026-04-18T09:42:55.63Z</time></trkpt><trkpt lat="43.8356977" lon="12.6906136"><ele>85.0</ele><time>2026-04-18T09:42:56.63Z</time></trkpt><trkpt lat="43.8356367" lon="12.6903609"><ele>85.66666666666666</ele><time>2026-04-18T09:42:57.629Z</time></trkpt><trkpt lat="43.8355756" lon="12.6900969"><ele>86.33333333333333</ele><time>2026-04-18T09:42:58.629Z</time></trkpt><trkpt lat="43.8355147" lon="12.6898369"><ele>87.0</ele><time>2026-04-18T09:42:59.63Z</time></trkpt><trkpt lat="43.8354548" lon="12.6895784"><ele>87.33333333333333</ele><time>2026-04-18T09:43:00.629Z</time></trkpt><trkpt lat="43.8353979" lon="12.6893348"><ele>87.66666666666666</ele><time>2026-04-18T09:43:01.629Z</time></trkpt><trkpt lat="43.8353473" lon="12.689102"><ele>88.0</ele><time>2026-04-18T09:43:02.629Z</time></trkpt><trkpt lat="43.8353004" lon="12.688886"><ele>88.0</ele><time>2026-04-18T09:43:03.628Z</time></trkpt><trkpt lat="43.8352567" lon="12.6886885"><ele>88.0</ele><time>2026-04-18T09:43:04.631Z</time></trkpt><trkpt lat="43.8352139" lon="12.6884966"><ele>88.0</ele><time>2026-04-18T09:43:05.629Z</time></trkpt><trkpt lat="43.8351748" lon="12.6883167"><ele>88.0</ele><time>2026-04-18T09:43:06.631Z</time></trkpt><trkpt lat="43.8351363" lon="12.6881463"><ele>88.0</ele><time>2026-04-18T09:43:07.629Z</time></trkpt><trkpt lat="43.8350962" lon="12.6879799"><ele>88.0</ele><time>2026-04-18T09:43:08.629Z</time></trkpt><trkpt lat="43.8350496" lon="12.6878078"><ele>88.0</ele><time>2026-04-18T09:43:09.628Z</time></trkpt><trkpt lat="43.8350014" lon="12.6876377"><ele>88.0</ele><time>2026-04-18T09:43:10.629Z</time></trkpt><trkpt lat="43.8349405" lon="12.6874699"><ele>88.0</ele><time>2026-04-18T09:43:11.629Z</time></trkpt><trkpt lat="43.8348767" lon="12.6873023"><ele>88.0</ele><time>2026-04-18T09:43:12.628Z</time></trkpt><trkpt lat="43.8347969" lon="12.687143"><ele>88.0</ele><time>2026-04-18T09:43:13.629Z</time></trkpt><trkpt lat="43.8347023" lon="12.6870056"><ele>88.0</ele><time>2026-04-18T09:43:14.629Z</time></trkpt><trkpt lat="43.8345951" lon="12.6868871"><ele>88.25</ele><time>2026-04-18T09:43:15.629Z</time></trkpt><trkpt lat="43.8344831" lon="12.6867869"><ele>88.5</ele><time>2026-04-18T09:43:16.629Z</time></trkpt><trkpt lat="43.8343698" lon="12.6866905"><ele>88.75</ele><time>2026-04-18T09:43:17.633Z</time></trkpt><trkpt lat="43.8342549" lon="12.6865975"><ele>89.0</ele><time>2026-04-18T09:43:18.63Z</time></trkpt><trkpt lat="43.8341449" lon="12.686502"><ele>87.75</ele><time>2026-04-18T09:43:19.628Z</time></trkpt><trkpt lat="43.8340342" lon="12.6864001"><ele>86.5</ele><time>2026-04-18T09:43:20.629Z</time></trkpt><trkpt lat="43.8339186" lon="12.6862983"><ele>85.25</ele><time>2026-04-18T09:43:21.628Z</time></trkpt><trkpt lat="43.8338056" lon="12.6861965"><ele>84.0</ele><time>2026-04-18T09:43:22.632Z</time></trkpt><trkpt lat="43.8336998" lon="12.6861005"><ele>84.0</ele><time>2026-04-18T09:43:23.628Z</time></trkpt><trkpt lat="43.8336053" lon="12.686017"><ele>84.0</ele><time>2026-04-18T09:43:24.629Z</time></trkpt><trkpt lat="43.8335181" lon="12.6859432"><ele>84.0</ele><time>2026-04-18T09:43:25.629Z</time></trkpt><trkpt lat="43.8334352" lon="12.6858742"><ele>84.0</ele><time>2026-04-18T09:43:26.629Z</time></trkpt><trkpt lat="43.8333566" lon="12.6858064"><ele>84.0</ele><time>2026-04-18T09:43:27.629Z</time></trkpt><trkpt lat="43.8332789" lon="12.6857397"><ele>84.0</ele><time>2026-04-18T09:43:28.629Z</time></trkpt><trkpt lat="43.8331998" lon="12.6856718"><ele>84.0</ele><time>2026-04-18T09:43:29.629Z</time></trkpt><trkpt lat="43.8331188" lon="12.6855986"><ele>84.0</ele><time>2026-04-18T09:43:30.629Z</time></trkpt><trkpt lat="43.8330387" lon="12.6855322"><ele>84.0</ele><time>2026-04-18T09:43:31.629Z</time></trkpt><trkpt lat="43.8329614" lon="12.6854677"><ele>84.0</ele><time>2026-04-18T09:43:32.629Z</time></trkpt><trkpt lat="43.83289" lon="12.6854059"><ele>84.0</ele><time>2026-04-18T09:43:33.629Z</time></trkpt><trkpt lat="43.8328139" lon="12.6853474"><ele>84.0</ele><time>2026-04-18T09:43:34.629Z</time></trkpt><trkpt lat="43.832735" lon="12.6852869"><ele>84.0</ele><time>2026-04-18T09:43:35.631Z</time></trkpt><trkpt lat="43.8326624" lon="12.6852222"><ele>84.0</ele><time>2026-04-18T09:43:36.631Z</time></trkpt><trkpt lat="43.832597" lon="12.6851587"><ele>84.0</ele><time>2026-04-18T09:43:37.629Z</time></trkpt><trkpt lat="43.8325367" lon="12.6850911"><ele>84.0</ele><time>2026-04-18T09:43:38.629Z</time></trkpt><trkpt lat="43.8324715" lon="12.6850209"><ele>83.2</ele><time>2026-04-18T09:43:39.629Z</time></trkpt><trkpt lat="43.8324009" lon="12.6849473"><ele>82.4</ele><time>2026-04-18T09:43:40.629Z</time></trkpt><trkpt lat="43.8323213" lon="12.6848712"><ele>81.6</ele><time>2026-04-18T09:43:41.63Z</time></trkpt><trkpt lat="43.8322391" lon="12.6847911"><ele>80.8</ele><time>2026-04-18T09:43:42.63Z</time></trkpt><trkpt lat="43.8321504" lon="12.6847"><ele>80.0</ele><time>2026-04-18T09:43:43.63Z</time></trkpt><trkpt lat="43.8320581" lon="12.6846155"><ele>80.0</ele><time>2026-04-18T09:43:44.63Z</time></trkpt><trkpt lat="43.8319693" lon="12.6845422"><ele>80.0</ele><time>2026-04-18T09:43:45.628Z</time></trkpt><trkpt lat="43.8318867" lon="12.684479"><ele>80.0</ele><time>2026-04-18T09:43:46.628Z</time></trkpt><trkpt lat="43.8318146" lon="12.6844186"><ele>80.0</ele><time>2026-04-18T09:43:47.63Z</time></trkpt><trkpt lat="43.8317506" lon="12.6843596"><ele>80.0</ele><time>2026-04-18T09:43:48.629Z</time></trkpt><trkpt lat="43.8316951" lon="12.6843136"><ele>80.0</ele><time>2026-04-18T09:43:49.628Z</time></trkpt><trkpt lat="43.8316305" lon="12.6843202"><ele>80.16666666666667</ele><time>2026-04-18T09:43:50.629Z</time></trkpt><trkpt lat="43.8315657" lon="12.6843641"><ele>80.33333333333334</ele><time>2026-04-18T09:43:51.629Z</time></trkpt><trkpt lat="43.8315127" lon="12.6844534"><ele>80.5</ele><time>2026-04-18T09:43:52.629Z</time></trkpt><trkpt lat="43.8314633" lon="12.6845678"><ele>80.66666666666667</ele><time>2026-04-18T09:43:53.629Z</time></trkpt><trkpt lat="43.8314127" lon="12.6846816"><ele>80.83333333333333</ele><time>2026-04-18T09:43:54.628Z</time></trkpt><trkpt lat="43.831364" lon="12.684788"><ele>81.0</ele><time>2026-04-18T09:43:55.629Z</time></trkpt><trkpt lat="43.8313145" lon="12.6848907"><ele>81.0</ele><time>2026-04-18T09:43:56.63Z</time></trkpt><trkpt lat="43.8312647" lon="12.6849994"><ele>81.0</ele><time>2026-04-18T09:43:57.629Z</time></trkpt><trkpt lat="43.831212" lon="12.6851113"><ele>81.0</ele><time>2026-04-18T09:43:58.629Z</time></trkpt><trkpt lat="43.8311567" lon="12.6852097"><ele>81.0</ele><time>2026-04-18T09:43:59.629Z</time></trkpt><trkpt lat="43.8310992" lon="12.6852942"><ele>81.0</ele><time>2026-04-18T09:44:00.63Z</time></trkpt><trkpt lat="43.8310224" lon="12.6853429"><ele>81.0</ele><time>2026-04-18T09:44:01.632Z</time></trkpt><trkpt lat="43.8309269" lon="12.6853589"><ele>81.0</ele><time>2026-04-18T09:44:02.629Z</time></trkpt><trkpt lat="43.8308255" lon="12.6853263"><ele>81.0</ele><time>2026-04-18T09:44:03.629Z</time></trkpt><trkpt lat="43.8307283" lon="12.6852506"><ele>81.0</ele><time>2026-04-18T09:44:04.629Z</time></trkpt><trkpt lat="43.8306405" lon="12.6851558"><ele>81.0</ele><time>2026-04-18T09:44:05.632Z</time></trkpt><trkpt lat="43.8305617" lon="12.6850665"><ele>81.0</ele><time>2026-04-18T09:44:06.629Z</time></trkpt><trkpt lat="43.8304886" lon="12.6849943"><ele>81.0</ele><time>2026-04-18T09:44:07.629Z</time></trkpt><trkpt lat="43.8304201" lon="12.6849402"><ele>81.0</ele><time>2026-04-18T09:44:08.629Z</time></trkpt><trkpt lat="43.8303379" lon="12.6848569"><ele>81.0</ele><time>2026-04-18T09:44:10.629Z</time></trkpt><trkpt lat="43.8303552" lon="12.6847372"><ele>81.0</ele><time>2026-04-18T09:44:13.629Z</time></trkpt><trkpt lat="43.8304005" lon="12.6846543"><ele>81.0</ele><time>2026-04-18T09:44:15.628Z</time></trkpt><trkpt lat="43.8304446" lon="12.6845911"><ele>81.0</ele><time>2026-04-18T09:44:17.628Z</time></trkpt><trkpt lat="43.8305076" lon="12.6846029"><ele>81.0</ele><time>2026-04-18T09:44:19.629Z</time></trkpt><trkpt lat="43.8305595" lon="12.68467"><ele>81.0</ele><time>2026-04-18T09:44:21.628Z</time></trkpt></trkseg></trk></gpx>